<?xml version="1.0" encoding="UTF-8" standalone="no" ?>
<gpx xmlns="http://www.topografix.com/GPX/1/1" xmlns:xsi="http://www.w3.org/2001/XMLSchema-instance" xsi:schemaLocation="http://www.topografix.com/GPX/1/1 http://www.topografix.com/GPX/1/1/gpx.xsd" version="1.1" creator="VisuGPX - https://www.visugpx.com">
  <metadata>
    <name>La vallée de la Mauldre IBP 78</name>
    <desc><![CDATA[Rando de JJL pour le Rif
Superbe parcours malgré une météo moyenne]]></desc>
  </metadata>
  <trk>
    <name><![CDATA[SityTrail - la vallée de la Mauldre]]></name>
    <desc><![CDATA[Rando de JJL pour le Rif
Superbe parcours malgré une météo moyenne]]></desc>
    <trkseg>
      <trkpt lat="48.96338" lon="1.80891">
        <ele>22</ele>
        <time>2024-12-16T08:08:36.986Z</time>
      </trkpt>
      <trkpt lat="48.96337" lon="1.80888">
        <ele>22</ele>
        <time>2024-12-16T08:08:37.986Z</time>
      </trkpt>
      <trkpt lat="48.96336" lon="1.80878">
        <ele>22</ele>
        <time>2024-12-16T08:08:42.985Z</time>
      </trkpt>
      <trkpt lat="48.96336" lon="1.80875">
        <ele>22</ele>
        <time>2024-12-16T08:08:47.690Z</time>
      </trkpt>
      <trkpt lat="48.96336" lon="1.80868">
        <ele>23</ele>
        <time>2024-12-16T08:08:52.075Z</time>
      </trkpt>
      <trkpt lat="48.96336" lon="1.80865">
        <ele>23</ele>
        <time>2024-12-16T08:09:12.985Z</time>
      </trkpt>
      <trkpt lat="48.96336" lon="1.80873">
        <ele>23</ele>
        <time>2024-12-16T08:09:17.471Z</time>
      </trkpt>
      <trkpt lat="48.96336" lon="1.80879">
        <ele>22</ele>
        <time>2024-12-16T08:09:21.548Z</time>
      </trkpt>
      <trkpt lat="48.96336" lon="1.80886">
        <ele>22</ele>
        <time>2024-12-16T08:09:25.695Z</time>
      </trkpt>
      <trkpt lat="48.96336" lon="1.80893">
        <ele>22</ele>
        <time>2024-12-16T08:09:30.193Z</time>
      </trkpt>
      <trkpt lat="48.96336" lon="1.809">
        <ele>22</ele>
        <time>2024-12-16T08:09:34.985Z</time>
      </trkpt>
      <trkpt lat="48.96338" lon="1.80909">
        <ele>21</ele>
        <time>2024-12-16T08:09:39.992Z</time>
      </trkpt>
      <trkpt lat="48.96338" lon="1.80917">
        <ele>21</ele>
        <time>2024-12-16T08:09:44.429Z</time>
      </trkpt>
      <trkpt lat="48.96338" lon="1.80925">
        <ele>21</ele>
        <time>2024-12-16T08:09:48.814Z</time>
      </trkpt>
      <trkpt lat="48.96339" lon="1.80933">
        <ele>21</ele>
        <time>2024-12-16T08:09:52.995Z</time>
      </trkpt>
      <trkpt lat="48.96339" lon="1.80943">
        <ele>21</ele>
        <time>2024-12-16T08:09:57.652Z</time>
      </trkpt>
      <trkpt lat="48.96338" lon="1.80952">
        <ele>21</ele>
        <time>2024-12-16T08:10:01.935Z</time>
      </trkpt>
      <trkpt lat="48.96338" lon="1.80961">
        <ele>21</ele>
        <time>2024-12-16T08:10:06.294Z</time>
      </trkpt>
      <trkpt lat="48.96338" lon="1.80969">
        <ele>21</ele>
        <time>2024-12-16T08:10:10.713Z</time>
      </trkpt>
      <trkpt lat="48.96339" lon="1.80977">
        <ele>21</ele>
        <time>2024-12-16T08:10:14.773Z</time>
      </trkpt>
      <trkpt lat="48.9634" lon="1.80985">
        <ele>21</ele>
        <time>2024-12-16T08:10:19.415Z</time>
      </trkpt>
      <trkpt lat="48.96342" lon="1.80991">
        <ele>22</ele>
        <time>2024-12-16T08:10:23.705Z</time>
      </trkpt>
      <trkpt lat="48.96343" lon="1.80998">
        <ele>22</ele>
        <time>2024-12-16T08:10:27.984Z</time>
      </trkpt>
      <trkpt lat="48.96346" lon="1.81004">
        <ele>22</ele>
        <time>2024-12-16T08:10:32.434Z</time>
      </trkpt>
      <trkpt lat="48.96347" lon="1.81006">
        <ele>22</ele>
        <time>2024-12-16T08:10:36.985Z</time>
      </trkpt>
      <trkpt lat="48.96347" lon="1.8101">
        <ele>22</ele>
        <time>2024-12-16T08:10:41.774Z</time>
      </trkpt>
      <trkpt lat="48.96347" lon="1.81014">
        <ele>22</ele>
        <time>2024-12-16T08:10:45.971Z</time>
      </trkpt>
      <trkpt lat="48.96346" lon="1.81017">
        <ele>22</ele>
        <time>2024-12-16T08:10:49.984Z</time>
      </trkpt>
      <trkpt lat="48.96344" lon="1.81018">
        <ele>22</ele>
        <time>2024-12-16T08:10:54.733Z</time>
      </trkpt>
      <trkpt lat="48.9634" lon="1.81015">
        <ele>22</ele>
        <time>2024-12-16T08:10:58.777Z</time>
      </trkpt>
      <trkpt lat="48.96336" lon="1.81013">
        <ele>22</ele>
        <time>2024-12-16T08:11:02.955Z</time>
      </trkpt>
      <trkpt lat="48.96335" lon="1.81007">
        <ele>22</ele>
        <time>2024-12-16T08:11:07.274Z</time>
      </trkpt>
      <trkpt lat="48.96336" lon="1.81">
        <ele>22</ele>
        <time>2024-12-16T08:11:11.470Z</time>
      </trkpt>
      <trkpt lat="48.96336" lon="1.80994">
        <ele>22</ele>
        <time>2024-12-16T08:11:15.693Z</time>
      </trkpt>
      <trkpt lat="48.96336" lon="1.80988">
        <ele>22</ele>
        <time>2024-12-16T08:11:19.985Z</time>
      </trkpt>
      <trkpt lat="48.96335" lon="1.80983">
        <ele>21</ele>
        <time>2024-12-16T08:11:24.573Z</time>
      </trkpt>
      <trkpt lat="48.96335" lon="1.80977">
        <ele>21</ele>
        <time>2024-12-16T08:11:28.754Z</time>
      </trkpt>
      <trkpt lat="48.96334" lon="1.8097">
        <ele>21</ele>
        <time>2024-12-16T08:11:33.172Z</time>
      </trkpt>
      <trkpt lat="48.96333" lon="1.80963">
        <ele>21</ele>
        <time>2024-12-16T08:11:37.473Z</time>
      </trkpt>
      <trkpt lat="48.96332" lon="1.80955">
        <ele>21</ele>
        <time>2024-12-16T08:11:41.755Z</time>
      </trkpt>
      <trkpt lat="48.96333" lon="1.80949">
        <ele>21</ele>
        <time>2024-12-16T08:11:45.985Z</time>
      </trkpt>
      <trkpt lat="48.96332" lon="1.80942">
        <ele>21</ele>
        <time>2024-12-16T08:11:50.533Z</time>
      </trkpt>
      <trkpt lat="48.96333" lon="1.80935">
        <ele>21</ele>
        <time>2024-12-16T08:11:54.926Z</time>
      </trkpt>
      <trkpt lat="48.96333" lon="1.80929">
        <ele>21</ele>
        <time>2024-12-16T08:11:59.780Z</time>
      </trkpt>
      <trkpt lat="48.96332" lon="1.80921">
        <ele>21</ele>
        <time>2024-12-16T08:12:04.183Z</time>
      </trkpt>
      <trkpt lat="48.96331" lon="1.80913">
        <ele>21</ele>
        <time>2024-12-16T08:12:08.584Z</time>
      </trkpt>
      <trkpt lat="48.9633" lon="1.80907">
        <ele>21</ele>
        <time>2024-12-16T08:12:13.007Z</time>
      </trkpt>
      <trkpt lat="48.96329" lon="1.80899">
        <ele>22</ele>
        <time>2024-12-16T08:12:17.484Z</time>
      </trkpt>
      <trkpt lat="48.96328" lon="1.80891">
        <ele>22</ele>
        <time>2024-12-16T08:12:21.988Z</time>
      </trkpt>
      <trkpt lat="48.96328" lon="1.80883">
        <ele>22</ele>
        <time>2024-12-16T08:12:25.985Z</time>
      </trkpt>
      <trkpt lat="48.96328" lon="1.80876">
        <ele>22</ele>
        <time>2024-12-16T08:12:30.524Z</time>
      </trkpt>
      <trkpt lat="48.96327" lon="1.80868">
        <ele>23</ele>
        <time>2024-12-16T08:12:34.944Z</time>
      </trkpt>
      <trkpt lat="48.96326" lon="1.80859">
        <ele>23</ele>
        <time>2024-12-16T08:12:39.465Z</time>
      </trkpt>
      <trkpt lat="48.96323" lon="1.80855">
        <ele>23</ele>
        <time>2024-12-16T08:12:43.843Z</time>
      </trkpt>
      <trkpt lat="48.9632" lon="1.80854">
        <ele>23</ele>
        <time>2024-12-16T08:12:48.406Z</time>
      </trkpt>
      <trkpt lat="48.96318" lon="1.80854">
        <ele>23</ele>
        <time>2024-12-16T08:14:00.984Z</time>
      </trkpt>
      <trkpt lat="48.96317" lon="1.80854">
        <ele>23</ele>
        <time>2024-12-16T08:14:04.984Z</time>
      </trkpt>
      <trkpt lat="48.96314" lon="1.80855">
        <ele>23</ele>
        <time>2024-12-16T08:14:08.984Z</time>
      </trkpt>
      <trkpt lat="48.96311" lon="1.80858">
        <ele>23</ele>
        <time>2024-12-16T08:14:13.347Z</time>
      </trkpt>
      <trkpt lat="48.96305" lon="1.80859">
        <ele>23</ele>
        <time>2024-12-16T08:14:17.683Z</time>
      </trkpt>
      <trkpt lat="48.96302" lon="1.80861">
        <ele>23</ele>
        <time>2024-12-16T08:14:21.724Z</time>
      </trkpt>
      <trkpt lat="48.96298" lon="1.80864">
        <ele>23</ele>
        <time>2024-12-16T08:14:26.365Z</time>
      </trkpt>
      <trkpt lat="48.96294" lon="1.80867">
        <ele>23</ele>
        <time>2024-12-16T08:14:30.863Z</time>
      </trkpt>
      <trkpt lat="48.96288" lon="1.80866">
        <ele>22</ele>
        <time>2024-12-16T08:14:35.306Z</time>
      </trkpt>
      <trkpt lat="48.96283" lon="1.80866">
        <ele>22</ele>
        <time>2024-12-16T08:14:39.985Z</time>
      </trkpt>
      <trkpt lat="48.96278" lon="1.80867">
        <ele>22</ele>
        <time>2024-12-16T08:14:44.323Z</time>
      </trkpt>
      <trkpt lat="48.96274" lon="1.80864">
        <ele>22</ele>
        <time>2024-12-16T08:14:48.804Z</time>
      </trkpt>
      <trkpt lat="48.9627" lon="1.80858">
        <ele>22</ele>
        <time>2024-12-16T08:14:53.245Z</time>
      </trkpt>
      <trkpt lat="48.96268" lon="1.80852">
        <ele>22</ele>
        <time>2024-12-16T08:14:57.263Z</time>
      </trkpt>
      <trkpt lat="48.96267" lon="1.80843">
        <ele>22</ele>
        <time>2024-12-16T08:15:01.844Z</time>
      </trkpt>
      <trkpt lat="48.96265" lon="1.80837">
        <ele>22</ele>
        <time>2024-12-16T08:15:06.307Z</time>
      </trkpt>
      <trkpt lat="48.96263" lon="1.80829">
        <ele>21</ele>
        <time>2024-12-16T08:15:10.725Z</time>
      </trkpt>
      <trkpt lat="48.96262" lon="1.8082">
        <ele>21</ele>
        <time>2024-12-16T08:15:15.985Z</time>
      </trkpt>
      <trkpt lat="48.96259" lon="1.80813">
        <ele>21</ele>
        <time>2024-12-16T08:15:20.527Z</time>
      </trkpt>
      <trkpt lat="48.96253" lon="1.80814">
        <ele>21</ele>
        <time>2024-12-16T08:15:24.946Z</time>
      </trkpt>
      <trkpt lat="48.96249" lon="1.80814">
        <ele>21</ele>
        <time>2024-12-16T08:15:29.504Z</time>
      </trkpt>
      <trkpt lat="48.96242" lon="1.80814">
        <ele>21</ele>
        <time>2024-12-16T08:15:33.844Z</time>
      </trkpt>
      <trkpt lat="48.96237" lon="1.80814">
        <ele>21</ele>
        <time>2024-12-16T08:15:37.984Z</time>
      </trkpt>
      <trkpt lat="48.96231" lon="1.80814">
        <ele>21</ele>
        <time>2024-12-16T08:15:42.222Z</time>
      </trkpt>
      <trkpt lat="48.96224" lon="1.80812">
        <ele>21</ele>
        <time>2024-12-16T08:15:46.985Z</time>
      </trkpt>
      <trkpt lat="48.96218" lon="1.80811">
        <ele>21</ele>
        <time>2024-12-16T08:15:51.366Z</time>
      </trkpt>
      <trkpt lat="48.96212" lon="1.80811">
        <ele>21</ele>
        <time>2024-12-16T08:15:55.785Z</time>
      </trkpt>
      <trkpt lat="48.96206" lon="1.8081">
        <ele>22</ele>
        <time>2024-12-16T08:16:00.221Z</time>
      </trkpt>
      <trkpt lat="48.96201" lon="1.8081">
        <ele>22</ele>
        <time>2024-12-16T08:16:04.564Z</time>
      </trkpt>
      <trkpt lat="48.96196" lon="1.8081">
        <ele>22</ele>
        <time>2024-12-16T08:16:08.893Z</time>
      </trkpt>
      <trkpt lat="48.96191" lon="1.80809">
        <ele>22</ele>
        <time>2024-12-16T08:16:12.984Z</time>
      </trkpt>
      <trkpt lat="48.96185" lon="1.80808">
        <ele>22</ele>
        <time>2024-12-16T08:16:17.323Z</time>
      </trkpt>
      <trkpt lat="48.9618" lon="1.80809">
        <ele>23</ele>
        <time>2024-12-16T08:16:21.445Z</time>
      </trkpt>
      <trkpt lat="48.96174" lon="1.80808">
        <ele>23</ele>
        <time>2024-12-16T08:16:25.727Z</time>
      </trkpt>
      <trkpt lat="48.96169" lon="1.80808">
        <ele>23</ele>
        <time>2024-12-16T08:16:29.966Z</time>
      </trkpt>
      <trkpt lat="48.96163" lon="1.80807">
        <ele>23</ele>
        <time>2024-12-16T08:16:34.266Z</time>
      </trkpt>
      <trkpt lat="48.96158" lon="1.80806">
        <ele>23</ele>
        <time>2024-12-16T08:16:38.541Z</time>
      </trkpt>
      <trkpt lat="48.96153" lon="1.80805">
        <ele>23</ele>
        <time>2024-12-16T08:16:42.808Z</time>
      </trkpt>
      <trkpt lat="48.96148" lon="1.80802">
        <ele>23</ele>
        <time>2024-12-16T08:16:46.883Z</time>
      </trkpt>
      <trkpt lat="48.96142" lon="1.80801">
        <ele>23</ele>
        <time>2024-12-16T08:16:51.105Z</time>
      </trkpt>
      <trkpt lat="48.96137" lon="1.80801">
        <ele>23</ele>
        <time>2024-12-16T08:16:55.448Z</time>
      </trkpt>
      <trkpt lat="48.96131" lon="1.80802">
        <ele>23</ele>
        <time>2024-12-16T08:16:59.960Z</time>
      </trkpt>
      <trkpt lat="48.96129" lon="1.80795">
        <ele>23</ele>
        <time>2024-12-16T08:17:04.405Z</time>
      </trkpt>
      <trkpt lat="48.9613" lon="1.80786">
        <ele>24</ele>
        <time>2024-12-16T08:17:09.005Z</time>
      </trkpt>
      <trkpt lat="48.96128" lon="1.80778">
        <ele>24</ele>
        <time>2024-12-16T08:17:13.243Z</time>
      </trkpt>
      <trkpt lat="48.96125" lon="1.80771">
        <ele>24</ele>
        <time>2024-12-16T08:17:17.627Z</time>
      </trkpt>
      <trkpt lat="48.96123" lon="1.80763">
        <ele>24</ele>
        <time>2024-12-16T08:17:22.165Z</time>
      </trkpt>
      <trkpt lat="48.9612" lon="1.80759">
        <ele>24</ele>
        <time>2024-12-16T08:17:26.984Z</time>
      </trkpt>
      <trkpt lat="48.96119" lon="1.8076">
        <ele>24</ele>
        <time>2024-12-16T08:17:32.985Z</time>
      </trkpt>
      <trkpt lat="48.96119" lon="1.8076">
        <ele>24</ele>
        <time>2024-12-16T08:17:38.984Z</time>
      </trkpt>
      <trkpt lat="48.96119" lon="1.8076">
        <ele>24</ele>
        <time>2024-12-16T08:17:43.985Z</time>
      </trkpt>
      <trkpt lat="48.96118" lon="1.8076">
        <ele>24</ele>
        <time>2024-12-16T08:17:48.984Z</time>
      </trkpt>
      <trkpt lat="48.96114" lon="1.80762">
        <ele>24</ele>
        <time>2024-12-16T08:17:53.404Z</time>
      </trkpt>
      <trkpt lat="48.96107" lon="1.80761">
        <ele>24</ele>
        <time>2024-12-16T08:17:57.865Z</time>
      </trkpt>
      <trkpt lat="48.96102" lon="1.8076">
        <ele>24</ele>
        <time>2024-12-16T08:18:02.387Z</time>
      </trkpt>
      <trkpt lat="48.96099" lon="1.80766">
        <ele>23</ele>
        <time>2024-12-16T08:18:06.806Z</time>
      </trkpt>
      <trkpt lat="48.96095" lon="1.80773">
        <ele>24</ele>
        <time>2024-12-16T08:18:11.166Z</time>
      </trkpt>
      <trkpt lat="48.96092" lon="1.80778">
        <ele>24</ele>
        <time>2024-12-16T08:18:15.483Z</time>
      </trkpt>
      <trkpt lat="48.96088" lon="1.80783">
        <ele>24</ele>
        <time>2024-12-16T08:18:19.566Z</time>
      </trkpt>
      <trkpt lat="48.96082" lon="1.80786">
        <ele>24</ele>
        <time>2024-12-16T08:18:23.723Z</time>
      </trkpt>
      <trkpt lat="48.96077" lon="1.80785">
        <ele>24</ele>
        <time>2024-12-16T08:18:27.984Z</time>
      </trkpt>
      <trkpt lat="48.96071" lon="1.80785">
        <ele>24</ele>
        <time>2024-12-16T08:18:32.286Z</time>
      </trkpt>
      <trkpt lat="48.96065" lon="1.80783">
        <ele>24</ele>
        <time>2024-12-16T08:18:36.705Z</time>
      </trkpt>
      <trkpt lat="48.9606" lon="1.80782">
        <ele>24</ele>
        <time>2024-12-16T08:18:40.944Z</time>
      </trkpt>
      <trkpt lat="48.96054" lon="1.80782">
        <ele>24</ele>
        <time>2024-12-16T08:18:45.262Z</time>
      </trkpt>
      <trkpt lat="48.96048" lon="1.80782">
        <ele>24</ele>
        <time>2024-12-16T08:18:49.620Z</time>
      </trkpt>
      <trkpt lat="48.96043" lon="1.80781">
        <ele>24</ele>
        <time>2024-12-16T08:18:53.985Z</time>
      </trkpt>
      <trkpt lat="48.96037" lon="1.8078">
        <ele>24</ele>
        <time>2024-12-16T08:18:58.363Z</time>
      </trkpt>
      <trkpt lat="48.96031" lon="1.8078">
        <ele>24</ele>
        <time>2024-12-16T08:19:02.647Z</time>
      </trkpt>
      <trkpt lat="48.96025" lon="1.80779">
        <ele>24</ele>
        <time>2024-12-16T08:19:06.984Z</time>
      </trkpt>
      <trkpt lat="48.9602" lon="1.80779">
        <ele>24</ele>
        <time>2024-12-16T08:19:11.408Z</time>
      </trkpt>
      <trkpt lat="48.96014" lon="1.80779">
        <ele>24</ele>
        <time>2024-12-16T08:19:15.766Z</time>
      </trkpt>
      <trkpt lat="48.96009" lon="1.80778">
        <ele>25</ele>
        <time>2024-12-16T08:19:19.985Z</time>
      </trkpt>
      <trkpt lat="48.96003" lon="1.80778">
        <ele>25</ele>
        <time>2024-12-16T08:19:24.347Z</time>
      </trkpt>
      <trkpt lat="48.95998" lon="1.80777">
        <ele>25</ele>
        <time>2024-12-16T08:19:28.750Z</time>
      </trkpt>
      <trkpt lat="48.95992" lon="1.80776">
        <ele>25</ele>
        <time>2024-12-16T08:19:32.984Z</time>
      </trkpt>
      <trkpt lat="48.95987" lon="1.80777">
        <ele>25</ele>
        <time>2024-12-16T08:19:37.484Z</time>
      </trkpt>
      <trkpt lat="48.95982" lon="1.80786">
        <ele>26</ele>
        <time>2024-12-16T08:19:41.989Z</time>
      </trkpt>
      <trkpt lat="48.95975" lon="1.80787">
        <ele>26</ele>
        <time>2024-12-16T08:19:46.348Z</time>
      </trkpt>
      <trkpt lat="48.9597" lon="1.80786">
        <ele>26</ele>
        <time>2024-12-16T08:19:50.826Z</time>
      </trkpt>
      <trkpt lat="48.95964" lon="1.80787">
        <ele>26</ele>
        <time>2024-12-16T08:19:55.264Z</time>
      </trkpt>
      <trkpt lat="48.95959" lon="1.80791">
        <ele>26</ele>
        <time>2024-12-16T08:19:59.707Z</time>
      </trkpt>
      <trkpt lat="48.95955" lon="1.80797">
        <ele>27</ele>
        <time>2024-12-16T08:20:04.245Z</time>
      </trkpt>
      <trkpt lat="48.95952" lon="1.80804">
        <ele>27</ele>
        <time>2024-12-16T08:20:08.665Z</time>
      </trkpt>
      <trkpt lat="48.95948" lon="1.8081">
        <ele>27</ele>
        <time>2024-12-16T08:20:13.083Z</time>
      </trkpt>
      <trkpt lat="48.95944" lon="1.80816">
        <ele>27</ele>
        <time>2024-12-16T08:20:17.423Z</time>
      </trkpt>
      <trkpt lat="48.95941" lon="1.80823">
        <ele>27</ele>
        <time>2024-12-16T08:20:21.786Z</time>
      </trkpt>
      <trkpt lat="48.95938" lon="1.8083">
        <ele>27</ele>
        <time>2024-12-16T08:20:26.187Z</time>
      </trkpt>
      <trkpt lat="48.95937" lon="1.80838">
        <ele>27</ele>
        <time>2024-12-16T08:20:30.348Z</time>
      </trkpt>
      <trkpt lat="48.95937" lon="1.80847">
        <ele>27</ele>
        <time>2024-12-16T08:20:34.603Z</time>
      </trkpt>
      <trkpt lat="48.95937" lon="1.80856">
        <ele>27</ele>
        <time>2024-12-16T08:20:38.985Z</time>
      </trkpt>
      <trkpt lat="48.95935" lon="1.80865">
        <ele>27</ele>
        <time>2024-12-16T08:20:43.527Z</time>
      </trkpt>
      <trkpt lat="48.95934" lon="1.80874">
        <ele>27</ele>
        <time>2024-12-16T08:20:47.843Z</time>
      </trkpt>
      <trkpt lat="48.95932" lon="1.80881">
        <ele>27</ele>
        <time>2024-12-16T08:20:52.124Z</time>
      </trkpt>
      <trkpt lat="48.95931" lon="1.8089">
        <ele>27</ele>
        <time>2024-12-16T08:20:56.287Z</time>
      </trkpt>
      <trkpt lat="48.9593" lon="1.80899">
        <ele>28</ele>
        <time>2024-12-16T08:21:00.605Z</time>
      </trkpt>
      <trkpt lat="48.95929" lon="1.80906">
        <ele>28</ele>
        <time>2024-12-16T08:21:04.984Z</time>
      </trkpt>
      <trkpt lat="48.95928" lon="1.80915">
        <ele>28</ele>
        <time>2024-12-16T08:21:09.468Z</time>
      </trkpt>
      <trkpt lat="48.95927" lon="1.80925">
        <ele>28</ele>
        <time>2024-12-16T08:21:13.928Z</time>
      </trkpt>
      <trkpt lat="48.95926" lon="1.80933">
        <ele>30</ele>
        <time>2024-12-16T08:21:18.289Z</time>
      </trkpt>
      <trkpt lat="48.95925" lon="1.80942">
        <ele>30</ele>
        <time>2024-12-16T08:21:22.708Z</time>
      </trkpt>
      <trkpt lat="48.95924" lon="1.80951">
        <ele>30</ele>
        <time>2024-12-16T08:21:27.424Z</time>
      </trkpt>
      <trkpt lat="48.9592" lon="1.80957">
        <ele>30</ele>
        <time>2024-12-16T08:21:31.663Z</time>
      </trkpt>
      <trkpt lat="48.95917" lon="1.80964">
        <ele>32</ele>
        <time>2024-12-16T08:21:35.843Z</time>
      </trkpt>
      <trkpt lat="48.95915" lon="1.80972">
        <ele>32</ele>
        <time>2024-12-16T08:21:40.186Z</time>
      </trkpt>
      <trkpt lat="48.95914" lon="1.80981">
        <ele>32</ele>
        <time>2024-12-16T08:21:44.443Z</time>
      </trkpt>
      <trkpt lat="48.95913" lon="1.80991">
        <ele>34</ele>
        <time>2024-12-16T08:21:48.869Z</time>
      </trkpt>
      <trkpt lat="48.95908" lon="1.80998">
        <ele>34</ele>
        <time>2024-12-16T08:21:53.927Z</time>
      </trkpt>
      <trkpt lat="48.95902" lon="1.80996">
        <ele>34</ele>
        <time>2024-12-16T08:21:58.330Z</time>
      </trkpt>
      <trkpt lat="48.95896" lon="1.80997">
        <ele>34</ele>
        <time>2024-12-16T08:22:02.586Z</time>
      </trkpt>
      <trkpt lat="48.9589" lon="1.81">
        <ele>34</ele>
        <time>2024-12-16T08:22:06.985Z</time>
      </trkpt>
      <trkpt lat="48.95884" lon="1.81001">
        <ele>34</ele>
        <time>2024-12-16T08:22:11.465Z</time>
      </trkpt>
      <trkpt lat="48.95879" lon="1.81">
        <ele>34</ele>
        <time>2024-12-16T08:22:15.987Z</time>
      </trkpt>
      <trkpt lat="48.95873" lon="1.81">
        <ele>35</ele>
        <time>2024-12-16T08:22:20.483Z</time>
      </trkpt>
      <trkpt lat="48.95869" lon="1.80999">
        <ele>35</ele>
        <time>2024-12-16T08:22:24.725Z</time>
      </trkpt>
      <trkpt lat="48.95864" lon="1.80997">
        <ele>35</ele>
        <time>2024-12-16T08:22:29.149Z</time>
      </trkpt>
      <trkpt lat="48.95859" lon="1.80997">
        <ele>35</ele>
        <time>2024-12-16T08:22:33.630Z</time>
      </trkpt>
      <trkpt lat="48.95854" lon="1.80996">
        <ele>35</ele>
        <time>2024-12-16T08:22:38.105Z</time>
      </trkpt>
      <trkpt lat="48.95849" lon="1.80994">
        <ele>35</ele>
        <time>2024-12-16T08:22:42.670Z</time>
      </trkpt>
      <trkpt lat="48.95843" lon="1.80993">
        <ele>35</ele>
        <time>2024-12-16T08:22:47.105Z</time>
      </trkpt>
      <trkpt lat="48.95837" lon="1.80992">
        <ele>35</ele>
        <time>2024-12-16T08:22:51.490Z</time>
      </trkpt>
      <trkpt lat="48.95831" lon="1.80992">
        <ele>35</ele>
        <time>2024-12-16T08:22:55.926Z</time>
      </trkpt>
      <trkpt lat="48.95825" lon="1.8099">
        <ele>35</ele>
        <time>2024-12-16T08:23:00.387Z</time>
      </trkpt>
      <trkpt lat="48.95819" lon="1.80988">
        <ele>37</ele>
        <time>2024-12-16T08:23:04.849Z</time>
      </trkpt>
      <trkpt lat="48.95814" lon="1.80986">
        <ele>37</ele>
        <time>2024-12-16T08:23:09.369Z</time>
      </trkpt>
      <trkpt lat="48.95809" lon="1.80984">
        <ele>37</ele>
        <time>2024-12-16T08:23:13.847Z</time>
      </trkpt>
      <trkpt lat="48.95803" lon="1.80983">
        <ele>37</ele>
        <time>2024-12-16T08:23:18.044Z</time>
      </trkpt>
      <trkpt lat="48.95797" lon="1.80982">
        <ele>37</ele>
        <time>2024-12-16T08:23:22.343Z</time>
      </trkpt>
      <trkpt lat="48.95791" lon="1.80981">
        <ele>40</ele>
        <time>2024-12-16T08:23:26.728Z</time>
      </trkpt>
      <trkpt lat="48.95785" lon="1.8098">
        <ele>40</ele>
        <time>2024-12-16T08:23:31.087Z</time>
      </trkpt>
      <trkpt lat="48.95779" lon="1.8098">
        <ele>40</ele>
        <time>2024-12-16T08:23:35.429Z</time>
      </trkpt>
      <trkpt lat="48.95773" lon="1.8098">
        <ele>40</ele>
        <time>2024-12-16T08:23:39.788Z</time>
      </trkpt>
      <trkpt lat="48.95768" lon="1.8098">
        <ele>40</ele>
        <time>2024-12-16T08:23:44.088Z</time>
      </trkpt>
      <trkpt lat="48.95763" lon="1.80979">
        <ele>42</ele>
        <time>2024-12-16T08:23:48.489Z</time>
      </trkpt>
      <trkpt lat="48.95757" lon="1.80978">
        <ele>42</ele>
        <time>2024-12-16T08:23:52.984Z</time>
      </trkpt>
      <trkpt lat="48.95752" lon="1.80979">
        <ele>42</ele>
        <time>2024-12-16T08:23:57.965Z</time>
      </trkpt>
      <trkpt lat="48.95749" lon="1.80982">
        <ele>42</ele>
        <time>2024-12-16T08:24:00.846Z</time>
      </trkpt>
      <trkpt lat="48.95746" lon="1.80988">
        <ele>43</ele>
        <time>2024-12-16T08:24:07.985Z</time>
      </trkpt>
      <trkpt lat="48.95745" lon="1.80985">
        <ele>42</ele>
        <time>2024-12-16T08:24:11.984Z</time>
      </trkpt>
      <trkpt lat="48.95743" lon="1.80977">
        <ele>42</ele>
        <time>2024-12-16T08:24:16.474Z</time>
      </trkpt>
      <trkpt lat="48.95738" lon="1.80977">
        <ele>42</ele>
        <time>2024-12-16T08:24:20.590Z</time>
      </trkpt>
      <trkpt lat="48.95732" lon="1.80977">
        <ele>43</ele>
        <time>2024-12-16T08:24:24.632Z</time>
      </trkpt>
      <trkpt lat="48.95726" lon="1.80976">
        <ele>43</ele>
        <time>2024-12-16T08:24:29.233Z</time>
      </trkpt>
      <trkpt lat="48.9572" lon="1.80976">
        <ele>43</ele>
        <time>2024-12-16T08:24:33.810Z</time>
      </trkpt>
      <trkpt lat="48.95714" lon="1.80978">
        <ele>43</ele>
        <time>2024-12-16T08:24:38.367Z</time>
      </trkpt>
      <trkpt lat="48.9571" lon="1.80982">
        <ele>43</ele>
        <time>2024-12-16T08:24:42.950Z</time>
      </trkpt>
      <trkpt lat="48.95707" lon="1.80987">
        <ele>42</ele>
        <time>2024-12-16T08:24:46.984Z</time>
      </trkpt>
      <trkpt lat="48.95707" lon="1.80994">
        <ele>42</ele>
        <time>2024-12-16T08:24:51.205Z</time>
      </trkpt>
      <trkpt lat="48.95706" lon="1.81001">
        <ele>42</ele>
        <time>2024-12-16T08:24:55.251Z</time>
      </trkpt>
      <trkpt lat="48.95706" lon="1.8101">
        <ele>42</ele>
        <time>2024-12-16T08:24:59.764Z</time>
      </trkpt>
      <trkpt lat="48.95705" lon="1.81018">
        <ele>42</ele>
        <time>2024-12-16T08:25:03.985Z</time>
      </trkpt>
      <trkpt lat="48.95704" lon="1.81027">
        <ele>42</ele>
        <time>2024-12-16T08:25:08.429Z</time>
      </trkpt>
      <trkpt lat="48.95704" lon="1.81038">
        <ele>42</ele>
        <time>2024-12-16T08:25:12.991Z</time>
      </trkpt>
      <trkpt lat="48.95704" lon="1.81045">
        <ele>43</ele>
        <time>2024-12-16T08:25:17.331Z</time>
      </trkpt>
      <trkpt lat="48.95703" lon="1.81053">
        <ele>43</ele>
        <time>2024-12-16T08:25:21.386Z</time>
      </trkpt>
      <trkpt lat="48.95703" lon="1.81061">
        <ele>43</ele>
        <time>2024-12-16T08:25:25.793Z</time>
      </trkpt>
      <trkpt lat="48.95703" lon="1.81069">
        <ele>43</ele>
        <time>2024-12-16T08:25:29.985Z</time>
      </trkpt>
      <trkpt lat="48.95701" lon="1.81077">
        <ele>45</ele>
        <time>2024-12-16T08:25:34.374Z</time>
      </trkpt>
      <trkpt lat="48.957" lon="1.81085">
        <ele>45</ele>
        <time>2024-12-16T08:25:38.566Z</time>
      </trkpt>
      <trkpt lat="48.95699" lon="1.81095">
        <ele>45</ele>
        <time>2024-12-16T08:25:42.844Z</time>
      </trkpt>
      <trkpt lat="48.95698" lon="1.81103">
        <ele>47</ele>
        <time>2024-12-16T08:25:47.229Z</time>
      </trkpt>
      <trkpt lat="48.95698" lon="1.81112">
        <ele>47</ele>
        <time>2024-12-16T08:25:51.665Z</time>
      </trkpt>
      <trkpt lat="48.95697" lon="1.81121">
        <ele>47</ele>
        <time>2024-12-16T08:25:55.984Z</time>
      </trkpt>
      <trkpt lat="48.95698" lon="1.8113">
        <ele>48</ele>
        <time>2024-12-16T08:26:00.330Z</time>
      </trkpt>
      <trkpt lat="48.95698" lon="1.81138">
        <ele>48</ele>
        <time>2024-12-16T08:26:04.652Z</time>
      </trkpt>
      <trkpt lat="48.95697" lon="1.81148">
        <ele>48</ele>
        <time>2024-12-16T08:26:08.969Z</time>
      </trkpt>
      <trkpt lat="48.95697" lon="1.81156">
        <ele>50</ele>
        <time>2024-12-16T08:26:13.328Z</time>
      </trkpt>
      <trkpt lat="48.95696" lon="1.81165">
        <ele>50</ele>
        <time>2024-12-16T08:26:17.645Z</time>
      </trkpt>
      <trkpt lat="48.95695" lon="1.81175">
        <ele>50</ele>
        <time>2024-12-16T08:26:22.525Z</time>
      </trkpt>
      <trkpt lat="48.95695" lon="1.81184">
        <ele>52</ele>
        <time>2024-12-16T08:26:27.007Z</time>
      </trkpt>
      <trkpt lat="48.95692" lon="1.81194">
        <ele>52</ele>
        <time>2024-12-16T08:26:31.569Z</time>
      </trkpt>
      <trkpt lat="48.95689" lon="1.81204">
        <ele>52</ele>
        <time>2024-12-16T08:26:35.683Z</time>
      </trkpt>
      <trkpt lat="48.95687" lon="1.81211">
        <ele>52</ele>
        <time>2024-12-16T08:26:39.947Z</time>
      </trkpt>
      <trkpt lat="48.95684" lon="1.81219">
        <ele>52</ele>
        <time>2024-12-16T08:26:44.263Z</time>
      </trkpt>
      <trkpt lat="48.95681" lon="1.81226">
        <ele>52</ele>
        <time>2024-12-16T08:26:48.563Z</time>
      </trkpt>
      <trkpt lat="48.95678" lon="1.81233">
        <ele>56</ele>
        <time>2024-12-16T08:26:52.787Z</time>
      </trkpt>
      <trkpt lat="48.95674" lon="1.81238">
        <ele>56</ele>
        <time>2024-12-16T08:26:56.873Z</time>
      </trkpt>
      <trkpt lat="48.95669" lon="1.81243">
        <ele>56</ele>
        <time>2024-12-16T08:27:01.173Z</time>
      </trkpt>
      <trkpt lat="48.95665" lon="1.81248">
        <ele>56</ele>
        <time>2024-12-16T08:27:05.438Z</time>
      </trkpt>
      <trkpt lat="48.9566" lon="1.8125">
        <ele>56</ele>
        <time>2024-12-16T08:27:09.738Z</time>
      </trkpt>
      <trkpt lat="48.95656" lon="1.81248">
        <ele>56</ele>
        <time>2024-12-16T08:27:14.099Z</time>
      </trkpt>
      <trkpt lat="48.9565" lon="1.81248">
        <ele>60</ele>
        <time>2024-12-16T08:27:18.678Z</time>
      </trkpt>
      <trkpt lat="48.95644" lon="1.81246">
        <ele>60</ele>
        <time>2024-12-16T08:27:23.277Z</time>
      </trkpt>
      <trkpt lat="48.95638" lon="1.81244">
        <ele>60</ele>
        <time>2024-12-16T08:27:27.475Z</time>
      </trkpt>
      <trkpt lat="48.95633" lon="1.81241">
        <ele>60</ele>
        <time>2024-12-16T08:27:31.918Z</time>
      </trkpt>
      <trkpt lat="48.95628" lon="1.81242">
        <ele>60</ele>
        <time>2024-12-16T08:27:36.315Z</time>
      </trkpt>
      <trkpt lat="48.95621" lon="1.81245">
        <ele>60</ele>
        <time>2024-12-16T08:27:40.997Z</time>
      </trkpt>
      <trkpt lat="48.95616" lon="1.8125">
        <ele>60</ele>
        <time>2024-12-16T08:27:45.798Z</time>
      </trkpt>
      <trkpt lat="48.95611" lon="1.81254">
        <ele>60</ele>
        <time>2024-12-16T08:27:49.936Z</time>
      </trkpt>
      <trkpt lat="48.95606" lon="1.81259">
        <ele>60</ele>
        <time>2024-12-16T08:27:54.193Z</time>
      </trkpt>
      <trkpt lat="48.95601" lon="1.81265">
        <ele>59</ele>
        <time>2024-12-16T08:27:58.552Z</time>
      </trkpt>
      <trkpt lat="48.95596" lon="1.81272">
        <ele>61</ele>
        <time>2024-12-16T08:28:03.009Z</time>
      </trkpt>
      <trkpt lat="48.95593" lon="1.81279">
        <ele>61</ele>
        <time>2024-12-16T08:28:07.398Z</time>
      </trkpt>
      <trkpt lat="48.95591" lon="1.81286">
        <ele>61</ele>
        <time>2024-12-16T08:28:11.757Z</time>
      </trkpt>
      <trkpt lat="48.95588" lon="1.81294">
        <ele>60</ele>
        <time>2024-12-16T08:28:16.697Z</time>
      </trkpt>
      <trkpt lat="48.95585" lon="1.81302">
        <ele>60</ele>
        <time>2024-12-16T08:28:21.116Z</time>
      </trkpt>
      <trkpt lat="48.95583" lon="1.8131">
        <ele>60</ele>
        <time>2024-12-16T08:28:25.416Z</time>
      </trkpt>
      <trkpt lat="48.9558" lon="1.81317">
        <ele>60</ele>
        <time>2024-12-16T08:28:29.911Z</time>
      </trkpt>
      <trkpt lat="48.95577" lon="1.81323">
        <ele>59</ele>
        <time>2024-12-16T08:28:33.937Z</time>
      </trkpt>
      <trkpt lat="48.95572" lon="1.81326">
        <ele>59</ele>
        <time>2024-12-16T08:28:38.562Z</time>
      </trkpt>
      <trkpt lat="48.95565" lon="1.81333">
        <ele>63</ele>
        <time>2024-12-16T08:28:45.985Z</time>
      </trkpt>
      <trkpt lat="48.95564" lon="1.81345">
        <ele>63</ele>
        <time>2024-12-16T08:28:50.242Z</time>
      </trkpt>
      <trkpt lat="48.95559" lon="1.81346">
        <ele>63</ele>
        <time>2024-12-16T08:28:54.514Z</time>
      </trkpt>
      <trkpt lat="48.95557" lon="1.81354">
        <ele>63</ele>
        <time>2024-12-16T08:28:58.984Z</time>
      </trkpt>
      <trkpt lat="48.95553" lon="1.81361">
        <ele>63</ele>
        <time>2024-12-16T08:29:03.984Z</time>
      </trkpt>
      <trkpt lat="48.9555" lon="1.81368">
        <ele>63</ele>
        <time>2024-12-16T08:29:08.984Z</time>
      </trkpt>
      <trkpt lat="48.95542" lon="1.81371">
        <ele>63</ele>
        <time>2024-12-16T08:29:26.984Z</time>
      </trkpt>
      <trkpt lat="48.95542" lon="1.81379">
        <ele>62</ele>
        <time>2024-12-16T08:29:31.357Z</time>
      </trkpt>
      <trkpt lat="48.95546" lon="1.8139">
        <ele>62</ele>
        <time>2024-12-16T08:29:35.631Z</time>
      </trkpt>
      <trkpt lat="48.9555" lon="1.81407">
        <ele>61</ele>
        <time>2024-12-16T08:29:39.752Z</time>
      </trkpt>
      <trkpt lat="48.9555" lon="1.81417">
        <ele>61</ele>
        <time>2024-12-16T08:29:43.984Z</time>
      </trkpt>
      <trkpt lat="48.95551" lon="1.81426">
        <ele>61</ele>
        <time>2024-12-16T08:29:48.411Z</time>
      </trkpt>
      <trkpt lat="48.95552" lon="1.81434">
        <ele>61</ele>
        <time>2024-12-16T08:29:52.591Z</time>
      </trkpt>
      <trkpt lat="48.95552" lon="1.81442">
        <ele>61</ele>
        <time>2024-12-16T08:29:56.985Z</time>
      </trkpt>
      <trkpt lat="48.95553" lon="1.81452">
        <ele>61</ele>
        <time>2024-12-16T08:30:01.651Z</time>
      </trkpt>
      <trkpt lat="48.95557" lon="1.81464">
        <ele>60</ele>
        <time>2024-12-16T08:30:28.734Z</time>
      </trkpt>
      <trkpt lat="48.95553" lon="1.81473">
        <ele>60</ele>
        <time>2024-12-16T08:30:33.237Z</time>
      </trkpt>
      <trkpt lat="48.95552" lon="1.81483">
        <ele>60</ele>
        <time>2024-12-16T08:30:37.315Z</time>
      </trkpt>
      <trkpt lat="48.9555" lon="1.81491">
        <ele>60</ele>
        <time>2024-12-16T08:30:41.572Z</time>
      </trkpt>
      <trkpt lat="48.95547" lon="1.81497">
        <ele>60</ele>
        <time>2024-12-16T08:30:45.977Z</time>
      </trkpt>
      <trkpt lat="48.95546" lon="1.81506">
        <ele>60</ele>
        <time>2024-12-16T08:30:50.393Z</time>
      </trkpt>
      <trkpt lat="48.95543" lon="1.81513">
        <ele>60</ele>
        <time>2024-12-16T08:30:54.454Z</time>
      </trkpt>
      <trkpt lat="48.95541" lon="1.81521">
        <ele>61</ele>
        <time>2024-12-16T08:30:58.899Z</time>
      </trkpt>
      <trkpt lat="48.95537" lon="1.81529">
        <ele>61</ele>
        <time>2024-12-16T08:31:03.457Z</time>
      </trkpt>
      <trkpt lat="48.95533" lon="1.81535">
        <ele>61</ele>
        <time>2024-12-16T08:31:07.933Z</time>
      </trkpt>
      <trkpt lat="48.95531" lon="1.81543">
        <ele>61</ele>
        <time>2024-12-16T08:31:12.412Z</time>
      </trkpt>
      <trkpt lat="48.9553" lon="1.81551">
        <ele>61</ele>
        <time>2024-12-16T08:31:16.933Z</time>
      </trkpt>
      <trkpt lat="48.95526" lon="1.81558">
        <ele>61</ele>
        <time>2024-12-16T08:31:21.377Z</time>
      </trkpt>
      <trkpt lat="48.95524" lon="1.81565">
        <ele>61</ele>
        <time>2024-12-16T08:31:25.395Z</time>
      </trkpt>
      <trkpt lat="48.95522" lon="1.81571">
        <ele>60</ele>
        <time>2024-12-16T08:31:29.593Z</time>
      </trkpt>
      <trkpt lat="48.95521" lon="1.81579">
        <ele>60</ele>
        <time>2024-12-16T08:31:33.997Z</time>
      </trkpt>
      <trkpt lat="48.95523" lon="1.81582">
        <ele>60</ele>
        <time>2024-12-16T08:31:37.985Z</time>
      </trkpt>
      <trkpt lat="48.95526" lon="1.81582">
        <ele>60</ele>
        <time>2024-12-16T08:31:43.377Z</time>
      </trkpt>
      <trkpt lat="48.95528" lon="1.81586">
        <ele>60</ele>
        <time>2024-12-16T08:31:47.985Z</time>
      </trkpt>
      <trkpt lat="48.95528" lon="1.81595">
        <ele>60</ele>
        <time>2024-12-16T08:31:52.985Z</time>
      </trkpt>
      <trkpt lat="48.95524" lon="1.81597">
        <ele>59</ele>
        <time>2024-12-16T08:31:56.192Z</time>
      </trkpt>
      <trkpt lat="48.95514" lon="1.81607">
        <ele>59</ele>
        <time>2024-12-16T08:32:05.853Z</time>
      </trkpt>
      <trkpt lat="48.95513" lon="1.81614">
        <ele>58</ele>
        <time>2024-12-16T08:32:10.003Z</time>
      </trkpt>
      <trkpt lat="48.95509" lon="1.81624">
        <ele>58</ele>
        <time>2024-12-16T08:32:14.537Z</time>
      </trkpt>
      <trkpt lat="48.95506" lon="1.81632">
        <ele>57</ele>
        <time>2024-12-16T08:32:18.556Z</time>
      </trkpt>
      <trkpt lat="48.95503" lon="1.8164">
        <ele>57</ele>
        <time>2024-12-16T08:32:22.814Z</time>
      </trkpt>
      <trkpt lat="48.95501" lon="1.81648">
        <ele>57</ele>
        <time>2024-12-16T08:32:26.874Z</time>
      </trkpt>
      <trkpt lat="48.955" lon="1.81657">
        <ele>57</ele>
        <time>2024-12-16T08:32:31.036Z</time>
      </trkpt>
      <trkpt lat="48.95498" lon="1.81666">
        <ele>57</ele>
        <time>2024-12-16T08:32:35.115Z</time>
      </trkpt>
      <trkpt lat="48.95495" lon="1.81674">
        <ele>57</ele>
        <time>2024-12-16T08:32:39.219Z</time>
      </trkpt>
      <trkpt lat="48.95493" lon="1.81683">
        <ele>54</ele>
        <time>2024-12-16T08:32:43.954Z</time>
      </trkpt>
      <trkpt lat="48.95491" lon="1.81693">
        <ele>54</ele>
        <time>2024-12-16T08:32:48.516Z</time>
      </trkpt>
      <trkpt lat="48.95488" lon="1.81701">
        <ele>54</ele>
        <time>2024-12-16T08:32:52.714Z</time>
      </trkpt>
      <trkpt lat="48.95485" lon="1.81708">
        <ele>55</ele>
        <time>2024-12-16T08:32:56.984Z</time>
      </trkpt>
      <trkpt lat="48.95481" lon="1.81716">
        <ele>55</ele>
        <time>2024-12-16T08:33:01.552Z</time>
      </trkpt>
      <trkpt lat="48.95477" lon="1.81722">
        <ele>55</ele>
        <time>2024-12-16T08:33:05.818Z</time>
      </trkpt>
      <trkpt lat="48.95473" lon="1.81729">
        <ele>55</ele>
        <time>2024-12-16T08:33:09.896Z</time>
      </trkpt>
      <trkpt lat="48.95467" lon="1.81733">
        <ele>55</ele>
        <time>2024-12-16T08:33:13.984Z</time>
      </trkpt>
      <trkpt lat="48.95462" lon="1.81736">
        <ele>55</ele>
        <time>2024-12-16T08:33:18.096Z</time>
      </trkpt>
      <trkpt lat="48.95456" lon="1.8174">
        <ele>58</ele>
        <time>2024-12-16T08:33:22.196Z</time>
      </trkpt>
      <trkpt lat="48.95451" lon="1.81743">
        <ele>58</ele>
        <time>2024-12-16T08:33:26.317Z</time>
      </trkpt>
      <trkpt lat="48.95445" lon="1.81748">
        <ele>58</ele>
        <time>2024-12-16T08:33:30.497Z</time>
      </trkpt>
      <trkpt lat="48.95439" lon="1.81752">
        <ele>58</ele>
        <time>2024-12-16T08:33:34.679Z</time>
      </trkpt>
      <trkpt lat="48.95436" lon="1.81759">
        <ele>58</ele>
        <time>2024-12-16T08:33:38.984Z</time>
      </trkpt>
      <trkpt lat="48.95432" lon="1.81763">
        <ele>58</ele>
        <time>2024-12-16T08:33:43.216Z</time>
      </trkpt>
      <trkpt lat="48.95428" lon="1.8177">
        <ele>61</ele>
        <time>2024-12-16T08:33:47.557Z</time>
      </trkpt>
      <trkpt lat="48.95423" lon="1.81775">
        <ele>61</ele>
        <time>2024-12-16T08:33:51.899Z</time>
      </trkpt>
      <trkpt lat="48.95417" lon="1.8178">
        <ele>61</ele>
        <time>2024-12-16T08:33:56.175Z</time>
      </trkpt>
      <trkpt lat="48.95412" lon="1.81784">
        <ele>61</ele>
        <time>2024-12-16T08:34:00.395Z</time>
      </trkpt>
      <trkpt lat="48.95408" lon="1.81789">
        <ele>61</ele>
        <time>2024-12-16T08:34:04.619Z</time>
      </trkpt>
      <trkpt lat="48.95404" lon="1.81792">
        <ele>61</ele>
        <time>2024-12-16T08:34:08.875Z</time>
      </trkpt>
      <trkpt lat="48.95399" lon="1.81797">
        <ele>61</ele>
        <time>2024-12-16T08:34:13.099Z</time>
      </trkpt>
      <trkpt lat="48.95395" lon="1.81802">
        <ele>61</ele>
        <time>2024-12-16T08:34:17.294Z</time>
      </trkpt>
      <trkpt lat="48.95391" lon="1.81807">
        <ele>61</ele>
        <time>2024-12-16T08:34:21.952Z</time>
      </trkpt>
      <trkpt lat="48.95386" lon="1.81813">
        <ele>61</ele>
        <time>2024-12-16T08:34:26.379Z</time>
      </trkpt>
      <trkpt lat="48.95385" lon="1.81819">
        <ele>61</ele>
        <time>2024-12-16T08:34:30.797Z</time>
      </trkpt>
      <trkpt lat="48.9538" lon="1.81826">
        <ele>61</ele>
        <time>2024-12-16T08:34:34.983Z</time>
      </trkpt>
      <trkpt lat="48.95376" lon="1.81831">
        <ele>61</ele>
        <time>2024-12-16T08:34:38.984Z</time>
      </trkpt>
      <trkpt lat="48.95372" lon="1.81836">
        <ele>62</ele>
        <time>2024-12-16T08:34:43.235Z</time>
      </trkpt>
      <trkpt lat="48.95367" lon="1.81843">
        <ele>62</ele>
        <time>2024-12-16T08:34:47.983Z</time>
      </trkpt>
      <trkpt lat="48.95363" lon="1.81849">
        <ele>61</ele>
        <time>2024-12-16T08:34:52.412Z</time>
      </trkpt>
      <trkpt lat="48.9536" lon="1.81854">
        <ele>61</ele>
        <time>2024-12-16T08:34:56.575Z</time>
      </trkpt>
      <trkpt lat="48.95354" lon="1.8186">
        <ele>61</ele>
        <time>2024-12-16T08:35:01.036Z</time>
      </trkpt>
      <trkpt lat="48.9535" lon="1.81864">
        <ele>61</ele>
        <time>2024-12-16T08:35:05.438Z</time>
      </trkpt>
      <trkpt lat="48.95348" lon="1.81871">
        <ele>61</ele>
        <time>2024-12-16T08:35:09.831Z</time>
      </trkpt>
      <trkpt lat="48.95347" lon="1.81876">
        <ele>61</ele>
        <time>2024-12-16T08:35:13.984Z</time>
      </trkpt>
      <trkpt lat="48.95347" lon="1.81876">
        <ele>61</ele>
        <time>2024-12-16T08:35:20.984Z</time>
      </trkpt>
      <trkpt lat="48.95346" lon="1.81879">
        <ele>61</ele>
        <time>2024-12-16T08:35:25.818Z</time>
      </trkpt>
      <trkpt lat="48.9534" lon="1.81884">
        <ele>61</ele>
        <time>2024-12-16T08:35:30.175Z</time>
      </trkpt>
      <trkpt lat="48.95334" lon="1.81887">
        <ele>61</ele>
        <time>2024-12-16T08:35:34.309Z</time>
      </trkpt>
      <trkpt lat="48.95329" lon="1.81891">
        <ele>61</ele>
        <time>2024-12-16T08:35:38.849Z</time>
      </trkpt>
      <trkpt lat="48.95325" lon="1.81895">
        <ele>61</ele>
        <time>2024-12-16T08:35:43.105Z</time>
      </trkpt>
      <trkpt lat="48.9532" lon="1.81903">
        <ele>60</ele>
        <time>2024-12-16T08:35:47.984Z</time>
      </trkpt>
      <trkpt lat="48.95316" lon="1.81908">
        <ele>61</ele>
        <time>2024-12-16T08:35:52.202Z</time>
      </trkpt>
      <trkpt lat="48.95311" lon="1.81916">
        <ele>61</ele>
        <time>2024-12-16T08:35:56.935Z</time>
      </trkpt>
      <trkpt lat="48.95307" lon="1.81923">
        <ele>61</ele>
        <time>2024-12-16T08:36:01.592Z</time>
      </trkpt>
      <trkpt lat="48.95302" lon="1.8193">
        <ele>61</ele>
        <time>2024-12-16T08:36:05.797Z</time>
      </trkpt>
      <trkpt lat="48.95299" lon="1.81936">
        <ele>60</ele>
        <time>2024-12-16T08:36:09.983Z</time>
      </trkpt>
      <trkpt lat="48.95295" lon="1.81944">
        <ele>60</ele>
        <time>2024-12-16T08:36:14.651Z</time>
      </trkpt>
      <trkpt lat="48.95291" lon="1.81951">
        <ele>61</ele>
        <time>2024-12-16T08:36:18.796Z</time>
      </trkpt>
      <trkpt lat="48.95288" lon="1.81958">
        <ele>61</ele>
        <time>2024-12-16T08:36:22.977Z</time>
      </trkpt>
      <trkpt lat="48.95285" lon="1.81966">
        <ele>60</ele>
        <time>2024-12-16T08:36:27.197Z</time>
      </trkpt>
      <trkpt lat="48.95282" lon="1.81974">
        <ele>60</ele>
        <time>2024-12-16T08:36:31.721Z</time>
      </trkpt>
      <trkpt lat="48.95279" lon="1.81983">
        <ele>60</ele>
        <time>2024-12-16T08:36:35.976Z</time>
      </trkpt>
      <trkpt lat="48.95276" lon="1.8199">
        <ele>59</ele>
        <time>2024-12-16T08:36:40.676Z</time>
      </trkpt>
      <trkpt lat="48.95272" lon="1.81997">
        <ele>59</ele>
        <time>2024-12-16T08:36:44.898Z</time>
      </trkpt>
      <trkpt lat="48.95269" lon="1.82005">
        <ele>59</ele>
        <time>2024-12-16T08:36:48.983Z</time>
      </trkpt>
      <trkpt lat="48.95266" lon="1.82013">
        <ele>59</ele>
        <time>2024-12-16T08:36:53.395Z</time>
      </trkpt>
      <trkpt lat="48.95264" lon="1.82021">
        <ele>58</ele>
        <time>2024-12-16T08:36:57.454Z</time>
      </trkpt>
      <trkpt lat="48.95261" lon="1.8203">
        <ele>58</ele>
        <time>2024-12-16T08:37:01.779Z</time>
      </trkpt>
      <trkpt lat="48.95259" lon="1.82038">
        <ele>58</ele>
        <time>2024-12-16T08:37:05.958Z</time>
      </trkpt>
      <trkpt lat="48.95257" lon="1.82047">
        <ele>56</ele>
        <time>2024-12-16T08:37:10.215Z</time>
      </trkpt>
      <trkpt lat="48.95255" lon="1.82054">
        <ele>56</ele>
        <time>2024-12-16T08:37:14.454Z</time>
      </trkpt>
      <trkpt lat="48.95254" lon="1.82059">
        <ele>56</ele>
        <time>2024-12-16T08:37:18.514Z</time>
      </trkpt>
      <trkpt lat="48.95254" lon="1.82068">
        <ele>56</ele>
        <time>2024-12-16T08:37:22.983Z</time>
      </trkpt>
      <trkpt lat="48.95253" lon="1.82076">
        <ele>55</ele>
        <time>2024-12-16T08:37:27.334Z</time>
      </trkpt>
      <trkpt lat="48.95252" lon="1.82084">
        <ele>55</ele>
        <time>2024-12-16T08:37:31.717Z</time>
      </trkpt>
      <trkpt lat="48.9525" lon="1.82093">
        <ele>55</ele>
        <time>2024-12-16T08:37:36.059Z</time>
      </trkpt>
      <trkpt lat="48.95248" lon="1.82101">
        <ele>53</ele>
        <time>2024-12-16T08:37:40.375Z</time>
      </trkpt>
      <trkpt lat="48.95246" lon="1.82108">
        <ele>53</ele>
        <time>2024-12-16T08:37:44.777Z</time>
      </trkpt>
      <trkpt lat="48.95244" lon="1.82117">
        <ele>53</ele>
        <time>2024-12-16T08:37:49.075Z</time>
      </trkpt>
      <trkpt lat="48.95242" lon="1.82126">
        <ele>51</ele>
        <time>2024-12-16T08:37:53.391Z</time>
      </trkpt>
      <trkpt lat="48.95241" lon="1.82134">
        <ele>51</ele>
        <time>2024-12-16T08:37:57.598Z</time>
      </trkpt>
      <trkpt lat="48.95238" lon="1.82142">
        <ele>51</ele>
        <time>2024-12-16T08:38:01.955Z</time>
      </trkpt>
      <trkpt lat="48.95236" lon="1.8215">
        <ele>51</ele>
        <time>2024-12-16T08:38:06.253Z</time>
      </trkpt>
      <trkpt lat="48.95234" lon="1.82159">
        <ele>46</ele>
        <time>2024-12-16T08:38:10.600Z</time>
      </trkpt>
      <trkpt lat="48.95232" lon="1.82167">
        <ele>46</ele>
        <time>2024-12-16T08:38:14.954Z</time>
      </trkpt>
      <trkpt lat="48.9523" lon="1.82175">
        <ele>46</ele>
        <time>2024-12-16T08:38:19.432Z</time>
      </trkpt>
      <trkpt lat="48.95229" lon="1.82184">
        <ele>44</ele>
        <time>2024-12-16T08:38:23.739Z</time>
      </trkpt>
      <trkpt lat="48.95229" lon="1.82191">
        <ele>44</ele>
        <time>2024-12-16T08:38:28.191Z</time>
      </trkpt>
      <trkpt lat="48.95225" lon="1.82198">
        <ele>44</ele>
        <time>2024-12-16T08:38:31.984Z</time>
      </trkpt>
      <trkpt lat="48.95221" lon="1.82204">
        <ele>44</ele>
        <time>2024-12-16T08:38:37.499Z</time>
      </trkpt>
      <trkpt lat="48.95217" lon="1.82208">
        <ele>44</ele>
        <time>2024-12-16T08:38:41.723Z</time>
      </trkpt>
      <trkpt lat="48.95211" lon="1.82212">
        <ele>43</ele>
        <time>2024-12-16T08:38:46.701Z</time>
      </trkpt>
      <trkpt lat="48.95208" lon="1.82217">
        <ele>43</ele>
        <time>2024-12-16T08:38:51.123Z</time>
      </trkpt>
      <trkpt lat="48.95205" lon="1.82223">
        <ele>43</ele>
        <time>2024-12-16T08:38:55.153Z</time>
      </trkpt>
      <trkpt lat="48.95201" lon="1.82228">
        <ele>43</ele>
        <time>2024-12-16T08:38:59.195Z</time>
      </trkpt>
      <trkpt lat="48.95197" lon="1.82233">
        <ele>43</ele>
        <time>2024-12-16T08:39:03.701Z</time>
      </trkpt>
      <trkpt lat="48.95194" lon="1.82239">
        <ele>41</ele>
        <time>2024-12-16T08:39:08.293Z</time>
      </trkpt>
      <trkpt lat="48.95189" lon="1.82241">
        <ele>41</ele>
        <time>2024-12-16T08:39:12.454Z</time>
      </trkpt>
      <trkpt lat="48.95184" lon="1.82244">
        <ele>41</ele>
        <time>2024-12-16T08:39:16.799Z</time>
      </trkpt>
      <trkpt lat="48.95179" lon="1.82246">
        <ele>39</ele>
        <time>2024-12-16T08:39:21.167Z</time>
      </trkpt>
      <trkpt lat="48.95174" lon="1.82248">
        <ele>39</ele>
        <time>2024-12-16T08:39:25.502Z</time>
      </trkpt>
      <trkpt lat="48.95168" lon="1.82251">
        <ele>39</ele>
        <time>2024-12-16T08:39:29.984Z</time>
      </trkpt>
      <trkpt lat="48.95164" lon="1.82254">
        <ele>39</ele>
        <time>2024-12-16T08:39:34.556Z</time>
      </trkpt>
      <trkpt lat="48.95159" lon="1.82257">
        <ele>39</ele>
        <time>2024-12-16T08:39:38.903Z</time>
      </trkpt>
      <trkpt lat="48.95154" lon="1.82261">
        <ele>39</ele>
        <time>2024-12-16T08:39:43.402Z</time>
      </trkpt>
      <trkpt lat="48.95149" lon="1.82264">
        <ele>37</ele>
        <time>2024-12-16T08:39:47.895Z</time>
      </trkpt>
      <trkpt lat="48.95144" lon="1.82268">
        <ele>37</ele>
        <time>2024-12-16T08:39:52.483Z</time>
      </trkpt>
      <trkpt lat="48.95139" lon="1.82272">
        <ele>37</ele>
        <time>2024-12-16T08:39:56.983Z</time>
      </trkpt>
      <trkpt lat="48.95134" lon="1.82276">
        <ele>37</ele>
        <time>2024-12-16T08:40:01.515Z</time>
      </trkpt>
      <trkpt lat="48.95129" lon="1.8228">
        <ele>37</ele>
        <time>2024-12-16T08:40:05.999Z</time>
      </trkpt>
      <trkpt lat="48.95125" lon="1.82284">
        <ele>37</ele>
        <time>2024-12-16T08:40:10.036Z</time>
      </trkpt>
      <trkpt lat="48.95121" lon="1.82289">
        <ele>40</ele>
        <time>2024-12-16T08:40:14.285Z</time>
      </trkpt>
      <trkpt lat="48.95117" lon="1.82293">
        <ele>42</ele>
        <time>2024-12-16T08:40:18.905Z</time>
      </trkpt>
      <trkpt lat="48.95113" lon="1.82296">
        <ele>42</ele>
        <time>2024-12-16T08:40:23.403Z</time>
      </trkpt>
      <trkpt lat="48.9511" lon="1.82301">
        <ele>42</ele>
        <time>2024-12-16T08:40:27.983Z</time>
      </trkpt>
      <trkpt lat="48.95107" lon="1.82305">
        <ele>42</ele>
        <time>2024-12-16T08:40:32.715Z</time>
      </trkpt>
      <trkpt lat="48.95103" lon="1.82308">
        <ele>42</ele>
        <time>2024-12-16T08:40:37.239Z</time>
      </trkpt>
      <trkpt lat="48.95101" lon="1.82312">
        <ele>42</ele>
        <time>2024-12-16T08:40:42.007Z</time>
      </trkpt>
      <trkpt lat="48.95096" lon="1.82313">
        <ele>43</ele>
        <time>2024-12-16T08:40:46.638Z</time>
      </trkpt>
      <trkpt lat="48.95093" lon="1.82316">
        <ele>43</ele>
        <time>2024-12-16T08:40:51.338Z</time>
      </trkpt>
      <trkpt lat="48.95089" lon="1.8232">
        <ele>44</ele>
        <time>2024-12-16T08:40:55.999Z</time>
      </trkpt>
      <trkpt lat="48.95085" lon="1.82325">
        <ele>44</ele>
        <time>2024-12-16T08:41:00.697Z</time>
      </trkpt>
      <trkpt lat="48.95081" lon="1.82328">
        <ele>44</ele>
        <time>2024-12-16T08:41:04.997Z</time>
      </trkpt>
      <trkpt lat="48.95077" lon="1.82332">
        <ele>44</ele>
        <time>2024-12-16T08:41:09.517Z</time>
      </trkpt>
      <trkpt lat="48.95074" lon="1.82335">
        <ele>44</ele>
        <time>2024-12-16T08:41:13.817Z</time>
      </trkpt>
      <trkpt lat="48.9507" lon="1.82339">
        <ele>44</ele>
        <time>2024-12-16T08:41:18.396Z</time>
      </trkpt>
      <trkpt lat="48.95066" lon="1.82342">
        <ele>45</ele>
        <time>2024-12-16T08:41:22.714Z</time>
      </trkpt>
      <trkpt lat="48.95062" lon="1.82346">
        <ele>45</ele>
        <time>2024-12-16T08:41:26.983Z</time>
      </trkpt>
      <trkpt lat="48.95057" lon="1.82349">
        <ele>45</ele>
        <time>2024-12-16T08:41:31.475Z</time>
      </trkpt>
      <trkpt lat="48.95053" lon="1.82353">
        <ele>45</ele>
        <time>2024-12-16T08:41:35.984Z</time>
      </trkpt>
      <trkpt lat="48.95049" lon="1.82356">
        <ele>45</ele>
        <time>2024-12-16T08:41:40.637Z</time>
      </trkpt>
      <trkpt lat="48.95046" lon="1.82359">
        <ele>45</ele>
        <time>2024-12-16T08:41:44.816Z</time>
      </trkpt>
      <trkpt lat="48.95042" lon="1.82362">
        <ele>45</ele>
        <time>2024-12-16T08:41:48.996Z</time>
      </trkpt>
      <trkpt lat="48.95037" lon="1.82364">
        <ele>47</ele>
        <time>2024-12-16T08:41:53.277Z</time>
      </trkpt>
      <trkpt lat="48.95031" lon="1.82365">
        <ele>47</ele>
        <time>2024-12-16T08:41:57.697Z</time>
      </trkpt>
      <trkpt lat="48.95026" lon="1.82366">
        <ele>47</ele>
        <time>2024-12-16T08:42:01.859Z</time>
      </trkpt>
      <trkpt lat="48.9502" lon="1.82367">
        <ele>47</ele>
        <time>2024-12-16T08:42:06.235Z</time>
      </trkpt>
      <trkpt lat="48.95015" lon="1.8237">
        <ele>47</ele>
        <time>2024-12-16T08:42:10.697Z</time>
      </trkpt>
      <trkpt lat="48.95011" lon="1.82371">
        <ele>49</ele>
        <time>2024-12-16T08:42:15.260Z</time>
      </trkpt>
      <trkpt lat="48.95006" lon="1.82373">
        <ele>49</ele>
        <time>2024-12-16T08:42:19.337Z</time>
      </trkpt>
      <trkpt lat="48.95001" lon="1.82373">
        <ele>49</ele>
        <time>2024-12-16T08:42:23.664Z</time>
      </trkpt>
      <trkpt lat="48.94996" lon="1.82374">
        <ele>49</ele>
        <time>2024-12-16T08:42:27.876Z</time>
      </trkpt>
      <trkpt lat="48.94991" lon="1.82378">
        <ele>48</ele>
        <time>2024-12-16T08:42:32.379Z</time>
      </trkpt>
      <trkpt lat="48.94986" lon="1.82383">
        <ele>51</ele>
        <time>2024-12-16T08:42:36.783Z</time>
      </trkpt>
      <trkpt lat="48.9498" lon="1.82383">
        <ele>51</ele>
        <time>2024-12-16T08:42:40.843Z</time>
      </trkpt>
      <trkpt lat="48.94974" lon="1.82386">
        <ele>51</ele>
        <time>2024-12-16T08:42:44.962Z</time>
      </trkpt>
      <trkpt lat="48.94969" lon="1.82387">
        <ele>51</ele>
        <time>2024-12-16T08:42:49.356Z</time>
      </trkpt>
      <trkpt lat="48.94964" lon="1.82389">
        <ele>51</ele>
        <time>2024-12-16T08:42:53.678Z</time>
      </trkpt>
      <trkpt lat="48.94959" lon="1.82389">
        <ele>51</ele>
        <time>2024-12-16T08:42:57.859Z</time>
      </trkpt>
      <trkpt lat="48.94954" lon="1.82391">
        <ele>55</ele>
        <time>2024-12-16T08:43:01.979Z</time>
      </trkpt>
      <trkpt lat="48.94949" lon="1.82394">
        <ele>55</ele>
        <time>2024-12-16T08:43:06.415Z</time>
      </trkpt>
      <trkpt lat="48.94944" lon="1.82395">
        <ele>55</ele>
        <time>2024-12-16T08:43:10.983Z</time>
      </trkpt>
      <trkpt lat="48.9494" lon="1.82391">
        <ele>55</ele>
        <time>2024-12-16T08:43:15.781Z</time>
      </trkpt>
      <trkpt lat="48.94939" lon="1.82385">
        <ele>55</ele>
        <time>2024-12-16T08:43:19.960Z</time>
      </trkpt>
      <trkpt lat="48.94938" lon="1.82378">
        <ele>55</ele>
        <time>2024-12-16T08:43:24.217Z</time>
      </trkpt>
      <trkpt lat="48.94936" lon="1.82371">
        <ele>55</ele>
        <time>2024-12-16T08:43:28.602Z</time>
      </trkpt>
      <trkpt lat="48.94935" lon="1.82365">
        <ele>55</ele>
        <time>2024-12-16T08:43:32.935Z</time>
      </trkpt>
      <trkpt lat="48.94932" lon="1.82358">
        <ele>55</ele>
        <time>2024-12-16T08:43:37.659Z</time>
      </trkpt>
      <trkpt lat="48.9493" lon="1.82352">
        <ele>59</ele>
        <time>2024-12-16T08:43:41.720Z</time>
      </trkpt>
      <trkpt lat="48.94927" lon="1.82346">
        <ele>59</ele>
        <time>2024-12-16T08:43:45.983Z</time>
      </trkpt>
      <trkpt lat="48.94925" lon="1.82339">
        <ele>59</ele>
        <time>2024-12-16T08:43:50.515Z</time>
      </trkpt>
      <trkpt lat="48.94922" lon="1.82335">
        <ele>59</ele>
        <time>2024-12-16T08:43:54.719Z</time>
      </trkpt>
      <trkpt lat="48.94923" lon="1.82332">
        <ele>59</ele>
        <time>2024-12-16T08:43:59.557Z</time>
      </trkpt>
      <trkpt lat="48.9492" lon="1.82328">
        <ele>59</ele>
        <time>2024-12-16T08:44:04.005Z</time>
      </trkpt>
      <trkpt lat="48.94917" lon="1.82326">
        <ele>59</ele>
        <time>2024-12-16T08:44:08.983Z</time>
      </trkpt>
      <trkpt lat="48.94913" lon="1.82327">
        <ele>59</ele>
        <time>2024-12-16T08:44:13.699Z</time>
      </trkpt>
      <trkpt lat="48.94909" lon="1.8233">
        <ele>59</ele>
        <time>2024-12-16T08:44:17.983Z</time>
      </trkpt>
      <trkpt lat="48.94907" lon="1.8233">
        <ele>59</ele>
        <time>2024-12-16T08:44:21.984Z</time>
      </trkpt>
      <trkpt lat="48.94905" lon="1.82325">
        <ele>59</ele>
        <time>2024-12-16T08:44:26.637Z</time>
      </trkpt>
      <trkpt lat="48.94901" lon="1.82322">
        <ele>64</ele>
        <time>2024-12-16T08:44:31.203Z</time>
      </trkpt>
      <trkpt lat="48.94889" lon="1.82309">
        <ele>66</ele>
        <time>2024-12-16T08:44:49.146Z</time>
      </trkpt>
      <trkpt lat="48.94888" lon="1.8231">
        <ele>66</ele>
        <time>2024-12-16T08:44:56.483Z</time>
      </trkpt>
      <trkpt lat="48.94885" lon="1.82305">
        <ele>66</ele>
        <time>2024-12-16T08:45:00.848Z</time>
      </trkpt>
      <trkpt lat="48.94878" lon="1.82301">
        <ele>66</ele>
        <time>2024-12-16T08:45:05.258Z</time>
      </trkpt>
      <trkpt lat="48.94872" lon="1.82297">
        <ele>71</ele>
        <time>2024-12-16T08:45:09.762Z</time>
      </trkpt>
      <trkpt lat="48.94868" lon="1.82296">
        <ele>71</ele>
        <time>2024-12-16T08:45:13.983Z</time>
      </trkpt>
      <trkpt lat="48.94864" lon="1.82295">
        <ele>71</ele>
        <time>2024-12-16T08:45:18.692Z</time>
      </trkpt>
      <trkpt lat="48.94861" lon="1.82291">
        <ele>74</ele>
        <time>2024-12-16T08:45:22.983Z</time>
      </trkpt>
      <trkpt lat="48.94859" lon="1.82286">
        <ele>74</ele>
        <time>2024-12-16T08:45:27.418Z</time>
      </trkpt>
      <trkpt lat="48.94858" lon="1.8229">
        <ele>74</ele>
        <time>2024-12-16T08:46:22.983Z</time>
      </trkpt>
      <trkpt lat="48.94858" lon="1.8229">
        <ele>74</ele>
        <time>2024-12-16T08:46:27.984Z</time>
      </trkpt>
      <trkpt lat="48.94859" lon="1.8229">
        <ele>74</ele>
        <time>2024-12-16T08:46:36.983Z</time>
      </trkpt>
      <trkpt lat="48.94862" lon="1.8229">
        <ele>74</ele>
        <time>2024-12-16T08:46:43.984Z</time>
      </trkpt>
      <trkpt lat="48.94863" lon="1.8229">
        <ele>74</ele>
        <time>2024-12-16T08:46:47.983Z</time>
      </trkpt>
      <trkpt lat="48.94867" lon="1.82289">
        <ele>74</ele>
        <time>2024-12-16T08:46:51.983Z</time>
      </trkpt>
      <trkpt lat="48.94864" lon="1.82288">
        <ele>74</ele>
        <time>2024-12-16T08:46:56.983Z</time>
      </trkpt>
      <trkpt lat="48.94864" lon="1.82291">
        <ele>74</ele>
        <time>2024-12-16T08:47:01.983Z</time>
      </trkpt>
      <trkpt lat="48.94863" lon="1.82301">
        <ele>71</ele>
        <time>2024-12-16T08:47:06.983Z</time>
      </trkpt>
      <trkpt lat="48.94858" lon="1.82306">
        <ele>71</ele>
        <time>2024-12-16T08:47:11.984Z</time>
      </trkpt>
      <trkpt lat="48.94853" lon="1.8231">
        <ele>71</ele>
        <time>2024-12-16T08:47:16.983Z</time>
      </trkpt>
      <trkpt lat="48.94848" lon="1.82314">
        <ele>71</ele>
        <time>2024-12-16T08:47:21.983Z</time>
      </trkpt>
      <trkpt lat="48.94845" lon="1.82318">
        <ele>74</ele>
        <time>2024-12-16T08:47:26.340Z</time>
      </trkpt>
      <trkpt lat="48.94841" lon="1.82321">
        <ele>71</ele>
        <time>2024-12-16T08:47:30.820Z</time>
      </trkpt>
      <trkpt lat="48.94837" lon="1.82324">
        <ele>71</ele>
        <time>2024-12-16T08:47:35.162Z</time>
      </trkpt>
      <trkpt lat="48.94832" lon="1.82327">
        <ele>71</ele>
        <time>2024-12-16T08:47:39.779Z</time>
      </trkpt>
      <trkpt lat="48.94829" lon="1.8233">
        <ele>71</ele>
        <time>2024-12-16T08:47:43.983Z</time>
      </trkpt>
      <trkpt lat="48.94825" lon="1.82334">
        <ele>71</ele>
        <time>2024-12-16T08:47:48.759Z</time>
      </trkpt>
      <trkpt lat="48.94822" lon="1.82337">
        <ele>71</ele>
        <time>2024-12-16T08:47:53.043Z</time>
      </trkpt>
      <trkpt lat="48.94818" lon="1.82338">
        <ele>74</ele>
        <time>2024-12-16T08:47:57.938Z</time>
      </trkpt>
      <trkpt lat="48.94816" lon="1.82342">
        <ele>74</ele>
        <time>2024-12-16T08:48:02.682Z</time>
      </trkpt>
      <trkpt lat="48.94814" lon="1.82346">
        <ele>74</ele>
        <time>2024-12-16T08:48:06.805Z</time>
      </trkpt>
      <trkpt lat="48.94811" lon="1.8235">
        <ele>72</ele>
        <time>2024-12-16T08:48:10.983Z</time>
      </trkpt>
      <trkpt lat="48.94807" lon="1.82354">
        <ele>72</ele>
        <time>2024-12-16T08:48:15.357Z</time>
      </trkpt>
      <trkpt lat="48.94802" lon="1.82357">
        <ele>72</ele>
        <time>2024-12-16T08:48:19.580Z</time>
      </trkpt>
      <trkpt lat="48.94798" lon="1.82361">
        <ele>72</ele>
        <time>2024-12-16T08:48:23.820Z</time>
      </trkpt>
      <trkpt lat="48.94796" lon="1.82365">
        <ele>72</ele>
        <time>2024-12-16T08:48:28.984Z</time>
      </trkpt>
      <trkpt lat="48.94793" lon="1.82367">
        <ele>72</ele>
        <time>2024-12-16T08:48:32.983Z</time>
      </trkpt>
      <trkpt lat="48.94791" lon="1.82373">
        <ele>76</ele>
        <time>2024-12-16T08:48:37.315Z</time>
      </trkpt>
      <trkpt lat="48.94788" lon="1.82378">
        <ele>76</ele>
        <time>2024-12-16T08:48:41.436Z</time>
      </trkpt>
      <trkpt lat="48.94785" lon="1.82383">
        <ele>76</ele>
        <time>2024-12-16T08:48:45.983Z</time>
      </trkpt>
      <trkpt lat="48.94782" lon="1.82386">
        <ele>76</ele>
        <time>2024-12-16T08:48:50.343Z</time>
      </trkpt>
      <trkpt lat="48.94778" lon="1.82389">
        <ele>76</ele>
        <time>2024-12-16T08:48:54.819Z</time>
      </trkpt>
      <trkpt lat="48.94775" lon="1.82392">
        <ele>76</ele>
        <time>2024-12-16T08:48:59.136Z</time>
      </trkpt>
      <trkpt lat="48.94772" lon="1.82396">
        <ele>76</ele>
        <time>2024-12-16T08:49:03.257Z</time>
      </trkpt>
      <trkpt lat="48.94769" lon="1.82399">
        <ele>76</ele>
        <time>2024-12-16T08:49:07.316Z</time>
      </trkpt>
      <trkpt lat="48.94765" lon="1.82402">
        <ele>76</ele>
        <time>2024-12-16T08:49:11.659Z</time>
      </trkpt>
      <trkpt lat="48.94761" lon="1.82405">
        <ele>80</ele>
        <time>2024-12-16T08:49:15.837Z</time>
      </trkpt>
      <trkpt lat="48.94758" lon="1.82409">
        <ele>80</ele>
        <time>2024-12-16T08:49:19.983Z</time>
      </trkpt>
      <trkpt lat="48.94754" lon="1.82415">
        <ele>80</ele>
        <time>2024-12-16T08:49:24.360Z</time>
      </trkpt>
      <trkpt lat="48.9475" lon="1.8242">
        <ele>80</ele>
        <time>2024-12-16T08:49:28.559Z</time>
      </trkpt>
      <trkpt lat="48.94745" lon="1.82424">
        <ele>80</ele>
        <time>2024-12-16T08:49:32.798Z</time>
      </trkpt>
      <trkpt lat="48.94742" lon="1.82429">
        <ele>80</ele>
        <time>2024-12-16T08:49:36.984Z</time>
      </trkpt>
      <trkpt lat="48.94738" lon="1.82434">
        <ele>79</ele>
        <time>2024-12-16T08:49:41.498Z</time>
      </trkpt>
      <trkpt lat="48.94734" lon="1.82438">
        <ele>82</ele>
        <time>2024-12-16T08:49:45.883Z</time>
      </trkpt>
      <trkpt lat="48.9473" lon="1.82443">
        <ele>82</ele>
        <time>2024-12-16T08:49:49.976Z</time>
      </trkpt>
      <trkpt lat="48.94727" lon="1.82447">
        <ele>82</ele>
        <time>2024-12-16T08:49:54.243Z</time>
      </trkpt>
      <trkpt lat="48.94723" lon="1.82451">
        <ele>82</ele>
        <time>2024-12-16T08:49:58.484Z</time>
      </trkpt>
      <trkpt lat="48.94719" lon="1.82456">
        <ele>82</ele>
        <time>2024-12-16T08:50:02.737Z</time>
      </trkpt>
      <trkpt lat="48.94715" lon="1.82461">
        <ele>82</ele>
        <time>2024-12-16T08:50:07.540Z</time>
      </trkpt>
      <trkpt lat="48.94711" lon="1.82466">
        <ele>82</ele>
        <time>2024-12-16T08:50:11.857Z</time>
      </trkpt>
      <trkpt lat="48.94708" lon="1.82468">
        <ele>82</ele>
        <time>2024-12-16T08:50:16.369Z</time>
      </trkpt>
      <trkpt lat="48.94705" lon="1.82469">
        <ele>85</ele>
        <time>2024-12-16T08:50:20.539Z</time>
      </trkpt>
      <trkpt lat="48.94705" lon="1.82466">
        <ele>85</ele>
        <time>2024-12-16T08:50:48.984Z</time>
      </trkpt>
      <trkpt lat="48.94707" lon="1.82469">
        <ele>85</ele>
        <time>2024-12-16T08:50:53.984Z</time>
      </trkpt>
      <trkpt lat="48.94707" lon="1.82473">
        <ele>85</ele>
        <time>2024-12-16T08:50:58.984Z</time>
      </trkpt>
      <trkpt lat="48.94709" lon="1.8248">
        <ele>82</ele>
        <time>2024-12-16T08:51:03.458Z</time>
      </trkpt>
      <trkpt lat="48.94712" lon="1.82486">
        <ele>81</ele>
        <time>2024-12-16T08:51:07.937Z</time>
      </trkpt>
      <trkpt lat="48.94715" lon="1.82492">
        <ele>81</ele>
        <time>2024-12-16T08:51:12.099Z</time>
      </trkpt>
      <trkpt lat="48.94717" lon="1.82497">
        <ele>81</ele>
        <time>2024-12-16T08:51:16.355Z</time>
      </trkpt>
      <trkpt lat="48.9472" lon="1.82503">
        <ele>81</ele>
        <time>2024-12-16T08:51:20.415Z</time>
      </trkpt>
      <trkpt lat="48.94723" lon="1.82508">
        <ele>81</ele>
        <time>2024-12-16T08:51:24.680Z</time>
      </trkpt>
      <trkpt lat="48.94727" lon="1.82514">
        <ele>79</ele>
        <time>2024-12-16T08:51:28.742Z</time>
      </trkpt>
      <trkpt lat="48.9473" lon="1.82521">
        <ele>79</ele>
        <time>2024-12-16T08:51:33.001Z</time>
      </trkpt>
      <trkpt lat="48.94734" lon="1.82527">
        <ele>79</ele>
        <time>2024-12-16T08:51:37.279Z</time>
      </trkpt>
      <trkpt lat="48.94737" lon="1.82533">
        <ele>76</ele>
        <time>2024-12-16T08:51:41.624Z</time>
      </trkpt>
      <trkpt lat="48.94741" lon="1.82539">
        <ele>76</ele>
        <time>2024-12-16T08:51:46.475Z</time>
      </trkpt>
      <trkpt lat="48.94744" lon="1.82547">
        <ele>74</ele>
        <time>2024-12-16T08:51:50.918Z</time>
      </trkpt>
      <trkpt lat="48.94747" lon="1.82554">
        <ele>74</ele>
        <time>2024-12-16T08:51:54.936Z</time>
      </trkpt>
      <trkpt lat="48.94749" lon="1.82561">
        <ele>74</ele>
        <time>2024-12-16T08:51:59.277Z</time>
      </trkpt>
      <trkpt lat="48.94751" lon="1.82568">
        <ele>74</ele>
        <time>2024-12-16T08:52:03.798Z</time>
      </trkpt>
      <trkpt lat="48.94748" lon="1.82576">
        <ele>72</ele>
        <time>2024-12-16T08:52:08.336Z</time>
      </trkpt>
      <trkpt lat="48.94743" lon="1.82582">
        <ele>72</ele>
        <time>2024-12-16T08:52:12.781Z</time>
      </trkpt>
      <trkpt lat="48.94739" lon="1.82587">
        <ele>72</ele>
        <time>2024-12-16T08:52:16.797Z</time>
      </trkpt>
      <trkpt lat="48.94735" lon="1.82592">
        <ele>76</ele>
        <time>2024-12-16T08:52:20.816Z</time>
      </trkpt>
      <trkpt lat="48.94731" lon="1.82597">
        <ele>76</ele>
        <time>2024-12-16T08:52:24.842Z</time>
      </trkpt>
      <trkpt lat="48.94727" lon="1.82602">
        <ele>74</ele>
        <time>2024-12-16T08:52:29.217Z</time>
      </trkpt>
      <trkpt lat="48.94723" lon="1.82609">
        <ele>74</ele>
        <time>2024-12-16T08:52:33.635Z</time>
      </trkpt>
      <trkpt lat="48.94719" lon="1.82615">
        <ele>74</ele>
        <time>2024-12-16T08:52:37.977Z</time>
      </trkpt>
      <trkpt lat="48.94713" lon="1.82622">
        <ele>74</ele>
        <time>2024-12-16T08:52:42.541Z</time>
      </trkpt>
      <trkpt lat="48.94709" lon="1.82627">
        <ele>71</ele>
        <time>2024-12-16T08:52:46.719Z</time>
      </trkpt>
      <trkpt lat="48.94704" lon="1.82634">
        <ele>74</ele>
        <time>2024-12-16T08:52:51.149Z</time>
      </trkpt>
      <trkpt lat="48.94698" lon="1.82639">
        <ele>74</ele>
        <time>2024-12-16T08:52:55.617Z</time>
      </trkpt>
      <trkpt lat="48.94694" lon="1.82643">
        <ele>74</ele>
        <time>2024-12-16T08:52:59.664Z</time>
      </trkpt>
      <trkpt lat="48.94689" lon="1.82648">
        <ele>74</ele>
        <time>2024-12-16T08:53:04.120Z</time>
      </trkpt>
      <trkpt lat="48.94684" lon="1.82653">
        <ele>72</ele>
        <time>2024-12-16T08:53:08.436Z</time>
      </trkpt>
      <trkpt lat="48.9468" lon="1.82659">
        <ele>73</ele>
        <time>2024-12-16T08:53:12.796Z</time>
      </trkpt>
      <trkpt lat="48.94675" lon="1.82664">
        <ele>73</ele>
        <time>2024-12-16T08:53:17.240Z</time>
      </trkpt>
      <trkpt lat="48.9467" lon="1.82668">
        <ele>73</ele>
        <time>2024-12-16T08:53:21.717Z</time>
      </trkpt>
      <trkpt lat="48.94665" lon="1.82675">
        <ele>73</ele>
        <time>2024-12-16T08:53:26.027Z</time>
      </trkpt>
      <trkpt lat="48.9466" lon="1.82679">
        <ele>73</ele>
        <time>2024-12-16T08:53:30.283Z</time>
      </trkpt>
      <trkpt lat="48.94655" lon="1.82684">
        <ele>71</ele>
        <time>2024-12-16T08:53:34.717Z</time>
      </trkpt>
      <trkpt lat="48.9465" lon="1.82688">
        <ele>71</ele>
        <time>2024-12-16T08:53:39.118Z</time>
      </trkpt>
      <trkpt lat="48.94644" lon="1.82693">
        <ele>71</ele>
        <time>2024-12-16T08:53:43.563Z</time>
      </trkpt>
      <trkpt lat="48.94639" lon="1.82697">
        <ele>71</ele>
        <time>2024-12-16T08:53:47.979Z</time>
      </trkpt>
      <trkpt lat="48.94634" lon="1.82702">
        <ele>71</ele>
        <time>2024-12-16T08:53:52.442Z</time>
      </trkpt>
      <trkpt lat="48.94629" lon="1.82708">
        <ele>71</ele>
        <time>2024-12-16T08:53:56.964Z</time>
      </trkpt>
      <trkpt lat="48.94623" lon="1.82712">
        <ele>71</ele>
        <time>2024-12-16T08:54:01.397Z</time>
      </trkpt>
      <trkpt lat="48.94618" lon="1.82716">
        <ele>71</ele>
        <time>2024-12-16T08:54:05.858Z</time>
      </trkpt>
      <trkpt lat="48.94614" lon="1.82719">
        <ele>71</ele>
        <time>2024-12-16T08:54:09.984Z</time>
      </trkpt>
      <trkpt lat="48.94609" lon="1.82723">
        <ele>71</ele>
        <time>2024-12-16T08:54:14.336Z</time>
      </trkpt>
      <trkpt lat="48.94604" lon="1.82728">
        <ele>71</ele>
        <time>2024-12-16T08:54:18.457Z</time>
      </trkpt>
      <trkpt lat="48.946" lon="1.82734">
        <ele>71</ele>
        <time>2024-12-16T08:54:22.500Z</time>
      </trkpt>
      <trkpt lat="48.94595" lon="1.8274">
        <ele>70</ele>
        <time>2024-12-16T08:54:26.738Z</time>
      </trkpt>
      <trkpt lat="48.9459" lon="1.82745">
        <ele>70</ele>
        <time>2024-12-16T08:54:31.054Z</time>
      </trkpt>
      <trkpt lat="48.94586" lon="1.82751">
        <ele>70</ele>
        <time>2024-12-16T08:54:35.363Z</time>
      </trkpt>
      <trkpt lat="48.94582" lon="1.82759">
        <ele>70</ele>
        <time>2024-12-16T08:54:39.696Z</time>
      </trkpt>
      <trkpt lat="48.94576" lon="1.82764">
        <ele>68</ele>
        <time>2024-12-16T08:54:44.514Z</time>
      </trkpt>
      <trkpt lat="48.94572" lon="1.82771">
        <ele>68</ele>
        <time>2024-12-16T08:54:48.983Z</time>
      </trkpt>
      <trkpt lat="48.94567" lon="1.82776">
        <ele>70</ele>
        <time>2024-12-16T08:54:53.257Z</time>
      </trkpt>
      <trkpt lat="48.94563" lon="1.82783">
        <ele>70</ele>
        <time>2024-12-16T08:54:57.676Z</time>
      </trkpt>
      <trkpt lat="48.94559" lon="1.82789">
        <ele>70</ele>
        <time>2024-12-16T08:55:01.984Z</time>
      </trkpt>
      <trkpt lat="48.94556" lon="1.82797">
        <ele>70</ele>
        <time>2024-12-16T08:55:06.479Z</time>
      </trkpt>
      <trkpt lat="48.94551" lon="1.82803">
        <ele>70</ele>
        <time>2024-12-16T08:55:10.802Z</time>
      </trkpt>
      <trkpt lat="48.94546" lon="1.82809">
        <ele>70</ele>
        <time>2024-12-16T08:55:15.160Z</time>
      </trkpt>
      <trkpt lat="48.94541" lon="1.82812">
        <ele>72</ele>
        <time>2024-12-16T08:55:19.583Z</time>
      </trkpt>
      <trkpt lat="48.94537" lon="1.82815">
        <ele>72</ele>
        <time>2024-12-16T08:55:23.983Z</time>
      </trkpt>
      <trkpt lat="48.94535" lon="1.82816">
        <ele>72</ele>
        <time>2024-12-16T08:55:28.984Z</time>
      </trkpt>
      <trkpt lat="48.94539" lon="1.82816">
        <ele>72</ele>
        <time>2024-12-16T08:55:33.721Z</time>
      </trkpt>
      <trkpt lat="48.94543" lon="1.82813">
        <ele>70</ele>
        <time>2024-12-16T08:55:37.984Z</time>
      </trkpt>
      <trkpt lat="48.94546" lon="1.82813">
        <ele>70</ele>
        <time>2024-12-16T08:55:41.983Z</time>
      </trkpt>
      <trkpt lat="48.94547" lon="1.82814">
        <ele>70</ele>
        <time>2024-12-16T08:55:46.984Z</time>
      </trkpt>
      <trkpt lat="48.94548" lon="1.82817">
        <ele>70</ele>
        <time>2024-12-16T08:55:51.984Z</time>
      </trkpt>
      <trkpt lat="48.94546" lon="1.82825">
        <ele>69</ele>
        <time>2024-12-16T08:55:56.224Z</time>
      </trkpt>
      <trkpt lat="48.94545" lon="1.82833">
        <ele>69</ele>
        <time>2024-12-16T08:56:00.759Z</time>
      </trkpt>
      <trkpt lat="48.94546" lon="1.8284">
        <ele>69</ele>
        <time>2024-12-16T08:56:04.878Z</time>
      </trkpt>
      <trkpt lat="48.94548" lon="1.82846">
        <ele>69</ele>
        <time>2024-12-16T08:56:09.314Z</time>
      </trkpt>
      <trkpt lat="48.9455" lon="1.82853">
        <ele>66</ele>
        <time>2024-12-16T08:56:13.537Z</time>
      </trkpt>
      <trkpt lat="48.94551" lon="1.82862">
        <ele>66</ele>
        <time>2024-12-16T08:56:17.775Z</time>
      </trkpt>
      <trkpt lat="48.94547" lon="1.82869">
        <ele>66</ele>
        <time>2024-12-16T08:56:21.984Z</time>
      </trkpt>
      <trkpt lat="48.94542" lon="1.82875">
        <ele>68</ele>
        <time>2024-12-16T08:56:26.323Z</time>
      </trkpt>
      <trkpt lat="48.94537" lon="1.8288">
        <ele>65</ele>
        <time>2024-12-16T08:56:30.637Z</time>
      </trkpt>
      <trkpt lat="48.94533" lon="1.82885">
        <ele>65</ele>
        <time>2024-12-16T08:56:34.983Z</time>
      </trkpt>
      <trkpt lat="48.9453" lon="1.82892">
        <ele>65</ele>
        <time>2024-12-16T08:56:39.637Z</time>
      </trkpt>
      <trkpt lat="48.94528" lon="1.82901">
        <ele>65</ele>
        <time>2024-12-16T08:56:43.858Z</time>
      </trkpt>
      <trkpt lat="48.94529" lon="1.82908">
        <ele>61</ele>
        <time>2024-12-16T08:56:47.984Z</time>
      </trkpt>
      <trkpt lat="48.94527" lon="1.82914">
        <ele>61</ele>
        <time>2024-12-16T08:56:52.423Z</time>
      </trkpt>
      <trkpt lat="48.94524" lon="1.82916">
        <ele>61</ele>
        <time>2024-12-16T08:56:56.627Z</time>
      </trkpt>
      <trkpt lat="48.9452" lon="1.82918">
        <ele>61</ele>
        <time>2024-12-16T08:57:01.135Z</time>
      </trkpt>
      <trkpt lat="48.94517" lon="1.82923">
        <ele>61</ele>
        <time>2024-12-16T08:57:05.495Z</time>
      </trkpt>
      <trkpt lat="48.94516" lon="1.8293">
        <ele>61</ele>
        <time>2024-12-16T08:57:09.579Z</time>
      </trkpt>
      <trkpt lat="48.94515" lon="1.82938">
        <ele>58</ele>
        <time>2024-12-16T08:57:13.983Z</time>
      </trkpt>
      <trkpt lat="48.94516" lon="1.82946">
        <ele>58</ele>
        <time>2024-12-16T08:57:18.519Z</time>
      </trkpt>
      <trkpt lat="48.94518" lon="1.82954">
        <ele>58</ele>
        <time>2024-12-16T08:57:22.863Z</time>
      </trkpt>
      <trkpt lat="48.9452" lon="1.82961">
        <ele>54</ele>
        <time>2024-12-16T08:57:27.278Z</time>
      </trkpt>
      <trkpt lat="48.9452" lon="1.82969">
        <ele>54</ele>
        <time>2024-12-16T08:57:31.679Z</time>
      </trkpt>
      <trkpt lat="48.9452" lon="1.82975">
        <ele>54</ele>
        <time>2024-12-16T08:57:35.983Z</time>
      </trkpt>
      <trkpt lat="48.94517" lon="1.8298">
        <ele>54</ele>
        <time>2024-12-16T08:57:40.983Z</time>
      </trkpt>
      <trkpt lat="48.94516" lon="1.82982">
        <ele>54</ele>
        <time>2024-12-16T08:57:46.985Z</time>
      </trkpt>
      <trkpt lat="48.94513" lon="1.82987">
        <ele>53</ele>
        <time>2024-12-16T08:57:51.539Z</time>
      </trkpt>
      <trkpt lat="48.94509" lon="1.82991">
        <ele>53</ele>
        <time>2024-12-16T08:57:55.717Z</time>
      </trkpt>
      <trkpt lat="48.94507" lon="1.82996">
        <ele>53</ele>
        <time>2024-12-16T08:57:59.983Z</time>
      </trkpt>
      <trkpt lat="48.94504" lon="1.82998">
        <ele>53</ele>
        <time>2024-12-16T08:58:04.460Z</time>
      </trkpt>
      <trkpt lat="48.94499" lon="1.83">
        <ele>53</ele>
        <time>2024-12-16T08:58:08.657Z</time>
      </trkpt>
      <trkpt lat="48.94495" lon="1.83005">
        <ele>53</ele>
        <time>2024-12-16T08:58:12.863Z</time>
      </trkpt>
      <trkpt lat="48.9449" lon="1.83011">
        <ele>53</ele>
        <time>2024-12-16T08:58:17.595Z</time>
      </trkpt>
      <trkpt lat="48.94485" lon="1.83016">
        <ele>49</ele>
        <time>2024-12-16T08:58:21.757Z</time>
      </trkpt>
      <trkpt lat="48.9448" lon="1.8302">
        <ele>49</ele>
        <time>2024-12-16T08:58:25.915Z</time>
      </trkpt>
      <trkpt lat="48.94475" lon="1.83024">
        <ele>49</ele>
        <time>2024-12-16T08:58:29.984Z</time>
      </trkpt>
      <trkpt lat="48.9447" lon="1.83028">
        <ele>49</ele>
        <time>2024-12-16T08:58:34.239Z</time>
      </trkpt>
      <trkpt lat="48.94465" lon="1.83032">
        <ele>49</ele>
        <time>2024-12-16T08:58:38.378Z</time>
      </trkpt>
      <trkpt lat="48.9446" lon="1.83037">
        <ele>49</ele>
        <time>2024-12-16T08:58:42.659Z</time>
      </trkpt>
      <trkpt lat="48.94455" lon="1.83041">
        <ele>46</ele>
        <time>2024-12-16T08:58:46.921Z</time>
      </trkpt>
      <trkpt lat="48.9445" lon="1.83043">
        <ele>42</ele>
        <time>2024-12-16T08:58:50.984Z</time>
      </trkpt>
      <trkpt lat="48.94445" lon="1.83045">
        <ele>42</ele>
        <time>2024-12-16T08:58:54.984Z</time>
      </trkpt>
      <trkpt lat="48.94439" lon="1.83046">
        <ele>42</ele>
        <time>2024-12-16T08:58:59.836Z</time>
      </trkpt>
      <trkpt lat="48.94439" lon="1.83052">
        <ele>42</ele>
        <time>2024-12-16T08:59:03.984Z</time>
      </trkpt>
      <trkpt lat="48.94439" lon="1.83054">
        <ele>42</ele>
        <time>2024-12-16T08:59:08.539Z</time>
      </trkpt>
      <trkpt lat="48.94439" lon="1.83056">
        <ele>42</ele>
        <time>2024-12-16T08:59:12.679Z</time>
      </trkpt>
      <trkpt lat="48.94441" lon="1.83065">
        <ele>42</ele>
        <time>2024-12-16T08:59:17.208Z</time>
      </trkpt>
      <trkpt lat="48.94438" lon="1.83067">
        <ele>42</ele>
        <time>2024-12-16T08:59:21.984Z</time>
      </trkpt>
      <trkpt lat="48.94438" lon="1.83068">
        <ele>42</ele>
        <time>2024-12-16T08:59:26.417Z</time>
      </trkpt>
      <trkpt lat="48.94436" lon="1.83071">
        <ele>37</ele>
        <time>2024-12-16T08:59:30.739Z</time>
      </trkpt>
      <trkpt lat="48.9443" lon="1.83071">
        <ele>37</ele>
        <time>2024-12-16T08:59:35.284Z</time>
      </trkpt>
      <trkpt lat="48.94424" lon="1.83071">
        <ele>37</ele>
        <time>2024-12-16T08:59:39.524Z</time>
      </trkpt>
      <trkpt lat="48.94419" lon="1.83072">
        <ele>37</ele>
        <time>2024-12-16T08:59:43.698Z</time>
      </trkpt>
      <trkpt lat="48.94416" lon="1.83078">
        <ele>37</ele>
        <time>2024-12-16T08:59:47.984Z</time>
      </trkpt>
      <trkpt lat="48.94411" lon="1.83081">
        <ele>37</ele>
        <time>2024-12-16T08:59:52.238Z</time>
      </trkpt>
      <trkpt lat="48.94405" lon="1.83086">
        <ele>37</ele>
        <time>2024-12-16T08:59:56.565Z</time>
      </trkpt>
      <trkpt lat="48.94401" lon="1.83093">
        <ele>41</ele>
        <time>2024-12-16T09:00:00.737Z</time>
      </trkpt>
      <trkpt lat="48.94398" lon="1.831">
        <ele>39</ele>
        <time>2024-12-16T09:00:04.940Z</time>
      </trkpt>
      <trkpt lat="48.94398" lon="1.83109">
        <ele>39</ele>
        <time>2024-12-16T09:00:09.215Z</time>
      </trkpt>
      <trkpt lat="48.94397" lon="1.83119">
        <ele>39</ele>
        <time>2024-12-16T09:00:13.303Z</time>
      </trkpt>
      <trkpt lat="48.94398" lon="1.83127">
        <ele>37</ele>
        <time>2024-12-16T09:00:17.587Z</time>
      </trkpt>
      <trkpt lat="48.94401" lon="1.83134">
        <ele>37</ele>
        <time>2024-12-16T09:00:21.802Z</time>
      </trkpt>
      <trkpt lat="48.94406" lon="1.83142">
        <ele>33</ele>
        <time>2024-12-16T09:00:26.099Z</time>
      </trkpt>
      <trkpt lat="48.94409" lon="1.83149">
        <ele>33</ele>
        <time>2024-12-16T09:00:30.364Z</time>
      </trkpt>
      <trkpt lat="48.94413" lon="1.83156">
        <ele>32</ele>
        <time>2024-12-16T09:00:34.726Z</time>
      </trkpt>
      <trkpt lat="48.94415" lon="1.83164">
        <ele>32</ele>
        <time>2024-12-16T09:00:39Z</time>
      </trkpt>
      <trkpt lat="48.94418" lon="1.83173">
        <ele>32</ele>
        <time>2024-12-16T09:00:43.473Z</time>
      </trkpt>
      <trkpt lat="48.94421" lon="1.83181">
        <ele>29</ele>
        <time>2024-12-16T09:00:47.994Z</time>
      </trkpt>
      <trkpt lat="48.94424" lon="1.83189">
        <ele>29</ele>
        <time>2024-12-16T09:00:52.458Z</time>
      </trkpt>
      <trkpt lat="48.94427" lon="1.83194">
        <ele>29</ele>
        <time>2024-12-16T09:00:56.984Z</time>
      </trkpt>
      <trkpt lat="48.94425" lon="1.83198">
        <ele>29</ele>
        <time>2024-12-16T09:01:01.983Z</time>
      </trkpt>
      <trkpt lat="48.94425" lon="1.83201">
        <ele>29</ele>
        <time>2024-12-16T09:01:06.423Z</time>
      </trkpt>
      <trkpt lat="48.94432" lon="1.83206">
        <ele>29</ele>
        <time>2024-12-16T09:01:10.680Z</time>
      </trkpt>
      <trkpt lat="48.94437" lon="1.8321">
        <ele>27</ele>
        <time>2024-12-16T09:01:14.984Z</time>
      </trkpt>
      <trkpt lat="48.94438" lon="1.83209">
        <ele>27</ele>
        <time>2024-12-16T09:01:19.984Z</time>
      </trkpt>
      <trkpt lat="48.94439" lon="1.8321">
        <ele>27</ele>
        <time>2024-12-16T09:01:23.984Z</time>
      </trkpt>
      <trkpt lat="48.94442" lon="1.83226">
        <ele>27</ele>
        <time>2024-12-16T09:01:28.863Z</time>
      </trkpt>
      <trkpt lat="48.94442" lon="1.83235">
        <ele>27</ele>
        <time>2024-12-16T09:01:32.984Z</time>
      </trkpt>
      <trkpt lat="48.94442" lon="1.83244">
        <ele>25</ele>
        <time>2024-12-16T09:01:36.984Z</time>
      </trkpt>
      <trkpt lat="48.9444" lon="1.83253">
        <ele>25</ele>
        <time>2024-12-16T09:01:41.193Z</time>
      </trkpt>
      <trkpt lat="48.94437" lon="1.83264">
        <ele>25</ele>
        <time>2024-12-16T09:01:45.715Z</time>
      </trkpt>
      <trkpt lat="48.94436" lon="1.83274">
        <ele>24</ele>
        <time>2024-12-16T09:01:49.983Z</time>
      </trkpt>
      <trkpt lat="48.94436" lon="1.83283">
        <ele>24</ele>
        <time>2024-12-16T09:01:54.302Z</time>
      </trkpt>
      <trkpt lat="48.94436" lon="1.83292">
        <ele>23</ele>
        <time>2024-12-16T09:01:58.554Z</time>
      </trkpt>
      <trkpt lat="48.94431" lon="1.83297">
        <ele>23</ele>
        <time>2024-12-16T09:02:02.885Z</time>
      </trkpt>
      <trkpt lat="48.94424" lon="1.83298">
        <ele>24</ele>
        <time>2024-12-16T09:02:07.179Z</time>
      </trkpt>
      <trkpt lat="48.94418" lon="1.83298">
        <ele>24</ele>
        <time>2024-12-16T09:02:11.435Z</time>
      </trkpt>
      <trkpt lat="48.94412" lon="1.83298">
        <ele>24</ele>
        <time>2024-12-16T09:02:15.778Z</time>
      </trkpt>
      <trkpt lat="48.94407" lon="1.83302">
        <ele>24</ele>
        <time>2024-12-16T09:02:19.984Z</time>
      </trkpt>
      <trkpt lat="48.94402" lon="1.8331">
        <ele>25</ele>
        <time>2024-12-16T09:02:24.334Z</time>
      </trkpt>
      <trkpt lat="48.944" lon="1.83319">
        <ele>25</ele>
        <time>2024-12-16T09:02:28.576Z</time>
      </trkpt>
      <trkpt lat="48.94401" lon="1.83329">
        <ele>23</ele>
        <time>2024-12-16T09:02:32.933Z</time>
      </trkpt>
      <trkpt lat="48.94404" lon="1.83338">
        <ele>23</ele>
        <time>2024-12-16T09:02:37.240Z</time>
      </trkpt>
      <trkpt lat="48.94406" lon="1.83347">
        <ele>23</ele>
        <time>2024-12-16T09:02:41.599Z</time>
      </trkpt>
      <trkpt lat="48.94409" lon="1.83355">
        <ele>22</ele>
        <time>2024-12-16T09:02:45.797Z</time>
      </trkpt>
      <trkpt lat="48.94412" lon="1.83362">
        <ele>22</ele>
        <time>2024-12-16T09:02:49.983Z</time>
      </trkpt>
      <trkpt lat="48.94416" lon="1.8337">
        <ele>22</ele>
        <time>2024-12-16T09:02:54.378Z</time>
      </trkpt>
      <trkpt lat="48.94419" lon="1.83378">
        <ele>22</ele>
        <time>2024-12-16T09:02:58.677Z</time>
      </trkpt>
      <trkpt lat="48.94423" lon="1.83385">
        <ele>22</ele>
        <time>2024-12-16T09:03:02.983Z</time>
      </trkpt>
      <trkpt lat="48.94427" lon="1.83392">
        <ele>22</ele>
        <time>2024-12-16T09:03:07.354Z</time>
      </trkpt>
      <trkpt lat="48.94431" lon="1.83398">
        <ele>21</ele>
        <time>2024-12-16T09:03:11.814Z</time>
      </trkpt>
      <trkpt lat="48.94433" lon="1.83405">
        <ele>21</ele>
        <time>2024-12-16T09:03:15.983Z</time>
      </trkpt>
      <trkpt lat="48.94436" lon="1.8341">
        <ele>21</ele>
        <time>2024-12-16T09:03:20.784Z</time>
      </trkpt>
      <trkpt lat="48.94441" lon="1.83415">
        <ele>21</ele>
        <time>2024-12-16T09:03:25.285Z</time>
      </trkpt>
      <trkpt lat="48.94445" lon="1.83423">
        <ele>21</ele>
        <time>2024-12-16T09:03:29.579Z</time>
      </trkpt>
      <trkpt lat="48.94448" lon="1.83428">
        <ele>21</ele>
        <time>2024-12-16T09:03:33.838Z</time>
      </trkpt>
      <trkpt lat="48.94452" lon="1.83436">
        <ele>22</ele>
        <time>2024-12-16T09:03:38.156Z</time>
      </trkpt>
      <trkpt lat="48.94456" lon="1.83442">
        <ele>22</ele>
        <time>2024-12-16T09:03:42.621Z</time>
      </trkpt>
      <trkpt lat="48.94457" lon="1.83447">
        <ele>22</ele>
        <time>2024-12-16T09:03:46.647Z</time>
      </trkpt>
      <trkpt lat="48.9446" lon="1.83454">
        <ele>22</ele>
        <time>2024-12-16T09:03:50.959Z</time>
      </trkpt>
      <trkpt lat="48.94464" lon="1.8346">
        <ele>22</ele>
        <time>2024-12-16T09:03:55.544Z</time>
      </trkpt>
      <trkpt lat="48.94467" lon="1.83466">
        <ele>22</ele>
        <time>2024-12-16T09:03:59.776Z</time>
      </trkpt>
      <trkpt lat="48.94469" lon="1.83473">
        <ele>22</ele>
        <time>2024-12-16T09:04:03.863Z</time>
      </trkpt>
      <trkpt lat="48.94472" lon="1.83478">
        <ele>22</ele>
        <time>2024-12-16T09:04:07.984Z</time>
      </trkpt>
      <trkpt lat="48.94476" lon="1.83484">
        <ele>22</ele>
        <time>2024-12-16T09:04:12.480Z</time>
      </trkpt>
      <trkpt lat="48.9448" lon="1.8349">
        <ele>23</ele>
        <time>2024-12-16T09:04:16.917Z</time>
      </trkpt>
      <trkpt lat="48.94484" lon="1.83496">
        <ele>23</ele>
        <time>2024-12-16T09:04:21.257Z</time>
      </trkpt>
      <trkpt lat="48.94487" lon="1.83503">
        <ele>22</ele>
        <time>2024-12-16T09:04:25.482Z</time>
      </trkpt>
      <trkpt lat="48.94491" lon="1.8351">
        <ele>22</ele>
        <time>2024-12-16T09:04:29.922Z</time>
      </trkpt>
      <trkpt lat="48.94494" lon="1.83518">
        <ele>22</ele>
        <time>2024-12-16T09:04:34.328Z</time>
      </trkpt>
      <trkpt lat="48.94498" lon="1.83525">
        <ele>22</ele>
        <time>2024-12-16T09:04:38.697Z</time>
      </trkpt>
      <trkpt lat="48.94501" lon="1.83532">
        <ele>22</ele>
        <time>2024-12-16T09:04:42.983Z</time>
      </trkpt>
      <trkpt lat="48.94504" lon="1.83539">
        <ele>22</ele>
        <time>2024-12-16T09:04:47.497Z</time>
      </trkpt>
      <trkpt lat="48.94507" lon="1.83547">
        <ele>23</ele>
        <time>2024-12-16T09:04:51.983Z</time>
      </trkpt>
      <trkpt lat="48.94511" lon="1.83554">
        <ele>23</ele>
        <time>2024-12-16T09:04:56.403Z</time>
      </trkpt>
      <trkpt lat="48.94511" lon="1.83569">
        <ele>23</ele>
        <time>2024-12-16T09:05:22.984Z</time>
      </trkpt>
      <trkpt lat="48.94513" lon="1.83572">
        <ele>24</ele>
        <time>2024-12-16T09:05:27.458Z</time>
      </trkpt>
      <trkpt lat="48.94519" lon="1.83576">
        <ele>24</ele>
        <time>2024-12-16T09:05:31.984Z</time>
      </trkpt>
      <trkpt lat="48.94523" lon="1.83583">
        <ele>24</ele>
        <time>2024-12-16T09:05:36.278Z</time>
      </trkpt>
      <trkpt lat="48.94526" lon="1.83591">
        <ele>24</ele>
        <time>2024-12-16T09:05:40.656Z</time>
      </trkpt>
      <trkpt lat="48.94528" lon="1.83599">
        <ele>26</ele>
        <time>2024-12-16T09:05:45.194Z</time>
      </trkpt>
      <trkpt lat="48.94531" lon="1.83605">
        <ele>26</ele>
        <time>2024-12-16T09:05:49.715Z</time>
      </trkpt>
      <trkpt lat="48.94534" lon="1.83611">
        <ele>26</ele>
        <time>2024-12-16T09:05:53.777Z</time>
      </trkpt>
      <trkpt lat="48.94537" lon="1.83617">
        <ele>26</ele>
        <time>2024-12-16T09:05:57.973Z</time>
      </trkpt>
      <trkpt lat="48.94541" lon="1.83622">
        <ele>26</ele>
        <time>2024-12-16T09:06:02.018Z</time>
      </trkpt>
      <trkpt lat="48.94546" lon="1.83621">
        <ele>28</ele>
        <time>2024-12-16T09:06:06.376Z</time>
      </trkpt>
      <trkpt lat="48.94551" lon="1.83619">
        <ele>28</ele>
        <time>2024-12-16T09:06:10.395Z</time>
      </trkpt>
      <trkpt lat="48.94556" lon="1.83615">
        <ele>28</ele>
        <time>2024-12-16T09:06:14.498Z</time>
      </trkpt>
      <trkpt lat="48.9456" lon="1.83614">
        <ele>28</ele>
        <time>2024-12-16T09:06:18.557Z</time>
      </trkpt>
      <trkpt lat="48.94563" lon="1.83619">
        <ele>28</ele>
        <time>2024-12-16T09:06:22.678Z</time>
      </trkpt>
      <trkpt lat="48.94565" lon="1.83626">
        <ele>30</ele>
        <time>2024-12-16T09:06:27.423Z</time>
      </trkpt>
      <trkpt lat="48.94565" lon="1.83635">
        <ele>30</ele>
        <time>2024-12-16T09:06:31.934Z</time>
      </trkpt>
      <trkpt lat="48.94567" lon="1.83644">
        <ele>30</ele>
        <time>2024-12-16T09:06:36.780Z</time>
      </trkpt>
      <trkpt lat="48.94569" lon="1.83649">
        <ele>30</ele>
        <time>2024-12-16T09:06:40.839Z</time>
      </trkpt>
      <trkpt lat="48.94574" lon="1.8365">
        <ele>30</ele>
        <time>2024-12-16T09:06:45.275Z</time>
      </trkpt>
      <trkpt lat="48.94579" lon="1.83643">
        <ele>30</ele>
        <time>2024-12-16T09:06:49.660Z</time>
      </trkpt>
      <trkpt lat="48.94584" lon="1.83638">
        <ele>30</ele>
        <time>2024-12-16T09:06:54.215Z</time>
      </trkpt>
      <trkpt lat="48.94588" lon="1.83635">
        <ele>30</ele>
        <time>2024-12-16T09:06:58.378Z</time>
      </trkpt>
      <trkpt lat="48.94592" lon="1.83633">
        <ele>30</ele>
        <time>2024-12-16T09:07:02.916Z</time>
      </trkpt>
      <trkpt lat="48.94596" lon="1.83638">
        <ele>30</ele>
        <time>2024-12-16T09:07:07.515Z</time>
      </trkpt>
      <trkpt lat="48.946" lon="1.8364">
        <ele>32</ele>
        <time>2024-12-16T09:07:11.984Z</time>
      </trkpt>
      <trkpt lat="48.94606" lon="1.83637">
        <ele>32</ele>
        <time>2024-12-16T09:07:16.143Z</time>
      </trkpt>
      <trkpt lat="48.94611" lon="1.83632">
        <ele>32</ele>
        <time>2024-12-16T09:07:20.497Z</time>
      </trkpt>
      <trkpt lat="48.94616" lon="1.83628">
        <ele>32</ele>
        <time>2024-12-16T09:07:24.992Z</time>
      </trkpt>
      <trkpt lat="48.9462" lon="1.83626">
        <ele>32</ele>
        <time>2024-12-16T09:07:29.258Z</time>
      </trkpt>
      <trkpt lat="48.94626" lon="1.83622">
        <ele>31</ele>
        <time>2024-12-16T09:07:33.600Z</time>
      </trkpt>
      <trkpt lat="48.94631" lon="1.83618">
        <ele>31</ele>
        <time>2024-12-16T09:07:37.984Z</time>
      </trkpt>
      <trkpt lat="48.94634" lon="1.83619">
        <ele>31</ele>
        <time>2024-12-16T09:07:40.934Z</time>
      </trkpt>
      <trkpt lat="48.94642" lon="1.83616">
        <ele>31</ele>
        <time>2024-12-16T09:07:49.502Z</time>
      </trkpt>
      <trkpt lat="48.94642" lon="1.83617">
        <ele>31</ele>
        <time>2024-12-16T09:07:53.984Z</time>
      </trkpt>
      <trkpt lat="48.94646" lon="1.83612">
        <ele>31</ele>
        <time>2024-12-16T09:07:58.340Z</time>
      </trkpt>
      <trkpt lat="48.9465" lon="1.83605">
        <ele>31</ele>
        <time>2024-12-16T09:08:02.441Z</time>
      </trkpt>
      <trkpt lat="48.94655" lon="1.83603">
        <ele>34</ele>
        <time>2024-12-16T09:08:06.775Z</time>
      </trkpt>
      <trkpt lat="48.9466" lon="1.83608">
        <ele>34</ele>
        <time>2024-12-16T09:08:10.998Z</time>
      </trkpt>
      <trkpt lat="48.94665" lon="1.83609">
        <ele>34</ele>
        <time>2024-12-16T09:08:15.254Z</time>
      </trkpt>
      <trkpt lat="48.94669" lon="1.83612">
        <ele>34</ele>
        <time>2024-12-16T09:08:19.757Z</time>
      </trkpt>
      <trkpt lat="48.94669" lon="1.83619">
        <ele>34</ele>
        <time>2024-12-16T09:08:23.983Z</time>
      </trkpt>
      <trkpt lat="48.9467" lon="1.83625">
        <ele>36</ele>
        <time>2024-12-16T09:08:28.297Z</time>
      </trkpt>
      <trkpt lat="48.94671" lon="1.83631">
        <ele>36</ele>
        <time>2024-12-16T09:08:32.399Z</time>
      </trkpt>
      <trkpt lat="48.94673" lon="1.83639">
        <ele>36</ele>
        <time>2024-12-16T09:08:36.984Z</time>
      </trkpt>
      <trkpt lat="48.94673" lon="1.83646">
        <ele>36</ele>
        <time>2024-12-16T09:08:41.340Z</time>
      </trkpt>
      <trkpt lat="48.94673" lon="1.83652">
        <ele>36</ele>
        <time>2024-12-16T09:08:45.375Z</time>
      </trkpt>
      <trkpt lat="48.94674" lon="1.83658">
        <ele>40</ele>
        <time>2024-12-16T09:08:49.461Z</time>
      </trkpt>
      <trkpt lat="48.94673" lon="1.83664">
        <ele>40</ele>
        <time>2024-12-16T09:08:53.821Z</time>
      </trkpt>
      <trkpt lat="48.94672" lon="1.83667">
        <ele>40</ele>
        <time>2024-12-16T09:08:57.983Z</time>
      </trkpt>
      <trkpt lat="48.94672" lon="1.83673">
        <ele>40</ele>
        <time>2024-12-16T09:09:01.983Z</time>
      </trkpt>
      <trkpt lat="48.94676" lon="1.83679">
        <ele>40</ele>
        <time>2024-12-16T09:09:06.496Z</time>
      </trkpt>
      <trkpt lat="48.94679" lon="1.83683">
        <ele>43</ele>
        <time>2024-12-16T09:09:10.684Z</time>
      </trkpt>
      <trkpt lat="48.94681" lon="1.83689">
        <ele>47</ele>
        <time>2024-12-16T09:09:14.984Z</time>
      </trkpt>
      <trkpt lat="48.94682" lon="1.83696">
        <ele>47</ele>
        <time>2024-12-16T09:09:19.394Z</time>
      </trkpt>
      <trkpt lat="48.94684" lon="1.83701">
        <ele>47</ele>
        <time>2024-12-16T09:09:23.703Z</time>
      </trkpt>
      <trkpt lat="48.94684" lon="1.83706">
        <ele>47</ele>
        <time>2024-12-16T09:09:27.984Z</time>
      </trkpt>
      <trkpt lat="48.94685" lon="1.83713">
        <ele>51</ele>
        <time>2024-12-16T09:09:32.759Z</time>
      </trkpt>
      <trkpt lat="48.94688" lon="1.83716">
        <ele>51</ele>
        <time>2024-12-16T09:09:37.281Z</time>
      </trkpt>
      <trkpt lat="48.9469" lon="1.8372">
        <ele>51</ele>
        <time>2024-12-16T09:09:41.580Z</time>
      </trkpt>
      <trkpt lat="48.94691" lon="1.83724">
        <ele>51</ele>
        <time>2024-12-16T09:09:45.984Z</time>
      </trkpt>
      <trkpt lat="48.94692" lon="1.83729">
        <ele>51</ele>
        <time>2024-12-16T09:09:50.136Z</time>
      </trkpt>
      <trkpt lat="48.94692" lon="1.83733">
        <ele>51</ele>
        <time>2024-12-16T09:09:54.179Z</time>
      </trkpt>
      <trkpt lat="48.94693" lon="1.83737">
        <ele>55</ele>
        <time>2024-12-16T09:09:58.984Z</time>
      </trkpt>
      <trkpt lat="48.94695" lon="1.83743">
        <ele>55</ele>
        <time>2024-12-16T09:10:03.984Z</time>
      </trkpt>
      <trkpt lat="48.94697" lon="1.83748">
        <ele>55</ele>
        <time>2024-12-16T09:10:08.984Z</time>
      </trkpt>
      <trkpt lat="48.94699" lon="1.83755">
        <ele>55</ele>
        <time>2024-12-16T09:10:13.414Z</time>
      </trkpt>
      <trkpt lat="48.94701" lon="1.83761">
        <ele>55</ele>
        <time>2024-12-16T09:10:17.713Z</time>
      </trkpt>
      <trkpt lat="48.94702" lon="1.83768">
        <ele>60</ele>
        <time>2024-12-16T09:10:22.353Z</time>
      </trkpt>
      <trkpt lat="48.94703" lon="1.83773">
        <ele>60</ele>
        <time>2024-12-16T09:10:26.696Z</time>
      </trkpt>
      <trkpt lat="48.94704" lon="1.83777">
        <ele>60</ele>
        <time>2024-12-16T09:10:30.984Z</time>
      </trkpt>
      <trkpt lat="48.94705" lon="1.83782">
        <ele>60</ele>
        <time>2024-12-16T09:10:35.556Z</time>
      </trkpt>
      <trkpt lat="48.94705" lon="1.83787">
        <ele>60</ele>
        <time>2024-12-16T09:10:39.857Z</time>
      </trkpt>
      <trkpt lat="48.94696" lon="1.838">
        <ele>65</ele>
        <time>2024-12-16T09:11:01.233Z</time>
      </trkpt>
      <trkpt lat="48.94693" lon="1.83794">
        <ele>65</ele>
        <time>2024-12-16T09:11:05.957Z</time>
      </trkpt>
      <trkpt lat="48.94692" lon="1.83793">
        <ele>65</ele>
        <time>2024-12-16T09:11:07.278Z</time>
      </trkpt>
      <trkpt lat="48.94692" lon="1.83787">
        <ele>60</ele>
        <time>2024-12-16T09:11:14.859Z</time>
      </trkpt>
      <trkpt lat="48.94688" lon="1.83787">
        <ele>60</ele>
        <time>2024-12-16T09:11:18.894Z</time>
      </trkpt>
      <trkpt lat="48.94684" lon="1.83795">
        <ele>65</ele>
        <time>2024-12-16T09:11:23.155Z</time>
      </trkpt>
      <trkpt lat="48.94681" lon="1.83804">
        <ele>65</ele>
        <time>2024-12-16T09:11:27.535Z</time>
      </trkpt>
      <trkpt lat="48.94678" lon="1.83811">
        <ele>62</ele>
        <time>2024-12-16T09:11:31.895Z</time>
      </trkpt>
      <trkpt lat="48.94674" lon="1.83818">
        <ele>62</ele>
        <time>2024-12-16T09:11:36.279Z</time>
      </trkpt>
      <trkpt lat="48.9467" lon="1.83826">
        <ele>66</ele>
        <time>2024-12-16T09:11:40.816Z</time>
      </trkpt>
      <trkpt lat="48.94667" lon="1.83833">
        <ele>66</ele>
        <time>2024-12-16T09:11:45.319Z</time>
      </trkpt>
      <trkpt lat="48.94664" lon="1.83839">
        <ele>66</ele>
        <time>2024-12-16T09:11:49.577Z</time>
      </trkpt>
      <trkpt lat="48.94661" lon="1.83846">
        <ele>66</ele>
        <time>2024-12-16T09:11:53.984Z</time>
      </trkpt>
      <trkpt lat="48.94657" lon="1.83853">
        <ele>70</ele>
        <time>2024-12-16T09:11:58.983Z</time>
      </trkpt>
      <trkpt lat="48.94654" lon="1.8386">
        <ele>70</ele>
        <time>2024-12-16T09:12:03.643Z</time>
      </trkpt>
      <trkpt lat="48.94653" lon="1.83866">
        <ele>65</ele>
        <time>2024-12-16T09:12:07.976Z</time>
      </trkpt>
      <trkpt lat="48.9465" lon="1.83871">
        <ele>65</ele>
        <time>2024-12-16T09:12:11.983Z</time>
      </trkpt>
      <trkpt lat="48.94649" lon="1.8388">
        <ele>69</ele>
        <time>2024-12-16T09:12:16.763Z</time>
      </trkpt>
      <trkpt lat="48.94643" lon="1.83886">
        <ele>69</ele>
        <time>2024-12-16T09:12:20.983Z</time>
      </trkpt>
      <trkpt lat="48.94641" lon="1.83892">
        <ele>69</ele>
        <time>2024-12-16T09:12:24.984Z</time>
      </trkpt>
      <trkpt lat="48.94639" lon="1.839">
        <ele>69</ele>
        <time>2024-12-16T09:12:29.644Z</time>
      </trkpt>
      <trkpt lat="48.94635" lon="1.83908">
        <ele>75</ele>
        <time>2024-12-16T09:12:33.882Z</time>
      </trkpt>
      <trkpt lat="48.94631" lon="1.83914">
        <ele>75</ele>
        <time>2024-12-16T09:12:37.984Z</time>
      </trkpt>
      <trkpt lat="48.94629" lon="1.83921">
        <ele>75</ele>
        <time>2024-12-16T09:12:42.215Z</time>
      </trkpt>
      <trkpt lat="48.94628" lon="1.83927">
        <ele>75</ele>
        <time>2024-12-16T09:12:46.601Z</time>
      </trkpt>
      <trkpt lat="48.94625" lon="1.83931">
        <ele>78</ele>
        <time>2024-12-16T09:12:50.704Z</time>
      </trkpt>
      <trkpt lat="48.9462" lon="1.83932">
        <ele>78</ele>
        <time>2024-12-16T09:12:55.274Z</time>
      </trkpt>
      <trkpt lat="48.94614" lon="1.83933">
        <ele>78</ele>
        <time>2024-12-16T09:12:59.962Z</time>
      </trkpt>
      <trkpt lat="48.9461" lon="1.83937">
        <ele>78</ele>
        <time>2024-12-16T09:13:03.984Z</time>
      </trkpt>
      <trkpt lat="48.94605" lon="1.83941">
        <ele>78</ele>
        <time>2024-12-16T09:13:08.983Z</time>
      </trkpt>
      <trkpt lat="48.946" lon="1.83945">
        <ele>78</ele>
        <time>2024-12-16T09:13:13.983Z</time>
      </trkpt>
      <trkpt lat="48.94594" lon="1.83949">
        <ele>77</ele>
        <time>2024-12-16T09:13:18.644Z</time>
      </trkpt>
      <trkpt lat="48.94589" lon="1.83953">
        <ele>77</ele>
        <time>2024-12-16T09:13:23.179Z</time>
      </trkpt>
      <trkpt lat="48.94584" lon="1.83957">
        <ele>77</ele>
        <time>2024-12-16T09:13:27.743Z</time>
      </trkpt>
      <trkpt lat="48.94579" lon="1.83961">
        <ele>80</ele>
        <time>2024-12-16T09:13:31.983Z</time>
      </trkpt>
      <trkpt lat="48.94573" lon="1.83965">
        <ele>80</ele>
        <time>2024-12-16T09:13:36.866Z</time>
      </trkpt>
      <trkpt lat="48.94569" lon="1.8397">
        <ele>78</ele>
        <time>2024-12-16T09:13:40.984Z</time>
      </trkpt>
      <trkpt lat="48.94563" lon="1.83974">
        <ele>78</ele>
        <time>2024-12-16T09:13:45.858Z</time>
      </trkpt>
      <trkpt lat="48.94559" lon="1.83977">
        <ele>78</ele>
        <time>2024-12-16T09:13:50.448Z</time>
      </trkpt>
      <trkpt lat="48.94554" lon="1.83981">
        <ele>78</ele>
        <time>2024-12-16T09:13:54.984Z</time>
      </trkpt>
      <trkpt lat="48.94549" lon="1.83984">
        <ele>78</ele>
        <time>2024-12-16T09:13:59.317Z</time>
      </trkpt>
      <trkpt lat="48.94543" lon="1.8399">
        <ele>81</ele>
        <time>2024-12-16T09:14:03.423Z</time>
      </trkpt>
      <trkpt lat="48.94539" lon="1.83995">
        <ele>79</ele>
        <time>2024-12-16T09:14:07.719Z</time>
      </trkpt>
      <trkpt lat="48.94533" lon="1.83999">
        <ele>79</ele>
        <time>2024-12-16T09:14:12.180Z</time>
      </trkpt>
      <trkpt lat="48.94527" lon="1.84002">
        <ele>79</ele>
        <time>2024-12-16T09:14:16.557Z</time>
      </trkpt>
      <trkpt lat="48.94521" lon="1.84006">
        <ele>79</ele>
        <time>2024-12-16T09:14:20.941Z</time>
      </trkpt>
      <trkpt lat="48.94515" lon="1.8401">
        <ele>79</ele>
        <time>2024-12-16T09:14:25.520Z</time>
      </trkpt>
      <trkpt lat="48.9451" lon="1.84013">
        <ele>75</ele>
        <time>2024-12-16T09:14:29.897Z</time>
      </trkpt>
      <trkpt lat="48.94506" lon="1.84016">
        <ele>79</ele>
        <time>2024-12-16T09:14:34.341Z</time>
      </trkpt>
      <trkpt lat="48.94501" lon="1.8402">
        <ele>79</ele>
        <time>2024-12-16T09:14:38.802Z</time>
      </trkpt>
      <trkpt lat="48.94495" lon="1.84024">
        <ele>79</ele>
        <time>2024-12-16T09:14:43.296Z</time>
      </trkpt>
      <trkpt lat="48.94492" lon="1.84028">
        <ele>79</ele>
        <time>2024-12-16T09:14:47.339Z</time>
      </trkpt>
      <trkpt lat="48.94488" lon="1.84033">
        <ele>79</ele>
        <time>2024-12-16T09:14:51.383Z</time>
      </trkpt>
      <trkpt lat="48.94483" lon="1.84039">
        <ele>75</ele>
        <time>2024-12-16T09:14:55.904Z</time>
      </trkpt>
      <trkpt lat="48.94479" lon="1.84046">
        <ele>80</ele>
        <time>2024-12-16T09:15:00.439Z</time>
      </trkpt>
      <trkpt lat="48.94476" lon="1.84052">
        <ele>80</ele>
        <time>2024-12-16T09:15:04.934Z</time>
      </trkpt>
      <trkpt lat="48.94472" lon="1.84059">
        <ele>80</ele>
        <time>2024-12-16T09:15:09.423Z</time>
      </trkpt>
      <trkpt lat="48.94468" lon="1.84065">
        <ele>80</ele>
        <time>2024-12-16T09:15:13.944Z</time>
      </trkpt>
      <trkpt lat="48.94465" lon="1.8407">
        <ele>85</ele>
        <time>2024-12-16T09:15:17.958Z</time>
      </trkpt>
      <trkpt lat="48.9446" lon="1.84076">
        <ele>85</ele>
        <time>2024-12-16T09:15:22.463Z</time>
      </trkpt>
      <trkpt lat="48.94455" lon="1.84081">
        <ele>81</ele>
        <time>2024-12-16T09:15:27.010Z</time>
      </trkpt>
      <trkpt lat="48.9445" lon="1.84086">
        <ele>81</ele>
        <time>2024-12-16T09:15:31.537Z</time>
      </trkpt>
      <trkpt lat="48.94445" lon="1.84089">
        <ele>81</ele>
        <time>2024-12-16T09:15:35.581Z</time>
      </trkpt>
      <trkpt lat="48.94441" lon="1.84094">
        <ele>81</ele>
        <time>2024-12-16T09:15:39.615Z</time>
      </trkpt>
      <trkpt lat="48.94437" lon="1.84098">
        <ele>85</ele>
        <time>2024-12-16T09:15:43.659Z</time>
      </trkpt>
      <trkpt lat="48.94432" lon="1.84102">
        <ele>85</ele>
        <time>2024-12-16T09:15:47.759Z</time>
      </trkpt>
      <trkpt lat="48.94428" lon="1.84106">
        <ele>81</ele>
        <time>2024-12-16T09:15:51.897Z</time>
      </trkpt>
      <trkpt lat="48.94424" lon="1.8411">
        <ele>81</ele>
        <time>2024-12-16T09:15:55.940Z</time>
      </trkpt>
      <trkpt lat="48.9442" lon="1.84117">
        <ele>81</ele>
        <time>2024-12-16T09:16:00.477Z</time>
      </trkpt>
      <trkpt lat="48.94417" lon="1.84123">
        <ele>81</ele>
        <time>2024-12-16T09:16:04.657Z</time>
      </trkpt>
      <trkpt lat="48.94414" lon="1.8413">
        <ele>85</ele>
        <time>2024-12-16T09:16:08.700Z</time>
      </trkpt>
      <trkpt lat="48.94411" lon="1.84136">
        <ele>85</ele>
        <time>2024-12-16T09:16:12.819Z</time>
      </trkpt>
      <trkpt lat="48.94407" lon="1.8414">
        <ele>85</ele>
        <time>2024-12-16T09:16:16.984Z</time>
      </trkpt>
      <trkpt lat="48.94405" lon="1.84148">
        <ele>85</ele>
        <time>2024-12-16T09:16:21.698Z</time>
      </trkpt>
      <trkpt lat="48.94402" lon="1.84154">
        <ele>87</ele>
        <time>2024-12-16T09:16:25.920Z</time>
      </trkpt>
      <trkpt lat="48.94398" lon="1.84159">
        <ele>87</ele>
        <time>2024-12-16T09:16:30.458Z</time>
      </trkpt>
      <trkpt lat="48.94393" lon="1.84164">
        <ele>87</ele>
        <time>2024-12-16T09:16:34.999Z</time>
      </trkpt>
      <trkpt lat="48.94388" lon="1.84166">
        <ele>87</ele>
        <time>2024-12-16T09:16:39.543Z</time>
      </trkpt>
      <trkpt lat="48.94383" lon="1.84169">
        <ele>87</ele>
        <time>2024-12-16T09:16:43.575Z</time>
      </trkpt>
      <trkpt lat="48.94378" lon="1.8417">
        <ele>87</ele>
        <time>2024-12-16T09:16:47.984Z</time>
      </trkpt>
      <trkpt lat="48.94372" lon="1.84171">
        <ele>84</ele>
        <time>2024-12-16T09:16:52.662Z</time>
      </trkpt>
      <trkpt lat="48.94366" lon="1.84172">
        <ele>84</ele>
        <time>2024-12-16T09:16:57.179Z</time>
      </trkpt>
      <trkpt lat="48.9436" lon="1.84172">
        <ele>84</ele>
        <time>2024-12-16T09:17:01.658Z</time>
      </trkpt>
      <trkpt lat="48.94354" lon="1.84173">
        <ele>84</ele>
        <time>2024-12-16T09:17:06.162Z</time>
      </trkpt>
      <trkpt lat="48.94348" lon="1.84175">
        <ele>84</ele>
        <time>2024-12-16T09:17:10.657Z</time>
      </trkpt>
      <trkpt lat="48.94344" lon="1.84178">
        <ele>80</ele>
        <time>2024-12-16T09:17:14.803Z</time>
      </trkpt>
      <trkpt lat="48.94338" lon="1.84183">
        <ele>85</ele>
        <time>2024-12-16T09:17:19.843Z</time>
      </trkpt>
      <trkpt lat="48.94334" lon="1.84188">
        <ele>85</ele>
        <time>2024-12-16T09:17:24.304Z</time>
      </trkpt>
      <trkpt lat="48.94329" lon="1.84193">
        <ele>85</ele>
        <time>2024-12-16T09:17:28.780Z</time>
      </trkpt>
      <trkpt lat="48.94324" lon="1.84198">
        <ele>85</ele>
        <time>2024-12-16T09:17:33.259Z</time>
      </trkpt>
      <trkpt lat="48.94319" lon="1.84202">
        <ele>81</ele>
        <time>2024-12-16T09:17:37.783Z</time>
      </trkpt>
      <trkpt lat="48.94314" lon="1.84206">
        <ele>81</ele>
        <time>2024-12-16T09:17:42.236Z</time>
      </trkpt>
      <trkpt lat="48.94308" lon="1.8421">
        <ele>87</ele>
        <time>2024-12-16T09:17:46.696Z</time>
      </trkpt>
      <trkpt lat="48.94303" lon="1.84214">
        <ele>87</ele>
        <time>2024-12-16T09:17:51.157Z</time>
      </trkpt>
      <trkpt lat="48.94297" lon="1.84218">
        <ele>87</ele>
        <time>2024-12-16T09:17:55.719Z</time>
      </trkpt>
      <trkpt lat="48.94292" lon="1.8422">
        <ele>87</ele>
        <time>2024-12-16T09:18:00.157Z</time>
      </trkpt>
      <trkpt lat="48.94286" lon="1.84223">
        <ele>81</ele>
        <time>2024-12-16T09:18:04.642Z</time>
      </trkpt>
      <trkpt lat="48.94281" lon="1.84228">
        <ele>81</ele>
        <time>2024-12-16T09:18:09.076Z</time>
      </trkpt>
      <trkpt lat="48.94277" lon="1.84234">
        <ele>81</ele>
        <time>2024-12-16T09:18:13.596Z</time>
      </trkpt>
      <trkpt lat="48.94272" lon="1.84239">
        <ele>85</ele>
        <time>2024-12-16T09:18:18.100Z</time>
      </trkpt>
      <trkpt lat="48.94267" lon="1.84244">
        <ele>85</ele>
        <time>2024-12-16T09:18:22.621Z</time>
      </trkpt>
      <trkpt lat="48.94262" lon="1.84248">
        <ele>81</ele>
        <time>2024-12-16T09:18:26.983Z</time>
      </trkpt>
      <trkpt lat="48.94256" lon="1.84253">
        <ele>81</ele>
        <time>2024-12-16T09:18:31.602Z</time>
      </trkpt>
      <trkpt lat="48.94251" lon="1.84255">
        <ele>81</ele>
        <time>2024-12-16T09:18:35.984Z</time>
      </trkpt>
      <trkpt lat="48.94245" lon="1.84257">
        <ele>81</ele>
        <time>2024-12-16T09:18:40.497Z</time>
      </trkpt>
      <trkpt lat="48.94239" lon="1.84256">
        <ele>81</ele>
        <time>2024-12-16T09:18:44.957Z</time>
      </trkpt>
      <trkpt lat="48.94234" lon="1.84253">
        <ele>80</ele>
        <time>2024-12-16T09:18:49.436Z</time>
      </trkpt>
      <trkpt lat="48.94229" lon="1.84248">
        <ele>80</ele>
        <time>2024-12-16T09:18:53.923Z</time>
      </trkpt>
      <trkpt lat="48.94226" lon="1.84241">
        <ele>80</ele>
        <time>2024-12-16T09:18:58.323Z</time>
      </trkpt>
      <trkpt lat="48.94223" lon="1.84235">
        <ele>77</ele>
        <time>2024-12-16T09:19:02.743Z</time>
      </trkpt>
      <trkpt lat="48.9422" lon="1.84229">
        <ele>77</ele>
        <time>2024-12-16T09:19:07.322Z</time>
      </trkpt>
      <trkpt lat="48.94216" lon="1.84223">
        <ele>77</ele>
        <time>2024-12-16T09:19:11.679Z</time>
      </trkpt>
      <trkpt lat="48.9421" lon="1.84219">
        <ele>77</ele>
        <time>2024-12-16T09:19:16.147Z</time>
      </trkpt>
      <trkpt lat="48.94204" lon="1.84223">
        <ele>76</ele>
        <time>2024-12-16T09:19:20.663Z</time>
      </trkpt>
      <trkpt lat="48.94198" lon="1.84224">
        <ele>76</ele>
        <time>2024-12-16T09:19:24.738Z</time>
      </trkpt>
      <trkpt lat="48.94193" lon="1.84225">
        <ele>76</ele>
        <time>2024-12-16T09:19:28.984Z</time>
      </trkpt>
      <trkpt lat="48.94187" lon="1.84227">
        <ele>76</ele>
        <time>2024-12-16T09:19:33.463Z</time>
      </trkpt>
      <trkpt lat="48.9418" lon="1.84229">
        <ele>74</ele>
        <time>2024-12-16T09:20:27.984Z</time>
      </trkpt>
      <trkpt lat="48.9418" lon="1.84229">
        <ele>74</ele>
        <time>2024-12-16T09:20:33.779Z</time>
      </trkpt>
      <trkpt lat="48.94173" lon="1.84235">
        <ele>74</ele>
        <time>2024-12-16T09:20:38.180Z</time>
      </trkpt>
      <trkpt lat="48.94166" lon="1.84235">
        <ele>74</ele>
        <time>2024-12-16T09:20:42.545Z</time>
      </trkpt>
      <trkpt lat="48.94161" lon="1.84241">
        <ele>79</ele>
        <time>2024-12-16T09:20:46.879Z</time>
      </trkpt>
      <trkpt lat="48.94157" lon="1.84247">
        <ele>79</ele>
        <time>2024-12-16T09:20:51.243Z</time>
      </trkpt>
      <trkpt lat="48.94152" lon="1.84252">
        <ele>76</ele>
        <time>2024-12-16T09:20:55.683Z</time>
      </trkpt>
      <trkpt lat="48.94147" lon="1.84255">
        <ele>76</ele>
        <time>2024-12-16T09:21:00.100Z</time>
      </trkpt>
      <trkpt lat="48.94142" lon="1.8426">
        <ele>76</ele>
        <time>2024-12-16T09:21:04.536Z</time>
      </trkpt>
      <trkpt lat="48.94137" lon="1.84266">
        <ele>80</ele>
        <time>2024-12-16T09:21:08.984Z</time>
      </trkpt>
      <trkpt lat="48.94133" lon="1.84273">
        <ele>80</ele>
        <time>2024-12-16T09:21:13.604Z</time>
      </trkpt>
      <trkpt lat="48.94128" lon="1.84276">
        <ele>80</ele>
        <time>2024-12-16T09:21:17.678Z</time>
      </trkpt>
      <trkpt lat="48.94124" lon="1.8428">
        <ele>75</ele>
        <time>2024-12-16T09:21:22.243Z</time>
      </trkpt>
      <trkpt lat="48.94119" lon="1.84284">
        <ele>75</ele>
        <time>2024-12-16T09:21:26.795Z</time>
      </trkpt>
      <trkpt lat="48.94114" lon="1.84288">
        <ele>75</ele>
        <time>2024-12-16T09:21:30.883Z</time>
      </trkpt>
      <trkpt lat="48.9411" lon="1.84292">
        <ele>80</ele>
        <time>2024-12-16T09:21:35.283Z</time>
      </trkpt>
      <trkpt lat="48.94105" lon="1.84298">
        <ele>80</ele>
        <time>2024-12-16T09:21:39.837Z</time>
      </trkpt>
      <trkpt lat="48.941" lon="1.84301">
        <ele>80</ele>
        <time>2024-12-16T09:21:44.418Z</time>
      </trkpt>
      <trkpt lat="48.94096" lon="1.84305">
        <ele>77</ele>
        <time>2024-12-16T09:21:48.537Z</time>
      </trkpt>
      <trkpt lat="48.94091" lon="1.84309">
        <ele>77</ele>
        <time>2024-12-16T09:21:52.984Z</time>
      </trkpt>
      <trkpt lat="48.94086" lon="1.84315">
        <ele>77</ele>
        <time>2024-12-16T09:21:57.516Z</time>
      </trkpt>
      <trkpt lat="48.94081" lon="1.84319">
        <ele>77</ele>
        <time>2024-12-16T09:22:01.983Z</time>
      </trkpt>
      <trkpt lat="48.94076" lon="1.84326">
        <ele>82</ele>
        <time>2024-12-16T09:22:06.541Z</time>
      </trkpt>
      <trkpt lat="48.94072" lon="1.8433">
        <ele>82</ele>
        <time>2024-12-16T09:22:10.984Z</time>
      </trkpt>
      <trkpt lat="48.94067" lon="1.84336">
        <ele>76</ele>
        <time>2024-12-16T09:22:15.659Z</time>
      </trkpt>
      <trkpt lat="48.94063" lon="1.84342">
        <ele>76</ele>
        <time>2024-12-16T09:22:20.222Z</time>
      </trkpt>
      <trkpt lat="48.9406" lon="1.84348">
        <ele>81</ele>
        <time>2024-12-16T09:22:24.802Z</time>
      </trkpt>
      <trkpt lat="48.94056" lon="1.84355">
        <ele>81</ele>
        <time>2024-12-16T09:22:29.278Z</time>
      </trkpt>
      <trkpt lat="48.94053" lon="1.84362">
        <ele>81</ele>
        <time>2024-12-16T09:22:33.798Z</time>
      </trkpt>
      <trkpt lat="48.94051" lon="1.8437">
        <ele>81</ele>
        <time>2024-12-16T09:22:37.858Z</time>
      </trkpt>
      <trkpt lat="48.94048" lon="1.84376">
        <ele>83</ele>
        <time>2024-12-16T09:22:41.983Z</time>
      </trkpt>
      <trkpt lat="48.94046" lon="1.84383">
        <ele>83</ele>
        <time>2024-12-16T09:22:46.515Z</time>
      </trkpt>
      <trkpt lat="48.94045" lon="1.8439">
        <ele>83</ele>
        <time>2024-12-16T09:22:50.558Z</time>
      </trkpt>
      <trkpt lat="48.94043" lon="1.84398">
        <ele>83</ele>
        <time>2024-12-16T09:22:54.601Z</time>
      </trkpt>
      <trkpt lat="48.94041" lon="1.84405">
        <ele>77</ele>
        <time>2024-12-16T09:22:58.618Z</time>
      </trkpt>
      <trkpt lat="48.94039" lon="1.84412">
        <ele>77</ele>
        <time>2024-12-16T09:23:02.636Z</time>
      </trkpt>
      <trkpt lat="48.94037" lon="1.8442">
        <ele>77</ele>
        <time>2024-12-16T09:23:07.215Z</time>
      </trkpt>
      <trkpt lat="48.94036" lon="1.84429">
        <ele>77</ele>
        <time>2024-12-16T09:23:11.703Z</time>
      </trkpt>
      <trkpt lat="48.94035" lon="1.84437">
        <ele>78</ele>
        <time>2024-12-16T09:23:16.283Z</time>
      </trkpt>
      <trkpt lat="48.94035" lon="1.84446">
        <ele>78</ele>
        <time>2024-12-16T09:23:20.639Z</time>
      </trkpt>
      <trkpt lat="48.94033" lon="1.84455">
        <ele>78</ele>
        <time>2024-12-16T09:23:25.220Z</time>
      </trkpt>
      <trkpt lat="48.94034" lon="1.84464">
        <ele>81</ele>
        <time>2024-12-16T09:23:29.799Z</time>
      </trkpt>
      <trkpt lat="48.94034" lon="1.84472">
        <ele>81</ele>
        <time>2024-12-16T09:23:33.843Z</time>
      </trkpt>
      <trkpt lat="48.94032" lon="1.84479">
        <ele>81</ele>
        <time>2024-12-16T09:23:37.984Z</time>
      </trkpt>
      <trkpt lat="48.94028" lon="1.84485">
        <ele>81</ele>
        <time>2024-12-16T09:23:42.337Z</time>
      </trkpt>
      <trkpt lat="48.94022" lon="1.84483">
        <ele>81</ele>
        <time>2024-12-16T09:24:03.984Z</time>
      </trkpt>
      <trkpt lat="48.94021" lon="1.84483">
        <ele>81</ele>
        <time>2024-12-16T09:24:09.503Z</time>
      </trkpt>
      <trkpt lat="48.94015" lon="1.8448">
        <ele>81</ele>
        <time>2024-12-16T09:24:13.984Z</time>
      </trkpt>
      <trkpt lat="48.94013" lon="1.84472">
        <ele>75</ele>
        <time>2024-12-16T09:24:18.558Z</time>
      </trkpt>
      <trkpt lat="48.94012" lon="1.84465">
        <ele>75</ele>
        <time>2024-12-16T09:24:22.916Z</time>
      </trkpt>
      <trkpt lat="48.94011" lon="1.8446">
        <ele>75</ele>
        <time>2024-12-16T09:24:26.977Z</time>
      </trkpt>
      <trkpt lat="48.94006" lon="1.84458">
        <ele>73</ele>
        <time>2024-12-16T09:24:31.403Z</time>
      </trkpt>
      <trkpt lat="48.94002" lon="1.84455">
        <ele>73</ele>
        <time>2024-12-16T09:24:35.983Z</time>
      </trkpt>
      <trkpt lat="48.93998" lon="1.84452">
        <ele>73</ele>
        <time>2024-12-16T09:24:40.723Z</time>
      </trkpt>
      <trkpt lat="48.93994" lon="1.84448">
        <ele>73</ele>
        <time>2024-12-16T09:24:44.985Z</time>
      </trkpt>
      <trkpt lat="48.93988" lon="1.84447">
        <ele>73</ele>
        <time>2024-12-16T09:24:49.197Z</time>
      </trkpt>
      <trkpt lat="48.93981" lon="1.84447">
        <ele>67</ele>
        <time>2024-12-16T09:24:53.443Z</time>
      </trkpt>
      <trkpt lat="48.93976" lon="1.84447">
        <ele>67</ele>
        <time>2024-12-16T09:24:57.783Z</time>
      </trkpt>
      <trkpt lat="48.93973" lon="1.84449">
        <ele>67</ele>
        <time>2024-12-16T09:25:12.984Z</time>
      </trkpt>
      <trkpt lat="48.93973" lon="1.8445">
        <ele>67</ele>
        <time>2024-12-16T09:25:17.983Z</time>
      </trkpt>
      <trkpt lat="48.93968" lon="1.8445">
        <ele>67</ele>
        <time>2024-12-16T09:25:22.005Z</time>
      </trkpt>
      <trkpt lat="48.93963" lon="1.84451">
        <ele>67</ele>
        <time>2024-12-16T09:25:26.550Z</time>
      </trkpt>
      <trkpt lat="48.93958" lon="1.84445">
        <ele>61</ele>
        <time>2024-12-16T09:25:30.964Z</time>
      </trkpt>
      <trkpt lat="48.93952" lon="1.84442">
        <ele>61</ele>
        <time>2024-12-16T09:25:35.380Z</time>
      </trkpt>
      <trkpt lat="48.93947" lon="1.84439">
        <ele>61</ele>
        <time>2024-12-16T09:25:39.728Z</time>
      </trkpt>
      <trkpt lat="48.93941" lon="1.84437">
        <ele>61</ele>
        <time>2024-12-16T09:25:44.127Z</time>
      </trkpt>
      <trkpt lat="48.93936" lon="1.84433">
        <ele>61</ele>
        <time>2024-12-16T09:25:48.478Z</time>
      </trkpt>
      <trkpt lat="48.93931" lon="1.84428">
        <ele>60</ele>
        <time>2024-12-16T09:25:52.779Z</time>
      </trkpt>
      <trkpt lat="48.93926" lon="1.84424">
        <ele>54</ele>
        <time>2024-12-16T09:25:56.983Z</time>
      </trkpt>
      <trkpt lat="48.93921" lon="1.84421">
        <ele>54</ele>
        <time>2024-12-16T09:26:01.584Z</time>
      </trkpt>
      <trkpt lat="48.93915" lon="1.84417">
        <ele>54</ele>
        <time>2024-12-16T09:26:05.902Z</time>
      </trkpt>
      <trkpt lat="48.9391" lon="1.84414">
        <ele>54</ele>
        <time>2024-12-16T09:26:09.984Z</time>
      </trkpt>
      <trkpt lat="48.93905" lon="1.8441">
        <ele>54</ele>
        <time>2024-12-16T09:26:14.106Z</time>
      </trkpt>
      <trkpt lat="48.93899" lon="1.84408">
        <ele>51</ele>
        <time>2024-12-16T09:26:18.940Z</time>
      </trkpt>
      <trkpt lat="48.93893" lon="1.84405">
        <ele>51</ele>
        <time>2024-12-16T09:26:22.983Z</time>
      </trkpt>
      <trkpt lat="48.93888" lon="1.84405">
        <ele>51</ele>
        <time>2024-12-16T09:26:27.247Z</time>
      </trkpt>
      <trkpt lat="48.93883" lon="1.84405">
        <ele>51</ele>
        <time>2024-12-16T09:26:31.387Z</time>
      </trkpt>
      <trkpt lat="48.93881" lon="1.84403">
        <ele>51</ele>
        <time>2024-12-16T09:26:35.984Z</time>
      </trkpt>
      <trkpt lat="48.9388" lon="1.84401">
        <ele>52</ele>
        <time>2024-12-16T09:26:40.299Z</time>
      </trkpt>
      <trkpt lat="48.93875" lon="1.844">
        <ele>52</ele>
        <time>2024-12-16T09:26:44.598Z</time>
      </trkpt>
      <trkpt lat="48.93868" lon="1.84409">
        <ele>49</ele>
        <time>2024-12-16T09:26:48.779Z</time>
      </trkpt>
      <trkpt lat="48.93862" lon="1.84411">
        <ele>49</ele>
        <time>2024-12-16T09:26:53.283Z</time>
      </trkpt>
      <trkpt lat="48.93856" lon="1.8441">
        <ele>49</ele>
        <time>2024-12-16T09:26:57.442Z</time>
      </trkpt>
      <trkpt lat="48.9385" lon="1.8441">
        <ele>49</ele>
        <time>2024-12-16T09:27:01.778Z</time>
      </trkpt>
      <trkpt lat="48.93844" lon="1.84412">
        <ele>45</ele>
        <time>2024-12-16T09:27:06.156Z</time>
      </trkpt>
      <trkpt lat="48.93838" lon="1.84412">
        <ele>45</ele>
        <time>2024-12-16T09:27:10.496Z</time>
      </trkpt>
      <trkpt lat="48.93836" lon="1.84416">
        <ele>45</ele>
        <time>2024-12-16T09:27:14.644Z</time>
      </trkpt>
      <trkpt lat="48.93832" lon="1.84414">
        <ele>45</ele>
        <time>2024-12-16T09:27:18.897Z</time>
      </trkpt>
      <trkpt lat="48.93829" lon="1.84406">
        <ele>45</ele>
        <time>2024-12-16T09:27:23.197Z</time>
      </trkpt>
      <trkpt lat="48.93824" lon="1.84397">
        <ele>46</ele>
        <time>2024-12-16T09:27:27.984Z</time>
      </trkpt>
      <trkpt lat="48.93818" lon="1.84393">
        <ele>42</ele>
        <time>2024-12-16T09:27:32.417Z</time>
      </trkpt>
      <trkpt lat="48.93812" lon="1.84392">
        <ele>42</ele>
        <time>2024-12-16T09:27:36.758Z</time>
      </trkpt>
      <trkpt lat="48.93806" lon="1.84395">
        <ele>42</ele>
        <time>2024-12-16T09:27:41.578Z</time>
      </trkpt>
      <trkpt lat="48.938" lon="1.84398">
        <ele>42</ele>
        <time>2024-12-16T09:27:45.984Z</time>
      </trkpt>
      <trkpt lat="48.93794" lon="1.84401">
        <ele>42</ele>
        <time>2024-12-16T09:27:50.303Z</time>
      </trkpt>
      <trkpt lat="48.93789" lon="1.84404">
        <ele>39</ele>
        <time>2024-12-16T09:27:54.696Z</time>
      </trkpt>
      <trkpt lat="48.93784" lon="1.84408">
        <ele>39</ele>
        <time>2024-12-16T09:27:58.983Z</time>
      </trkpt>
      <trkpt lat="48.93779" lon="1.84412">
        <ele>39</ele>
        <time>2024-12-16T09:28:03.363Z</time>
      </trkpt>
      <trkpt lat="48.93774" lon="1.84416">
        <ele>39</ele>
        <time>2024-12-16T09:28:07.883Z</time>
      </trkpt>
      <trkpt lat="48.93769" lon="1.8442">
        <ele>39</ele>
        <time>2024-12-16T09:28:12.080Z</time>
      </trkpt>
      <trkpt lat="48.93764" lon="1.84424">
        <ele>39</ele>
        <time>2024-12-16T09:28:16.498Z</time>
      </trkpt>
      <trkpt lat="48.9376" lon="1.84429">
        <ele>36</ele>
        <time>2024-12-16T09:28:20.599Z</time>
      </trkpt>
      <trkpt lat="48.93755" lon="1.84434">
        <ele>36</ele>
        <time>2024-12-16T09:28:24.882Z</time>
      </trkpt>
      <trkpt lat="48.93749" lon="1.84439">
        <ele>36</ele>
        <time>2024-12-16T09:28:29.197Z</time>
      </trkpt>
      <trkpt lat="48.93744" lon="1.84443">
        <ele>36</ele>
        <time>2024-12-16T09:28:33.616Z</time>
      </trkpt>
      <trkpt lat="48.93739" lon="1.84449">
        <ele>36</ele>
        <time>2024-12-16T09:28:37.983Z</time>
      </trkpt>
      <trkpt lat="48.93734" lon="1.84454">
        <ele>34</ele>
        <time>2024-12-16T09:28:42.520Z</time>
      </trkpt>
      <trkpt lat="48.93729" lon="1.84459">
        <ele>35</ele>
        <time>2024-12-16T09:28:47.007Z</time>
      </trkpt>
      <trkpt lat="48.93723" lon="1.84464">
        <ele>35</ele>
        <time>2024-12-16T09:28:51.536Z</time>
      </trkpt>
      <trkpt lat="48.93721" lon="1.8447">
        <ele>35</ele>
        <time>2024-12-16T09:28:55.937Z</time>
      </trkpt>
      <trkpt lat="48.93716" lon="1.84474">
        <ele>35</ele>
        <time>2024-12-16T09:28:59.983Z</time>
      </trkpt>
      <trkpt lat="48.93715" lon="1.84477">
        <ele>35</ele>
        <time>2024-12-16T09:29:06.266Z</time>
      </trkpt>
      <trkpt lat="48.93715" lon="1.84482">
        <ele>35</ele>
        <time>2024-12-16T09:29:10.983Z</time>
      </trkpt>
      <trkpt lat="48.93717" lon="1.8449">
        <ele>35</ele>
        <time>2024-12-16T09:29:15.283Z</time>
      </trkpt>
      <trkpt lat="48.93719" lon="1.84498">
        <ele>35</ele>
        <time>2024-12-16T09:29:19.298Z</time>
      </trkpt>
      <trkpt lat="48.93721" lon="1.84507">
        <ele>35</ele>
        <time>2024-12-16T09:29:23.922Z</time>
      </trkpt>
      <trkpt lat="48.93723" lon="1.84515">
        <ele>35</ele>
        <time>2024-12-16T09:29:28.459Z</time>
      </trkpt>
      <trkpt lat="48.93725" lon="1.84523">
        <ele>35</ele>
        <time>2024-12-16T09:29:32.476Z</time>
      </trkpt>
      <trkpt lat="48.93727" lon="1.84531">
        <ele>35</ele>
        <time>2024-12-16T09:29:36.983Z</time>
      </trkpt>
      <trkpt lat="48.93729" lon="1.84539">
        <ele>35</ele>
        <time>2024-12-16T09:29:41.098Z</time>
      </trkpt>
      <trkpt lat="48.93731" lon="1.84547">
        <ele>36</ele>
        <time>2024-12-16T09:29:45.636Z</time>
      </trkpt>
      <trkpt lat="48.93733" lon="1.84556">
        <ele>36</ele>
        <time>2024-12-16T09:29:50.183Z</time>
      </trkpt>
      <trkpt lat="48.93734" lon="1.84563">
        <ele>36</ele>
        <time>2024-12-16T09:29:54.245Z</time>
      </trkpt>
      <trkpt lat="48.93736" lon="1.84571">
        <ele>37</ele>
        <time>2024-12-16T09:29:58.336Z</time>
      </trkpt>
      <trkpt lat="48.93738" lon="1.84581">
        <ele>37</ele>
        <time>2024-12-16T09:30:02.719Z</time>
      </trkpt>
      <trkpt lat="48.93739" lon="1.84591">
        <ele>37</ele>
        <time>2024-12-16T09:30:06.983Z</time>
      </trkpt>
      <trkpt lat="48.93741" lon="1.84599">
        <ele>38</ele>
        <time>2024-12-16T09:30:11.300Z</time>
      </trkpt>
      <trkpt lat="48.93744" lon="1.84607">
        <ele>38</ele>
        <time>2024-12-16T09:30:15.717Z</time>
      </trkpt>
      <trkpt lat="48.93744" lon="1.84614">
        <ele>38</ele>
        <time>2024-12-16T09:30:19.984Z</time>
      </trkpt>
      <trkpt lat="48.93742" lon="1.84621">
        <ele>38</ele>
        <time>2024-12-16T09:30:24.243Z</time>
      </trkpt>
      <trkpt lat="48.93743" lon="1.8463">
        <ele>38</ele>
        <time>2024-12-16T09:30:28.384Z</time>
      </trkpt>
      <trkpt lat="48.93742" lon="1.84635">
        <ele>38</ele>
        <time>2024-12-16T09:30:32.983Z</time>
      </trkpt>
      <trkpt lat="48.93742" lon="1.84636">
        <ele>38</ele>
        <time>2024-12-16T09:30:37.983Z</time>
      </trkpt>
      <trkpt lat="48.93742" lon="1.84643">
        <ele>38</ele>
        <time>2024-12-16T09:30:42.984Z</time>
      </trkpt>
      <trkpt lat="48.93738" lon="1.84646">
        <ele>38</ele>
        <time>2024-12-16T09:30:47.757Z</time>
      </trkpt>
      <trkpt lat="48.93733" lon="1.8464">
        <ele>39</ele>
        <time>2024-12-16T09:30:51.924Z</time>
      </trkpt>
      <trkpt lat="48.93727" lon="1.8464">
        <ele>39</ele>
        <time>2024-12-16T09:30:56.426Z</time>
      </trkpt>
      <trkpt lat="48.93722" lon="1.84643">
        <ele>39</ele>
        <time>2024-12-16T09:31:00.984Z</time>
      </trkpt>
      <trkpt lat="48.93717" lon="1.84647">
        <ele>39</ele>
        <time>2024-12-16T09:31:05.480Z</time>
      </trkpt>
      <trkpt lat="48.93712" lon="1.84651">
        <ele>39</ele>
        <time>2024-12-16T09:31:09.957Z</time>
      </trkpt>
      <trkpt lat="48.93706" lon="1.84653">
        <ele>40</ele>
        <time>2024-12-16T09:31:14.436Z</time>
      </trkpt>
      <trkpt lat="48.937" lon="1.84654">
        <ele>40</ele>
        <time>2024-12-16T09:31:19Z</time>
      </trkpt>
      <trkpt lat="48.93694" lon="1.84659">
        <ele>40</ele>
        <time>2024-12-16T09:31:23.536Z</time>
      </trkpt>
      <trkpt lat="48.93689" lon="1.84661">
        <ele>40</ele>
        <time>2024-12-16T09:31:27.563Z</time>
      </trkpt>
      <trkpt lat="48.93684" lon="1.84664">
        <ele>40</ele>
        <time>2024-12-16T09:31:31.656Z</time>
      </trkpt>
      <trkpt lat="48.93678" lon="1.84667">
        <ele>41</ele>
        <time>2024-12-16T09:31:36.175Z</time>
      </trkpt>
      <trkpt lat="48.93672" lon="1.84669">
        <ele>41</ele>
        <time>2024-12-16T09:31:40.742Z</time>
      </trkpt>
      <trkpt lat="48.93667" lon="1.84668">
        <ele>41</ele>
        <time>2024-12-16T09:31:44.799Z</time>
      </trkpt>
      <trkpt lat="48.93662" lon="1.8467">
        <ele>41</ele>
        <time>2024-12-16T09:31:49.343Z</time>
      </trkpt>
      <trkpt lat="48.93657" lon="1.84674">
        <ele>41</ele>
        <time>2024-12-16T09:31:53.984Z</time>
      </trkpt>
      <trkpt lat="48.93651" lon="1.84676">
        <ele>43</ele>
        <time>2024-12-16T09:31:58.598Z</time>
      </trkpt>
      <trkpt lat="48.93646" lon="1.84675">
        <ele>43</ele>
        <time>2024-12-16T09:32:03.103Z</time>
      </trkpt>
      <trkpt lat="48.9364" lon="1.84676">
        <ele>43</ele>
        <time>2024-12-16T09:32:07.639Z</time>
      </trkpt>
      <trkpt lat="48.93634" lon="1.84676">
        <ele>43</ele>
        <time>2024-12-16T09:32:11.716Z</time>
      </trkpt>
      <trkpt lat="48.93629" lon="1.84677">
        <ele>43</ele>
        <time>2024-12-16T09:32:15.743Z</time>
      </trkpt>
      <trkpt lat="48.93624" lon="1.84679">
        <ele>46</ele>
        <time>2024-12-16T09:32:19.818Z</time>
      </trkpt>
      <trkpt lat="48.93619" lon="1.8468">
        <ele>46</ele>
        <time>2024-12-16T09:32:23.984Z</time>
      </trkpt>
      <trkpt lat="48.93614" lon="1.84682">
        <ele>44</ele>
        <time>2024-12-16T09:32:28.176Z</time>
      </trkpt>
      <trkpt lat="48.93609" lon="1.84683">
        <ele>44</ele>
        <time>2024-12-16T09:32:32.423Z</time>
      </trkpt>
      <trkpt lat="48.93604" lon="1.84683">
        <ele>44</ele>
        <time>2024-12-16T09:32:36.603Z</time>
      </trkpt>
      <trkpt lat="48.93598" lon="1.84683">
        <ele>44</ele>
        <time>2024-12-16T09:32:40.936Z</time>
      </trkpt>
      <trkpt lat="48.93594" lon="1.84684">
        <ele>46</ele>
        <time>2024-12-16T09:32:45.004Z</time>
      </trkpt>
      <trkpt lat="48.93589" lon="1.84684">
        <ele>46</ele>
        <time>2024-12-16T09:32:49.199Z</time>
      </trkpt>
      <trkpt lat="48.93584" lon="1.84685">
        <ele>46</ele>
        <time>2024-12-16T09:32:53.543Z</time>
      </trkpt>
      <trkpt lat="48.93579" lon="1.84686">
        <ele>46</ele>
        <time>2024-12-16T09:32:57.883Z</time>
      </trkpt>
      <trkpt lat="48.93575" lon="1.84688">
        <ele>46</ele>
        <time>2024-12-16T09:33:02.240Z</time>
      </trkpt>
      <trkpt lat="48.9357" lon="1.84689">
        <ele>46</ele>
        <time>2024-12-16T09:33:06.643Z</time>
      </trkpt>
      <trkpt lat="48.93565" lon="1.84689">
        <ele>49</ele>
        <time>2024-12-16T09:33:10.684Z</time>
      </trkpt>
      <trkpt lat="48.9356" lon="1.84691">
        <ele>49</ele>
        <time>2024-12-16T09:33:14.983Z</time>
      </trkpt>
      <trkpt lat="48.93555" lon="1.84692">
        <ele>49</ele>
        <time>2024-12-16T09:33:19.238Z</time>
      </trkpt>
      <trkpt lat="48.9355" lon="1.84694">
        <ele>49</ele>
        <time>2024-12-16T09:33:23.476Z</time>
      </trkpt>
      <trkpt lat="48.93546" lon="1.84695">
        <ele>49</ele>
        <time>2024-12-16T09:33:27.758Z</time>
      </trkpt>
      <trkpt lat="48.93541" lon="1.84698">
        <ele>51</ele>
        <time>2024-12-16T09:33:31.937Z</time>
      </trkpt>
      <trkpt lat="48.93537" lon="1.84703">
        <ele>51</ele>
        <time>2024-12-16T09:33:36.099Z</time>
      </trkpt>
      <trkpt lat="48.93531" lon="1.84704">
        <ele>51</ele>
        <time>2024-12-16T09:33:40.441Z</time>
      </trkpt>
      <trkpt lat="48.93526" lon="1.84704">
        <ele>51</ele>
        <time>2024-12-16T09:33:44.484Z</time>
      </trkpt>
      <trkpt lat="48.9352" lon="1.84705">
        <ele>51</ele>
        <time>2024-12-16T09:33:48.681Z</time>
      </trkpt>
      <trkpt lat="48.93515" lon="1.84709">
        <ele>51</ele>
        <time>2024-12-16T09:33:52.903Z</time>
      </trkpt>
      <trkpt lat="48.93511" lon="1.84711">
        <ele>52</ele>
        <time>2024-12-16T09:33:56.983Z</time>
      </trkpt>
      <trkpt lat="48.93506" lon="1.84714">
        <ele>52</ele>
        <time>2024-12-16T09:34:01.243Z</time>
      </trkpt>
      <trkpt lat="48.93501" lon="1.84717">
        <ele>52</ele>
        <time>2024-12-16T09:34:05.438Z</time>
      </trkpt>
      <trkpt lat="48.93496" lon="1.8472">
        <ele>52</ele>
        <time>2024-12-16T09:34:09.737Z</time>
      </trkpt>
      <trkpt lat="48.93492" lon="1.84724">
        <ele>52</ele>
        <time>2024-12-16T09:34:13.944Z</time>
      </trkpt>
      <trkpt lat="48.93488" lon="1.84729">
        <ele>52</ele>
        <time>2024-12-16T09:34:17.984Z</time>
      </trkpt>
      <trkpt lat="48.93483" lon="1.84733">
        <ele>53</ele>
        <time>2024-12-16T09:34:22.300Z</time>
      </trkpt>
      <trkpt lat="48.93478" lon="1.84737">
        <ele>54</ele>
        <time>2024-12-16T09:34:26.496Z</time>
      </trkpt>
      <trkpt lat="48.93474" lon="1.84741">
        <ele>54</ele>
        <time>2024-12-16T09:34:30.541Z</time>
      </trkpt>
      <trkpt lat="48.93471" lon="1.84747">
        <ele>54</ele>
        <time>2024-12-16T09:34:34.759Z</time>
      </trkpt>
      <trkpt lat="48.93467" lon="1.84753">
        <ele>54</ele>
        <time>2024-12-16T09:34:38.923Z</time>
      </trkpt>
      <trkpt lat="48.93463" lon="1.84758">
        <ele>54</ele>
        <time>2024-12-16T09:34:43.044Z</time>
      </trkpt>
      <trkpt lat="48.93459" lon="1.84762">
        <ele>54</ele>
        <time>2024-12-16T09:34:47.177Z</time>
      </trkpt>
      <trkpt lat="48.93455" lon="1.84766">
        <ele>54</ele>
        <time>2024-12-16T09:34:51.187Z</time>
      </trkpt>
      <trkpt lat="48.93451" lon="1.84771">
        <ele>54</ele>
        <time>2024-12-16T09:34:55.340Z</time>
      </trkpt>
      <trkpt lat="48.93447" lon="1.84775">
        <ele>54</ele>
        <time>2024-12-16T09:34:59.505Z</time>
      </trkpt>
      <trkpt lat="48.93442" lon="1.84779">
        <ele>54</ele>
        <time>2024-12-16T09:35:03.536Z</time>
      </trkpt>
      <trkpt lat="48.93438" lon="1.84784">
        <ele>54</ele>
        <time>2024-12-16T09:35:07.663Z</time>
      </trkpt>
      <trkpt lat="48.93433" lon="1.84789">
        <ele>54</ele>
        <time>2024-12-16T09:35:11.876Z</time>
      </trkpt>
      <trkpt lat="48.93429" lon="1.84793">
        <ele>54</ele>
        <time>2024-12-16T09:35:15.963Z</time>
      </trkpt>
      <trkpt lat="48.93424" lon="1.84798">
        <ele>54</ele>
        <time>2024-12-16T09:35:20.544Z</time>
      </trkpt>
      <trkpt lat="48.93419" lon="1.84801">
        <ele>54</ele>
        <time>2024-12-16T09:35:24.665Z</time>
      </trkpt>
      <trkpt lat="48.93414" lon="1.84805">
        <ele>54</ele>
        <time>2024-12-16T09:35:29.142Z</time>
      </trkpt>
      <trkpt lat="48.93409" lon="1.84808">
        <ele>54</ele>
        <time>2024-12-16T09:35:33.224Z</time>
      </trkpt>
      <trkpt lat="48.93405" lon="1.84812">
        <ele>54</ele>
        <time>2024-12-16T09:35:37.300Z</time>
      </trkpt>
      <trkpt lat="48.934" lon="1.84816">
        <ele>55</ele>
        <time>2024-12-16T09:35:41.497Z</time>
      </trkpt>
      <trkpt lat="48.93395" lon="1.84819">
        <ele>55</ele>
        <time>2024-12-16T09:35:45.540Z</time>
      </trkpt>
      <trkpt lat="48.93391" lon="1.84822">
        <ele>56</ele>
        <time>2024-12-16T09:35:49.704Z</time>
      </trkpt>
      <trkpt lat="48.93386" lon="1.84824">
        <ele>56</ele>
        <time>2024-12-16T09:35:53.778Z</time>
      </trkpt>
      <trkpt lat="48.93381" lon="1.84828">
        <ele>56</ele>
        <time>2024-12-16T09:35:57.897Z</time>
      </trkpt>
      <trkpt lat="48.93377" lon="1.84831">
        <ele>56</ele>
        <time>2024-12-16T09:36:01.985Z</time>
      </trkpt>
      <trkpt lat="48.93371" lon="1.84834">
        <ele>56</ele>
        <time>2024-12-16T09:36:06.579Z</time>
      </trkpt>
      <trkpt lat="48.93366" lon="1.84836">
        <ele>56</ele>
        <time>2024-12-16T09:36:10.743Z</time>
      </trkpt>
      <trkpt lat="48.93361" lon="1.84838">
        <ele>56</ele>
        <time>2024-12-16T09:36:14.860Z</time>
      </trkpt>
      <trkpt lat="48.93356" lon="1.8484">
        <ele>56</ele>
        <time>2024-12-16T09:36:18.980Z</time>
      </trkpt>
      <trkpt lat="48.93351" lon="1.84843">
        <ele>56</ele>
        <time>2024-12-16T09:36:22.985Z</time>
      </trkpt>
      <trkpt lat="48.93345" lon="1.84844">
        <ele>56</ele>
        <time>2024-12-16T09:36:27.518Z</time>
      </trkpt>
      <trkpt lat="48.93339" lon="1.84846">
        <ele>56</ele>
        <time>2024-12-16T09:36:31.985Z</time>
      </trkpt>
      <trkpt lat="48.93333" lon="1.84849">
        <ele>56</ele>
        <time>2024-12-16T09:36:36.462Z</time>
      </trkpt>
      <trkpt lat="48.93327" lon="1.84851">
        <ele>56</ele>
        <time>2024-12-16T09:36:40.959Z</time>
      </trkpt>
      <trkpt lat="48.93322" lon="1.84853">
        <ele>56</ele>
        <time>2024-12-16T09:36:45.440Z</time>
      </trkpt>
      <trkpt lat="48.93316" lon="1.84855">
        <ele>57</ele>
        <time>2024-12-16T09:36:49.923Z</time>
      </trkpt>
      <trkpt lat="48.9331" lon="1.84858">
        <ele>57</ele>
        <time>2024-12-16T09:36:54.621Z</time>
      </trkpt>
      <trkpt lat="48.93304" lon="1.84859">
        <ele>57</ele>
        <time>2024-12-16T09:36:58.985Z</time>
      </trkpt>
      <trkpt lat="48.93298" lon="1.84861">
        <ele>57</ele>
        <time>2024-12-16T09:37:03.440Z</time>
      </trkpt>
      <trkpt lat="48.93292" lon="1.84862">
        <ele>57</ele>
        <time>2024-12-16T09:37:07.841Z</time>
      </trkpt>
      <trkpt lat="48.93286" lon="1.84864">
        <ele>59</ele>
        <time>2024-12-16T09:37:12.923Z</time>
      </trkpt>
      <trkpt lat="48.9328" lon="1.84866">
        <ele>59</ele>
        <time>2024-12-16T09:37:17.507Z</time>
      </trkpt>
      <trkpt lat="48.93274" lon="1.84866">
        <ele>59</ele>
        <time>2024-12-16T09:37:21.985Z</time>
      </trkpt>
      <trkpt lat="48.93269" lon="1.84866">
        <ele>59</ele>
        <time>2024-12-16T09:37:26.148Z</time>
      </trkpt>
      <trkpt lat="48.93264" lon="1.84866">
        <ele>60</ele>
        <time>2024-12-16T09:37:30.165Z</time>
      </trkpt>
      <trkpt lat="48.93258" lon="1.84863">
        <ele>60</ele>
        <time>2024-12-16T09:37:34.338Z</time>
      </trkpt>
      <trkpt lat="48.93254" lon="1.84859">
        <ele>60</ele>
        <time>2024-12-16T09:37:38.380Z</time>
      </trkpt>
      <trkpt lat="48.9325" lon="1.84858">
        <ele>60</ele>
        <time>2024-12-16T09:37:42.683Z</time>
      </trkpt>
      <trkpt lat="48.93241" lon="1.84862">
        <ele>60</ele>
        <time>2024-12-16T09:38:34.985Z</time>
      </trkpt>
      <trkpt lat="48.93241" lon="1.84862">
        <ele>60</ele>
        <time>2024-12-16T09:38:40.985Z</time>
      </trkpt>
      <trkpt lat="48.93241" lon="1.84861">
        <ele>60</ele>
        <time>2024-12-16T09:38:46.984Z</time>
      </trkpt>
      <trkpt lat="48.93239" lon="1.84863">
        <ele>60</ele>
        <time>2024-12-16T09:38:50.984Z</time>
      </trkpt>
      <trkpt lat="48.93238" lon="1.84865">
        <ele>60</ele>
        <time>2024-12-16T09:38:54.985Z</time>
      </trkpt>
      <trkpt lat="48.93238" lon="1.84868">
        <ele>60</ele>
        <time>2024-12-16T09:39:05.984Z</time>
      </trkpt>
      <trkpt lat="48.93237" lon="1.84869">
        <ele>60</ele>
        <time>2024-12-16T09:39:10.779Z</time>
      </trkpt>
      <trkpt lat="48.93235" lon="1.84873">
        <ele>60</ele>
        <time>2024-12-16T09:39:14.958Z</time>
      </trkpt>
      <trkpt lat="48.93233" lon="1.84878">
        <ele>61</ele>
        <time>2024-12-16T09:39:18.984Z</time>
      </trkpt>
      <trkpt lat="48.9323" lon="1.84882">
        <ele>61</ele>
        <time>2024-12-16T09:39:23.580Z</time>
      </trkpt>
      <trkpt lat="48.93228" lon="1.84887">
        <ele>61</ele>
        <time>2024-12-16T09:39:27.984Z</time>
      </trkpt>
      <trkpt lat="48.93228" lon="1.8489">
        <ele>61</ele>
        <time>2024-12-16T09:39:32.985Z</time>
      </trkpt>
      <trkpt lat="48.93227" lon="1.84894">
        <ele>61</ele>
        <time>2024-12-16T09:39:37.899Z</time>
      </trkpt>
      <trkpt lat="48.93226" lon="1.84902">
        <ele>61</ele>
        <time>2024-12-16T09:39:42.437Z</time>
      </trkpt>
      <trkpt lat="48.93225" lon="1.84909">
        <ele>62</ele>
        <time>2024-12-16T09:39:46.923Z</time>
      </trkpt>
      <trkpt lat="48.93223" lon="1.84915">
        <ele>62</ele>
        <time>2024-12-16T09:39:51.383Z</time>
      </trkpt>
      <trkpt lat="48.93222" lon="1.84921">
        <ele>62</ele>
        <time>2024-12-16T09:39:55.460Z</time>
      </trkpt>
      <trkpt lat="48.9322" lon="1.84928">
        <ele>62</ele>
        <time>2024-12-16T09:39:59.525Z</time>
      </trkpt>
      <trkpt lat="48.93217" lon="1.84934">
        <ele>62</ele>
        <time>2024-12-16T09:40:03.656Z</time>
      </trkpt>
      <trkpt lat="48.93214" lon="1.84941">
        <ele>62</ele>
        <time>2024-12-16T09:40:07.860Z</time>
      </trkpt>
      <trkpt lat="48.93211" lon="1.84947">
        <ele>62</ele>
        <time>2024-12-16T09:40:12.458Z</time>
      </trkpt>
      <trkpt lat="48.93209" lon="1.84953">
        <ele>62</ele>
        <time>2024-12-16T09:40:16.483Z</time>
      </trkpt>
      <trkpt lat="48.93206" lon="1.84959">
        <ele>63</ele>
        <time>2024-12-16T09:40:20.984Z</time>
      </trkpt>
      <trkpt lat="48.93204" lon="1.84967">
        <ele>63</ele>
        <time>2024-12-16T09:40:25.643Z</time>
      </trkpt>
      <trkpt lat="48.93201" lon="1.84975">
        <ele>63</ele>
        <time>2024-12-16T09:40:30.229Z</time>
      </trkpt>
      <trkpt lat="48.93197" lon="1.84983">
        <ele>63</ele>
        <time>2024-12-16T09:40:34.699Z</time>
      </trkpt>
      <trkpt lat="48.93194" lon="1.8499">
        <ele>63</ele>
        <time>2024-12-16T09:40:39.160Z</time>
      </trkpt>
      <trkpt lat="48.9319" lon="1.84996">
        <ele>63</ele>
        <time>2024-12-16T09:40:43.535Z</time>
      </trkpt>
      <trkpt lat="48.93187" lon="1.85003">
        <ele>63</ele>
        <time>2024-12-16T09:40:47.919Z</time>
      </trkpt>
      <trkpt lat="48.93184" lon="1.85011">
        <ele>63</ele>
        <time>2024-12-16T09:40:52.302Z</time>
      </trkpt>
      <trkpt lat="48.93181" lon="1.85019">
        <ele>64</ele>
        <time>2024-12-16T09:40:56.618Z</time>
      </trkpt>
      <trkpt lat="48.93179" lon="1.85027">
        <ele>64</ele>
        <time>2024-12-16T09:41:00.985Z</time>
      </trkpt>
      <trkpt lat="48.93177" lon="1.85036">
        <ele>64</ele>
        <time>2024-12-16T09:41:05.642Z</time>
      </trkpt>
      <trkpt lat="48.93174" lon="1.85043">
        <ele>65</ele>
        <time>2024-12-16T09:41:10.163Z</time>
      </trkpt>
      <trkpt lat="48.93171" lon="1.8505">
        <ele>65</ele>
        <time>2024-12-16T09:41:14.759Z</time>
      </trkpt>
      <trkpt lat="48.93168" lon="1.85057">
        <ele>65</ele>
        <time>2024-12-16T09:41:19.363Z</time>
      </trkpt>
      <trkpt lat="48.93166" lon="1.85063">
        <ele>65</ele>
        <time>2024-12-16T09:41:23.919Z</time>
      </trkpt>
      <trkpt lat="48.93164" lon="1.85064">
        <ele>65</ele>
        <time>2024-12-16T09:41:27.984Z</time>
      </trkpt>
      <trkpt lat="48.93161" lon="1.85066">
        <ele>65</ele>
        <time>2024-12-16T09:41:33.006Z</time>
      </trkpt>
      <trkpt lat="48.93163" lon="1.85073">
        <ele>66</ele>
        <time>2024-12-16T09:41:38.001Z</time>
      </trkpt>
      <trkpt lat="48.93167" lon="1.85076">
        <ele>66</ele>
        <time>2024-12-16T09:41:42.536Z</time>
      </trkpt>
      <trkpt lat="48.93172" lon="1.8508">
        <ele>66</ele>
        <time>2024-12-16T09:41:46.623Z</time>
      </trkpt>
      <trkpt lat="48.93178" lon="1.85081">
        <ele>66</ele>
        <time>2024-12-16T09:41:50.740Z</time>
      </trkpt>
      <trkpt lat="48.93184" lon="1.85081">
        <ele>65</ele>
        <time>2024-12-16T09:41:55.321Z</time>
      </trkpt>
      <trkpt lat="48.93189" lon="1.85082">
        <ele>65</ele>
        <time>2024-12-16T09:41:59.347Z</time>
      </trkpt>
      <trkpt lat="48.93194" lon="1.85083">
        <ele>65</ele>
        <time>2024-12-16T09:42:03.406Z</time>
      </trkpt>
      <trkpt lat="48.93199" lon="1.85085">
        <ele>65</ele>
        <time>2024-12-16T09:42:07.807Z</time>
      </trkpt>
      <trkpt lat="48.93205" lon="1.85086">
        <ele>65</ele>
        <time>2024-12-16T09:42:12.223Z</time>
      </trkpt>
      <trkpt lat="48.93211" lon="1.85087">
        <ele>64</ele>
        <time>2024-12-16T09:42:16.685Z</time>
      </trkpt>
      <trkpt lat="48.93216" lon="1.85089">
        <ele>64</ele>
        <time>2024-12-16T09:42:20.985Z</time>
      </trkpt>
      <trkpt lat="48.93223" lon="1.85091">
        <ele>64</ele>
        <time>2024-12-16T09:42:25.427Z</time>
      </trkpt>
      <trkpt lat="48.93228" lon="1.85093">
        <ele>64</ele>
        <time>2024-12-16T09:42:29.945Z</time>
      </trkpt>
      <trkpt lat="48.93234" lon="1.85096">
        <ele>64</ele>
        <time>2024-12-16T09:42:34.526Z</time>
      </trkpt>
      <trkpt lat="48.93239" lon="1.851">
        <ele>65</ele>
        <time>2024-12-16T09:42:38.705Z</time>
      </trkpt>
      <trkpt lat="48.93243" lon="1.85104">
        <ele>65</ele>
        <time>2024-12-16T09:42:42.928Z</time>
      </trkpt>
      <trkpt lat="48.93246" lon="1.85111">
        <ele>65</ele>
        <time>2024-12-16T09:42:47.345Z</time>
      </trkpt>
      <trkpt lat="48.93249" lon="1.85118">
        <ele>65</ele>
        <time>2024-12-16T09:42:51.867Z</time>
      </trkpt>
      <trkpt lat="48.9325" lon="1.85126">
        <ele>66</ele>
        <time>2024-12-16T09:42:55.985Z</time>
      </trkpt>
      <trkpt lat="48.93252" lon="1.85134">
        <ele>66</ele>
        <time>2024-12-16T09:43:00.188Z</time>
      </trkpt>
      <trkpt lat="48.93252" lon="1.85143">
        <ele>66</ele>
        <time>2024-12-16T09:43:04.523Z</time>
      </trkpt>
      <trkpt lat="48.93254" lon="1.85151">
        <ele>66</ele>
        <time>2024-12-16T09:43:08.863Z</time>
      </trkpt>
      <trkpt lat="48.93254" lon="1.8516">
        <ele>66</ele>
        <time>2024-12-16T09:43:13.228Z</time>
      </trkpt>
      <trkpt lat="48.93255" lon="1.85169">
        <ele>66</ele>
        <time>2024-12-16T09:43:17.604Z</time>
      </trkpt>
      <trkpt lat="48.93256" lon="1.85179">
        <ele>66</ele>
        <time>2024-12-16T09:43:21.988Z</time>
      </trkpt>
      <trkpt lat="48.93256" lon="1.85187">
        <ele>66</ele>
        <time>2024-12-16T09:43:26.363Z</time>
      </trkpt>
      <trkpt lat="48.93257" lon="1.85196">
        <ele>66</ele>
        <time>2024-12-16T09:43:30.721Z</time>
      </trkpt>
      <trkpt lat="48.93258" lon="1.85206">
        <ele>66</ele>
        <time>2024-12-16T09:43:35.087Z</time>
      </trkpt>
      <trkpt lat="48.93259" lon="1.85216">
        <ele>66</ele>
        <time>2024-12-16T09:43:39.505Z</time>
      </trkpt>
      <trkpt lat="48.9326" lon="1.85224">
        <ele>66</ele>
        <time>2024-12-16T09:43:43.985Z</time>
      </trkpt>
      <trkpt lat="48.93261" lon="1.85233">
        <ele>66</ele>
        <time>2024-12-16T09:43:48.485Z</time>
      </trkpt>
      <trkpt lat="48.93261" lon="1.85242">
        <ele>66</ele>
        <time>2024-12-16T09:43:52.920Z</time>
      </trkpt>
      <trkpt lat="48.93262" lon="1.8525">
        <ele>66</ele>
        <time>2024-12-16T09:43:57.407Z</time>
      </trkpt>
      <trkpt lat="48.93263" lon="1.85259">
        <ele>66</ele>
        <time>2024-12-16T09:44:01.823Z</time>
      </trkpt>
      <trkpt lat="48.93264" lon="1.85268">
        <ele>67</ele>
        <time>2024-12-16T09:44:06.267Z</time>
      </trkpt>
      <trkpt lat="48.93264" lon="1.85278">
        <ele>63</ele>
        <time>2024-12-16T09:44:10.728Z</time>
      </trkpt>
      <trkpt lat="48.93265" lon="1.85286">
        <ele>63</ele>
        <time>2024-12-16T09:44:14.745Z</time>
      </trkpt>
      <trkpt lat="48.93266" lon="1.85294">
        <ele>64</ele>
        <time>2024-12-16T09:44:19.173Z</time>
      </trkpt>
      <trkpt lat="48.93267" lon="1.85303">
        <ele>64</ele>
        <time>2024-12-16T09:44:23.546Z</time>
      </trkpt>
      <trkpt lat="48.93267" lon="1.85312">
        <ele>64</ele>
        <time>2024-12-16T09:44:27.905Z</time>
      </trkpt>
      <trkpt lat="48.93268" lon="1.85322">
        <ele>64</ele>
        <time>2024-12-16T09:44:32.348Z</time>
      </trkpt>
      <trkpt lat="48.93269" lon="1.8533">
        <ele>64</ele>
        <time>2024-12-16T09:44:36.783Z</time>
      </trkpt>
      <trkpt lat="48.93269" lon="1.85339">
        <ele>64</ele>
        <time>2024-12-16T09:44:41.200Z</time>
      </trkpt>
      <trkpt lat="48.9327" lon="1.85348">
        <ele>65</ele>
        <time>2024-12-16T09:44:45.686Z</time>
      </trkpt>
      <trkpt lat="48.93271" lon="1.85358">
        <ele>65</ele>
        <time>2024-12-16T09:44:49.985Z</time>
      </trkpt>
      <trkpt lat="48.93272" lon="1.85366">
        <ele>65</ele>
        <time>2024-12-16T09:44:54.608Z</time>
      </trkpt>
      <trkpt lat="48.93272" lon="1.85374">
        <ele>65</ele>
        <time>2024-12-16T09:44:58.984Z</time>
      </trkpt>
      <trkpt lat="48.93274" lon="1.85382">
        <ele>65</ele>
        <time>2024-12-16T09:45:03.545Z</time>
      </trkpt>
      <trkpt lat="48.93276" lon="1.8539">
        <ele>65</ele>
        <time>2024-12-16T09:45:07.963Z</time>
      </trkpt>
      <trkpt lat="48.93277" lon="1.85398">
        <ele>65</ele>
        <time>2024-12-16T09:45:11.984Z</time>
      </trkpt>
      <trkpt lat="48.93278" lon="1.85405">
        <ele>66</ele>
        <time>2024-12-16T09:45:16.287Z</time>
      </trkpt>
      <trkpt lat="48.93279" lon="1.85415">
        <ele>66</ele>
        <time>2024-12-16T09:45:20.704Z</time>
      </trkpt>
      <trkpt lat="48.9328" lon="1.85423">
        <ele>66</ele>
        <time>2024-12-16T09:45:24.723Z</time>
      </trkpt>
      <trkpt lat="48.9328" lon="1.85432">
        <ele>66</ele>
        <time>2024-12-16T09:45:29.147Z</time>
      </trkpt>
      <trkpt lat="48.93281" lon="1.85441">
        <ele>66</ele>
        <time>2024-12-16T09:45:33.624Z</time>
      </trkpt>
      <trkpt lat="48.93281" lon="1.8545">
        <ele>66</ele>
        <time>2024-12-16T09:45:37.985Z</time>
      </trkpt>
      <trkpt lat="48.93282" lon="1.8546">
        <ele>66</ele>
        <time>2024-12-16T09:45:42.521Z</time>
      </trkpt>
      <trkpt lat="48.93282" lon="1.85467">
        <ele>66</ele>
        <time>2024-12-16T09:45:46.984Z</time>
      </trkpt>
      <trkpt lat="48.93284" lon="1.85477">
        <ele>66</ele>
        <time>2024-12-16T09:45:51.445Z</time>
      </trkpt>
      <trkpt lat="48.93285" lon="1.85485">
        <ele>66</ele>
        <time>2024-12-16T09:45:55.904Z</time>
      </trkpt>
      <trkpt lat="48.93285" lon="1.85494">
        <ele>65</ele>
        <time>2024-12-16T09:46:00.364Z</time>
      </trkpt>
      <trkpt lat="48.93287" lon="1.85503">
        <ele>65</ele>
        <time>2024-12-16T09:46:04.805Z</time>
      </trkpt>
      <trkpt lat="48.93287" lon="1.85512">
        <ele>65</ele>
        <time>2024-12-16T09:46:09.325Z</time>
      </trkpt>
      <trkpt lat="48.93288" lon="1.85521">
        <ele>65</ele>
        <time>2024-12-16T09:46:13.760Z</time>
      </trkpt>
      <trkpt lat="48.93289" lon="1.8553">
        <ele>65</ele>
        <time>2024-12-16T09:46:17.984Z</time>
      </trkpt>
      <trkpt lat="48.93289" lon="1.85539">
        <ele>65</ele>
        <time>2024-12-16T09:46:22.605Z</time>
      </trkpt>
      <trkpt lat="48.9329" lon="1.85548">
        <ele>66</ele>
        <time>2024-12-16T09:46:26.984Z</time>
      </trkpt>
      <trkpt lat="48.93292" lon="1.85558">
        <ele>65</ele>
        <time>2024-12-16T09:46:31.526Z</time>
      </trkpt>
      <trkpt lat="48.93294" lon="1.85567">
        <ele>65</ele>
        <time>2024-12-16T09:46:35.984Z</time>
      </trkpt>
      <trkpt lat="48.93295" lon="1.85574">
        <ele>64</ele>
        <time>2024-12-16T09:46:40.448Z</time>
      </trkpt>
      <trkpt lat="48.93298" lon="1.85583">
        <ele>64</ele>
        <time>2024-12-16T09:46:44.847Z</time>
      </trkpt>
      <trkpt lat="48.933" lon="1.85591">
        <ele>64</ele>
        <time>2024-12-16T09:46:49.324Z</time>
      </trkpt>
      <trkpt lat="48.93301" lon="1.856">
        <ele>64</ele>
        <time>2024-12-16T09:46:53.649Z</time>
      </trkpt>
      <trkpt lat="48.93302" lon="1.85608">
        <ele>64</ele>
        <time>2024-12-16T09:46:57.985Z</time>
      </trkpt>
      <trkpt lat="48.93306" lon="1.85617">
        <ele>64</ele>
        <time>2024-12-16T09:47:02.984Z</time>
      </trkpt>
      <trkpt lat="48.93308" lon="1.85625">
        <ele>63</ele>
        <time>2024-12-16T09:47:07.387Z</time>
      </trkpt>
      <trkpt lat="48.9331" lon="1.85633">
        <ele>63</ele>
        <time>2024-12-16T09:47:11.422Z</time>
      </trkpt>
      <trkpt lat="48.93312" lon="1.85641">
        <ele>63</ele>
        <time>2024-12-16T09:47:15.848Z</time>
      </trkpt>
      <trkpt lat="48.93315" lon="1.8565">
        <ele>63</ele>
        <time>2024-12-16T09:47:20.343Z</time>
      </trkpt>
      <trkpt lat="48.93318" lon="1.85658">
        <ele>64</ele>
        <time>2024-12-16T09:47:24.864Z</time>
      </trkpt>
      <trkpt lat="48.9332" lon="1.85666">
        <ele>62</ele>
        <time>2024-12-16T09:47:29.349Z</time>
      </trkpt>
      <trkpt lat="48.93322" lon="1.85674">
        <ele>62</ele>
        <time>2024-12-16T09:47:33.740Z</time>
      </trkpt>
      <trkpt lat="48.93325" lon="1.85682">
        <ele>63</ele>
        <time>2024-12-16T09:47:38.184Z</time>
      </trkpt>
      <trkpt lat="48.93327" lon="1.8569">
        <ele>63</ele>
        <time>2024-12-16T09:47:42.762Z</time>
      </trkpt>
      <trkpt lat="48.9333" lon="1.85699">
        <ele>63</ele>
        <time>2024-12-16T09:47:47.229Z</time>
      </trkpt>
      <trkpt lat="48.93333" lon="1.85707">
        <ele>63</ele>
        <time>2024-12-16T09:47:51.729Z</time>
      </trkpt>
      <trkpt lat="48.93336" lon="1.85715">
        <ele>65</ele>
        <time>2024-12-16T09:47:56.204Z</time>
      </trkpt>
      <trkpt lat="48.93339" lon="1.85723">
        <ele>65</ele>
        <time>2024-12-16T09:48:00.826Z</time>
      </trkpt>
      <trkpt lat="48.93341" lon="1.85731">
        <ele>65</ele>
        <time>2024-12-16T09:48:05.347Z</time>
      </trkpt>
      <trkpt lat="48.93343" lon="1.85739">
        <ele>66</ele>
        <time>2024-12-16T09:48:09.903Z</time>
      </trkpt>
      <trkpt lat="48.93346" lon="1.85747">
        <ele>66</ele>
        <time>2024-12-16T09:48:14.422Z</time>
      </trkpt>
      <trkpt lat="48.93348" lon="1.85754">
        <ele>65</ele>
        <time>2024-12-16T09:48:18.583Z</time>
      </trkpt>
      <trkpt lat="48.93351" lon="1.85762">
        <ele>65</ele>
        <time>2024-12-16T09:48:23.121Z</time>
      </trkpt>
      <trkpt lat="48.93353" lon="1.8577">
        <ele>65</ele>
        <time>2024-12-16T09:48:27.146Z</time>
      </trkpt>
      <trkpt lat="48.93355" lon="1.85778">
        <ele>65</ele>
        <time>2024-12-16T09:48:31.611Z</time>
      </trkpt>
      <trkpt lat="48.93357" lon="1.85786">
        <ele>65</ele>
        <time>2024-12-16T09:48:36.162Z</time>
      </trkpt>
      <trkpt lat="48.9336" lon="1.85795">
        <ele>67</ele>
        <time>2024-12-16T09:48:40.932Z</time>
      </trkpt>
      <trkpt lat="48.93362" lon="1.85803">
        <ele>67</ele>
        <time>2024-12-16T09:48:45.332Z</time>
      </trkpt>
      <trkpt lat="48.93365" lon="1.8581">
        <ele>67</ele>
        <time>2024-12-16T09:48:49.525Z</time>
      </trkpt>
      <trkpt lat="48.93368" lon="1.85819">
        <ele>67</ele>
        <time>2024-12-16T09:48:53.985Z</time>
      </trkpt>
      <trkpt lat="48.93372" lon="1.85826">
        <ele>67</ele>
        <time>2024-12-16T09:48:58.612Z</time>
      </trkpt>
      <trkpt lat="48.93374" lon="1.85833">
        <ele>67</ele>
        <time>2024-12-16T09:49:02.972Z</time>
      </trkpt>
      <trkpt lat="48.93377" lon="1.85841">
        <ele>66</ele>
        <time>2024-12-16T09:49:07.311Z</time>
      </trkpt>
      <trkpt lat="48.9338" lon="1.8585">
        <ele>67</ele>
        <time>2024-12-16T09:49:11.806Z</time>
      </trkpt>
      <trkpt lat="48.93383" lon="1.85858">
        <ele>67</ele>
        <time>2024-12-16T09:49:16.112Z</time>
      </trkpt>
      <trkpt lat="48.93386" lon="1.85867">
        <ele>67</ele>
        <time>2024-12-16T09:49:20.472Z</time>
      </trkpt>
      <trkpt lat="48.93388" lon="1.85874">
        <ele>67</ele>
        <time>2024-12-16T09:49:24.487Z</time>
      </trkpt>
      <trkpt lat="48.9339" lon="1.85883">
        <ele>67</ele>
        <time>2024-12-16T09:49:28.829Z</time>
      </trkpt>
      <trkpt lat="48.93393" lon="1.8589">
        <ele>67</ele>
        <time>2024-12-16T09:49:33.365Z</time>
      </trkpt>
      <trkpt lat="48.93396" lon="1.85899">
        <ele>67</ele>
        <time>2024-12-16T09:49:37.870Z</time>
      </trkpt>
      <trkpt lat="48.93399" lon="1.85907">
        <ele>68</ele>
        <time>2024-12-16T09:49:42.427Z</time>
      </trkpt>
      <trkpt lat="48.93401" lon="1.85916">
        <ele>68</ele>
        <time>2024-12-16T09:49:46.863Z</time>
      </trkpt>
      <trkpt lat="48.93404" lon="1.85922">
        <ele>66</ele>
        <time>2024-12-16T09:49:51.228Z</time>
      </trkpt>
      <trkpt lat="48.93406" lon="1.85931">
        <ele>67</ele>
        <time>2024-12-16T09:49:55.851Z</time>
      </trkpt>
      <trkpt lat="48.93409" lon="1.85939">
        <ele>67</ele>
        <time>2024-12-16T09:50:00.411Z</time>
      </trkpt>
      <trkpt lat="48.9341" lon="1.85947">
        <ele>67</ele>
        <time>2024-12-16T09:50:04.827Z</time>
      </trkpt>
      <trkpt lat="48.93412" lon="1.85954">
        <ele>67</ele>
        <time>2024-12-16T09:50:08.848Z</time>
      </trkpt>
      <trkpt lat="48.93416" lon="1.85962">
        <ele>68</ele>
        <time>2024-12-16T09:50:13.410Z</time>
      </trkpt>
      <trkpt lat="48.93418" lon="1.85969">
        <ele>68</ele>
        <time>2024-12-16T09:50:17.426Z</time>
      </trkpt>
      <trkpt lat="48.9342" lon="1.85977">
        <ele>68</ele>
        <time>2024-12-16T09:50:21.525Z</time>
      </trkpt>
      <trkpt lat="48.93422" lon="1.85985">
        <ele>68</ele>
        <time>2024-12-16T09:50:25.984Z</time>
      </trkpt>
      <trkpt lat="48.93424" lon="1.85993">
        <ele>69</ele>
        <time>2024-12-16T09:50:30.123Z</time>
      </trkpt>
      <trkpt lat="48.93425" lon="1.86003">
        <ele>69</ele>
        <time>2024-12-16T09:50:34.822Z</time>
      </trkpt>
      <trkpt lat="48.93426" lon="1.86009">
        <ele>69</ele>
        <time>2024-12-16T09:50:38.965Z</time>
      </trkpt>
      <trkpt lat="48.93426" lon="1.86016">
        <ele>71</ele>
        <time>2024-12-16T09:50:42.984Z</time>
      </trkpt>
      <trkpt lat="48.93428" lon="1.86024">
        <ele>71</ele>
        <time>2024-12-16T09:50:47.626Z</time>
      </trkpt>
      <trkpt lat="48.93428" lon="1.86032">
        <ele>71</ele>
        <time>2024-12-16T09:50:51.867Z</time>
      </trkpt>
      <trkpt lat="48.93429" lon="1.8604">
        <ele>71</ele>
        <time>2024-12-16T09:50:56.185Z</time>
      </trkpt>
      <trkpt lat="48.93428" lon="1.86047">
        <ele>72</ele>
        <time>2024-12-16T09:51:00.585Z</time>
      </trkpt>
      <trkpt lat="48.93431" lon="1.86054">
        <ele>69</ele>
        <time>2024-12-16T09:51:04.985Z</time>
      </trkpt>
      <trkpt lat="48.93431" lon="1.86062">
        <ele>69</ele>
        <time>2024-12-16T09:51:09.950Z</time>
      </trkpt>
      <trkpt lat="48.93431" lon="1.86069">
        <ele>69</ele>
        <time>2024-12-16T09:51:13.985Z</time>
      </trkpt>
      <trkpt lat="48.93431" lon="1.86076">
        <ele>72</ele>
        <time>2024-12-16T09:51:18.448Z</time>
      </trkpt>
      <trkpt lat="48.93431" lon="1.86082">
        <ele>72</ele>
        <time>2024-12-16T09:51:22.641Z</time>
      </trkpt>
      <trkpt lat="48.93432" lon="1.86089">
        <ele>72</ele>
        <time>2024-12-16T09:51:26.985Z</time>
      </trkpt>
      <trkpt lat="48.93432" lon="1.86097">
        <ele>73</ele>
        <time>2024-12-16T09:51:31.707Z</time>
      </trkpt>
      <trkpt lat="48.93431" lon="1.86105">
        <ele>73</ele>
        <time>2024-12-16T09:51:36.287Z</time>
      </trkpt>
      <trkpt lat="48.93429" lon="1.86107">
        <ele>76</ele>
        <time>2024-12-16T09:51:40.985Z</time>
      </trkpt>
      <trkpt lat="48.93426" lon="1.86109">
        <ele>76</ele>
        <time>2024-12-16T09:51:44.986Z</time>
      </trkpt>
      <trkpt lat="48.93422" lon="1.86108">
        <ele>76</ele>
        <time>2024-12-16T09:52:15.986Z</time>
      </trkpt>
      <trkpt lat="48.93426" lon="1.86108">
        <ele>76</ele>
        <time>2024-12-16T09:52:20.986Z</time>
      </trkpt>
      <trkpt lat="48.93434" lon="1.86111">
        <ele>73</ele>
        <time>2024-12-16T09:52:25.567Z</time>
      </trkpt>
      <trkpt lat="48.93435" lon="1.86114">
        <ele>73</ele>
        <time>2024-12-16T09:52:29.789Z</time>
      </trkpt>
      <trkpt lat="48.93438" lon="1.86115">
        <ele>73</ele>
        <time>2024-12-16T09:52:34.667Z</time>
      </trkpt>
      <trkpt lat="48.93443" lon="1.86116">
        <ele>73</ele>
        <time>2024-12-16T09:52:39.187Z</time>
      </trkpt>
      <trkpt lat="48.93447" lon="1.86117">
        <ele>73</ele>
        <time>2024-12-16T09:52:43.605Z</time>
      </trkpt>
      <trkpt lat="48.93451" lon="1.86118">
        <ele>73</ele>
        <time>2024-12-16T09:52:47.986Z</time>
      </trkpt>
      <trkpt lat="48.93456" lon="1.86118">
        <ele>73</ele>
        <time>2024-12-16T09:52:52.185Z</time>
      </trkpt>
      <trkpt lat="48.9346" lon="1.86121">
        <ele>71</ele>
        <time>2024-12-16T09:52:56.426Z</time>
      </trkpt>
      <trkpt lat="48.93464" lon="1.86125">
        <ele>71</ele>
        <time>2024-12-16T09:53:00.586Z</time>
      </trkpt>
      <trkpt lat="48.93468" lon="1.86128">
        <ele>72</ele>
        <time>2024-12-16T09:53:04.986Z</time>
      </trkpt>
      <trkpt lat="48.93471" lon="1.86132">
        <ele>72</ele>
        <time>2024-12-16T09:53:09.985Z</time>
      </trkpt>
      <trkpt lat="48.93474" lon="1.86134">
        <ele>72</ele>
        <time>2024-12-16T09:53:14.608Z</time>
      </trkpt>
      <trkpt lat="48.9348" lon="1.86133">
        <ele>72</ele>
        <time>2024-12-16T09:53:18.986Z</time>
      </trkpt>
      <trkpt lat="48.93484" lon="1.86133">
        <ele>72</ele>
        <time>2024-12-16T09:53:23.986Z</time>
      </trkpt>
      <trkpt lat="48.93488" lon="1.86132">
        <ele>72</ele>
        <time>2024-12-16T09:53:28.784Z</time>
      </trkpt>
      <trkpt lat="48.93494" lon="1.86135">
        <ele>72</ele>
        <time>2024-12-16T10:08:32.511Z</time>
      </trkpt>
      <trkpt lat="48.93489" lon="1.86135">
        <ele>72</ele>
        <time>2024-12-16T10:08:36.919Z</time>
      </trkpt>
      <trkpt lat="48.93483" lon="1.86133">
        <ele>72</ele>
        <time>2024-12-16T10:08:41.490Z</time>
      </trkpt>
      <trkpt lat="48.93483" lon="1.8613">
        <ele>72</ele>
        <time>2024-12-16T10:08:45.730Z</time>
      </trkpt>
      <trkpt lat="48.9348" lon="1.86133">
        <ele>72</ele>
        <time>2024-12-16T10:08:49.986Z</time>
      </trkpt>
      <trkpt lat="48.93476" lon="1.86146">
        <ele>72</ele>
        <time>2024-12-16T10:09:26.986Z</time>
      </trkpt>
      <trkpt lat="48.93476" lon="1.86146">
        <ele>72</ele>
        <time>2024-12-16T10:09:30.986Z</time>
      </trkpt>
      <trkpt lat="48.93476" lon="1.86147">
        <ele>72</ele>
        <time>2024-12-16T10:09:38.985Z</time>
      </trkpt>
      <trkpt lat="48.93476" lon="1.86147">
        <ele>72</ele>
        <time>2024-12-16T10:09:42.986Z</time>
      </trkpt>
      <trkpt lat="48.93476" lon="1.86153">
        <ele>72</ele>
        <time>2024-12-16T10:09:46.986Z</time>
      </trkpt>
      <trkpt lat="48.93476" lon="1.86164">
        <ele>72</ele>
        <time>2024-12-16T10:09:51.472Z</time>
      </trkpt>
      <trkpt lat="48.93476" lon="1.86169">
        <ele>72</ele>
        <time>2024-12-16T10:09:55.951Z</time>
      </trkpt>
      <trkpt lat="48.93477" lon="1.86174">
        <ele>72</ele>
        <time>2024-12-16T10:10:00.250Z</time>
      </trkpt>
      <trkpt lat="48.93478" lon="1.86182">
        <ele>73</ele>
        <time>2024-12-16T10:10:04.754Z</time>
      </trkpt>
      <trkpt lat="48.93478" lon="1.86189">
        <ele>73</ele>
        <time>2024-12-16T10:10:09.070Z</time>
      </trkpt>
      <trkpt lat="48.93476" lon="1.86194">
        <ele>73</ele>
        <time>2024-12-16T10:10:13.530Z</time>
      </trkpt>
      <trkpt lat="48.93477" lon="1.86202">
        <ele>73</ele>
        <time>2024-12-16T10:10:17.710Z</time>
      </trkpt>
      <trkpt lat="48.93477" lon="1.8621">
        <ele>74</ele>
        <time>2024-12-16T10:10:21.986Z</time>
      </trkpt>
      <trkpt lat="48.93477" lon="1.86217">
        <ele>74</ele>
        <time>2024-12-16T10:10:26.308Z</time>
      </trkpt>
      <trkpt lat="48.93477" lon="1.86225">
        <ele>74</ele>
        <time>2024-12-16T10:10:30.429Z</time>
      </trkpt>
      <trkpt lat="48.93477" lon="1.86232">
        <ele>74</ele>
        <time>2024-12-16T10:10:34.716Z</time>
      </trkpt>
      <trkpt lat="48.93477" lon="1.86239">
        <ele>76</ele>
        <time>2024-12-16T10:10:38.985Z</time>
      </trkpt>
      <trkpt lat="48.93477" lon="1.86246">
        <ele>76</ele>
        <time>2024-12-16T10:10:43.275Z</time>
      </trkpt>
      <trkpt lat="48.93476" lon="1.86252">
        <ele>76</ele>
        <time>2024-12-16T10:10:47.352Z</time>
      </trkpt>
      <trkpt lat="48.93477" lon="1.86259">
        <ele>76</ele>
        <time>2024-12-16T10:10:51.751Z</time>
      </trkpt>
      <trkpt lat="48.93477" lon="1.86262">
        <ele>76</ele>
        <time>2024-12-16T10:10:56.654Z</time>
      </trkpt>
      <trkpt lat="48.93477" lon="1.86269">
        <ele>77</ele>
        <time>2024-12-16T10:11:00.985Z</time>
      </trkpt>
      <trkpt lat="48.93477" lon="1.86277">
        <ele>77</ele>
        <time>2024-12-16T10:11:05.740Z</time>
      </trkpt>
      <trkpt lat="48.93477" lon="1.86284">
        <ele>77</ele>
        <time>2024-12-16T10:11:10.396Z</time>
      </trkpt>
      <trkpt lat="48.93476" lon="1.86292">
        <ele>79</ele>
        <time>2024-12-16T10:11:14.438Z</time>
      </trkpt>
      <trkpt lat="48.93475" lon="1.863">
        <ele>79</ele>
        <time>2024-12-16T10:11:18.772Z</time>
      </trkpt>
      <trkpt lat="48.93474" lon="1.86309">
        <ele>79</ele>
        <time>2024-12-16T10:11:22.985Z</time>
      </trkpt>
      <trkpt lat="48.93473" lon="1.86318">
        <ele>79</ele>
        <time>2024-12-16T10:11:27.551Z</time>
      </trkpt>
      <trkpt lat="48.93473" lon="1.86327">
        <ele>80</ele>
        <time>2024-12-16T10:11:31.985Z</time>
      </trkpt>
      <trkpt lat="48.93471" lon="1.86336">
        <ele>80</ele>
        <time>2024-12-16T10:11:36.448Z</time>
      </trkpt>
      <trkpt lat="48.93469" lon="1.86344">
        <ele>80</ele>
        <time>2024-12-16T10:11:40.791Z</time>
      </trkpt>
      <trkpt lat="48.93467" lon="1.86353">
        <ele>80</ele>
        <time>2024-12-16T10:11:45.373Z</time>
      </trkpt>
      <trkpt lat="48.93466" lon="1.8636">
        <ele>80</ele>
        <time>2024-12-16T10:11:49.416Z</time>
      </trkpt>
      <trkpt lat="48.93465" lon="1.86367">
        <ele>80</ele>
        <time>2024-12-16T10:11:53.628Z</time>
      </trkpt>
      <trkpt lat="48.93465" lon="1.86374">
        <ele>80</ele>
        <time>2024-12-16T10:11:57.840Z</time>
      </trkpt>
      <trkpt lat="48.93462" lon="1.86382">
        <ele>81</ele>
        <time>2024-12-16T10:12:01.970Z</time>
      </trkpt>
      <trkpt lat="48.93462" lon="1.86389">
        <ele>81</ele>
        <time>2024-12-16T10:12:06.141Z</time>
      </trkpt>
      <trkpt lat="48.93461" lon="1.86397">
        <ele>81</ele>
        <time>2024-12-16T10:12:10.415Z</time>
      </trkpt>
      <trkpt lat="48.93462" lon="1.86404">
        <ele>82</ele>
        <time>2024-12-16T10:12:14.578Z</time>
      </trkpt>
      <trkpt lat="48.93462" lon="1.86411">
        <ele>82</ele>
        <time>2024-12-16T10:12:18.878Z</time>
      </trkpt>
      <trkpt lat="48.93464" lon="1.86419">
        <ele>82</ele>
        <time>2024-12-16T10:12:23.357Z</time>
      </trkpt>
      <trkpt lat="48.93464" lon="1.86427">
        <ele>82</ele>
        <time>2024-12-16T10:12:27.419Z</time>
      </trkpt>
      <trkpt lat="48.93463" lon="1.86435">
        <ele>84</ele>
        <time>2024-12-16T10:12:31.435Z</time>
      </trkpt>
      <trkpt lat="48.93464" lon="1.86444">
        <ele>84</ele>
        <time>2024-12-16T10:12:35.986Z</time>
      </trkpt>
      <trkpt lat="48.93463" lon="1.86452">
        <ele>84</ele>
        <time>2024-12-16T10:12:40.656Z</time>
      </trkpt>
      <trkpt lat="48.93462" lon="1.8646">
        <ele>85</ele>
        <time>2024-12-16T10:12:44.775Z</time>
      </trkpt>
      <trkpt lat="48.93461" lon="1.86469">
        <ele>85</ele>
        <time>2024-12-16T10:12:49.177Z</time>
      </trkpt>
      <trkpt lat="48.93461" lon="1.86477">
        <ele>85</ele>
        <time>2024-12-16T10:12:53.612Z</time>
      </trkpt>
      <trkpt lat="48.93459" lon="1.86485">
        <ele>85</ele>
        <time>2024-12-16T10:12:57.758Z</time>
      </trkpt>
      <trkpt lat="48.93458" lon="1.86494">
        <ele>84</ele>
        <time>2024-12-16T10:13:02.211Z</time>
      </trkpt>
      <trkpt lat="48.93456" lon="1.86502">
        <ele>84</ele>
        <time>2024-12-16T10:13:06.271Z</time>
      </trkpt>
      <trkpt lat="48.93455" lon="1.86511">
        <ele>84</ele>
        <time>2024-12-16T10:13:11Z</time>
      </trkpt>
      <trkpt lat="48.93454" lon="1.8652">
        <ele>85</ele>
        <time>2024-12-16T10:13:15.697Z</time>
      </trkpt>
      <trkpt lat="48.93451" lon="1.86535">
        <ele>85</ele>
        <time>2024-12-16T10:13:37.985Z</time>
      </trkpt>
      <trkpt lat="48.9345" lon="1.86536">
        <ele>85</ele>
        <time>2024-12-16T10:13:42.797Z</time>
      </trkpt>
      <trkpt lat="48.93448" lon="1.86547">
        <ele>86</ele>
        <time>2024-12-16T10:13:46.917Z</time>
      </trkpt>
      <trkpt lat="48.93447" lon="1.86552">
        <ele>86</ele>
        <time>2024-12-16T10:13:50.986Z</time>
      </trkpt>
      <trkpt lat="48.93443" lon="1.86558">
        <ele>86</ele>
        <time>2024-12-16T10:13:55.500Z</time>
      </trkpt>
      <trkpt lat="48.9344" lon="1.86566">
        <ele>86</ele>
        <time>2024-12-16T10:13:59.635Z</time>
      </trkpt>
      <trkpt lat="48.93436" lon="1.86569">
        <ele>86</ele>
        <time>2024-12-16T10:14:04.096Z</time>
      </trkpt>
      <trkpt lat="48.9343" lon="1.86569">
        <ele>84</ele>
        <time>2024-12-16T10:14:08.412Z</time>
      </trkpt>
      <trkpt lat="48.93424" lon="1.86566">
        <ele>84</ele>
        <time>2024-12-16T10:14:12.771Z</time>
      </trkpt>
      <trkpt lat="48.93418" lon="1.86564">
        <ele>84</ele>
        <time>2024-12-16T10:14:16.891Z</time>
      </trkpt>
      <trkpt lat="48.93412" lon="1.8656">
        <ele>84</ele>
        <time>2024-12-16T10:14:21.378Z</time>
      </trkpt>
      <trkpt lat="48.93405" lon="1.86557">
        <ele>84</ele>
        <time>2024-12-16T10:14:25.856Z</time>
      </trkpt>
      <trkpt lat="48.93398" lon="1.86554">
        <ele>84</ele>
        <time>2024-12-16T10:14:30.377Z</time>
      </trkpt>
      <trkpt lat="48.93392" lon="1.86552">
        <ele>84</ele>
        <time>2024-12-16T10:14:34.897Z</time>
      </trkpt>
      <trkpt lat="48.93385" lon="1.8655">
        <ele>84</ele>
        <time>2024-12-16T10:14:39.436Z</time>
      </trkpt>
      <trkpt lat="48.93379" lon="1.86548">
        <ele>84</ele>
        <time>2024-12-16T10:14:43.496Z</time>
      </trkpt>
      <trkpt lat="48.93372" lon="1.86545">
        <ele>82</ele>
        <time>2024-12-16T10:14:47.915Z</time>
      </trkpt>
      <trkpt lat="48.93366" lon="1.8654">
        <ele>81</ele>
        <time>2024-12-16T10:14:52.376Z</time>
      </trkpt>
      <trkpt lat="48.93361" lon="1.86536">
        <ele>81</ele>
        <time>2024-12-16T10:14:56.394Z</time>
      </trkpt>
      <trkpt lat="48.93355" lon="1.86532">
        <ele>81</ele>
        <time>2024-12-16T10:15:00.795Z</time>
      </trkpt>
      <trkpt lat="48.9335" lon="1.86527">
        <ele>81</ele>
        <time>2024-12-16T10:15:05.274Z</time>
      </trkpt>
      <trkpt lat="48.93345" lon="1.86524">
        <ele>82</ele>
        <time>2024-12-16T10:15:09.333Z</time>
      </trkpt>
      <trkpt lat="48.9334" lon="1.86521">
        <ele>82</ele>
        <time>2024-12-16T10:15:13.453Z</time>
      </trkpt>
      <trkpt lat="48.93335" lon="1.86518">
        <ele>82</ele>
        <time>2024-12-16T10:15:17.899Z</time>
      </trkpt>
      <trkpt lat="48.9333" lon="1.86515">
        <ele>82</ele>
        <time>2024-12-16T10:15:21.975Z</time>
      </trkpt>
      <trkpt lat="48.93326" lon="1.86511">
        <ele>82</ele>
        <time>2024-12-16T10:15:26.538Z</time>
      </trkpt>
      <trkpt lat="48.93321" lon="1.86508">
        <ele>82</ele>
        <time>2024-12-16T10:15:30.693Z</time>
      </trkpt>
      <trkpt lat="48.93316" lon="1.86504">
        <ele>84</ele>
        <time>2024-12-16T10:15:34.873Z</time>
      </trkpt>
      <trkpt lat="48.93312" lon="1.86501">
        <ele>84</ele>
        <time>2024-12-16T10:15:38.985Z</time>
      </trkpt>
      <trkpt lat="48.93307" lon="1.86498">
        <ele>84</ele>
        <time>2024-12-16T10:15:43.235Z</time>
      </trkpt>
      <trkpt lat="48.93302" lon="1.86495">
        <ele>84</ele>
        <time>2024-12-16T10:15:47.557Z</time>
      </trkpt>
      <trkpt lat="48.93298" lon="1.86492">
        <ele>84</ele>
        <time>2024-12-16T10:15:51.813Z</time>
      </trkpt>
      <trkpt lat="48.93294" lon="1.86489">
        <ele>84</ele>
        <time>2024-12-16T10:15:56.163Z</time>
      </trkpt>
      <trkpt lat="48.93289" lon="1.86486">
        <ele>85</ele>
        <time>2024-12-16T10:16:00.497Z</time>
      </trkpt>
      <trkpt lat="48.93285" lon="1.86482">
        <ele>87</ele>
        <time>2024-12-16T10:16:04.916Z</time>
      </trkpt>
      <trkpt lat="48.9328" lon="1.86478">
        <ele>87</ele>
        <time>2024-12-16T10:16:09.513Z</time>
      </trkpt>
      <trkpt lat="48.93276" lon="1.86475">
        <ele>87</ele>
        <time>2024-12-16T10:16:13.675Z</time>
      </trkpt>
      <trkpt lat="48.93271" lon="1.86471">
        <ele>87</ele>
        <time>2024-12-16T10:16:17.985Z</time>
      </trkpt>
      <trkpt lat="48.93266" lon="1.86468">
        <ele>87</ele>
        <time>2024-12-16T10:16:22.452Z</time>
      </trkpt>
      <trkpt lat="48.93262" lon="1.86465">
        <ele>87</ele>
        <time>2024-12-16T10:16:26.635Z</time>
      </trkpt>
      <trkpt lat="48.93257" lon="1.86462">
        <ele>87</ele>
        <time>2024-12-16T10:16:30.985Z</time>
      </trkpt>
      <trkpt lat="48.93253" lon="1.86459">
        <ele>87</ele>
        <time>2024-12-16T10:16:35.657Z</time>
      </trkpt>
      <trkpt lat="48.93248" lon="1.86457">
        <ele>88</ele>
        <time>2024-12-16T10:16:40.119Z</time>
      </trkpt>
      <trkpt lat="48.93243" lon="1.86454">
        <ele>88</ele>
        <time>2024-12-16T10:16:44.273Z</time>
      </trkpt>
      <trkpt lat="48.93239" lon="1.86451">
        <ele>88</ele>
        <time>2024-12-16T10:16:48.478Z</time>
      </trkpt>
      <trkpt lat="48.93234" lon="1.86448">
        <ele>91</ele>
        <time>2024-12-16T10:16:52.751Z</time>
      </trkpt>
      <trkpt lat="48.9323" lon="1.86445">
        <ele>91</ele>
        <time>2024-12-16T10:16:56.986Z</time>
      </trkpt>
      <trkpt lat="48.93225" lon="1.86443">
        <ele>91</ele>
        <time>2024-12-16T10:17:01.093Z</time>
      </trkpt>
      <trkpt lat="48.93221" lon="1.86439">
        <ele>91</ele>
        <time>2024-12-16T10:17:05.359Z</time>
      </trkpt>
      <trkpt lat="48.93216" lon="1.86436">
        <ele>91</ele>
        <time>2024-12-16T10:17:09.598Z</time>
      </trkpt>
      <trkpt lat="48.93211" lon="1.86433">
        <ele>91</ele>
        <time>2024-12-16T10:17:14.153Z</time>
      </trkpt>
      <trkpt lat="48.93207" lon="1.8643">
        <ele>95</ele>
        <time>2024-12-16T10:17:18.316Z</time>
      </trkpt>
      <trkpt lat="48.93203" lon="1.86427">
        <ele>95</ele>
        <time>2024-12-16T10:17:22.803Z</time>
      </trkpt>
      <trkpt lat="48.93197" lon="1.86423">
        <ele>95</ele>
        <time>2024-12-16T10:17:27.299Z</time>
      </trkpt>
      <trkpt lat="48.93193" lon="1.8642">
        <ele>95</ele>
        <time>2024-12-16T10:17:31.554Z</time>
      </trkpt>
      <trkpt lat="48.93188" lon="1.86416">
        <ele>95</ele>
        <time>2024-12-16T10:17:35.632Z</time>
      </trkpt>
      <trkpt lat="48.93184" lon="1.86414">
        <ele>95</ele>
        <time>2024-12-16T10:17:39.985Z</time>
      </trkpt>
      <trkpt lat="48.93179" lon="1.86411">
        <ele>97</ele>
        <time>2024-12-16T10:17:44.537Z</time>
      </trkpt>
      <trkpt lat="48.93175" lon="1.86408">
        <ele>97</ele>
        <time>2024-12-16T10:17:48.597Z</time>
      </trkpt>
      <trkpt lat="48.9317" lon="1.86404">
        <ele>97</ele>
        <time>2024-12-16T10:17:52.985Z</time>
      </trkpt>
      <trkpt lat="48.93165" lon="1.86401">
        <ele>98</ele>
        <time>2024-12-16T10:17:57.435Z</time>
      </trkpt>
      <trkpt lat="48.93161" lon="1.86399">
        <ele>98</ele>
        <time>2024-12-16T10:18:01.437Z</time>
      </trkpt>
      <trkpt lat="48.93156" lon="1.86396">
        <ele>98</ele>
        <time>2024-12-16T10:18:05.940Z</time>
      </trkpt>
      <trkpt lat="48.93152" lon="1.86393">
        <ele>101</ele>
        <time>2024-12-16T10:18:10.597Z</time>
      </trkpt>
      <trkpt lat="48.93147" lon="1.8639">
        <ele>101</ele>
        <time>2024-12-16T10:18:14.985Z</time>
      </trkpt>
      <trkpt lat="48.93143" lon="1.86386">
        <ele>101</ele>
        <time>2024-12-16T10:18:19.492Z</time>
      </trkpt>
      <trkpt lat="48.93138" lon="1.86382">
        <ele>101</ele>
        <time>2024-12-16T10:18:23.986Z</time>
      </trkpt>
      <trkpt lat="48.93132" lon="1.86378">
        <ele>101</ele>
        <time>2024-12-16T10:18:28.919Z</time>
      </trkpt>
      <trkpt lat="48.93128" lon="1.86375">
        <ele>101</ele>
        <time>2024-12-16T10:18:33.124Z</time>
      </trkpt>
      <trkpt lat="48.93124" lon="1.86372">
        <ele>103</ele>
        <time>2024-12-16T10:18:37.833Z</time>
      </trkpt>
      <trkpt lat="48.9312" lon="1.8637">
        <ele>103</ele>
        <time>2024-12-16T10:18:41.986Z</time>
      </trkpt>
      <trkpt lat="48.93115" lon="1.86367">
        <ele>103</ele>
        <time>2024-12-16T10:18:46.236Z</time>
      </trkpt>
      <trkpt lat="48.93111" lon="1.86364">
        <ele>103</ele>
        <time>2024-12-16T10:18:50.517Z</time>
      </trkpt>
      <trkpt lat="48.93107" lon="1.86361">
        <ele>103</ele>
        <time>2024-12-16T10:18:54.619Z</time>
      </trkpt>
      <trkpt lat="48.93103" lon="1.86358">
        <ele>103</ele>
        <time>2024-12-16T10:18:58.641Z</time>
      </trkpt>
      <trkpt lat="48.93098" lon="1.86356">
        <ele>103</ele>
        <time>2024-12-16T10:19:02.986Z</time>
      </trkpt>
      <trkpt lat="48.93094" lon="1.86353">
        <ele>107</ele>
        <time>2024-12-16T10:19:07.715Z</time>
      </trkpt>
      <trkpt lat="48.9309" lon="1.86349">
        <ele>107</ele>
        <time>2024-12-16T10:19:11.859Z</time>
      </trkpt>
      <trkpt lat="48.93085" lon="1.86347">
        <ele>110</ele>
        <time>2024-12-16T10:19:16.115Z</time>
      </trkpt>
      <trkpt lat="48.93081" lon="1.86343">
        <ele>110</ele>
        <time>2024-12-16T10:19:20.533Z</time>
      </trkpt>
      <trkpt lat="48.93077" lon="1.8634">
        <ele>110</ele>
        <time>2024-12-16T10:19:24.695Z</time>
      </trkpt>
      <trkpt lat="48.93074" lon="1.86333">
        <ele>110</ele>
        <time>2024-12-16T10:19:55.986Z</time>
      </trkpt>
      <trkpt lat="48.93069" lon="1.86332">
        <ele>110</ele>
        <time>2024-12-16T10:20:00.957Z</time>
      </trkpt>
      <trkpt lat="48.93068" lon="1.86332">
        <ele>115</ele>
        <time>2024-12-16T10:20:03.454Z</time>
      </trkpt>
      <trkpt lat="48.93065" lon="1.86332">
        <ele>115</ele>
        <time>2024-12-16T10:20:11.985Z</time>
      </trkpt>
      <trkpt lat="48.93064" lon="1.86331">
        <ele>115</ele>
        <time>2024-12-16T10:20:16.656Z</time>
      </trkpt>
      <trkpt lat="48.93059" lon="1.86323">
        <ele>115</ele>
        <time>2024-12-16T10:20:20.931Z</time>
      </trkpt>
      <trkpt lat="48.93054" lon="1.86319">
        <ele>116</ele>
        <time>2024-12-16T10:20:25.298Z</time>
      </trkpt>
      <trkpt lat="48.93049" lon="1.86316">
        <ele>116</ele>
        <time>2024-12-16T10:20:29.632Z</time>
      </trkpt>
      <trkpt lat="48.93044" lon="1.8631">
        <ele>116</ele>
        <time>2024-12-16T10:20:33.957Z</time>
      </trkpt>
      <trkpt lat="48.93038" lon="1.86306">
        <ele>118</ele>
        <time>2024-12-16T10:20:38.512Z</time>
      </trkpt>
      <trkpt lat="48.93034" lon="1.863">
        <ele>118</ele>
        <time>2024-12-16T10:20:42.556Z</time>
      </trkpt>
      <trkpt lat="48.93031" lon="1.86295">
        <ele>118</ele>
        <time>2024-12-16T10:20:46.658Z</time>
      </trkpt>
      <trkpt lat="48.93026" lon="1.86292">
        <ele>118</ele>
        <time>2024-12-16T10:20:50.932Z</time>
      </trkpt>
      <trkpt lat="48.93022" lon="1.8629">
        <ele>118</ele>
        <time>2024-12-16T10:20:55.173Z</time>
      </trkpt>
      <trkpt lat="48.93017" lon="1.86286">
        <ele>118</ele>
        <time>2024-12-16T10:20:59.599Z</time>
      </trkpt>
      <trkpt lat="48.93014" lon="1.86283">
        <ele>121</ele>
        <time>2024-12-16T10:21:03.932Z</time>
      </trkpt>
      <trkpt lat="48.93009" lon="1.8628">
        <ele>121</ele>
        <time>2024-12-16T10:21:08.411Z</time>
      </trkpt>
      <trkpt lat="48.93009" lon="1.86289">
        <ele>121</ele>
        <time>2024-12-16T10:21:12.986Z</time>
      </trkpt>
      <trkpt lat="48.93006" lon="1.86287">
        <ele>121</ele>
        <time>2024-12-16T10:21:17.155Z</time>
      </trkpt>
      <trkpt lat="48.93" lon="1.8628">
        <ele>121</ele>
        <time>2024-12-16T10:21:21.675Z</time>
      </trkpt>
      <trkpt lat="48.92996" lon="1.86272">
        <ele>121</ele>
        <time>2024-12-16T10:21:25.985Z</time>
      </trkpt>
      <trkpt lat="48.92991" lon="1.86268">
        <ele>121</ele>
        <time>2024-12-16T10:21:30.112Z</time>
      </trkpt>
      <trkpt lat="48.92985" lon="1.86263">
        <ele>126</ele>
        <time>2024-12-16T10:21:34.637Z</time>
      </trkpt>
      <trkpt lat="48.9298" lon="1.8626">
        <ele>126</ele>
        <time>2024-12-16T10:21:38.986Z</time>
      </trkpt>
      <trkpt lat="48.92974" lon="1.86255">
        <ele>126</ele>
        <time>2024-12-16T10:21:43.986Z</time>
      </trkpt>
      <trkpt lat="48.9297" lon="1.86251">
        <ele>126</ele>
        <time>2024-12-16T10:21:48.412Z</time>
      </trkpt>
      <trkpt lat="48.92967" lon="1.86247">
        <ele>126</ele>
        <time>2024-12-16T10:21:52.933Z</time>
      </trkpt>
      <trkpt lat="48.92963" lon="1.86244">
        <ele>126</ele>
        <time>2024-12-16T10:21:56.986Z</time>
      </trkpt>
      <trkpt lat="48.92959" lon="1.86242">
        <ele>126</ele>
        <time>2024-12-16T10:22:01.580Z</time>
      </trkpt>
      <trkpt lat="48.92948" lon="1.8624">
        <ele>128</ele>
        <time>2024-12-16T10:22:27.986Z</time>
      </trkpt>
      <trkpt lat="48.92948" lon="1.86241">
        <ele>128</ele>
        <time>2024-12-16T10:22:32.986Z</time>
      </trkpt>
      <trkpt lat="48.92945" lon="1.86245">
        <ele>128</ele>
        <time>2024-12-16T10:22:37.255Z</time>
      </trkpt>
      <trkpt lat="48.92942" lon="1.86253">
        <ele>128</ele>
        <time>2024-12-16T10:22:41.436Z</time>
      </trkpt>
      <trkpt lat="48.92939" lon="1.86261">
        <ele>128</ele>
        <time>2024-12-16T10:22:45.978Z</time>
      </trkpt>
      <trkpt lat="48.92936" lon="1.86267">
        <ele>127</ele>
        <time>2024-12-16T10:22:49.978Z</time>
      </trkpt>
      <trkpt lat="48.92933" lon="1.86276">
        <ele>127</ele>
        <time>2024-12-16T10:22:54.473Z</time>
      </trkpt>
      <trkpt lat="48.92929" lon="1.86284">
        <ele>130</ele>
        <time>2024-12-16T10:22:58.857Z</time>
      </trkpt>
      <trkpt lat="48.92926" lon="1.86293">
        <ele>128</ele>
        <time>2024-12-16T10:23:03.379Z</time>
      </trkpt>
      <trkpt lat="48.92924" lon="1.86301">
        <ele>128</ele>
        <time>2024-12-16T10:23:07.592Z</time>
      </trkpt>
      <trkpt lat="48.9292" lon="1.86307">
        <ele>128</ele>
        <time>2024-12-16T10:23:11.959Z</time>
      </trkpt>
      <trkpt lat="48.92917" lon="1.86314">
        <ele>128</ele>
        <time>2024-12-16T10:23:16.216Z</time>
      </trkpt>
      <trkpt lat="48.92914" lon="1.86323">
        <ele>127</ele>
        <time>2024-12-16T10:23:20.677Z</time>
      </trkpt>
      <trkpt lat="48.92911" lon="1.8633">
        <ele>127</ele>
        <time>2024-12-16T10:23:24.873Z</time>
      </trkpt>
      <trkpt lat="48.92908" lon="1.86338">
        <ele>127</ele>
        <time>2024-12-16T10:23:29.291Z</time>
      </trkpt>
      <trkpt lat="48.92905" lon="1.86346">
        <ele>127</ele>
        <time>2024-12-16T10:23:33.616Z</time>
      </trkpt>
      <trkpt lat="48.92901" lon="1.86353">
        <ele>129</ele>
        <time>2024-12-16T10:23:37.985Z</time>
      </trkpt>
      <trkpt lat="48.92899" lon="1.86361">
        <ele>129</ele>
        <time>2024-12-16T10:23:42.381Z</time>
      </trkpt>
      <trkpt lat="48.92896" lon="1.86369">
        <ele>129</ele>
        <time>2024-12-16T10:23:46.718Z</time>
      </trkpt>
      <trkpt lat="48.92894" lon="1.86378">
        <ele>128</ele>
        <time>2024-12-16T10:23:51.157Z</time>
      </trkpt>
      <trkpt lat="48.92891" lon="1.86385">
        <ele>128</ele>
        <time>2024-12-16T10:23:55.657Z</time>
      </trkpt>
      <trkpt lat="48.92888" lon="1.86393">
        <ele>128</ele>
        <time>2024-12-16T10:23:59.986Z</time>
      </trkpt>
      <trkpt lat="48.92887" lon="1.86404">
        <ele>128</ele>
        <time>2024-12-16T10:24:04.519Z</time>
      </trkpt>
      <trkpt lat="48.92886" lon="1.86412">
        <ele>128</ele>
        <time>2024-12-16T10:24:08.835Z</time>
      </trkpt>
      <trkpt lat="48.92882" lon="1.8642">
        <ele>128</ele>
        <time>2024-12-16T10:24:13.280Z</time>
      </trkpt>
      <trkpt lat="48.92878" lon="1.86426">
        <ele>128</ele>
        <time>2024-12-16T10:24:17.296Z</time>
      </trkpt>
      <trkpt lat="48.92875" lon="1.86433">
        <ele>127</ele>
        <time>2024-12-16T10:24:21.331Z</time>
      </trkpt>
      <trkpt lat="48.92872" lon="1.86438">
        <ele>131</ele>
        <time>2024-12-16T10:24:25.852Z</time>
      </trkpt>
      <trkpt lat="48.92876" lon="1.86442">
        <ele>127</ele>
        <time>2024-12-16T10:24:29.986Z</time>
      </trkpt>
      <trkpt lat="48.92877" lon="1.86451">
        <ele>127</ele>
        <time>2024-12-16T10:24:34.986Z</time>
      </trkpt>
      <trkpt lat="48.92876" lon="1.8645">
        <ele>127</ele>
        <time>2024-12-16T10:24:39.354Z</time>
      </trkpt>
      <trkpt lat="48.92876" lon="1.86463">
        <ele>126</ele>
        <time>2024-12-16T10:24:43.833Z</time>
      </trkpt>
      <trkpt lat="48.92873" lon="1.86465">
        <ele>130</ele>
        <time>2024-12-16T10:24:47.985Z</time>
      </trkpt>
      <trkpt lat="48.92866" lon="1.86466">
        <ele>130</ele>
        <time>2024-12-16T10:25:25.986Z</time>
      </trkpt>
      <trkpt lat="48.92865" lon="1.86466">
        <ele>130</ele>
        <time>2024-12-16T10:25:29.985Z</time>
      </trkpt>
      <trkpt lat="48.92861" lon="1.86474">
        <ele>130</ele>
        <time>2024-12-16T10:25:34.856Z</time>
      </trkpt>
      <trkpt lat="48.92859" lon="1.86481">
        <ele>130</ele>
        <time>2024-12-16T10:25:38.986Z</time>
      </trkpt>
      <trkpt lat="48.92859" lon="1.86482">
        <ele>130</ele>
        <time>2024-12-16T10:25:43.628Z</time>
      </trkpt>
      <trkpt lat="48.92855" lon="1.86499">
        <ele>130</ele>
        <time>2024-12-16T10:25:47.986Z</time>
      </trkpt>
      <trkpt lat="48.92854" lon="1.86505">
        <ele>130</ele>
        <time>2024-12-16T10:25:52.043Z</time>
      </trkpt>
      <trkpt lat="48.92853" lon="1.86512">
        <ele>130</ele>
        <time>2024-12-16T10:25:56.692Z</time>
      </trkpt>
      <trkpt lat="48.92851" lon="1.86519">
        <ele>129</ele>
        <time>2024-12-16T10:26:00.986Z</time>
      </trkpt>
      <trkpt lat="48.92848" lon="1.86527">
        <ele>129</ele>
        <time>2024-12-16T10:26:05.987Z</time>
      </trkpt>
      <trkpt lat="48.92844" lon="1.86528">
        <ele>135</ele>
        <time>2024-12-16T10:26:10.986Z</time>
      </trkpt>
      <trkpt lat="48.92843" lon="1.86529">
        <ele>135</ele>
        <time>2024-12-16T10:26:15.478Z</time>
      </trkpt>
      <trkpt lat="48.92834" lon="1.86528">
        <ele>135</ele>
        <time>2024-12-16T10:26:19.985Z</time>
      </trkpt>
      <trkpt lat="48.92831" lon="1.86526">
        <ele>135</ele>
        <time>2024-12-16T10:26:24.985Z</time>
      </trkpt>
      <trkpt lat="48.9283" lon="1.86527">
        <ele>135</ele>
        <time>2024-12-16T10:26:29.558Z</time>
      </trkpt>
      <trkpt lat="48.92835" lon="1.86535">
        <ele>135</ele>
        <time>2024-12-16T10:26:33.581Z</time>
      </trkpt>
      <trkpt lat="48.92844" lon="1.8653">
        <ele>135</ele>
        <time>2024-12-16T10:26:37.906Z</time>
      </trkpt>
      <trkpt lat="48.92845" lon="1.86534">
        <ele>135</ele>
        <time>2024-12-16T10:26:41.986Z</time>
      </trkpt>
      <trkpt lat="48.92843" lon="1.86543">
        <ele>135</ele>
        <time>2024-12-16T10:26:46.307Z</time>
      </trkpt>
      <trkpt lat="48.92841" lon="1.86554">
        <ele>135</ele>
        <time>2024-12-16T10:26:50.985Z</time>
      </trkpt>
      <trkpt lat="48.92841" lon="1.86555">
        <ele>135</ele>
        <time>2024-12-16T10:26:55.780Z</time>
      </trkpt>
      <trkpt lat="48.92839" lon="1.86553">
        <ele>135</ele>
        <time>2024-12-16T10:27:23.986Z</time>
      </trkpt>
      <trkpt lat="48.92838" lon="1.86554">
        <ele>135</ele>
        <time>2024-12-16T10:27:28.985Z</time>
      </trkpt>
      <trkpt lat="48.92834" lon="1.8655">
        <ele>135</ele>
        <time>2024-12-16T10:27:33.565Z</time>
      </trkpt>
      <trkpt lat="48.92828" lon="1.86551">
        <ele>135</ele>
        <time>2024-12-16T10:27:37.629Z</time>
      </trkpt>
      <trkpt lat="48.92824" lon="1.8655">
        <ele>135</ele>
        <time>2024-12-16T10:27:41.633Z</time>
      </trkpt>
      <trkpt lat="48.92825" lon="1.86555">
        <ele>135</ele>
        <time>2024-12-16T10:28:06.985Z</time>
      </trkpt>
      <trkpt lat="48.92825" lon="1.86556">
        <ele>135</ele>
        <time>2024-12-16T10:28:13.986Z</time>
      </trkpt>
      <trkpt lat="48.92827" lon="1.86554">
        <ele>135</ele>
        <time>2024-12-16T10:28:18.527Z</time>
      </trkpt>
      <trkpt lat="48.92832" lon="1.86553">
        <ele>135</ele>
        <time>2024-12-16T10:28:22.650Z</time>
      </trkpt>
      <trkpt lat="48.92837" lon="1.86549">
        <ele>135</ele>
        <time>2024-12-16T10:28:26.945Z</time>
      </trkpt>
      <trkpt lat="48.92838" lon="1.86553">
        <ele>135</ele>
        <time>2024-12-16T10:28:30.984Z</time>
      </trkpt>
      <trkpt lat="48.92838" lon="1.86553">
        <ele>135</ele>
        <time>2024-12-16T10:28:34.984Z</time>
      </trkpt>
      <trkpt lat="48.92831" lon="1.86556">
        <ele>135</ele>
        <time>2024-12-16T10:28:39.447Z</time>
      </trkpt>
      <trkpt lat="48.92825" lon="1.86554">
        <ele>135</ele>
        <time>2024-12-16T10:28:43.763Z</time>
      </trkpt>
      <trkpt lat="48.92818" lon="1.86559">
        <ele>139</ele>
        <time>2024-12-16T10:28:48.192Z</time>
      </trkpt>
      <trkpt lat="48.92812" lon="1.86567">
        <ele>139</ele>
        <time>2024-12-16T10:28:52.491Z</time>
      </trkpt>
      <trkpt lat="48.92809" lon="1.86576">
        <ele>139</ele>
        <time>2024-12-16T10:28:56.928Z</time>
      </trkpt>
      <trkpt lat="48.92807" lon="1.86587">
        <ele>139</ele>
        <time>2024-12-16T10:29:01.424Z</time>
      </trkpt>
      <trkpt lat="48.92782" lon="1.86601">
        <ele>141</ele>
        <time>2024-12-16T10:29:41.955Z</time>
      </trkpt>
      <trkpt lat="48.92782" lon="1.866">
        <ele>141</ele>
        <time>2024-12-16T10:29:45.984Z</time>
      </trkpt>
      <trkpt lat="48.92781" lon="1.866">
        <ele>141</ele>
        <time>2024-12-16T10:29:49.984Z</time>
      </trkpt>
      <trkpt lat="48.92772" lon="1.86593">
        <ele>141</ele>
        <time>2024-12-16T10:29:53.985Z</time>
      </trkpt>
      <trkpt lat="48.92765" lon="1.86587">
        <ele>141</ele>
        <time>2024-12-16T10:29:58.552Z</time>
      </trkpt>
      <trkpt lat="48.92759" lon="1.86582">
        <ele>143</ele>
        <time>2024-12-16T10:30:02.825Z</time>
      </trkpt>
      <trkpt lat="48.92761" lon="1.86572">
        <ele>143</ele>
        <time>2024-12-16T10:30:06.985Z</time>
      </trkpt>
      <trkpt lat="48.92762" lon="1.86564">
        <ele>143</ele>
        <time>2024-12-16T10:30:10.986Z</time>
      </trkpt>
      <trkpt lat="48.92763" lon="1.86555">
        <ele>143</ele>
        <time>2024-12-16T10:30:15.209Z</time>
      </trkpt>
      <trkpt lat="48.92763" lon="1.86545">
        <ele>143</ele>
        <time>2024-12-16T10:30:19.509Z</time>
      </trkpt>
      <trkpt lat="48.92765" lon="1.86535">
        <ele>139</ele>
        <time>2024-12-16T10:30:23.984Z</time>
      </trkpt>
      <trkpt lat="48.92766" lon="1.86524">
        <ele>139</ele>
        <time>2024-12-16T10:30:28.985Z</time>
      </trkpt>
      <trkpt lat="48.92768" lon="1.86514">
        <ele>139</ele>
        <time>2024-12-16T10:30:33.669Z</time>
      </trkpt>
      <trkpt lat="48.92771" lon="1.86505">
        <ele>137</ele>
        <time>2024-12-16T10:30:38.100Z</time>
      </trkpt>
      <trkpt lat="48.92774" lon="1.86494">
        <ele>137</ele>
        <time>2024-12-16T10:30:42.585Z</time>
      </trkpt>
      <trkpt lat="48.92776" lon="1.86484">
        <ele>139</ele>
        <time>2024-12-16T10:30:46.985Z</time>
      </trkpt>
      <trkpt lat="48.92778" lon="1.86474">
        <ele>139</ele>
        <time>2024-12-16T10:30:51.285Z</time>
      </trkpt>
      <trkpt lat="48.9278" lon="1.86464">
        <ele>139</ele>
        <time>2024-12-16T10:30:55.750Z</time>
      </trkpt>
      <trkpt lat="48.92781" lon="1.86455">
        <ele>142</ele>
        <time>2024-12-16T10:30:59.984Z</time>
      </trkpt>
      <trkpt lat="48.92783" lon="1.86446">
        <ele>142</ele>
        <time>2024-12-16T10:31:04.166Z</time>
      </trkpt>
      <trkpt lat="48.92784" lon="1.86436">
        <ele>142</ele>
        <time>2024-12-16T10:31:08.568Z</time>
      </trkpt>
      <trkpt lat="48.92784" lon="1.86425">
        <ele>143</ele>
        <time>2024-12-16T10:31:13.686Z</time>
      </trkpt>
      <trkpt lat="48.92781" lon="1.86416">
        <ele>143</ele>
        <time>2024-12-16T10:31:18.071Z</time>
      </trkpt>
      <trkpt lat="48.92777" lon="1.86409">
        <ele>143</ele>
        <time>2024-12-16T10:31:22.468Z</time>
      </trkpt>
      <trkpt lat="48.92771" lon="1.86402">
        <ele>145</ele>
        <time>2024-12-16T10:31:26.985Z</time>
      </trkpt>
      <trkpt lat="48.92769" lon="1.86395">
        <ele>145</ele>
        <time>2024-12-16T10:31:30.984Z</time>
      </trkpt>
      <trkpt lat="48.92766" lon="1.86387">
        <ele>145</ele>
        <time>2024-12-16T10:31:35.070Z</time>
      </trkpt>
      <trkpt lat="48.92763" lon="1.8638">
        <ele>147</ele>
        <time>2024-12-16T10:31:39.189Z</time>
      </trkpt>
      <trkpt lat="48.92759" lon="1.86375">
        <ele>147</ele>
        <time>2024-12-16T10:31:43.911Z</time>
      </trkpt>
      <trkpt lat="48.92755" lon="1.8637">
        <ele>147</ele>
        <time>2024-12-16T10:31:48.151Z</time>
      </trkpt>
      <trkpt lat="48.92751" lon="1.86364">
        <ele>147</ele>
        <time>2024-12-16T10:31:52.432Z</time>
      </trkpt>
      <trkpt lat="48.92746" lon="1.8636">
        <ele>147</ele>
        <time>2024-12-16T10:31:56.765Z</time>
      </trkpt>
      <trkpt lat="48.92741" lon="1.86355">
        <ele>147</ele>
        <time>2024-12-16T10:32:01.139Z</time>
      </trkpt>
      <trkpt lat="48.92735" lon="1.86353">
        <ele>149</ele>
        <time>2024-12-16T10:32:05.526Z</time>
      </trkpt>
      <trkpt lat="48.9273" lon="1.8635">
        <ele>149</ele>
        <time>2024-12-16T10:32:09.945Z</time>
      </trkpt>
      <trkpt lat="48.92725" lon="1.86346">
        <ele>149</ele>
        <time>2024-12-16T10:32:14.406Z</time>
      </trkpt>
      <trkpt lat="48.92721" lon="1.86342">
        <ele>149</ele>
        <time>2024-12-16T10:32:18.885Z</time>
      </trkpt>
      <trkpt lat="48.92715" lon="1.86338">
        <ele>149</ele>
        <time>2024-12-16T10:32:23.251Z</time>
      </trkpt>
      <trkpt lat="48.9271" lon="1.86337">
        <ele>149</ele>
        <time>2024-12-16T10:32:27.645Z</time>
      </trkpt>
      <trkpt lat="48.92706" lon="1.86332">
        <ele>152</ele>
        <time>2024-12-16T10:32:32.165Z</time>
      </trkpt>
      <trkpt lat="48.92701" lon="1.86327">
        <ele>152</ele>
        <time>2024-12-16T10:32:36.985Z</time>
      </trkpt>
      <trkpt lat="48.92697" lon="1.86321">
        <ele>152</ele>
        <time>2024-12-16T10:32:41.207Z</time>
      </trkpt>
      <trkpt lat="48.92692" lon="1.86319">
        <ele>152</ele>
        <time>2024-12-16T10:32:45.490Z</time>
      </trkpt>
      <trkpt lat="48.92686" lon="1.8632">
        <ele>152</ele>
        <time>2024-12-16T10:32:49.984Z</time>
      </trkpt>
      <trkpt lat="48.92681" lon="1.86318">
        <ele>152</ele>
        <time>2024-12-16T10:32:53.984Z</time>
      </trkpt>
      <trkpt lat="48.92676" lon="1.86313">
        <ele>155</ele>
        <time>2024-12-16T10:32:58.404Z</time>
      </trkpt>
      <trkpt lat="48.92672" lon="1.86308">
        <ele>155</ele>
        <time>2024-12-16T10:33:02.849Z</time>
      </trkpt>
      <trkpt lat="48.92667" lon="1.86303">
        <ele>155</ele>
        <time>2024-12-16T10:33:07.309Z</time>
      </trkpt>
      <trkpt lat="48.92662" lon="1.86298">
        <ele>155</ele>
        <time>2024-12-16T10:33:11.591Z</time>
      </trkpt>
      <trkpt lat="48.92656" lon="1.86293">
        <ele>155</ele>
        <time>2024-12-16T10:33:15.951Z</time>
      </trkpt>
      <trkpt lat="48.92653" lon="1.86289">
        <ele>160</ele>
        <time>2024-12-16T10:33:20.189Z</time>
      </trkpt>
      <trkpt lat="48.92648" lon="1.86285">
        <ele>160</ele>
        <time>2024-12-16T10:33:24.591Z</time>
      </trkpt>
      <trkpt lat="48.92642" lon="1.8628">
        <ele>160</ele>
        <time>2024-12-16T10:33:28.994Z</time>
      </trkpt>
      <trkpt lat="48.92637" lon="1.86275">
        <ele>160</ele>
        <time>2024-12-16T10:33:33.529Z</time>
      </trkpt>
      <trkpt lat="48.92632" lon="1.86272">
        <ele>160</ele>
        <time>2024-12-16T10:33:37.624Z</time>
      </trkpt>
      <trkpt lat="48.92627" lon="1.86268">
        <ele>160</ele>
        <time>2024-12-16T10:33:41.684Z</time>
      </trkpt>
      <trkpt lat="48.92624" lon="1.86265">
        <ele>163</ele>
        <time>2024-12-16T10:33:45.779Z</time>
      </trkpt>
      <trkpt lat="48.92619" lon="1.8626">
        <ele>163</ele>
        <time>2024-12-16T10:33:49.985Z</time>
      </trkpt>
      <trkpt lat="48.92615" lon="1.86256">
        <ele>163</ele>
        <time>2024-12-16T10:33:54.164Z</time>
      </trkpt>
      <trkpt lat="48.92611" lon="1.86253">
        <ele>163</ele>
        <time>2024-12-16T10:33:58.249Z</time>
      </trkpt>
      <trkpt lat="48.92608" lon="1.86249">
        <ele>163</ele>
        <time>2024-12-16T10:34:02.352Z</time>
      </trkpt>
      <trkpt lat="48.92604" lon="1.86245">
        <ele>163</ele>
        <time>2024-12-16T10:34:06.368Z</time>
      </trkpt>
      <trkpt lat="48.926" lon="1.86242">
        <ele>163</ele>
        <time>2024-12-16T10:34:10.404Z</time>
      </trkpt>
      <trkpt lat="48.92596" lon="1.86238">
        <ele>165</ele>
        <time>2024-12-16T10:34:14.431Z</time>
      </trkpt>
      <trkpt lat="48.9259" lon="1.86237">
        <ele>165</ele>
        <time>2024-12-16T10:34:18.712Z</time>
      </trkpt>
      <trkpt lat="48.92586" lon="1.86234">
        <ele>165</ele>
        <time>2024-12-16T10:34:22.985Z</time>
      </trkpt>
      <trkpt lat="48.92582" lon="1.8623">
        <ele>165</ele>
        <time>2024-12-16T10:34:27.506Z</time>
      </trkpt>
      <trkpt lat="48.92577" lon="1.86227">
        <ele>165</ele>
        <time>2024-12-16T10:34:31.865Z</time>
      </trkpt>
      <trkpt lat="48.92574" lon="1.86224">
        <ele>165</ele>
        <time>2024-12-16T10:34:35.985Z</time>
      </trkpt>
      <trkpt lat="48.92569" lon="1.86222">
        <ele>167</ele>
        <time>2024-12-16T10:34:40.505Z</time>
      </trkpt>
      <trkpt lat="48.92565" lon="1.86223">
        <ele>167</ele>
        <time>2024-12-16T10:34:44.985Z</time>
      </trkpt>
      <trkpt lat="48.92562" lon="1.8622">
        <ele>167</ele>
        <time>2024-12-16T10:34:49.444Z</time>
      </trkpt>
      <trkpt lat="48.92558" lon="1.86218">
        <ele>167</ele>
        <time>2024-12-16T10:34:53.930Z</time>
      </trkpt>
      <trkpt lat="48.92553" lon="1.86216">
        <ele>167</ele>
        <time>2024-12-16T10:34:57.984Z</time>
      </trkpt>
      <trkpt lat="48.92548" lon="1.86214">
        <ele>167</ele>
        <time>2024-12-16T10:35:02.708Z</time>
      </trkpt>
      <trkpt lat="48.92543" lon="1.86211">
        <ele>167</ele>
        <time>2024-12-16T10:35:06.726Z</time>
      </trkpt>
      <trkpt lat="48.92539" lon="1.86208">
        <ele>166</ele>
        <time>2024-12-16T10:35:10.845Z</time>
      </trkpt>
      <trkpt lat="48.92535" lon="1.86206">
        <ele>166</ele>
        <time>2024-12-16T10:35:14.888Z</time>
      </trkpt>
      <trkpt lat="48.92529" lon="1.86204">
        <ele>166</ele>
        <time>2024-12-16T10:35:19.469Z</time>
      </trkpt>
      <trkpt lat="48.92524" lon="1.86204">
        <ele>166</ele>
        <time>2024-12-16T10:35:23.985Z</time>
      </trkpt>
      <trkpt lat="48.92521" lon="1.86202">
        <ele>166</ele>
        <time>2024-12-16T10:35:28.765Z</time>
      </trkpt>
      <trkpt lat="48.92518" lon="1.86202">
        <ele>166</ele>
        <time>2024-12-16T10:35:33.432Z</time>
      </trkpt>
      <trkpt lat="48.92515" lon="1.86203">
        <ele>166</ele>
        <time>2024-12-16T10:35:37.525Z</time>
      </trkpt>
      <trkpt lat="48.9251" lon="1.86201">
        <ele>167</ele>
        <time>2024-12-16T10:35:41.985Z</time>
      </trkpt>
      <trkpt lat="48.92508" lon="1.86197">
        <ele>167</ele>
        <time>2024-12-16T10:35:46.191Z</time>
      </trkpt>
      <trkpt lat="48.92505" lon="1.86194">
        <ele>167</ele>
        <time>2024-12-16T10:35:50.405Z</time>
      </trkpt>
      <trkpt lat="48.92503" lon="1.8619">
        <ele>167</ele>
        <time>2024-12-16T10:35:54.687Z</time>
      </trkpt>
      <trkpt lat="48.92499" lon="1.86187">
        <ele>167</ele>
        <time>2024-12-16T10:35:59.249Z</time>
      </trkpt>
      <trkpt lat="48.92495" lon="1.86184">
        <ele>167</ele>
        <time>2024-12-16T10:36:03.667Z</time>
      </trkpt>
      <trkpt lat="48.92489" lon="1.86179">
        <ele>164</ele>
        <time>2024-12-16T10:36:08.231Z</time>
      </trkpt>
      <trkpt lat="48.92484" lon="1.86175">
        <ele>167</ele>
        <time>2024-12-16T10:36:12.649Z</time>
      </trkpt>
      <trkpt lat="48.92479" lon="1.86172">
        <ele>167</ele>
        <time>2024-12-16T10:36:16.846Z</time>
      </trkpt>
      <trkpt lat="48.92474" lon="1.86168">
        <ele>167</ele>
        <time>2024-12-16T10:36:21.511Z</time>
      </trkpt>
      <trkpt lat="48.92467" lon="1.86159">
        <ele>167</ele>
        <time>2024-12-16T10:36:53.309Z</time>
      </trkpt>
      <trkpt lat="48.92468" lon="1.86156">
        <ele>167</ele>
        <time>2024-12-16T10:36:57.587Z</time>
      </trkpt>
      <trkpt lat="48.92469" lon="1.8615">
        <ele>165</ele>
        <time>2024-12-16T10:37:01.985Z</time>
      </trkpt>
      <trkpt lat="48.9247" lon="1.86144">
        <ele>165</ele>
        <time>2024-12-16T10:37:06.695Z</time>
      </trkpt>
      <trkpt lat="48.92472" lon="1.86138">
        <ele>165</ele>
        <time>2024-12-16T10:37:10.985Z</time>
      </trkpt>
      <trkpt lat="48.92473" lon="1.86133">
        <ele>165</ele>
        <time>2024-12-16T10:37:14.984Z</time>
      </trkpt>
      <trkpt lat="48.92474" lon="1.86127">
        <ele>165</ele>
        <time>2024-12-16T10:37:19.328Z</time>
      </trkpt>
      <trkpt lat="48.92474" lon="1.8612">
        <ele>164</ele>
        <time>2024-12-16T10:37:23.652Z</time>
      </trkpt>
      <trkpt lat="48.92475" lon="1.86112">
        <ele>164</ele>
        <time>2024-12-16T10:37:27.928Z</time>
      </trkpt>
      <trkpt lat="48.92477" lon="1.86106">
        <ele>164</ele>
        <time>2024-12-16T10:37:31.984Z</time>
      </trkpt>
      <trkpt lat="48.92479" lon="1.86101">
        <ele>164</ele>
        <time>2024-12-16T10:37:36.144Z</time>
      </trkpt>
      <trkpt lat="48.92482" lon="1.86097">
        <ele>163</ele>
        <time>2024-12-16T10:37:40.543Z</time>
      </trkpt>
      <trkpt lat="48.92486" lon="1.86092">
        <ele>163</ele>
        <time>2024-12-16T10:37:44.985Z</time>
      </trkpt>
      <trkpt lat="48.92488" lon="1.86084">
        <ele>159</ele>
        <time>2024-12-16T10:37:49.180Z</time>
      </trkpt>
      <trkpt lat="48.9249" lon="1.86076">
        <ele>159</ele>
        <time>2024-12-16T10:37:53.389Z</time>
      </trkpt>
      <trkpt lat="48.92489" lon="1.86067">
        <ele>158</ele>
        <time>2024-12-16T10:37:57.474Z</time>
      </trkpt>
      <trkpt lat="48.9249" lon="1.8606">
        <ele>158</ele>
        <time>2024-12-16T10:38:01.612Z</time>
      </trkpt>
      <trkpt lat="48.92489" lon="1.86054">
        <ele>158</ele>
        <time>2024-12-16T10:38:05.635Z</time>
      </trkpt>
      <trkpt lat="48.9249" lon="1.86046">
        <ele>158</ele>
        <time>2024-12-16T10:38:10.148Z</time>
      </trkpt>
      <trkpt lat="48.92493" lon="1.86039">
        <ele>157</ele>
        <time>2024-12-16T10:38:14.732Z</time>
      </trkpt>
      <trkpt lat="48.92493" lon="1.86032">
        <ele>157</ele>
        <time>2024-12-16T10:38:19.311Z</time>
      </trkpt>
      <trkpt lat="48.92492" lon="1.86025">
        <ele>157</ele>
        <time>2024-12-16T10:38:23.393Z</time>
      </trkpt>
      <trkpt lat="48.92491" lon="1.86018">
        <ele>157</ele>
        <time>2024-12-16T10:38:27.985Z</time>
      </trkpt>
      <trkpt lat="48.92492" lon="1.86009">
        <ele>158</ele>
        <time>2024-12-16T10:38:32.854Z</time>
      </trkpt>
      <trkpt lat="48.92493" lon="1.86002">
        <ele>158</ele>
        <time>2024-12-16T10:38:37.410Z</time>
      </trkpt>
      <trkpt lat="48.92493" lon="1.85996">
        <ele>158</ele>
        <time>2024-12-16T10:38:41.984Z</time>
      </trkpt>
      <trkpt lat="48.92492" lon="1.85989">
        <ele>158</ele>
        <time>2024-12-16T10:38:46.287Z</time>
      </trkpt>
      <trkpt lat="48.92492" lon="1.85982">
        <ele>155</ele>
        <time>2024-12-16T10:38:50.330Z</time>
      </trkpt>
      <trkpt lat="48.92492" lon="1.85976">
        <ele>155</ele>
        <time>2024-12-16T10:38:54.425Z</time>
      </trkpt>
      <trkpt lat="48.92492" lon="1.85969">
        <ele>155</ele>
        <time>2024-12-16T10:38:58.512Z</time>
      </trkpt>
      <trkpt lat="48.92491" lon="1.85962">
        <ele>155</ele>
        <time>2024-12-16T10:39:02.872Z</time>
      </trkpt>
      <trkpt lat="48.92491" lon="1.85954">
        <ele>154</ele>
        <time>2024-12-16T10:39:07.249Z</time>
      </trkpt>
      <trkpt lat="48.92491" lon="1.85945">
        <ele>154</ele>
        <time>2024-12-16T10:39:11.691Z</time>
      </trkpt>
      <trkpt lat="48.92491" lon="1.85938">
        <ele>154</ele>
        <time>2024-12-16T10:39:15.985Z</time>
      </trkpt>
      <trkpt lat="48.92491" lon="1.85929">
        <ele>153</ele>
        <time>2024-12-16T10:39:20.451Z</time>
      </trkpt>
      <trkpt lat="48.92492" lon="1.8592">
        <ele>153</ele>
        <time>2024-12-16T10:39:24.872Z</time>
      </trkpt>
      <trkpt lat="48.92492" lon="1.85911">
        <ele>153</ele>
        <time>2024-12-16T10:39:29.290Z</time>
      </trkpt>
      <trkpt lat="48.92492" lon="1.85902">
        <ele>151</ele>
        <time>2024-12-16T10:39:33.785Z</time>
      </trkpt>
      <trkpt lat="48.92493" lon="1.85895">
        <ele>151</ele>
        <time>2024-12-16T10:39:37.985Z</time>
      </trkpt>
      <trkpt lat="48.92492" lon="1.85887">
        <ele>151</ele>
        <time>2024-12-16T10:39:42.545Z</time>
      </trkpt>
      <trkpt lat="48.92491" lon="1.85879">
        <ele>151</ele>
        <time>2024-12-16T10:39:46.989Z</time>
      </trkpt>
      <trkpt lat="48.9249" lon="1.8587">
        <ele>148</ele>
        <time>2024-12-16T10:39:51.408Z</time>
      </trkpt>
      <trkpt lat="48.9249" lon="1.85862">
        <ele>148</ele>
        <time>2024-12-16T10:39:55.569Z</time>
      </trkpt>
      <trkpt lat="48.9249" lon="1.85853">
        <ele>148</ele>
        <time>2024-12-16T10:39:59.971Z</time>
      </trkpt>
      <trkpt lat="48.92491" lon="1.85845">
        <ele>144</ele>
        <time>2024-12-16T10:40:04.390Z</time>
      </trkpt>
      <trkpt lat="48.92492" lon="1.85838">
        <ele>144</ele>
        <time>2024-12-16T10:40:08.766Z</time>
      </trkpt>
      <trkpt lat="48.92495" lon="1.85831">
        <ele>144</ele>
        <time>2024-12-16T10:40:12.985Z</time>
      </trkpt>
      <trkpt lat="48.92498" lon="1.85825">
        <ele>144</ele>
        <time>2024-12-16T10:40:17.449Z</time>
      </trkpt>
      <trkpt lat="48.92497" lon="1.85818">
        <ele>139</ele>
        <time>2024-12-16T10:40:21.791Z</time>
      </trkpt>
      <trkpt lat="48.92495" lon="1.8581">
        <ele>139</ele>
        <time>2024-12-16T10:40:25.970Z</time>
      </trkpt>
      <trkpt lat="48.92494" lon="1.85803">
        <ele>139</ele>
        <time>2024-12-16T10:40:30.347Z</time>
      </trkpt>
      <trkpt lat="48.92494" lon="1.85795">
        <ele>139</ele>
        <time>2024-12-16T10:40:34.886Z</time>
      </trkpt>
      <trkpt lat="48.92494" lon="1.85791">
        <ele>134</ele>
        <time>2024-12-16T10:40:39.288Z</time>
      </trkpt>
      <trkpt lat="48.92494" lon="1.85787">
        <ele>134</ele>
        <time>2024-12-16T10:40:43.465Z</time>
      </trkpt>
      <trkpt lat="48.92495" lon="1.85782">
        <ele>134</ele>
        <time>2024-12-16T10:40:47.654Z</time>
      </trkpt>
      <trkpt lat="48.92496" lon="1.85776">
        <ele>134</ele>
        <time>2024-12-16T10:40:51.984Z</time>
      </trkpt>
      <trkpt lat="48.92496" lon="1.85774">
        <ele>134</ele>
        <time>2024-12-16T10:40:56.490Z</time>
      </trkpt>
      <trkpt lat="48.92494" lon="1.85769">
        <ele>134</ele>
        <time>2024-12-16T10:41:00.984Z</time>
      </trkpt>
      <trkpt lat="48.92487" lon="1.85765">
        <ele>134</ele>
        <time>2024-12-16T10:41:05.549Z</time>
      </trkpt>
      <trkpt lat="48.92482" lon="1.85761">
        <ele>129</ele>
        <time>2024-12-16T10:41:09.984Z</time>
      </trkpt>
      <trkpt lat="48.92478" lon="1.85755">
        <ele>129</ele>
        <time>2024-12-16T10:41:14.232Z</time>
      </trkpt>
      <trkpt lat="48.92475" lon="1.85749">
        <ele>129</ele>
        <time>2024-12-16T10:41:18.593Z</time>
      </trkpt>
      <trkpt lat="48.92473" lon="1.8574">
        <ele>129</ele>
        <time>2024-12-16T10:41:38.984Z</time>
      </trkpt>
      <trkpt lat="48.92473" lon="1.85737">
        <ele>129</ele>
        <time>2024-12-16T10:41:43.984Z</time>
      </trkpt>
      <trkpt lat="48.92472" lon="1.85735">
        <ele>126</ele>
        <time>2024-12-16T10:41:48.527Z</time>
      </trkpt>
      <trkpt lat="48.92469" lon="1.85735">
        <ele>126</ele>
        <time>2024-12-16T10:41:52.931Z</time>
      </trkpt>
      <trkpt lat="48.92463" lon="1.85725">
        <ele>126</ele>
        <time>2024-12-16T10:41:56.985Z</time>
      </trkpt>
      <trkpt lat="48.92461" lon="1.85727">
        <ele>126</ele>
        <time>2024-12-16T10:42:01.984Z</time>
      </trkpt>
      <trkpt lat="48.92459" lon="1.8573">
        <ele>126</ele>
        <time>2024-12-16T10:42:06.857Z</time>
      </trkpt>
      <trkpt lat="48.92458" lon="1.85733">
        <ele>125</ele>
        <time>2024-12-16T10:42:10.984Z</time>
      </trkpt>
      <trkpt lat="48.92453" lon="1.85737">
        <ele>128</ele>
        <time>2024-12-16T10:42:15.985Z</time>
      </trkpt>
      <trkpt lat="48.92453" lon="1.85734">
        <ele>125</ele>
        <time>2024-12-16T10:42:20.858Z</time>
      </trkpt>
      <trkpt lat="48.92452" lon="1.85733">
        <ele>125</ele>
        <time>2024-12-16T10:42:24.984Z</time>
      </trkpt>
      <trkpt lat="48.9245" lon="1.8573">
        <ele>125</ele>
        <time>2024-12-16T10:42:29.984Z</time>
      </trkpt>
      <trkpt lat="48.92445" lon="1.8573">
        <ele>125</ele>
        <time>2024-12-16T10:42:34.753Z</time>
      </trkpt>
      <trkpt lat="48.92442" lon="1.85728">
        <ele>125</ele>
        <time>2024-12-16T10:42:38.985Z</time>
      </trkpt>
      <trkpt lat="48.92437" lon="1.85724">
        <ele>125</ele>
        <time>2024-12-16T10:42:43.916Z</time>
      </trkpt>
      <trkpt lat="48.92434" lon="1.85727">
        <ele>125</ele>
        <time>2024-12-16T10:42:47.913Z</time>
      </trkpt>
      <trkpt lat="48.92429" lon="1.85733">
        <ele>122</ele>
        <time>2024-12-16T10:42:52.322Z</time>
      </trkpt>
      <trkpt lat="48.92424" lon="1.85737">
        <ele>127</ele>
        <time>2024-12-16T10:42:56.599Z</time>
      </trkpt>
      <trkpt lat="48.9241" lon="1.85743">
        <ele>127</ele>
        <time>2024-12-16T10:43:14.984Z</time>
      </trkpt>
      <trkpt lat="48.92409" lon="1.85743">
        <ele>127</ele>
        <time>2024-12-16T10:43:19.850Z</time>
      </trkpt>
      <trkpt lat="48.92403" lon="1.85746">
        <ele>127</ele>
        <time>2024-12-16T10:43:24.143Z</time>
      </trkpt>
      <trkpt lat="48.92397" lon="1.85751">
        <ele>123</ele>
        <time>2024-12-16T10:43:28.534Z</time>
      </trkpt>
      <trkpt lat="48.9239" lon="1.85752">
        <ele>123</ele>
        <time>2024-12-16T10:43:32.911Z</time>
      </trkpt>
      <trkpt lat="48.92383" lon="1.85753">
        <ele>123</ele>
        <time>2024-12-16T10:43:37.450Z</time>
      </trkpt>
      <trkpt lat="48.92377" lon="1.85755">
        <ele>123</ele>
        <time>2024-12-16T10:43:41.476Z</time>
      </trkpt>
      <trkpt lat="48.92371" lon="1.85754">
        <ele>121</ele>
        <time>2024-12-16T10:43:45.512Z</time>
      </trkpt>
      <trkpt lat="48.92364" lon="1.85753">
        <ele>121</ele>
        <time>2024-12-16T10:43:49.631Z</time>
      </trkpt>
      <trkpt lat="48.92358" lon="1.85752">
        <ele>121</ele>
        <time>2024-12-16T10:43:54.142Z</time>
      </trkpt>
      <trkpt lat="48.92352" lon="1.85751">
        <ele>121</ele>
        <time>2024-12-16T10:43:58.571Z</time>
      </trkpt>
      <trkpt lat="48.92347" lon="1.85747">
        <ele>121</ele>
        <time>2024-12-16T10:44:02.897Z</time>
      </trkpt>
      <trkpt lat="48.92342" lon="1.85744">
        <ele>121</ele>
        <time>2024-12-16T10:44:06.984Z</time>
      </trkpt>
      <trkpt lat="48.92336" lon="1.85744">
        <ele>121</ele>
        <time>2024-12-16T10:44:11.615Z</time>
      </trkpt>
      <trkpt lat="48.9233" lon="1.85744">
        <ele>121</ele>
        <time>2024-12-16T10:44:15.949Z</time>
      </trkpt>
      <trkpt lat="48.92324" lon="1.85743">
        <ele>121</ele>
        <time>2024-12-16T10:44:20.410Z</time>
      </trkpt>
      <trkpt lat="48.92318" lon="1.85742">
        <ele>120</ele>
        <time>2024-12-16T10:44:24.992Z</time>
      </trkpt>
      <trkpt lat="48.92313" lon="1.8574">
        <ele>120</ele>
        <time>2024-12-16T10:44:29.350Z</time>
      </trkpt>
      <trkpt lat="48.92307" lon="1.85737">
        <ele>120</ele>
        <time>2024-12-16T10:44:33.676Z</time>
      </trkpt>
      <trkpt lat="48.92302" lon="1.85736">
        <ele>120</ele>
        <time>2024-12-16T10:44:37.812Z</time>
      </trkpt>
      <trkpt lat="48.92296" lon="1.85735">
        <ele>118</ele>
        <time>2024-12-16T10:44:42.171Z</time>
      </trkpt>
      <trkpt lat="48.9229" lon="1.85734">
        <ele>117</ele>
        <time>2024-12-16T10:44:46.513Z</time>
      </trkpt>
      <trkpt lat="48.92285" lon="1.85733">
        <ele>117</ele>
        <time>2024-12-16T10:44:50.985Z</time>
      </trkpt>
      <trkpt lat="48.92278" lon="1.85731">
        <ele>117</ele>
        <time>2024-12-16T10:44:55.896Z</time>
      </trkpt>
      <trkpt lat="48.92272" lon="1.8573">
        <ele>117</ele>
        <time>2024-12-16T10:45:00.144Z</time>
      </trkpt>
      <trkpt lat="48.92266" lon="1.85728">
        <ele>117</ele>
        <time>2024-12-16T10:45:04.487Z</time>
      </trkpt>
      <trkpt lat="48.9226" lon="1.85727">
        <ele>116</ele>
        <time>2024-12-16T10:45:08.984Z</time>
      </trkpt>
      <trkpt lat="48.92253" lon="1.85725">
        <ele>116</ele>
        <time>2024-12-16T10:45:13.546Z</time>
      </trkpt>
      <trkpt lat="48.92247" lon="1.85724">
        <ele>116</ele>
        <time>2024-12-16T10:45:17.984Z</time>
      </trkpt>
      <trkpt lat="48.9224" lon="1.85724">
        <ele>116</ele>
        <time>2024-12-16T10:45:22.647Z</time>
      </trkpt>
      <trkpt lat="48.92235" lon="1.85723">
        <ele>113</ele>
        <time>2024-12-16T10:45:26.946Z</time>
      </trkpt>
      <trkpt lat="48.92229" lon="1.85721">
        <ele>113</ele>
        <time>2024-12-16T10:45:31.305Z</time>
      </trkpt>
      <trkpt lat="48.92222" lon="1.85721">
        <ele>113</ele>
        <time>2024-12-16T10:45:35.800Z</time>
      </trkpt>
      <trkpt lat="48.92216" lon="1.85721">
        <ele>113</ele>
        <time>2024-12-16T10:45:40.263Z</time>
      </trkpt>
      <trkpt lat="48.9221" lon="1.8572">
        <ele>113</ele>
        <time>2024-12-16T10:45:44.739Z</time>
      </trkpt>
      <trkpt lat="48.92205" lon="1.8572">
        <ele>112</ele>
        <time>2024-12-16T10:45:48.984Z</time>
      </trkpt>
      <trkpt lat="48.92199" lon="1.85719">
        <ele>112</ele>
        <time>2024-12-16T10:45:53.261Z</time>
      </trkpt>
      <trkpt lat="48.92193" lon="1.8572">
        <ele>112</ele>
        <time>2024-12-16T10:45:57.705Z</time>
      </trkpt>
      <trkpt lat="48.92187" lon="1.8572">
        <ele>112</ele>
        <time>2024-12-16T10:46:02.185Z</time>
      </trkpt>
      <trkpt lat="48.9218" lon="1.85721">
        <ele>111</ele>
        <time>2024-12-16T10:46:06.704Z</time>
      </trkpt>
      <trkpt lat="48.92175" lon="1.85722">
        <ele>111</ele>
        <time>2024-12-16T10:46:10.984Z</time>
      </trkpt>
      <trkpt lat="48.92169" lon="1.85722">
        <ele>111</ele>
        <time>2024-12-16T10:46:15.285Z</time>
      </trkpt>
      <trkpt lat="48.92164" lon="1.85723">
        <ele>111</ele>
        <time>2024-12-16T10:46:19.328Z</time>
      </trkpt>
      <trkpt lat="48.92159" lon="1.85723">
        <ele>111</ele>
        <time>2024-12-16T10:46:23.447Z</time>
      </trkpt>
      <trkpt lat="48.92154" lon="1.85726">
        <ele>111</ele>
        <time>2024-12-16T10:46:27.687Z</time>
      </trkpt>
      <trkpt lat="48.92148" lon="1.85726">
        <ele>110</ele>
        <time>2024-12-16T10:46:31.830Z</time>
      </trkpt>
      <trkpt lat="48.92143" lon="1.85727">
        <ele>110</ele>
        <time>2024-12-16T10:46:36.985Z</time>
      </trkpt>
      <trkpt lat="48.92139" lon="1.85728">
        <ele>110</ele>
        <time>2024-12-16T10:46:41.292Z</time>
      </trkpt>
      <trkpt lat="48.92133" lon="1.85731">
        <ele>110</ele>
        <time>2024-12-16T10:46:45.599Z</time>
      </trkpt>
      <trkpt lat="48.92128" lon="1.85733">
        <ele>110</ele>
        <time>2024-12-16T10:46:49.763Z</time>
      </trkpt>
      <trkpt lat="48.92123" lon="1.85734">
        <ele>110</ele>
        <time>2024-12-16T10:46:53.984Z</time>
      </trkpt>
      <trkpt lat="48.92119" lon="1.85739">
        <ele>112</ele>
        <time>2024-12-16T10:46:58.548Z</time>
      </trkpt>
      <trkpt lat="48.92113" lon="1.8574">
        <ele>112</ele>
        <time>2024-12-16T10:47:02.923Z</time>
      </trkpt>
      <trkpt lat="48.92108" lon="1.85741">
        <ele>112</ele>
        <time>2024-12-16T10:47:07.060Z</time>
      </trkpt>
      <trkpt lat="48.92103" lon="1.85741">
        <ele>112</ele>
        <time>2024-12-16T10:47:11.206Z</time>
      </trkpt>
      <trkpt lat="48.92098" lon="1.8574">
        <ele>112</ele>
        <time>2024-12-16T10:47:15.463Z</time>
      </trkpt>
      <trkpt lat="48.92093" lon="1.8574">
        <ele>112</ele>
        <time>2024-12-16T10:47:19.686Z</time>
      </trkpt>
      <trkpt lat="48.92088" lon="1.8574">
        <ele>112</ele>
        <time>2024-12-16T10:47:23.884Z</time>
      </trkpt>
      <trkpt lat="48.92084" lon="1.85741">
        <ele>112</ele>
        <time>2024-12-16T10:47:27.985Z</time>
      </trkpt>
      <trkpt lat="48.92079" lon="1.85742">
        <ele>112</ele>
        <time>2024-12-16T10:47:32.326Z</time>
      </trkpt>
      <trkpt lat="48.92073" lon="1.85741">
        <ele>112</ele>
        <time>2024-12-16T10:47:36.823Z</time>
      </trkpt>
      <trkpt lat="48.92069" lon="1.8574">
        <ele>113</ele>
        <time>2024-12-16T10:47:41.004Z</time>
      </trkpt>
      <trkpt lat="48.92064" lon="1.8574">
        <ele>113</ele>
        <time>2024-12-16T10:47:45.206Z</time>
      </trkpt>
      <trkpt lat="48.92059" lon="1.8574">
        <ele>113</ele>
        <time>2024-12-16T10:47:49.820Z</time>
      </trkpt>
      <trkpt lat="48.92055" lon="1.8574">
        <ele>113</ele>
        <time>2024-12-16T10:47:54.146Z</time>
      </trkpt>
      <trkpt lat="48.9205" lon="1.8574">
        <ele>113</ele>
        <time>2024-12-16T10:47:58.666Z</time>
      </trkpt>
      <trkpt lat="48.92044" lon="1.8574">
        <ele>113</ele>
        <time>2024-12-16T10:48:03.186Z</time>
      </trkpt>
      <trkpt lat="48.9204" lon="1.85741">
        <ele>113</ele>
        <time>2024-12-16T10:48:07.246Z</time>
      </trkpt>
      <trkpt lat="48.92035" lon="1.85743">
        <ele>113</ele>
        <time>2024-12-16T10:48:11.401Z</time>
      </trkpt>
      <trkpt lat="48.9203" lon="1.85744">
        <ele>113</ele>
        <time>2024-12-16T10:48:15.862Z</time>
      </trkpt>
      <trkpt lat="48.92024" lon="1.85743">
        <ele>113</ele>
        <time>2024-12-16T10:48:20.468Z</time>
      </trkpt>
      <trkpt lat="48.92019" lon="1.85743">
        <ele>113</ele>
        <time>2024-12-16T10:48:24.706Z</time>
      </trkpt>
      <trkpt lat="48.92013" lon="1.85742">
        <ele>112</ele>
        <time>2024-12-16T10:48:28.985Z</time>
      </trkpt>
      <trkpt lat="48.92008" lon="1.85742">
        <ele>112</ele>
        <time>2024-12-16T10:48:33.228Z</time>
      </trkpt>
      <trkpt lat="48.92003" lon="1.85742">
        <ele>112</ele>
        <time>2024-12-16T10:48:37.364Z</time>
      </trkpt>
      <trkpt lat="48.91998" lon="1.85741">
        <ele>112</ele>
        <time>2024-12-16T10:48:41.467Z</time>
      </trkpt>
      <trkpt lat="48.91993" lon="1.85742">
        <ele>112</ele>
        <time>2024-12-16T10:48:45.984Z</time>
      </trkpt>
      <trkpt lat="48.91987" lon="1.85742">
        <ele>112</ele>
        <time>2024-12-16T10:48:50.346Z</time>
      </trkpt>
      <trkpt lat="48.91982" lon="1.85741">
        <ele>112</ele>
        <time>2024-12-16T10:48:54.525Z</time>
      </trkpt>
      <trkpt lat="48.91977" lon="1.85741">
        <ele>112</ele>
        <time>2024-12-16T10:48:58.890Z</time>
      </trkpt>
      <trkpt lat="48.91971" lon="1.85741">
        <ele>112</ele>
        <time>2024-12-16T10:49:03.200Z</time>
      </trkpt>
      <trkpt lat="48.91966" lon="1.8574">
        <ele>112</ele>
        <time>2024-12-16T10:49:07.345Z</time>
      </trkpt>
      <trkpt lat="48.91961" lon="1.85739">
        <ele>112</ele>
        <time>2024-12-16T10:49:11.544Z</time>
      </trkpt>
      <trkpt lat="48.91956" lon="1.85737">
        <ele>112</ele>
        <time>2024-12-16T10:49:15.747Z</time>
      </trkpt>
      <trkpt lat="48.91951" lon="1.85734">
        <ele>110</ele>
        <time>2024-12-16T10:49:20.303Z</time>
      </trkpt>
      <trkpt lat="48.91946" lon="1.8573">
        <ele>110</ele>
        <time>2024-12-16T10:49:24.864Z</time>
      </trkpt>
      <trkpt lat="48.91941" lon="1.85728">
        <ele>110</ele>
        <time>2024-12-16T10:49:28.985Z</time>
      </trkpt>
      <trkpt lat="48.91936" lon="1.85727">
        <ele>110</ele>
        <time>2024-12-16T10:49:33.223Z</time>
      </trkpt>
      <trkpt lat="48.91929" lon="1.85726">
        <ele>112</ele>
        <time>2024-12-16T10:49:37.822Z</time>
      </trkpt>
      <trkpt lat="48.91924" lon="1.85724">
        <ele>112</ele>
        <time>2024-12-16T10:49:41.924Z</time>
      </trkpt>
      <trkpt lat="48.91919" lon="1.85725">
        <ele>112</ele>
        <time>2024-12-16T10:49:46.582Z</time>
      </trkpt>
      <trkpt lat="48.91913" lon="1.85723">
        <ele>112</ele>
        <time>2024-12-16T10:49:50.948Z</time>
      </trkpt>
      <trkpt lat="48.91907" lon="1.85722">
        <ele>112</ele>
        <time>2024-12-16T10:49:55.486Z</time>
      </trkpt>
      <trkpt lat="48.91902" lon="1.85721">
        <ele>113</ele>
        <time>2024-12-16T10:49:59.985Z</time>
      </trkpt>
      <trkpt lat="48.91897" lon="1.85721">
        <ele>113</ele>
        <time>2024-12-16T10:50:04.290Z</time>
      </trkpt>
      <trkpt lat="48.91892" lon="1.8572">
        <ele>113</ele>
        <time>2024-12-16T10:50:08.662Z</time>
      </trkpt>
      <trkpt lat="48.91887" lon="1.85718">
        <ele>113</ele>
        <time>2024-12-16T10:50:12.945Z</time>
      </trkpt>
      <trkpt lat="48.91884" lon="1.85714">
        <ele>113</ele>
        <time>2024-12-16T10:50:17.363Z</time>
      </trkpt>
      <trkpt lat="48.9188" lon="1.85709">
        <ele>113</ele>
        <time>2024-12-16T10:50:21.985Z</time>
      </trkpt>
      <trkpt lat="48.91876" lon="1.85704">
        <ele>112</ele>
        <time>2024-12-16T10:50:26.626Z</time>
      </trkpt>
      <trkpt lat="48.91872" lon="1.85699">
        <ele>113</ele>
        <time>2024-12-16T10:50:30.943Z</time>
      </trkpt>
      <trkpt lat="48.91868" lon="1.85696">
        <ele>113</ele>
        <time>2024-12-16T10:50:35.609Z</time>
      </trkpt>
      <trkpt lat="48.91864" lon="1.85692">
        <ele>113</ele>
        <time>2024-12-16T10:50:39.985Z</time>
      </trkpt>
      <trkpt lat="48.9186" lon="1.8569">
        <ele>113</ele>
        <time>2024-12-16T10:50:44.263Z</time>
      </trkpt>
      <trkpt lat="48.91854" lon="1.85689">
        <ele>113</ele>
        <time>2024-12-16T10:50:48.985Z</time>
      </trkpt>
      <trkpt lat="48.91849" lon="1.8569">
        <ele>113</ele>
        <time>2024-12-16T10:50:53.485Z</time>
      </trkpt>
      <trkpt lat="48.91846" lon="1.85692">
        <ele>114</ele>
        <time>2024-12-16T10:50:57.485Z</time>
      </trkpt>
      <trkpt lat="48.91843" lon="1.85698">
        <ele>114</ele>
        <time>2024-12-16T10:51:01.588Z</time>
      </trkpt>
      <trkpt lat="48.9184" lon="1.85701">
        <ele>114</ele>
        <time>2024-12-16T10:51:05.984Z</time>
      </trkpt>
      <trkpt lat="48.91837" lon="1.85698">
        <ele>114</ele>
        <time>2024-12-16T10:51:10.985Z</time>
      </trkpt>
      <trkpt lat="48.91837" lon="1.85697">
        <ele>114</ele>
        <time>2024-12-16T10:51:16.004Z</time>
      </trkpt>
      <trkpt lat="48.91834" lon="1.85696">
        <ele>114</ele>
        <time>2024-12-16T10:51:20.746Z</time>
      </trkpt>
      <trkpt lat="48.91832" lon="1.85701">
        <ele>114</ele>
        <time>2024-12-16T10:51:24.906Z</time>
      </trkpt>
      <trkpt lat="48.9183" lon="1.85708">
        <ele>114</ele>
        <time>2024-12-16T10:51:28.985Z</time>
      </trkpt>
      <trkpt lat="48.91826" lon="1.85713">
        <ele>114</ele>
        <time>2024-12-16T10:51:33.284Z</time>
      </trkpt>
      <trkpt lat="48.91822" lon="1.85717">
        <ele>114</ele>
        <time>2024-12-16T10:51:37.709Z</time>
      </trkpt>
      <trkpt lat="48.91816" lon="1.85716">
        <ele>113</ele>
        <time>2024-12-16T10:51:41.984Z</time>
      </trkpt>
      <trkpt lat="48.91809" lon="1.85717">
        <ele>113</ele>
        <time>2024-12-16T10:51:46.984Z</time>
      </trkpt>
      <trkpt lat="48.91803" lon="1.85718">
        <ele>113</ele>
        <time>2024-12-16T10:51:51.348Z</time>
      </trkpt>
      <trkpt lat="48.91798" lon="1.85719">
        <ele>113</ele>
        <time>2024-12-16T10:51:55.750Z</time>
      </trkpt>
      <trkpt lat="48.91792" lon="1.8572">
        <ele>113</ele>
        <time>2024-12-16T10:51:59.985Z</time>
      </trkpt>
      <trkpt lat="48.91787" lon="1.8572">
        <ele>112</ele>
        <time>2024-12-16T10:52:04.285Z</time>
      </trkpt>
      <trkpt lat="48.9178" lon="1.85721">
        <ele>112</ele>
        <time>2024-12-16T10:52:08.748Z</time>
      </trkpt>
      <trkpt lat="48.91775" lon="1.8572">
        <ele>112</ele>
        <time>2024-12-16T10:52:13.223Z</time>
      </trkpt>
      <trkpt lat="48.9177" lon="1.85721">
        <ele>112</ele>
        <time>2024-12-16T10:52:17.266Z</time>
      </trkpt>
      <trkpt lat="48.91764" lon="1.85721">
        <ele>112</ele>
        <time>2024-12-16T10:52:21.804Z</time>
      </trkpt>
      <trkpt lat="48.91758" lon="1.85724">
        <ele>112</ele>
        <time>2024-12-16T10:52:26.205Z</time>
      </trkpt>
      <trkpt lat="48.91753" lon="1.85725">
        <ele>112</ele>
        <time>2024-12-16T10:52:30.760Z</time>
      </trkpt>
      <trkpt lat="48.91748" lon="1.85727">
        <ele>112</ele>
        <time>2024-12-16T10:52:34.803Z</time>
      </trkpt>
      <trkpt lat="48.91744" lon="1.85725">
        <ele>112</ele>
        <time>2024-12-16T10:52:38.879Z</time>
      </trkpt>
      <trkpt lat="48.9174" lon="1.85727">
        <ele>112</ele>
        <time>2024-12-16T10:52:43.157Z</time>
      </trkpt>
      <trkpt lat="48.91736" lon="1.85732">
        <ele>112</ele>
        <time>2024-12-16T10:52:47.366Z</time>
      </trkpt>
      <trkpt lat="48.91734" lon="1.85737">
        <ele>110</ele>
        <time>2024-12-16T10:52:51.605Z</time>
      </trkpt>
      <trkpt lat="48.9173" lon="1.85742">
        <ele>110</ele>
        <time>2024-12-16T10:52:56.065Z</time>
      </trkpt>
      <trkpt lat="48.91727" lon="1.85743">
        <ele>110</ele>
        <time>2024-12-16T10:53:00.985Z</time>
      </trkpt>
      <trkpt lat="48.91723" lon="1.85745">
        <ele>110</ele>
        <time>2024-12-16T10:53:05.484Z</time>
      </trkpt>
      <trkpt lat="48.91718" lon="1.85746">
        <ele>110</ele>
        <time>2024-12-16T10:53:09.984Z</time>
      </trkpt>
      <trkpt lat="48.91714" lon="1.85747">
        <ele>110</ele>
        <time>2024-12-16T10:53:14.403Z</time>
      </trkpt>
      <trkpt lat="48.91704" lon="1.85751">
        <ele>109</ele>
        <time>2024-12-16T10:53:33.585Z</time>
      </trkpt>
      <trkpt lat="48.917" lon="1.85752">
        <ele>109</ele>
        <time>2024-12-16T10:53:37.724Z</time>
      </trkpt>
      <trkpt lat="48.91694" lon="1.85757">
        <ele>109</ele>
        <time>2024-12-16T10:53:42.106Z</time>
      </trkpt>
      <trkpt lat="48.91688" lon="1.8576">
        <ele>109</ele>
        <time>2024-12-16T10:53:46.363Z</time>
      </trkpt>
      <trkpt lat="48.91683" lon="1.85763">
        <ele>109</ele>
        <time>2024-12-16T10:53:50.659Z</time>
      </trkpt>
      <trkpt lat="48.91678" lon="1.85766">
        <ele>108</ele>
        <time>2024-12-16T10:53:54.985Z</time>
      </trkpt>
      <trkpt lat="48.91673" lon="1.85768">
        <ele>108</ele>
        <time>2024-12-16T10:53:59.206Z</time>
      </trkpt>
      <trkpt lat="48.91667" lon="1.85768">
        <ele>108</ele>
        <time>2024-12-16T10:54:03.504Z</time>
      </trkpt>
      <trkpt lat="48.91661" lon="1.8577">
        <ele>108</ele>
        <time>2024-12-16T10:54:07.906Z</time>
      </trkpt>
      <trkpt lat="48.91656" lon="1.85769">
        <ele>108</ele>
        <time>2024-12-16T10:54:12.384Z</time>
      </trkpt>
      <trkpt lat="48.9165" lon="1.85771">
        <ele>108</ele>
        <time>2024-12-16T10:54:16.759Z</time>
      </trkpt>
      <trkpt lat="48.91645" lon="1.85774">
        <ele>108</ele>
        <time>2024-12-16T10:54:20.964Z</time>
      </trkpt>
      <trkpt lat="48.91641" lon="1.85776">
        <ele>108</ele>
        <time>2024-12-16T10:54:24.984Z</time>
      </trkpt>
      <trkpt lat="48.91636" lon="1.85777">
        <ele>108</ele>
        <time>2024-12-16T10:54:29.084Z</time>
      </trkpt>
      <trkpt lat="48.9163" lon="1.85777">
        <ele>108</ele>
        <time>2024-12-16T10:54:33.246Z</time>
      </trkpt>
      <trkpt lat="48.91625" lon="1.85778">
        <ele>108</ele>
        <time>2024-12-16T10:54:37.467Z</time>
      </trkpt>
      <trkpt lat="48.91619" lon="1.8578">
        <ele>107</ele>
        <time>2024-12-16T10:54:41.860Z</time>
      </trkpt>
      <trkpt lat="48.91613" lon="1.85781">
        <ele>107</ele>
        <time>2024-12-16T10:54:45.985Z</time>
      </trkpt>
      <trkpt lat="48.91608" lon="1.85781">
        <ele>107</ele>
        <time>2024-12-16T10:54:50.203Z</time>
      </trkpt>
      <trkpt lat="48.91602" lon="1.85784">
        <ele>107</ele>
        <time>2024-12-16T10:54:54.748Z</time>
      </trkpt>
      <trkpt lat="48.91596" lon="1.85785">
        <ele>106</ele>
        <time>2024-12-16T10:54:58.984Z</time>
      </trkpt>
      <trkpt lat="48.91591" lon="1.85786">
        <ele>106</ele>
        <time>2024-12-16T10:55:03.328Z</time>
      </trkpt>
      <trkpt lat="48.91585" lon="1.85785">
        <ele>106</ele>
        <time>2024-12-16T10:55:07.686Z</time>
      </trkpt>
      <trkpt lat="48.9158" lon="1.85785">
        <ele>106</ele>
        <time>2024-12-16T10:55:11.984Z</time>
      </trkpt>
      <trkpt lat="48.91574" lon="1.85784">
        <ele>106</ele>
        <time>2024-12-16T10:55:16.360Z</time>
      </trkpt>
      <trkpt lat="48.91568" lon="1.85784">
        <ele>103</ele>
        <time>2024-12-16T10:55:20.727Z</time>
      </trkpt>
      <trkpt lat="48.91563" lon="1.85785">
        <ele>103</ele>
        <time>2024-12-16T10:55:24.786Z</time>
      </trkpt>
      <trkpt lat="48.91557" lon="1.85785">
        <ele>103</ele>
        <time>2024-12-16T10:55:28.923Z</time>
      </trkpt>
      <trkpt lat="48.91554" lon="1.85787">
        <ele>103</ele>
        <time>2024-12-16T10:55:33.548Z</time>
      </trkpt>
      <trkpt lat="48.9155" lon="1.85791">
        <ele>103</ele>
        <time>2024-12-16T10:55:48.764Z</time>
      </trkpt>
      <trkpt lat="48.9155" lon="1.85791">
        <ele>103</ele>
        <time>2024-12-16T10:55:52.984Z</time>
      </trkpt>
      <trkpt lat="48.9155" lon="1.85792">
        <ele>103</ele>
        <time>2024-12-16T10:55:57.985Z</time>
      </trkpt>
      <trkpt lat="48.91548" lon="1.85796">
        <ele>103</ele>
        <time>2024-12-16T10:56:02.663Z</time>
      </trkpt>
      <trkpt lat="48.91548" lon="1.85803">
        <ele>103</ele>
        <time>2024-12-16T10:56:06.860Z</time>
      </trkpt>
      <trkpt lat="48.91548" lon="1.8581">
        <ele>103</ele>
        <time>2024-12-16T10:56:10.985Z</time>
      </trkpt>
      <trkpt lat="48.91549" lon="1.85817">
        <ele>103</ele>
        <time>2024-12-16T10:56:15.124Z</time>
      </trkpt>
      <trkpt lat="48.9155" lon="1.85826">
        <ele>102</ele>
        <time>2024-12-16T10:56:19.543Z</time>
      </trkpt>
      <trkpt lat="48.91552" lon="1.85834">
        <ele>102</ele>
        <time>2024-12-16T10:56:24.009Z</time>
      </trkpt>
      <trkpt lat="48.91553" lon="1.85842">
        <ele>102</ele>
        <time>2024-12-16T10:56:28.305Z</time>
      </trkpt>
      <trkpt lat="48.91554" lon="1.85851">
        <ele>101</ele>
        <time>2024-12-16T10:56:32.583Z</time>
      </trkpt>
      <trkpt lat="48.91555" lon="1.8586">
        <ele>101</ele>
        <time>2024-12-16T10:56:36.943Z</time>
      </trkpt>
      <trkpt lat="48.91556" lon="1.85868">
        <ele>101</ele>
        <time>2024-12-16T10:56:41.368Z</time>
      </trkpt>
      <trkpt lat="48.91557" lon="1.85876">
        <ele>99</ele>
        <time>2024-12-16T10:56:45.464Z</time>
      </trkpt>
      <trkpt lat="48.91555" lon="1.85879">
        <ele>99</ele>
        <time>2024-12-16T10:56:49.984Z</time>
      </trkpt>
      <trkpt lat="48.91555" lon="1.8588">
        <ele>99</ele>
        <time>2024-12-16T10:56:54.984Z</time>
      </trkpt>
      <trkpt lat="48.91552" lon="1.85882">
        <ele>99</ele>
        <time>2024-12-16T10:56:59.984Z</time>
      </trkpt>
      <trkpt lat="48.91547" lon="1.85879">
        <ele>99</ele>
        <time>2024-12-16T10:57:04.404Z</time>
      </trkpt>
      <trkpt lat="48.91542" lon="1.85877">
        <ele>99</ele>
        <time>2024-12-16T10:57:08.527Z</time>
      </trkpt>
      <trkpt lat="48.91537" lon="1.85875">
        <ele>97</ele>
        <time>2024-12-16T10:57:12.985Z</time>
      </trkpt>
      <trkpt lat="48.91532" lon="1.85874">
        <ele>97</ele>
        <time>2024-12-16T10:57:17.403Z</time>
      </trkpt>
      <trkpt lat="48.91526" lon="1.85873">
        <ele>97</ele>
        <time>2024-12-16T10:57:21.803Z</time>
      </trkpt>
      <trkpt lat="48.91521" lon="1.85872">
        <ele>97</ele>
        <time>2024-12-16T10:57:26.178Z</time>
      </trkpt>
      <trkpt lat="48.91516" lon="1.8587">
        <ele>97</ele>
        <time>2024-12-16T10:57:30.665Z</time>
      </trkpt>
      <trkpt lat="48.91511" lon="1.85867">
        <ele>93</ele>
        <time>2024-12-16T10:57:35.122Z</time>
      </trkpt>
      <trkpt lat="48.91505" lon="1.85866">
        <ele>93</ele>
        <time>2024-12-16T10:57:39.464Z</time>
      </trkpt>
      <trkpt lat="48.91499" lon="1.85864">
        <ele>93</ele>
        <time>2024-12-16T10:57:43.889Z</time>
      </trkpt>
      <trkpt lat="48.91494" lon="1.85863">
        <ele>93</ele>
        <time>2024-12-16T10:57:48.263Z</time>
      </trkpt>
      <trkpt lat="48.91488" lon="1.85863">
        <ele>93</ele>
        <time>2024-12-16T10:57:52.605Z</time>
      </trkpt>
      <trkpt lat="48.91482" lon="1.85862">
        <ele>90</ele>
        <time>2024-12-16T10:57:56.980Z</time>
      </trkpt>
      <trkpt lat="48.91477" lon="1.85861">
        <ele>90</ele>
        <time>2024-12-16T10:58:01.407Z</time>
      </trkpt>
      <trkpt lat="48.91471" lon="1.85859">
        <ele>90</ele>
        <time>2024-12-16T10:58:05.984Z</time>
      </trkpt>
      <trkpt lat="48.91465" lon="1.85858">
        <ele>90</ele>
        <time>2024-12-16T10:58:10.464Z</time>
      </trkpt>
      <trkpt lat="48.91459" lon="1.85857">
        <ele>90</ele>
        <time>2024-12-16T10:58:14.748Z</time>
      </trkpt>
      <trkpt lat="48.91454" lon="1.85855">
        <ele>88</ele>
        <time>2024-12-16T10:58:18.986Z</time>
      </trkpt>
      <trkpt lat="48.91448" lon="1.85854">
        <ele>88</ele>
        <time>2024-12-16T10:58:23.265Z</time>
      </trkpt>
      <trkpt lat="48.91441" lon="1.85852">
        <ele>88</ele>
        <time>2024-12-16T10:58:27.548Z</time>
      </trkpt>
      <trkpt lat="48.91435" lon="1.8585">
        <ele>88</ele>
        <time>2024-12-16T10:58:31.786Z</time>
      </trkpt>
      <trkpt lat="48.9143" lon="1.85847">
        <ele>83</ele>
        <time>2024-12-16T10:58:35.986Z</time>
      </trkpt>
      <trkpt lat="48.91424" lon="1.85844">
        <ele>85</ele>
        <time>2024-12-16T10:58:40.223Z</time>
      </trkpt>
      <trkpt lat="48.91419" lon="1.8584">
        <ele>85</ele>
        <time>2024-12-16T10:58:44.444Z</time>
      </trkpt>
      <trkpt lat="48.91413" lon="1.85838">
        <ele>85</ele>
        <time>2024-12-16T10:58:48.685Z</time>
      </trkpt>
      <trkpt lat="48.91408" lon="1.85836">
        <ele>85</ele>
        <time>2024-12-16T10:58:52.904Z</time>
      </trkpt>
      <trkpt lat="48.91402" lon="1.85833">
        <ele>78</ele>
        <time>2024-12-16T10:58:57.120Z</time>
      </trkpt>
      <trkpt lat="48.91395" lon="1.85831">
        <ele>78</ele>
        <time>2024-12-16T10:59:01.323Z</time>
      </trkpt>
      <trkpt lat="48.91391" lon="1.85827">
        <ele>78</ele>
        <time>2024-12-16T10:59:05.444Z</time>
      </trkpt>
      <trkpt lat="48.91388" lon="1.85824">
        <ele>78</ele>
        <time>2024-12-16T10:59:09.577Z</time>
      </trkpt>
      <trkpt lat="48.91383" lon="1.85821">
        <ele>78</ele>
        <time>2024-12-16T10:59:13.723Z</time>
      </trkpt>
      <trkpt lat="48.91377" lon="1.85818">
        <ele>82</ele>
        <time>2024-12-16T10:59:17.903Z</time>
      </trkpt>
      <trkpt lat="48.91372" lon="1.85815">
        <ele>77</ele>
        <time>2024-12-16T10:59:22.083Z</time>
      </trkpt>
      <trkpt lat="48.91366" lon="1.85812">
        <ele>77</ele>
        <time>2024-12-16T10:59:26.185Z</time>
      </trkpt>
      <trkpt lat="48.91361" lon="1.8581">
        <ele>77</ele>
        <time>2024-12-16T10:59:30.248Z</time>
      </trkpt>
      <trkpt lat="48.91355" lon="1.85808">
        <ele>77</ele>
        <time>2024-12-16T10:59:34.283Z</time>
      </trkpt>
      <trkpt lat="48.91349" lon="1.85807">
        <ele>77</ele>
        <time>2024-12-16T10:59:38.401Z</time>
      </trkpt>
      <trkpt lat="48.91344" lon="1.85806">
        <ele>72</ele>
        <time>2024-12-16T10:59:42.546Z</time>
      </trkpt>
      <trkpt lat="48.91338" lon="1.85803">
        <ele>72</ele>
        <time>2024-12-16T10:59:46.986Z</time>
      </trkpt>
      <trkpt lat="48.91331" lon="1.85803">
        <ele>72</ele>
        <time>2024-12-16T10:59:51.556Z</time>
      </trkpt>
      <trkpt lat="48.91326" lon="1.858">
        <ele>72</ele>
        <time>2024-12-16T10:59:55.766Z</time>
      </trkpt>
      <trkpt lat="48.91321" lon="1.85795">
        <ele>72</ele>
        <time>2024-12-16T10:59:59.944Z</time>
      </trkpt>
      <trkpt lat="48.91316" lon="1.85792">
        <ele>66</ele>
        <time>2024-12-16T11:00:03.985Z</time>
      </trkpt>
      <trkpt lat="48.9131" lon="1.85787">
        <ele>69</ele>
        <time>2024-12-16T11:00:08.363Z</time>
      </trkpt>
      <trkpt lat="48.91305" lon="1.85784">
        <ele>69</ele>
        <time>2024-12-16T11:00:12.524Z</time>
      </trkpt>
      <trkpt lat="48.913" lon="1.85778">
        <ele>69</ele>
        <time>2024-12-16T11:00:16.765Z</time>
      </trkpt>
      <trkpt lat="48.91295" lon="1.85774">
        <ele>69</ele>
        <time>2024-12-16T11:00:20.967Z</time>
      </trkpt>
      <trkpt lat="48.91291" lon="1.85769">
        <ele>65</ele>
        <time>2024-12-16T11:00:25.163Z</time>
      </trkpt>
      <trkpt lat="48.91286" lon="1.85762">
        <ele>67</ele>
        <time>2024-12-16T11:00:29.844Z</time>
      </trkpt>
      <trkpt lat="48.91282" lon="1.85756">
        <ele>67</ele>
        <time>2024-12-16T11:00:33.978Z</time>
      </trkpt>
      <trkpt lat="48.91277" lon="1.85751">
        <ele>67</ele>
        <time>2024-12-16T11:00:38.204Z</time>
      </trkpt>
      <trkpt lat="48.91273" lon="1.85744">
        <ele>67</ele>
        <time>2024-12-16T11:00:42.365Z</time>
      </trkpt>
      <trkpt lat="48.91269" lon="1.85738">
        <ele>67</ele>
        <time>2024-12-16T11:00:46.503Z</time>
      </trkpt>
      <trkpt lat="48.91265" lon="1.85731">
        <ele>69</ele>
        <time>2024-12-16T11:00:50.766Z</time>
      </trkpt>
      <trkpt lat="48.91261" lon="1.85724">
        <ele>62</ele>
        <time>2024-12-16T11:00:55.467Z</time>
      </trkpt>
      <trkpt lat="48.91256" lon="1.85718">
        <ele>62</ele>
        <time>2024-12-16T11:00:59.645Z</time>
      </trkpt>
      <trkpt lat="48.91252" lon="1.85711">
        <ele>62</ele>
        <time>2024-12-16T11:01:04.004Z</time>
      </trkpt>
      <trkpt lat="48.91248" lon="1.85705">
        <ele>61</ele>
        <time>2024-12-16T11:01:08.263Z</time>
      </trkpt>
      <trkpt lat="48.91244" lon="1.85699">
        <ele>61</ele>
        <time>2024-12-16T11:01:12.563Z</time>
      </trkpt>
      <trkpt lat="48.91239" lon="1.85693">
        <ele>61</ele>
        <time>2024-12-16T11:01:16.986Z</time>
      </trkpt>
      <trkpt lat="48.91234" lon="1.85687">
        <ele>56</ele>
        <time>2024-12-16T11:01:21.499Z</time>
      </trkpt>
      <trkpt lat="48.9123" lon="1.8568">
        <ele>55</ele>
        <time>2024-12-16T11:01:25.727Z</time>
      </trkpt>
      <trkpt lat="48.91226" lon="1.85672">
        <ele>55</ele>
        <time>2024-12-16T11:01:29.976Z</time>
      </trkpt>
      <trkpt lat="48.91222" lon="1.85666">
        <ele>55</ele>
        <time>2024-12-16T11:01:34.221Z</time>
      </trkpt>
      <trkpt lat="48.91218" lon="1.85659">
        <ele>55</ele>
        <time>2024-12-16T11:01:38.441Z</time>
      </trkpt>
      <trkpt lat="48.91214" lon="1.85653">
        <ele>55</ele>
        <time>2024-12-16T11:01:42.825Z</time>
      </trkpt>
      <trkpt lat="48.9121" lon="1.85647">
        <ele>55</ele>
        <time>2024-12-16T11:01:46.829Z</time>
      </trkpt>
      <trkpt lat="48.91207" lon="1.85641">
        <ele>54</ele>
        <time>2024-12-16T11:01:50.986Z</time>
      </trkpt>
      <trkpt lat="48.91203" lon="1.85633">
        <ele>54</ele>
        <time>2024-12-16T11:01:55.348Z</time>
      </trkpt>
      <trkpt lat="48.91199" lon="1.85626">
        <ele>54</ele>
        <time>2024-12-16T11:01:59.660Z</time>
      </trkpt>
      <trkpt lat="48.91194" lon="1.85621">
        <ele>54</ele>
        <time>2024-12-16T11:02:03.901Z</time>
      </trkpt>
      <trkpt lat="48.9119" lon="1.85616">
        <ele>54</ele>
        <time>2024-12-16T11:02:08.179Z</time>
      </trkpt>
      <trkpt lat="48.91187" lon="1.85609">
        <ele>54</ele>
        <time>2024-12-16T11:02:12.479Z</time>
      </trkpt>
      <trkpt lat="48.91182" lon="1.85602">
        <ele>54</ele>
        <time>2024-12-16T11:02:16.837Z</time>
      </trkpt>
      <trkpt lat="48.91179" lon="1.85593">
        <ele>48</ele>
        <time>2024-12-16T11:02:20.985Z</time>
      </trkpt>
      <trkpt lat="48.91175" lon="1.85586">
        <ele>48</ele>
        <time>2024-12-16T11:02:25.323Z</time>
      </trkpt>
      <trkpt lat="48.9117" lon="1.85579">
        <ele>48</ele>
        <time>2024-12-16T11:02:29.603Z</time>
      </trkpt>
      <trkpt lat="48.91167" lon="1.85574">
        <ele>48</ele>
        <time>2024-12-16T11:02:33.843Z</time>
      </trkpt>
      <trkpt lat="48.91163" lon="1.85568">
        <ele>47</ele>
        <time>2024-12-16T11:02:37.986Z</time>
      </trkpt>
      <trkpt lat="48.91158" lon="1.85562">
        <ele>47</ele>
        <time>2024-12-16T11:02:42.340Z</time>
      </trkpt>
      <trkpt lat="48.91155" lon="1.85554">
        <ele>47</ele>
        <time>2024-12-16T11:02:46.664Z</time>
      </trkpt>
      <trkpt lat="48.91151" lon="1.85547">
        <ele>44</ele>
        <time>2024-12-16T11:02:50.844Z</time>
      </trkpt>
      <trkpt lat="48.91147" lon="1.85541">
        <ele>43</ele>
        <time>2024-12-16T11:02:54.986Z</time>
      </trkpt>
      <trkpt lat="48.91143" lon="1.85535">
        <ele>43</ele>
        <time>2024-12-16T11:02:59.304Z</time>
      </trkpt>
      <trkpt lat="48.91141" lon="1.85526">
        <ele>43</ele>
        <time>2024-12-16T11:03:03.604Z</time>
      </trkpt>
      <trkpt lat="48.91136" lon="1.85521">
        <ele>43</ele>
        <time>2024-12-16T11:03:07.748Z</time>
      </trkpt>
      <trkpt lat="48.91132" lon="1.85516">
        <ele>43</ele>
        <time>2024-12-16T11:03:11.777Z</time>
      </trkpt>
      <trkpt lat="48.91129" lon="1.85511">
        <ele>40</ele>
        <time>2024-12-16T11:03:15.986Z</time>
      </trkpt>
      <trkpt lat="48.91129" lon="1.85511">
        <ele>40</ele>
        <time>2024-12-16T11:03:22.498Z</time>
      </trkpt>
      <trkpt lat="48.91119" lon="1.8551">
        <ele>40</ele>
        <time>2024-12-16T11:03:31.920Z</time>
      </trkpt>
      <trkpt lat="48.91116" lon="1.85508">
        <ele>40</ele>
        <time>2024-12-16T11:03:36.986Z</time>
      </trkpt>
      <trkpt lat="48.91116" lon="1.85505">
        <ele>40</ele>
        <time>2024-12-16T11:03:41.986Z</time>
      </trkpt>
      <trkpt lat="48.91115" lon="1.85502">
        <ele>40</ele>
        <time>2024-12-16T11:03:46.804Z</time>
      </trkpt>
      <trkpt lat="48.91113" lon="1.85499">
        <ele>40</ele>
        <time>2024-12-16T11:03:50.897Z</time>
      </trkpt>
      <trkpt lat="48.91112" lon="1.85495">
        <ele>40</ele>
        <time>2024-12-16T11:03:54.985Z</time>
      </trkpt>
      <trkpt lat="48.91111" lon="1.8549">
        <ele>40</ele>
        <time>2024-12-16T11:03:59.238Z</time>
      </trkpt>
      <trkpt lat="48.91109" lon="1.85485">
        <ele>38</ele>
        <time>2024-12-16T11:04:03.985Z</time>
      </trkpt>
      <trkpt lat="48.91104" lon="1.85479">
        <ele>38</ele>
        <time>2024-12-16T11:04:08.245Z</time>
      </trkpt>
      <trkpt lat="48.91101" lon="1.85471">
        <ele>38</ele>
        <time>2024-12-16T11:04:12.823Z</time>
      </trkpt>
      <trkpt lat="48.91099" lon="1.85462">
        <ele>38</ele>
        <time>2024-12-16T11:04:17.242Z</time>
      </trkpt>
      <trkpt lat="48.91095" lon="1.85456">
        <ele>37</ele>
        <time>2024-12-16T11:04:21.480Z</time>
      </trkpt>
      <trkpt lat="48.91091" lon="1.85449">
        <ele>37</ele>
        <time>2024-12-16T11:04:25.882Z</time>
      </trkpt>
      <trkpt lat="48.91088" lon="1.85444">
        <ele>37</ele>
        <time>2024-12-16T11:04:29.986Z</time>
      </trkpt>
      <trkpt lat="48.91084" lon="1.85438">
        <ele>37</ele>
        <time>2024-12-16T11:04:34.639Z</time>
      </trkpt>
      <trkpt lat="48.91083" lon="1.85437">
        <ele>37</ele>
        <time>2024-12-16T11:04:35.129Z</time>
      </trkpt>
      <trkpt lat="48.91076" lon="1.85424">
        <ele>37</ele>
        <time>2024-12-16T11:04:44.985Z</time>
      </trkpt>
      <trkpt lat="48.91071" lon="1.8542">
        <ele>37</ele>
        <time>2024-12-16T11:05:07.986Z</time>
      </trkpt>
      <trkpt lat="48.9107" lon="1.85421">
        <ele>37</ele>
        <time>2024-12-16T11:05:12.986Z</time>
      </trkpt>
      <trkpt lat="48.9107" lon="1.85421">
        <ele>37</ele>
        <time>2024-12-16T11:05:17.985Z</time>
      </trkpt>
      <trkpt lat="48.91069" lon="1.85422">
        <ele>36</ele>
        <time>2024-12-16T11:05:22.503Z</time>
      </trkpt>
      <trkpt lat="48.91067" lon="1.85423">
        <ele>36</ele>
        <time>2024-12-16T11:05:26.718Z</time>
      </trkpt>
      <trkpt lat="48.91066" lon="1.85422">
        <ele>36</ele>
        <time>2024-12-16T11:05:30.985Z</time>
      </trkpt>
      <trkpt lat="48.91065" lon="1.85415">
        <ele>36</ele>
        <time>2024-12-16T11:05:35.445Z</time>
      </trkpt>
      <trkpt lat="48.9107" lon="1.85405">
        <ele>37</ele>
        <time>2024-12-16T11:05:39.784Z</time>
      </trkpt>
      <trkpt lat="48.91064" lon="1.85397">
        <ele>36</ele>
        <time>2024-12-16T11:05:44.338Z</time>
      </trkpt>
      <trkpt lat="48.91062" lon="1.8539">
        <ele>36</ele>
        <time>2024-12-16T11:05:48.844Z</time>
      </trkpt>
      <trkpt lat="48.9106" lon="1.85381">
        <ele>36</ele>
        <time>2024-12-16T11:05:53.336Z</time>
      </trkpt>
      <trkpt lat="48.91056" lon="1.85374">
        <ele>35</ele>
        <time>2024-12-16T11:05:57.986Z</time>
      </trkpt>
      <trkpt lat="48.91052" lon="1.8537">
        <ele>35</ele>
        <time>2024-12-16T11:06:02.523Z</time>
      </trkpt>
      <trkpt lat="48.91043" lon="1.85359">
        <ele>35</ele>
        <time>2024-12-16T11:06:19.684Z</time>
      </trkpt>
      <trkpt lat="48.91037" lon="1.85355">
        <ele>34</ele>
        <time>2024-12-16T11:06:23.775Z</time>
      </trkpt>
      <trkpt lat="48.91036" lon="1.85354">
        <ele>34</ele>
        <time>2024-12-16T11:06:27.986Z</time>
      </trkpt>
      <trkpt lat="48.91036" lon="1.85355">
        <ele>34</ele>
        <time>2024-12-16T11:06:32.057Z</time>
      </trkpt>
      <trkpt lat="48.9103" lon="1.85354">
        <ele>34</ele>
        <time>2024-12-16T11:06:36.384Z</time>
      </trkpt>
      <trkpt lat="48.91025" lon="1.85343">
        <ele>34</ele>
        <time>2024-12-16T11:06:40.446Z</time>
      </trkpt>
      <trkpt lat="48.91021" lon="1.85338">
        <ele>34</ele>
        <time>2024-12-16T11:06:44.877Z</time>
      </trkpt>
      <trkpt lat="48.91017" lon="1.85332">
        <ele>34</ele>
        <time>2024-12-16T11:06:48.905Z</time>
      </trkpt>
      <trkpt lat="48.91013" lon="1.85327">
        <ele>34</ele>
        <time>2024-12-16T11:06:52.985Z</time>
      </trkpt>
      <trkpt lat="48.91007" lon="1.85322">
        <ele>34</ele>
        <time>2024-12-16T11:06:57.576Z</time>
      </trkpt>
      <trkpt lat="48.91002" lon="1.85315">
        <ele>34</ele>
        <time>2024-12-16T11:07:01.781Z</time>
      </trkpt>
      <trkpt lat="48.90998" lon="1.85308">
        <ele>34</ele>
        <time>2024-12-16T11:07:06.079Z</time>
      </trkpt>
      <trkpt lat="48.90993" lon="1.85302">
        <ele>34</ele>
        <time>2024-12-16T11:07:10.617Z</time>
      </trkpt>
      <trkpt lat="48.90989" lon="1.85297">
        <ele>34</ele>
        <time>2024-12-16T11:07:14.986Z</time>
      </trkpt>
      <trkpt lat="48.90985" lon="1.85293">
        <ele>35</ele>
        <time>2024-12-16T11:07:19.103Z</time>
      </trkpt>
      <trkpt lat="48.90982" lon="1.85288">
        <ele>36</ele>
        <time>2024-12-16T11:07:23.196Z</time>
      </trkpt>
      <trkpt lat="48.90978" lon="1.85283">
        <ele>36</ele>
        <time>2024-12-16T11:07:27.223Z</time>
      </trkpt>
      <trkpt lat="48.90974" lon="1.85277">
        <ele>36</ele>
        <time>2024-12-16T11:07:31.743Z</time>
      </trkpt>
      <trkpt lat="48.90973" lon="1.85268">
        <ele>36</ele>
        <time>2024-12-16T11:07:36.339Z</time>
      </trkpt>
      <trkpt lat="48.90971" lon="1.85264">
        <ele>36</ele>
        <time>2024-12-16T11:07:40.985Z</time>
      </trkpt>
      <trkpt lat="48.90966" lon="1.85256">
        <ele>36</ele>
        <time>2024-12-16T11:07:45.483Z</time>
      </trkpt>
      <trkpt lat="48.90961" lon="1.85254">
        <ele>36</ele>
        <time>2024-12-16T11:07:49.584Z</time>
      </trkpt>
      <trkpt lat="48.90957" lon="1.8525">
        <ele>36</ele>
        <time>2024-12-16T11:07:53.986Z</time>
      </trkpt>
      <trkpt lat="48.90954" lon="1.85245">
        <ele>36</ele>
        <time>2024-12-16T11:07:58.258Z</time>
      </trkpt>
      <trkpt lat="48.90952" lon="1.85236">
        <ele>36</ele>
        <time>2024-12-16T11:08:02.283Z</time>
      </trkpt>
      <trkpt lat="48.90948" lon="1.85229">
        <ele>36</ele>
        <time>2024-12-16T11:08:06.825Z</time>
      </trkpt>
      <trkpt lat="48.90945" lon="1.85221">
        <ele>36</ele>
        <time>2024-12-16T11:08:10.985Z</time>
      </trkpt>
      <trkpt lat="48.90941" lon="1.85216">
        <ele>36</ele>
        <time>2024-12-16T11:08:15.640Z</time>
      </trkpt>
      <trkpt lat="48.90936" lon="1.85213">
        <ele>36</ele>
        <time>2024-12-16T11:08:19.985Z</time>
      </trkpt>
      <trkpt lat="48.90931" lon="1.85209">
        <ele>36</ele>
        <time>2024-12-16T11:08:24.400Z</time>
      </trkpt>
      <trkpt lat="48.90927" lon="1.85206">
        <ele>35</ele>
        <time>2024-12-16T11:08:28.815Z</time>
      </trkpt>
      <trkpt lat="48.90923" lon="1.85201">
        <ele>35</ele>
        <time>2024-12-16T11:08:33.144Z</time>
      </trkpt>
      <trkpt lat="48.90918" lon="1.85196">
        <ele>35</ele>
        <time>2024-12-16T11:08:37.543Z</time>
      </trkpt>
      <trkpt lat="48.90914" lon="1.85189">
        <ele>35</ele>
        <time>2024-12-16T11:08:41.978Z</time>
      </trkpt>
      <trkpt lat="48.90913" lon="1.8518">
        <ele>35</ele>
        <time>2024-12-16T11:08:46.583Z</time>
      </trkpt>
      <trkpt lat="48.90913" lon="1.8517">
        <ele>35</ele>
        <time>2024-12-16T11:08:50.864Z</time>
      </trkpt>
      <trkpt lat="48.90912" lon="1.85162">
        <ele>35</ele>
        <time>2024-12-16T11:08:54.923Z</time>
      </trkpt>
      <trkpt lat="48.9091" lon="1.85154">
        <ele>35</ele>
        <time>2024-12-16T11:08:59.383Z</time>
      </trkpt>
      <trkpt lat="48.90909" lon="1.85147">
        <ele>35</ele>
        <time>2024-12-16T11:09:03.511Z</time>
      </trkpt>
      <trkpt lat="48.90907" lon="1.85138">
        <ele>35</ele>
        <time>2024-12-16T11:09:07.870Z</time>
      </trkpt>
      <trkpt lat="48.90907" lon="1.85129">
        <ele>35</ele>
        <time>2024-12-16T11:09:12.244Z</time>
      </trkpt>
      <trkpt lat="48.90908" lon="1.85119">
        <ele>36</ele>
        <time>2024-12-16T11:09:16.491Z</time>
      </trkpt>
      <trkpt lat="48.90909" lon="1.85108">
        <ele>36</ele>
        <time>2024-12-16T11:09:20.867Z</time>
      </trkpt>
      <trkpt lat="48.9091" lon="1.85098">
        <ele>36</ele>
        <time>2024-12-16T11:09:25.507Z</time>
      </trkpt>
      <trkpt lat="48.90909" lon="1.8509">
        <ele>36</ele>
        <time>2024-12-16T11:09:29.985Z</time>
      </trkpt>
      <trkpt lat="48.90909" lon="1.8508">
        <ele>36</ele>
        <time>2024-12-16T11:09:34.589Z</time>
      </trkpt>
      <trkpt lat="48.90909" lon="1.85073">
        <ele>36</ele>
        <time>2024-12-16T11:09:38.701Z</time>
      </trkpt>
      <trkpt lat="48.90907" lon="1.85065">
        <ele>37</ele>
        <time>2024-12-16T11:09:42.986Z</time>
      </trkpt>
      <trkpt lat="48.90907" lon="1.85058">
        <ele>37</ele>
        <time>2024-12-16T11:09:47.229Z</time>
      </trkpt>
      <trkpt lat="48.90907" lon="1.85051">
        <ele>37</ele>
        <time>2024-12-16T11:09:51.749Z</time>
      </trkpt>
      <trkpt lat="48.90906" lon="1.85045">
        <ele>37</ele>
        <time>2024-12-16T11:09:56.269Z</time>
      </trkpt>
      <trkpt lat="48.90904" lon="1.85039">
        <ele>38</ele>
        <time>2024-12-16T11:10:00.469Z</time>
      </trkpt>
      <trkpt lat="48.90902" lon="1.85031">
        <ele>37</ele>
        <time>2024-12-16T11:10:04.908Z</time>
      </trkpt>
      <trkpt lat="48.90901" lon="1.85023">
        <ele>37</ele>
        <time>2024-12-16T11:10:08.986Z</time>
      </trkpt>
      <trkpt lat="48.90901" lon="1.85016">
        <ele>37</ele>
        <time>2024-12-16T11:10:13.473Z</time>
      </trkpt>
      <trkpt lat="48.90903" lon="1.85013">
        <ele>38</ele>
        <time>2024-12-16T11:10:15.214Z</time>
      </trkpt>
      <trkpt lat="48.90904" lon="1.85">
        <ele>39</ele>
        <time>2024-12-16T11:10:23.985Z</time>
      </trkpt>
      <trkpt lat="48.90905" lon="1.84993">
        <ele>39</ele>
        <time>2024-12-16T11:10:28.908Z</time>
      </trkpt>
      <trkpt lat="48.90904" lon="1.84987">
        <ele>39</ele>
        <time>2024-12-16T11:10:33.629Z</time>
      </trkpt>
      <trkpt lat="48.90901" lon="1.84984">
        <ele>39</ele>
        <time>2024-12-16T11:10:37.766Z</time>
      </trkpt>
      <trkpt lat="48.909" lon="1.84975">
        <ele>39</ele>
        <time>2024-12-16T11:10:41.986Z</time>
      </trkpt>
      <trkpt lat="48.909" lon="1.84966">
        <ele>39</ele>
        <time>2024-12-16T11:10:46.429Z</time>
      </trkpt>
      <trkpt lat="48.90903" lon="1.84956">
        <ele>41</ele>
        <time>2024-12-16T11:10:50.586Z</time>
      </trkpt>
      <trkpt lat="48.90908" lon="1.84949">
        <ele>41</ele>
        <time>2024-12-16T11:10:54.986Z</time>
      </trkpt>
      <trkpt lat="48.90909" lon="1.84945">
        <ele>41</ele>
        <time>2024-12-16T11:10:58.876Z</time>
      </trkpt>
      <trkpt lat="48.90908" lon="1.84939">
        <ele>41</ele>
        <time>2024-12-16T11:11:02.986Z</time>
      </trkpt>
      <trkpt lat="48.90903" lon="1.84933">
        <ele>41</ele>
        <time>2024-12-16T11:11:07.865Z</time>
      </trkpt>
      <trkpt lat="48.90898" lon="1.84927">
        <ele>43</ele>
        <time>2024-12-16T11:11:11.974Z</time>
      </trkpt>
      <trkpt lat="48.90897" lon="1.8493">
        <ele>43</ele>
        <time>2024-12-16T11:11:15.986Z</time>
      </trkpt>
      <trkpt lat="48.90894" lon="1.84929">
        <ele>43</ele>
        <time>2024-12-16T11:11:20.595Z</time>
      </trkpt>
      <trkpt lat="48.90891" lon="1.84923">
        <ele>43</ele>
        <time>2024-12-16T11:11:24.688Z</time>
      </trkpt>
      <trkpt lat="48.90888" lon="1.84921">
        <ele>43</ele>
        <time>2024-12-16T11:11:28.985Z</time>
      </trkpt>
      <trkpt lat="48.90885" lon="1.84919">
        <ele>43</ele>
        <time>2024-12-16T11:11:33.435Z</time>
      </trkpt>
      <trkpt lat="48.90883" lon="1.8492">
        <ele>43</ele>
        <time>2024-12-16T11:11:37.986Z</time>
      </trkpt>
      <trkpt lat="48.90885" lon="1.84944">
        <ele>41</ele>
        <time>2024-12-16T11:11:42.531Z</time>
      </trkpt>
      <trkpt lat="48.90887" lon="1.84951">
        <ele>41</ele>
        <time>2024-12-16T11:11:46.552Z</time>
      </trkpt>
      <trkpt lat="48.90888" lon="1.84954">
        <ele>41</ele>
        <time>2024-12-16T11:11:50.986Z</time>
      </trkpt>
      <trkpt lat="48.90894" lon="1.84958">
        <ele>41</ele>
        <time>2024-12-16T11:12:10.985Z</time>
      </trkpt>
      <trkpt lat="48.90895" lon="1.84959">
        <ele>39</ele>
        <time>2024-12-16T11:12:15.094Z</time>
      </trkpt>
      <trkpt lat="48.90893" lon="1.84963">
        <ele>39</ele>
        <time>2024-12-16T11:12:19.486Z</time>
      </trkpt>
      <trkpt lat="48.90889" lon="1.84966">
        <ele>39</ele>
        <time>2024-12-16T11:12:23.889Z</time>
      </trkpt>
      <trkpt lat="48.90886" lon="1.8497">
        <ele>39</ele>
        <time>2024-12-16T11:12:28.571Z</time>
      </trkpt>
      <trkpt lat="48.90878" lon="1.84945">
        <ele>41</ele>
        <time>2024-12-16T11:12:46.953Z</time>
      </trkpt>
      <trkpt lat="48.90883" lon="1.84937">
        <ele>41</ele>
        <time>2024-12-16T11:12:50.986Z</time>
      </trkpt>
      <trkpt lat="48.90885" lon="1.8493">
        <ele>43</ele>
        <time>2024-12-16T11:12:55.750Z</time>
      </trkpt>
      <trkpt lat="48.90891" lon="1.84923">
        <ele>43</ele>
        <time>2024-12-16T11:13:00.311Z</time>
      </trkpt>
      <trkpt lat="48.90898" lon="1.84919">
        <ele>43</ele>
        <time>2024-12-16T11:13:04.933Z</time>
      </trkpt>
      <trkpt lat="48.90901" lon="1.84913">
        <ele>43</ele>
        <time>2024-12-16T11:13:09.515Z</time>
      </trkpt>
      <trkpt lat="48.90902" lon="1.84912">
        <ele>43</ele>
        <time>2024-12-16T11:13:10.791Z</time>
      </trkpt>
      <trkpt lat="48.90907" lon="1.84915">
        <ele>42</ele>
        <time>2024-12-16T11:13:19.986Z</time>
      </trkpt>
      <trkpt lat="48.90909" lon="1.84917">
        <ele>42</ele>
        <time>2024-12-16T11:13:24.492Z</time>
      </trkpt>
      <trkpt lat="48.90912" lon="1.84914">
        <ele>42</ele>
        <time>2024-12-16T11:13:28.914Z</time>
      </trkpt>
      <trkpt lat="48.90906" lon="1.84902">
        <ele>45</ele>
        <time>2024-12-16T11:14:16.029Z</time>
      </trkpt>
      <trkpt lat="48.909" lon="1.84902">
        <ele>45</ele>
        <time>2024-12-16T11:14:20.610Z</time>
      </trkpt>
      <trkpt lat="48.90893" lon="1.84902">
        <ele>45</ele>
        <time>2024-12-16T11:14:24.986Z</time>
      </trkpt>
      <trkpt lat="48.90885" lon="1.84903">
        <ele>45</ele>
        <time>2024-12-16T11:14:29.592Z</time>
      </trkpt>
      <trkpt lat="48.90882" lon="1.8491">
        <ele>43</ele>
        <time>2024-12-16T11:14:33.953Z</time>
      </trkpt>
      <trkpt lat="48.90882" lon="1.84911">
        <ele>43</ele>
        <time>2024-12-16T11:14:37.986Z</time>
      </trkpt>
      <trkpt lat="48.90879" lon="1.84912">
        <ele>43</ele>
        <time>2024-12-16T11:14:42.986Z</time>
      </trkpt>
      <trkpt lat="48.90877" lon="1.8491">
        <ele>43</ele>
        <time>2024-12-16T11:14:47.952Z</time>
      </trkpt>
      <trkpt lat="48.90868" lon="1.8491">
        <ele>44</ele>
        <time>2024-12-16T11:14:51.985Z</time>
      </trkpt>
      <trkpt lat="48.90862" lon="1.8491">
        <ele>44</ele>
        <time>2024-12-16T11:14:56.134Z</time>
      </trkpt>
      <trkpt lat="48.90856" lon="1.84908">
        <ele>44</ele>
        <time>2024-12-16T11:15:00.248Z</time>
      </trkpt>
      <trkpt lat="48.9085" lon="1.84904">
        <ele>44</ele>
        <time>2024-12-16T11:15:04.369Z</time>
      </trkpt>
      <trkpt lat="48.90845" lon="1.84899">
        <ele>45</ele>
        <time>2024-12-16T11:15:08.572Z</time>
      </trkpt>
      <trkpt lat="48.90841" lon="1.84895">
        <ele>45</ele>
        <time>2024-12-16T11:15:12.727Z</time>
      </trkpt>
      <trkpt lat="48.90835" lon="1.8489">
        <ele>45</ele>
        <time>2024-12-16T11:15:16.974Z</time>
      </trkpt>
      <trkpt lat="48.90829" lon="1.84885">
        <ele>45</ele>
        <time>2024-12-16T11:15:21.428Z</time>
      </trkpt>
      <trkpt lat="48.90825" lon="1.8488">
        <ele>45</ele>
        <time>2024-12-16T11:15:25.710Z</time>
      </trkpt>
      <trkpt lat="48.90821" lon="1.84875">
        <ele>46</ele>
        <time>2024-12-16T11:15:29.948Z</time>
      </trkpt>
      <trkpt lat="48.90816" lon="1.8487">
        <ele>45</ele>
        <time>2024-12-16T11:15:34.213Z</time>
      </trkpt>
      <trkpt lat="48.90811" lon="1.84864">
        <ele>45</ele>
        <time>2024-12-16T11:15:38.529Z</time>
      </trkpt>
      <trkpt lat="48.90807" lon="1.84859">
        <ele>45</ele>
        <time>2024-12-16T11:15:42.914Z</time>
      </trkpt>
      <trkpt lat="48.90802" lon="1.84852">
        <ele>45</ele>
        <time>2024-12-16T11:15:47.273Z</time>
      </trkpt>
      <trkpt lat="48.90798" lon="1.84844">
        <ele>46</ele>
        <time>2024-12-16T11:15:51.631Z</time>
      </trkpt>
      <trkpt lat="48.90794" lon="1.8484">
        <ele>46</ele>
        <time>2024-12-16T11:15:56.135Z</time>
      </trkpt>
      <trkpt lat="48.9079" lon="1.84835">
        <ele>45</ele>
        <time>2024-12-16T11:16:00.211Z</time>
      </trkpt>
      <trkpt lat="48.90788" lon="1.84829">
        <ele>45</ele>
        <time>2024-12-16T11:16:04.331Z</time>
      </trkpt>
      <trkpt lat="48.90786" lon="1.84821">
        <ele>45</ele>
        <time>2024-12-16T11:16:08.960Z</time>
      </trkpt>
      <trkpt lat="48.90783" lon="1.84816">
        <ele>47</ele>
        <time>2024-12-16T11:16:12.986Z</time>
      </trkpt>
      <trkpt lat="48.90773" lon="1.84821">
        <ele>45</ele>
        <time>2024-12-16T11:16:21.488Z</time>
      </trkpt>
      <trkpt lat="48.90767" lon="1.84823">
        <ele>45</ele>
        <time>2024-12-16T11:16:25.693Z</time>
      </trkpt>
      <trkpt lat="48.90762" lon="1.84824">
        <ele>45</ele>
        <time>2024-12-16T11:16:29.993Z</time>
      </trkpt>
      <trkpt lat="48.90757" lon="1.84829">
        <ele>45</ele>
        <time>2024-12-16T11:16:34.709Z</time>
      </trkpt>
      <trkpt lat="48.90752" lon="1.84833">
        <ele>45</ele>
        <time>2024-12-16T11:16:38.973Z</time>
      </trkpt>
      <trkpt lat="48.90748" lon="1.8484">
        <ele>45</ele>
        <time>2024-12-16T11:16:43.613Z</time>
      </trkpt>
      <trkpt lat="48.90743" lon="1.8484">
        <ele>45</ele>
        <time>2024-12-16T11:16:47.810Z</time>
      </trkpt>
      <trkpt lat="48.90738" lon="1.84832">
        <ele>45</ele>
        <time>2024-12-16T11:16:51.972Z</time>
      </trkpt>
      <trkpt lat="48.90733" lon="1.84828">
        <ele>45</ele>
        <time>2024-12-16T11:16:56.152Z</time>
      </trkpt>
      <trkpt lat="48.90728" lon="1.84821">
        <ele>45</ele>
        <time>2024-12-16T11:17:00.451Z</time>
      </trkpt>
      <trkpt lat="48.90723" lon="1.84819">
        <ele>46</ele>
        <time>2024-12-16T11:17:04.733Z</time>
      </trkpt>
      <trkpt lat="48.90718" lon="1.84815">
        <ele>46</ele>
        <time>2024-12-16T11:17:09.091Z</time>
      </trkpt>
      <trkpt lat="48.90714" lon="1.84811">
        <ele>46</ele>
        <time>2024-12-16T11:17:13.109Z</time>
      </trkpt>
      <trkpt lat="48.90709" lon="1.84805">
        <ele>46</ele>
        <time>2024-12-16T11:17:17.749Z</time>
      </trkpt>
      <trkpt lat="48.90705" lon="1.84803">
        <ele>47</ele>
        <time>2024-12-16T11:17:22.152Z</time>
      </trkpt>
      <trkpt lat="48.90702" lon="1.8481">
        <ele>47</ele>
        <time>2024-12-16T11:17:26.568Z</time>
      </trkpt>
      <trkpt lat="48.90699" lon="1.84819">
        <ele>47</ele>
        <time>2024-12-16T11:17:31.030Z</time>
      </trkpt>
      <trkpt lat="48.90695" lon="1.84826">
        <ele>47</ele>
        <time>2024-12-16T11:17:35.294Z</time>
      </trkpt>
      <trkpt lat="48.90691" lon="1.84834">
        <ele>47</ele>
        <time>2024-12-16T11:17:39.713Z</time>
      </trkpt>
      <trkpt lat="48.90687" lon="1.84842">
        <ele>47</ele>
        <time>2024-12-16T11:17:44.115Z</time>
      </trkpt>
      <trkpt lat="48.90683" lon="1.84848">
        <ele>47</ele>
        <time>2024-12-16T11:17:48.575Z</time>
      </trkpt>
      <trkpt lat="48.9068" lon="1.84856">
        <ele>49</ele>
        <time>2024-12-16T11:17:52.891Z</time>
      </trkpt>
      <trkpt lat="48.90675" lon="1.84861">
        <ele>49</ele>
        <time>2024-12-16T11:17:57.172Z</time>
      </trkpt>
      <trkpt lat="48.90671" lon="1.84867">
        <ele>49</ele>
        <time>2024-12-16T11:18:01.668Z</time>
      </trkpt>
      <trkpt lat="48.90666" lon="1.84871">
        <ele>49</ele>
        <time>2024-12-16T11:18:05.986Z</time>
      </trkpt>
      <trkpt lat="48.90662" lon="1.84876">
        <ele>50</ele>
        <time>2024-12-16T11:18:10.274Z</time>
      </trkpt>
      <trkpt lat="48.90658" lon="1.84882">
        <ele>50</ele>
        <time>2024-12-16T11:18:14.709Z</time>
      </trkpt>
      <trkpt lat="48.90655" lon="1.84889">
        <ele>50</ele>
        <time>2024-12-16T11:18:18.954Z</time>
      </trkpt>
      <trkpt lat="48.90651" lon="1.84895">
        <ele>53</ele>
        <time>2024-12-16T11:18:22.986Z</time>
      </trkpt>
      <trkpt lat="48.90646" lon="1.84901">
        <ele>53</ele>
        <time>2024-12-16T11:18:27.273Z</time>
      </trkpt>
      <trkpt lat="48.90642" lon="1.84906">
        <ele>54</ele>
        <time>2024-12-16T11:18:31.691Z</time>
      </trkpt>
      <trkpt lat="48.90639" lon="1.84913">
        <ele>54</ele>
        <time>2024-12-16T11:18:35.986Z</time>
      </trkpt>
      <trkpt lat="48.90636" lon="1.8492">
        <ele>54</ele>
        <time>2024-12-16T11:18:40.511Z</time>
      </trkpt>
      <trkpt lat="48.90632" lon="1.84925">
        <ele>54</ele>
        <time>2024-12-16T11:18:44.970Z</time>
      </trkpt>
      <trkpt lat="48.90629" lon="1.8493">
        <ele>54</ele>
        <time>2024-12-16T11:18:48.985Z</time>
      </trkpt>
      <trkpt lat="48.90625" lon="1.84936">
        <ele>55</ele>
        <time>2024-12-16T11:18:53.073Z</time>
      </trkpt>
      <trkpt lat="48.90622" lon="1.84943">
        <ele>60</ele>
        <time>2024-12-16T11:18:57.689Z</time>
      </trkpt>
      <trkpt lat="48.90619" lon="1.84947">
        <ele>60</ele>
        <time>2024-12-16T11:19:01.772Z</time>
      </trkpt>
      <trkpt lat="48.90616" lon="1.84952">
        <ele>60</ele>
        <time>2024-12-16T11:19:06.269Z</time>
      </trkpt>
      <trkpt lat="48.90612" lon="1.84957">
        <ele>60</ele>
        <time>2024-12-16T11:19:10.728Z</time>
      </trkpt>
      <trkpt lat="48.90607" lon="1.84961">
        <ele>63</ele>
        <time>2024-12-16T11:19:14.985Z</time>
      </trkpt>
      <trkpt lat="48.90602" lon="1.84968">
        <ele>63</ele>
        <time>2024-12-16T11:19:19.530Z</time>
      </trkpt>
      <trkpt lat="48.90599" lon="1.84974">
        <ele>63</ele>
        <time>2024-12-16T11:19:23.873Z</time>
      </trkpt>
      <trkpt lat="48.90596" lon="1.8498">
        <ele>68</ele>
        <time>2024-12-16T11:19:28.350Z</time>
      </trkpt>
      <trkpt lat="48.90592" lon="1.84985">
        <ele>68</ele>
        <time>2024-12-16T11:19:32.709Z</time>
      </trkpt>
      <trkpt lat="48.90588" lon="1.84991">
        <ele>67</ele>
        <time>2024-12-16T11:19:36.986Z</time>
      </trkpt>
      <trkpt lat="48.90584" lon="1.84996">
        <ele>67</ele>
        <time>2024-12-16T11:19:41.373Z</time>
      </trkpt>
      <trkpt lat="48.9058" lon="1.85002">
        <ele>67</ele>
        <time>2024-12-16T11:19:45.674Z</time>
      </trkpt>
      <trkpt lat="48.90577" lon="1.85008">
        <ele>67</ele>
        <time>2024-12-16T11:19:50.192Z</time>
      </trkpt>
      <trkpt lat="48.90574" lon="1.85016">
        <ele>66</ele>
        <time>2024-12-16T11:19:54.875Z</time>
      </trkpt>
      <trkpt lat="48.90573" lon="1.85022">
        <ele>66</ele>
        <time>2024-12-16T11:19:59.163Z</time>
      </trkpt>
      <trkpt lat="48.90574" lon="1.85029">
        <ele>66</ele>
        <time>2024-12-16T11:20:03.515Z</time>
      </trkpt>
      <trkpt lat="48.90577" lon="1.85034">
        <ele>66</ele>
        <time>2024-12-16T11:20:07.986Z</time>
      </trkpt>
      <trkpt lat="48.90581" lon="1.8503">
        <ele>66</ele>
        <time>2024-12-16T11:20:27.913Z</time>
      </trkpt>
      <trkpt lat="48.90579" lon="1.85036">
        <ele>66</ele>
        <time>2024-12-16T11:20:32.986Z</time>
      </trkpt>
      <trkpt lat="48.90576" lon="1.85035">
        <ele>66</ele>
        <time>2024-12-16T11:20:37.629Z</time>
      </trkpt>
      <trkpt lat="48.90573" lon="1.85035">
        <ele>66</ele>
        <time>2024-12-16T11:20:41.986Z</time>
      </trkpt>
      <trkpt lat="48.90568" lon="1.85036">
        <ele>78</ele>
        <time>2024-12-16T11:20:46.611Z</time>
      </trkpt>
      <trkpt lat="48.90565" lon="1.8504">
        <ele>78</ele>
        <time>2024-12-16T11:20:50.713Z</time>
      </trkpt>
      <trkpt lat="48.90561" lon="1.85043">
        <ele>76</ele>
        <time>2024-12-16T11:20:54.909Z</time>
      </trkpt>
      <trkpt lat="48.90558" lon="1.85048">
        <ele>76</ele>
        <time>2024-12-16T11:20:59.388Z</time>
      </trkpt>
      <trkpt lat="48.90555" lon="1.85052">
        <ele>76</ele>
        <time>2024-12-16T11:21:03.635Z</time>
      </trkpt>
      <trkpt lat="48.90553" lon="1.85057">
        <ele>76</ele>
        <time>2024-12-16T11:21:07.986Z</time>
      </trkpt>
      <trkpt lat="48.9055" lon="1.85062">
        <ele>76</ele>
        <time>2024-12-16T11:21:12.275Z</time>
      </trkpt>
      <trkpt lat="48.90546" lon="1.85066">
        <ele>76</ele>
        <time>2024-12-16T11:21:16.488Z</time>
      </trkpt>
      <trkpt lat="48.90543" lon="1.85069">
        <ele>76</ele>
        <time>2024-12-16T11:21:20.574Z</time>
      </trkpt>
      <trkpt lat="48.9054" lon="1.8507">
        <ele>85</ele>
        <time>2024-12-16T11:21:24.651Z</time>
      </trkpt>
      <trkpt lat="48.90537" lon="1.85075">
        <ele>85</ele>
        <time>2024-12-16T11:21:28.986Z</time>
      </trkpt>
      <trkpt lat="48.90535" lon="1.85081">
        <ele>85</ele>
        <time>2024-12-16T11:21:33.985Z</time>
      </trkpt>
      <trkpt lat="48.90531" lon="1.85084">
        <ele>85</ele>
        <time>2024-12-16T11:21:38.452Z</time>
      </trkpt>
      <trkpt lat="48.90527" lon="1.85089">
        <ele>85</ele>
        <time>2024-12-16T11:21:42.985Z</time>
      </trkpt>
      <trkpt lat="48.90523" lon="1.85094">
        <ele>85</ele>
        <time>2024-12-16T11:21:47.408Z</time>
      </trkpt>
      <trkpt lat="48.90521" lon="1.85101">
        <ele>80</ele>
        <time>2024-12-16T11:21:51.792Z</time>
      </trkpt>
      <trkpt lat="48.90518" lon="1.85106">
        <ele>80</ele>
        <time>2024-12-16T11:21:56.108Z</time>
      </trkpt>
      <trkpt lat="48.90515" lon="1.85114">
        <ele>80</ele>
        <time>2024-12-16T11:22:00.594Z</time>
      </trkpt>
      <trkpt lat="48.90512" lon="1.85122">
        <ele>88</ele>
        <time>2024-12-16T11:22:04.952Z</time>
      </trkpt>
      <trkpt lat="48.90509" lon="1.85128">
        <ele>84</ele>
        <time>2024-12-16T11:22:09.353Z</time>
      </trkpt>
      <trkpt lat="48.90505" lon="1.85136">
        <ele>84</ele>
        <time>2024-12-16T11:22:13.993Z</time>
      </trkpt>
      <trkpt lat="48.90502" lon="1.85142">
        <ele>84</ele>
        <time>2024-12-16T11:22:18.454Z</time>
      </trkpt>
      <trkpt lat="48.90498" lon="1.85149">
        <ele>84</ele>
        <time>2024-12-16T11:22:22.915Z</time>
      </trkpt>
      <trkpt lat="48.90496" lon="1.85154">
        <ele>79</ele>
        <time>2024-12-16T11:22:26.985Z</time>
      </trkpt>
      <trkpt lat="48.90493" lon="1.85162">
        <ele>79</ele>
        <time>2024-12-16T11:22:31.393Z</time>
      </trkpt>
      <trkpt lat="48.9049" lon="1.85171">
        <ele>79</ele>
        <time>2024-12-16T11:22:35.828Z</time>
      </trkpt>
      <trkpt lat="48.90484" lon="1.85178">
        <ele>88</ele>
        <time>2024-12-16T11:22:40.273Z</time>
      </trkpt>
      <trkpt lat="48.90479" lon="1.85186">
        <ele>86</ele>
        <time>2024-12-16T11:22:44.673Z</time>
      </trkpt>
      <trkpt lat="48.90474" lon="1.85194">
        <ele>86</ele>
        <time>2024-12-16T11:22:49.688Z</time>
      </trkpt>
      <trkpt lat="48.9047" lon="1.85202">
        <ele>86</ele>
        <time>2024-12-16T11:22:53.986Z</time>
      </trkpt>
      <trkpt lat="48.90466" lon="1.85209">
        <ele>83</ele>
        <time>2024-12-16T11:22:58.447Z</time>
      </trkpt>
      <trkpt lat="48.90463" lon="1.85217">
        <ele>83</ele>
        <time>2024-12-16T11:23:02.789Z</time>
      </trkpt>
      <trkpt lat="48.90459" lon="1.85224">
        <ele>83</ele>
        <time>2024-12-16T11:23:06.985Z</time>
      </trkpt>
      <trkpt lat="48.90454" lon="1.85233">
        <ele>89</ele>
        <time>2024-12-16T11:23:11.455Z</time>
      </trkpt>
      <trkpt lat="48.9045" lon="1.85241">
        <ele>88</ele>
        <time>2024-12-16T11:23:15.872Z</time>
      </trkpt>
      <trkpt lat="48.90446" lon="1.85249">
        <ele>88</ele>
        <time>2024-12-16T11:23:20.154Z</time>
      </trkpt>
      <trkpt lat="48.90442" lon="1.85256">
        <ele>88</ele>
        <time>2024-12-16T11:23:24.648Z</time>
      </trkpt>
      <trkpt lat="48.90438" lon="1.85263">
        <ele>88</ele>
        <time>2024-12-16T11:23:28.985Z</time>
      </trkpt>
      <trkpt lat="48.90435" lon="1.85272">
        <ele>87</ele>
        <time>2024-12-16T11:23:33.553Z</time>
      </trkpt>
      <trkpt lat="48.90432" lon="1.8528">
        <ele>87</ele>
        <time>2024-12-16T11:23:37.988Z</time>
      </trkpt>
      <trkpt lat="48.90428" lon="1.85288">
        <ele>91</ele>
        <time>2024-12-16T11:23:42.432Z</time>
      </trkpt>
      <trkpt lat="48.90424" lon="1.85295">
        <ele>91</ele>
        <time>2024-12-16T11:23:46.891Z</time>
      </trkpt>
      <trkpt lat="48.9042" lon="1.85302">
        <ele>91</ele>
        <time>2024-12-16T11:23:51.327Z</time>
      </trkpt>
      <trkpt lat="48.90416" lon="1.85309">
        <ele>91</ele>
        <time>2024-12-16T11:23:55.711Z</time>
      </trkpt>
      <trkpt lat="48.90413" lon="1.85316">
        <ele>91</ele>
        <time>2024-12-16T11:24:00.232Z</time>
      </trkpt>
      <trkpt lat="48.90408" lon="1.85323">
        <ele>90</ele>
        <time>2024-12-16T11:24:04.692Z</time>
      </trkpt>
      <trkpt lat="48.90405" lon="1.8533">
        <ele>90</ele>
        <time>2024-12-16T11:24:09.272Z</time>
      </trkpt>
      <trkpt lat="48.904" lon="1.85336">
        <ele>92</ele>
        <time>2024-12-16T11:24:13.836Z</time>
      </trkpt>
      <trkpt lat="48.90396" lon="1.85342">
        <ele>92</ele>
        <time>2024-12-16T11:24:18.378Z</time>
      </trkpt>
      <trkpt lat="48.90391" lon="1.85349">
        <ele>91</ele>
        <time>2024-12-16T11:24:22.912Z</time>
      </trkpt>
      <trkpt lat="48.90387" lon="1.85355">
        <ele>91</ele>
        <time>2024-12-16T11:24:27.609Z</time>
      </trkpt>
      <trkpt lat="48.90383" lon="1.8536">
        <ele>91</ele>
        <time>2024-12-16T11:24:31.635Z</time>
      </trkpt>
      <trkpt lat="48.90379" lon="1.85365">
        <ele>91</ele>
        <time>2024-12-16T11:24:35.891Z</time>
      </trkpt>
      <trkpt lat="48.90375" lon="1.85368">
        <ele>91</ele>
        <time>2024-12-16T11:24:39.985Z</time>
      </trkpt>
      <trkpt lat="48.9037" lon="1.85373">
        <ele>91</ele>
        <time>2024-12-16T11:24:44.411Z</time>
      </trkpt>
      <trkpt lat="48.90366" lon="1.85378">
        <ele>90</ele>
        <time>2024-12-16T11:24:48.591Z</time>
      </trkpt>
      <trkpt lat="48.90362" lon="1.85382">
        <ele>90</ele>
        <time>2024-12-16T11:24:52.889Z</time>
      </trkpt>
      <trkpt lat="48.90358" lon="1.85385">
        <ele>90</ele>
        <time>2024-12-16T11:24:56.985Z</time>
      </trkpt>
      <trkpt lat="48.90353" lon="1.85388">
        <ele>90</ele>
        <time>2024-12-16T11:25:01.674Z</time>
      </trkpt>
      <trkpt lat="48.90349" lon="1.85391">
        <ele>90</ele>
        <time>2024-12-16T11:25:05.887Z</time>
      </trkpt>
      <trkpt lat="48.90345" lon="1.85393">
        <ele>92</ele>
        <time>2024-12-16T11:25:09.986Z</time>
      </trkpt>
      <trkpt lat="48.9034" lon="1.85395">
        <ele>92</ele>
        <time>2024-12-16T11:25:14.271Z</time>
      </trkpt>
      <trkpt lat="48.90336" lon="1.85398">
        <ele>92</ele>
        <time>2024-12-16T11:25:18.492Z</time>
      </trkpt>
      <trkpt lat="48.90332" lon="1.85397">
        <ele>92</ele>
        <time>2024-12-16T11:25:22.672Z</time>
      </trkpt>
      <trkpt lat="48.90329" lon="1.85393">
        <ele>92</ele>
        <time>2024-12-16T11:25:26.986Z</time>
      </trkpt>
      <trkpt lat="48.90333" lon="1.85393">
        <ele>92</ele>
        <time>2024-12-16T11:25:40.986Z</time>
      </trkpt>
      <trkpt lat="48.90328" lon="1.85392">
        <ele>92</ele>
        <time>2024-12-16T11:25:45.334Z</time>
      </trkpt>
      <trkpt lat="48.9032" lon="1.85401">
        <ele>92</ele>
        <time>2024-12-16T11:25:49.811Z</time>
      </trkpt>
      <trkpt lat="48.90317" lon="1.85406">
        <ele>95</ele>
        <time>2024-12-16T11:25:53.853Z</time>
      </trkpt>
      <trkpt lat="48.90312" lon="1.8541">
        <ele>95</ele>
        <time>2024-12-16T11:25:58.391Z</time>
      </trkpt>
      <trkpt lat="48.90306" lon="1.85415">
        <ele>95</ele>
        <time>2024-12-16T11:26:02.852Z</time>
      </trkpt>
      <trkpt lat="48.90299" lon="1.85418">
        <ele>95</ele>
        <time>2024-12-16T11:26:07.372Z</time>
      </trkpt>
      <trkpt lat="48.90294" lon="1.85422">
        <ele>95</ele>
        <time>2024-12-16T11:26:11.952Z</time>
      </trkpt>
      <trkpt lat="48.90288" lon="1.85425">
        <ele>98</ele>
        <time>2024-12-16T11:26:16.412Z</time>
      </trkpt>
      <trkpt lat="48.90282" lon="1.85429">
        <ele>98</ele>
        <time>2024-12-16T11:26:20.848Z</time>
      </trkpt>
      <trkpt lat="48.90277" lon="1.8543">
        <ele>98</ele>
        <time>2024-12-16T11:26:24.908Z</time>
      </trkpt>
      <trkpt lat="48.90272" lon="1.85433">
        <ele>97</ele>
        <time>2024-12-16T11:26:29.428Z</time>
      </trkpt>
      <trkpt lat="48.90266" lon="1.85434">
        <ele>97</ele>
        <time>2024-12-16T11:26:33.452Z</time>
      </trkpt>
      <trkpt lat="48.90261" lon="1.85438">
        <ele>96</ele>
        <time>2024-12-16T11:26:37.990Z</time>
      </trkpt>
      <trkpt lat="48.90255" lon="1.85441">
        <ele>96</ele>
        <time>2024-12-16T11:26:42.434Z</time>
      </trkpt>
      <trkpt lat="48.9025" lon="1.85444">
        <ele>96</ele>
        <time>2024-12-16T11:26:46.493Z</time>
      </trkpt>
      <trkpt lat="48.90246" lon="1.85447">
        <ele>96</ele>
        <time>2024-12-16T11:26:50.553Z</time>
      </trkpt>
      <trkpt lat="48.90241" lon="1.85451">
        <ele>96</ele>
        <time>2024-12-16T11:26:54.587Z</time>
      </trkpt>
      <trkpt lat="48.90236" lon="1.85455">
        <ele>96</ele>
        <time>2024-12-16T11:26:58.672Z</time>
      </trkpt>
      <trkpt lat="48.90231" lon="1.85458">
        <ele>96</ele>
        <time>2024-12-16T11:27:02.986Z</time>
      </trkpt>
      <trkpt lat="48.90226" lon="1.85461">
        <ele>96</ele>
        <time>2024-12-16T11:27:07.559Z</time>
      </trkpt>
      <trkpt lat="48.90221" lon="1.85465">
        <ele>96</ele>
        <time>2024-12-16T11:27:11.935Z</time>
      </trkpt>
      <trkpt lat="48.90216" lon="1.85469">
        <ele>96</ele>
        <time>2024-12-16T11:27:16.423Z</time>
      </trkpt>
      <trkpt lat="48.9021" lon="1.85472">
        <ele>96</ele>
        <time>2024-12-16T11:27:20.873Z</time>
      </trkpt>
      <trkpt lat="48.90204" lon="1.85476">
        <ele>99</ele>
        <time>2024-12-16T11:27:25.240Z</time>
      </trkpt>
      <trkpt lat="48.90199" lon="1.8548">
        <ele>99</ele>
        <time>2024-12-16T11:27:29.257Z</time>
      </trkpt>
      <trkpt lat="48.90195" lon="1.85485">
        <ele>99</ele>
        <time>2024-12-16T11:27:33.821Z</time>
      </trkpt>
      <trkpt lat="48.90189" lon="1.85489">
        <ele>99</ele>
        <time>2024-12-16T11:27:38.245Z</time>
      </trkpt>
      <trkpt lat="48.90185" lon="1.85494">
        <ele>99</ele>
        <time>2024-12-16T11:27:42.655Z</time>
      </trkpt>
      <trkpt lat="48.9018" lon="1.855">
        <ele>100</ele>
        <time>2024-12-16T11:27:46.987Z</time>
      </trkpt>
      <trkpt lat="48.90175" lon="1.85506">
        <ele>100</ele>
        <time>2024-12-16T11:27:51.440Z</time>
      </trkpt>
      <trkpt lat="48.9017" lon="1.8551">
        <ele>100</ele>
        <time>2024-12-16T11:27:55.917Z</time>
      </trkpt>
      <trkpt lat="48.90165" lon="1.85516">
        <ele>100</ele>
        <time>2024-12-16T11:28:00.292Z</time>
      </trkpt>
      <trkpt lat="48.9016" lon="1.8552">
        <ele>100</ele>
        <time>2024-12-16T11:28:04.735Z</time>
      </trkpt>
      <trkpt lat="48.90154" lon="1.85525">
        <ele>100</ele>
        <time>2024-12-16T11:28:09.213Z</time>
      </trkpt>
      <trkpt lat="48.90149" lon="1.85529">
        <ele>100</ele>
        <time>2024-12-16T11:28:13.581Z</time>
      </trkpt>
      <trkpt lat="48.90144" lon="1.85533">
        <ele>100</ele>
        <time>2024-12-16T11:28:17.987Z</time>
      </trkpt>
      <trkpt lat="48.90138" lon="1.85537">
        <ele>100</ele>
        <time>2024-12-16T11:28:22.521Z</time>
      </trkpt>
      <trkpt lat="48.90133" lon="1.8554">
        <ele>100</ele>
        <time>2024-12-16T11:28:26.987Z</time>
      </trkpt>
      <trkpt lat="48.90128" lon="1.85544">
        <ele>100</ele>
        <time>2024-12-16T11:28:31.115Z</time>
      </trkpt>
      <trkpt lat="48.90123" lon="1.85547">
        <ele>100</ele>
        <time>2024-12-16T11:28:35.136Z</time>
      </trkpt>
      <trkpt lat="48.90118" lon="1.8555">
        <ele>100</ele>
        <time>2024-12-16T11:28:39.593Z</time>
      </trkpt>
      <trkpt lat="48.90112" lon="1.85555">
        <ele>100</ele>
        <time>2024-12-16T11:28:44.141Z</time>
      </trkpt>
      <trkpt lat="48.90106" lon="1.85559">
        <ele>100</ele>
        <time>2024-12-16T11:28:48.658Z</time>
      </trkpt>
      <trkpt lat="48.90102" lon="1.85562">
        <ele>100</ele>
        <time>2024-12-16T11:28:53.196Z</time>
      </trkpt>
      <trkpt lat="48.90097" lon="1.85566">
        <ele>101</ele>
        <time>2024-12-16T11:28:57.699Z</time>
      </trkpt>
      <trkpt lat="48.90091" lon="1.85569">
        <ele>101</ele>
        <time>2024-12-16T11:29:01.987Z</time>
      </trkpt>
      <trkpt lat="48.90087" lon="1.85572">
        <ele>100</ele>
        <time>2024-12-16T11:29:06.117Z</time>
      </trkpt>
      <trkpt lat="48.90081" lon="1.85576">
        <ele>100</ele>
        <time>2024-12-16T11:29:10.518Z</time>
      </trkpt>
      <trkpt lat="48.90076" lon="1.8558">
        <ele>100</ele>
        <time>2024-12-16T11:29:14.834Z</time>
      </trkpt>
      <trkpt lat="48.90071" lon="1.85584">
        <ele>100</ele>
        <time>2024-12-16T11:29:18.986Z</time>
      </trkpt>
      <trkpt lat="48.90065" lon="1.85588">
        <ele>100</ele>
        <time>2024-12-16T11:29:23.319Z</time>
      </trkpt>
      <trkpt lat="48.9006" lon="1.85591">
        <ele>100</ele>
        <time>2024-12-16T11:29:27.987Z</time>
      </trkpt>
      <trkpt lat="48.90055" lon="1.85596">
        <ele>100</ele>
        <time>2024-12-16T11:29:31.987Z</time>
      </trkpt>
      <trkpt lat="48.90049" lon="1.856">
        <ele>99</ele>
        <time>2024-12-16T11:29:36.881Z</time>
      </trkpt>
      <trkpt lat="48.90044" lon="1.85603">
        <ele>99</ele>
        <time>2024-12-16T11:29:41.212Z</time>
      </trkpt>
      <trkpt lat="48.90039" lon="1.85607">
        <ele>98</ele>
        <time>2024-12-16T11:29:45.298Z</time>
      </trkpt>
      <trkpt lat="48.90034" lon="1.85612">
        <ele>98</ele>
        <time>2024-12-16T11:29:49.639Z</time>
      </trkpt>
      <trkpt lat="48.90029" lon="1.85616">
        <ele>98</ele>
        <time>2024-12-16T11:29:53.894Z</time>
      </trkpt>
      <trkpt lat="48.90023" lon="1.85619">
        <ele>98</ele>
        <time>2024-12-16T11:29:57.986Z</time>
      </trkpt>
      <trkpt lat="48.90018" lon="1.85624">
        <ele>98</ele>
        <time>2024-12-16T11:30:02.359Z</time>
      </trkpt>
      <trkpt lat="48.90012" lon="1.85629">
        <ele>97</ele>
        <time>2024-12-16T11:30:06.680Z</time>
      </trkpt>
      <trkpt lat="48.90007" lon="1.85633">
        <ele>97</ele>
        <time>2024-12-16T11:30:10.977Z</time>
      </trkpt>
      <trkpt lat="48.90002" lon="1.85637">
        <ele>97</ele>
        <time>2024-12-16T11:30:15.336Z</time>
      </trkpt>
      <trkpt lat="48.89997" lon="1.85642">
        <ele>97</ele>
        <time>2024-12-16T11:30:19.720Z</time>
      </trkpt>
      <trkpt lat="48.89991" lon="1.85647">
        <ele>97</ele>
        <time>2024-12-16T11:30:23.986Z</time>
      </trkpt>
      <trkpt lat="48.89986" lon="1.85651">
        <ele>98</ele>
        <time>2024-12-16T11:30:28.581Z</time>
      </trkpt>
      <trkpt lat="48.89981" lon="1.85656">
        <ele>98</ele>
        <time>2024-12-16T11:30:32.794Z</time>
      </trkpt>
      <trkpt lat="48.89975" lon="1.8566">
        <ele>98</ele>
        <time>2024-12-16T11:30:37.160Z</time>
      </trkpt>
      <trkpt lat="48.89971" lon="1.85665">
        <ele>98</ele>
        <time>2024-12-16T11:30:41.458Z</time>
      </trkpt>
      <trkpt lat="48.89965" lon="1.8567">
        <ele>98</ele>
        <time>2024-12-16T11:30:45.876Z</time>
      </trkpt>
      <trkpt lat="48.8996" lon="1.85674">
        <ele>98</ele>
        <time>2024-12-16T11:30:49.996Z</time>
      </trkpt>
      <trkpt lat="48.89955" lon="1.85677">
        <ele>98</ele>
        <time>2024-12-16T11:30:54.439Z</time>
      </trkpt>
      <trkpt lat="48.89949" lon="1.8568">
        <ele>98</ele>
        <time>2024-12-16T11:30:58.798Z</time>
      </trkpt>
      <trkpt lat="48.89943" lon="1.85685">
        <ele>98</ele>
        <time>2024-12-16T11:31:03.275Z</time>
      </trkpt>
      <trkpt lat="48.89938" lon="1.8569">
        <ele>98</ele>
        <time>2024-12-16T11:31:07.675Z</time>
      </trkpt>
      <trkpt lat="48.89932" lon="1.85693">
        <ele>98</ele>
        <time>2024-12-16T11:31:12.178Z</time>
      </trkpt>
      <trkpt lat="48.89922" lon="1.85701">
        <ele>98</ele>
        <time>2024-12-16T11:31:20.986Z</time>
      </trkpt>
      <trkpt lat="48.89916" lon="1.85704">
        <ele>98</ele>
        <time>2024-12-16T11:31:25.381Z</time>
      </trkpt>
      <trkpt lat="48.8991" lon="1.85708">
        <ele>98</ele>
        <time>2024-12-16T11:31:29.858Z</time>
      </trkpt>
      <trkpt lat="48.89904" lon="1.85712">
        <ele>97</ele>
        <time>2024-12-16T11:31:34.319Z</time>
      </trkpt>
      <trkpt lat="48.899" lon="1.85715">
        <ele>97</ele>
        <time>2024-12-16T11:31:38.677Z</time>
      </trkpt>
      <trkpt lat="48.89894" lon="1.85719">
        <ele>97</ele>
        <time>2024-12-16T11:31:43.274Z</time>
      </trkpt>
      <trkpt lat="48.89888" lon="1.85723">
        <ele>97</ele>
        <time>2024-12-16T11:31:47.734Z</time>
      </trkpt>
      <trkpt lat="48.89884" lon="1.85726">
        <ele>97</ele>
        <time>2024-12-16T11:31:52.160Z</time>
      </trkpt>
      <trkpt lat="48.89879" lon="1.85731">
        <ele>97</ele>
        <time>2024-12-16T11:31:56.680Z</time>
      </trkpt>
      <trkpt lat="48.89873" lon="1.85733">
        <ele>98</ele>
        <time>2024-12-16T11:32:00.986Z</time>
      </trkpt>
      <trkpt lat="48.89867" lon="1.85737">
        <ele>97</ele>
        <time>2024-12-16T11:32:05.618Z</time>
      </trkpt>
      <trkpt lat="48.89861" lon="1.8574">
        <ele>97</ele>
        <time>2024-12-16T11:32:09.987Z</time>
      </trkpt>
      <trkpt lat="48.89856" lon="1.85742">
        <ele>97</ele>
        <time>2024-12-16T11:32:14.436Z</time>
      </trkpt>
      <trkpt lat="48.8985" lon="1.85746">
        <ele>97</ele>
        <time>2024-12-16T11:32:18.973Z</time>
      </trkpt>
      <trkpt lat="48.89845" lon="1.85749">
        <ele>97</ele>
        <time>2024-12-16T11:32:23.358Z</time>
      </trkpt>
      <trkpt lat="48.89839" lon="1.85752">
        <ele>97</ele>
        <time>2024-12-16T11:32:27.479Z</time>
      </trkpt>
      <trkpt lat="48.89833" lon="1.85761">
        <ele>97</ele>
        <time>2024-12-16T11:32:46.987Z</time>
      </trkpt>
      <trkpt lat="48.89832" lon="1.85761">
        <ele>97</ele>
        <time>2024-12-16T11:32:51.238Z</time>
      </trkpt>
      <trkpt lat="48.89826" lon="1.85763">
        <ele>97</ele>
        <time>2024-12-16T11:32:55.339Z</time>
      </trkpt>
      <trkpt lat="48.8982" lon="1.85765">
        <ele>96</ele>
        <time>2024-12-16T11:32:59.399Z</time>
      </trkpt>
      <trkpt lat="48.89816" lon="1.85768">
        <ele>98</ele>
        <time>2024-12-16T11:33:03.561Z</time>
      </trkpt>
      <trkpt lat="48.8981" lon="1.8577">
        <ele>98</ele>
        <time>2024-12-16T11:33:08.097Z</time>
      </trkpt>
      <trkpt lat="48.89805" lon="1.85772">
        <ele>98</ele>
        <time>2024-12-16T11:33:12.678Z</time>
      </trkpt>
      <trkpt lat="48.898" lon="1.85775">
        <ele>98</ele>
        <time>2024-12-16T11:33:16.737Z</time>
      </trkpt>
      <trkpt lat="48.89794" lon="1.85778">
        <ele>98</ele>
        <time>2024-12-16T11:33:21.299Z</time>
      </trkpt>
      <trkpt lat="48.89789" lon="1.8578">
        <ele>100</ele>
        <time>2024-12-16T11:33:25.838Z</time>
      </trkpt>
      <trkpt lat="48.89783" lon="1.85782">
        <ele>100</ele>
        <time>2024-12-16T11:33:30.419Z</time>
      </trkpt>
      <trkpt lat="48.89777" lon="1.85783">
        <ele>100</ele>
        <time>2024-12-16T11:33:34.924Z</time>
      </trkpt>
      <trkpt lat="48.89772" lon="1.85786">
        <ele>100</ele>
        <time>2024-12-16T11:33:39.338Z</time>
      </trkpt>
      <trkpt lat="48.89767" lon="1.85788">
        <ele>100</ele>
        <time>2024-12-16T11:33:43.398Z</time>
      </trkpt>
      <trkpt lat="48.89762" lon="1.85791">
        <ele>101</ele>
        <time>2024-12-16T11:33:47.499Z</time>
      </trkpt>
      <trkpt lat="48.89756" lon="1.85792">
        <ele>101</ele>
        <time>2024-12-16T11:33:51.987Z</time>
      </trkpt>
      <trkpt lat="48.8975" lon="1.85795">
        <ele>101</ele>
        <time>2024-12-16T11:33:56.599Z</time>
      </trkpt>
      <trkpt lat="48.89745" lon="1.85797">
        <ele>101</ele>
        <time>2024-12-16T11:34:00.987Z</time>
      </trkpt>
      <trkpt lat="48.89739" lon="1.858">
        <ele>101</ele>
        <time>2024-12-16T11:34:05.613Z</time>
      </trkpt>
      <trkpt lat="48.89734" lon="1.85801">
        <ele>103</ele>
        <time>2024-12-16T11:34:09.719Z</time>
      </trkpt>
      <trkpt lat="48.89728" lon="1.85803">
        <ele>103</ele>
        <time>2024-12-16T11:34:13.760Z</time>
      </trkpt>
      <trkpt lat="48.89723" lon="1.85804">
        <ele>103</ele>
        <time>2024-12-16T11:34:17.852Z</time>
      </trkpt>
      <trkpt lat="48.89718" lon="1.85806">
        <ele>103</ele>
        <time>2024-12-16T11:34:21.878Z</time>
      </trkpt>
      <trkpt lat="48.89713" lon="1.85808">
        <ele>103</ele>
        <time>2024-12-16T11:34:25.955Z</time>
      </trkpt>
      <trkpt lat="48.89708" lon="1.8581">
        <ele>103</ele>
        <time>2024-12-16T11:34:29.987Z</time>
      </trkpt>
      <trkpt lat="48.89703" lon="1.85812">
        <ele>103</ele>
        <time>2024-12-16T11:34:34.252Z</time>
      </trkpt>
      <trkpt lat="48.89698" lon="1.85813">
        <ele>103</ele>
        <time>2024-12-16T11:34:38.697Z</time>
      </trkpt>
      <trkpt lat="48.89692" lon="1.85816">
        <ele>103</ele>
        <time>2024-12-16T11:34:43.292Z</time>
      </trkpt>
      <trkpt lat="48.89687" lon="1.85818">
        <ele>103</ele>
        <time>2024-12-16T11:34:47.335Z</time>
      </trkpt>
      <trkpt lat="48.89681" lon="1.8582">
        <ele>104</ele>
        <time>2024-12-16T11:34:52.003Z</time>
      </trkpt>
      <trkpt lat="48.89676" lon="1.85821">
        <ele>104</ele>
        <time>2024-12-16T11:34:56.494Z</time>
      </trkpt>
      <trkpt lat="48.8967" lon="1.85822">
        <ele>104</ele>
        <time>2024-12-16T11:35:00.986Z</time>
      </trkpt>
      <trkpt lat="48.89665" lon="1.85823">
        <ele>104</ele>
        <time>2024-12-16T11:35:05.357Z</time>
      </trkpt>
      <trkpt lat="48.89659" lon="1.85824">
        <ele>104</ele>
        <time>2024-12-16T11:35:09.756Z</time>
      </trkpt>
      <trkpt lat="48.89652" lon="1.85824">
        <ele>104</ele>
        <time>2024-12-16T11:35:14.677Z</time>
      </trkpt>
      <trkpt lat="48.89647" lon="1.85825">
        <ele>104</ele>
        <time>2024-12-16T11:35:18.720Z</time>
      </trkpt>
      <trkpt lat="48.89641" lon="1.85826">
        <ele>104</ele>
        <time>2024-12-16T11:35:22.987Z</time>
      </trkpt>
      <trkpt lat="48.89636" lon="1.85827">
        <ele>104</ele>
        <time>2024-12-16T11:35:27.453Z</time>
      </trkpt>
      <trkpt lat="48.8963" lon="1.85825">
        <ele>104</ele>
        <time>2024-12-16T11:35:31.837Z</time>
      </trkpt>
      <trkpt lat="48.89624" lon="1.85827">
        <ele>106</ele>
        <time>2024-12-16T11:35:36.272Z</time>
      </trkpt>
      <trkpt lat="48.89618" lon="1.85828">
        <ele>106</ele>
        <time>2024-12-16T11:35:40.893Z</time>
      </trkpt>
      <trkpt lat="48.89613" lon="1.85828">
        <ele>106</ele>
        <time>2024-12-16T11:35:44.937Z</time>
      </trkpt>
      <trkpt lat="48.89608" lon="1.85829">
        <ele>106</ele>
        <time>2024-12-16T11:35:49.475Z</time>
      </trkpt>
      <trkpt lat="48.89603" lon="1.8583">
        <ele>106</ele>
        <time>2024-12-16T11:35:53.517Z</time>
      </trkpt>
      <trkpt lat="48.89597" lon="1.8583">
        <ele>109</ele>
        <time>2024-12-16T11:35:57.986Z</time>
      </trkpt>
      <trkpt lat="48.8959" lon="1.85831">
        <ele>109</ele>
        <time>2024-12-16T11:36:02.720Z</time>
      </trkpt>
      <trkpt lat="48.89585" lon="1.8583">
        <ele>109</ele>
        <time>2024-12-16T11:36:07.197Z</time>
      </trkpt>
      <trkpt lat="48.89578" lon="1.85831">
        <ele>109</ele>
        <time>2024-12-16T11:36:11.819Z</time>
      </trkpt>
      <trkpt lat="48.89573" lon="1.85831">
        <ele>109</ele>
        <time>2024-12-16T11:36:16.296Z</time>
      </trkpt>
      <trkpt lat="48.89567" lon="1.85831">
        <ele>109</ele>
        <time>2024-12-16T11:36:20.818Z</time>
      </trkpt>
      <trkpt lat="48.89562" lon="1.85832">
        <ele>109</ele>
        <time>2024-12-16T11:36:25.354Z</time>
      </trkpt>
      <trkpt lat="48.89556" lon="1.85832">
        <ele>109</ele>
        <time>2024-12-16T11:36:29.379Z</time>
      </trkpt>
      <trkpt lat="48.8955" lon="1.85833">
        <ele>109</ele>
        <time>2024-12-16T11:36:33.933Z</time>
      </trkpt>
      <trkpt lat="48.89545" lon="1.85833">
        <ele>109</ele>
        <time>2024-12-16T11:36:37.987Z</time>
      </trkpt>
      <trkpt lat="48.89539" lon="1.85834">
        <ele>110</ele>
        <time>2024-12-16T11:36:42.333Z</time>
      </trkpt>
      <trkpt lat="48.89534" lon="1.85834">
        <ele>110</ele>
        <time>2024-12-16T11:36:46.394Z</time>
      </trkpt>
      <trkpt lat="48.89528" lon="1.85833">
        <ele>110</ele>
        <time>2024-12-16T11:36:50.734Z</time>
      </trkpt>
      <trkpt lat="48.89523" lon="1.85833">
        <ele>110</ele>
        <time>2024-12-16T11:36:55.195Z</time>
      </trkpt>
      <trkpt lat="48.89516" lon="1.85833">
        <ele>110</ele>
        <time>2024-12-16T11:36:59.715Z</time>
      </trkpt>
      <trkpt lat="48.89511" lon="1.85833">
        <ele>111</ele>
        <time>2024-12-16T11:37:03.740Z</time>
      </trkpt>
      <trkpt lat="48.89505" lon="1.85833">
        <ele>111</ele>
        <time>2024-12-16T11:37:07.817Z</time>
      </trkpt>
      <trkpt lat="48.8949" lon="1.85831">
        <ele>111</ele>
        <time>2024-12-16T11:37:40.987Z</time>
      </trkpt>
      <trkpt lat="48.89486" lon="1.8583">
        <ele>111</ele>
        <time>2024-12-16T11:37:45.240Z</time>
      </trkpt>
      <trkpt lat="48.89479" lon="1.85832">
        <ele>111</ele>
        <time>2024-12-16T11:37:49.675Z</time>
      </trkpt>
      <trkpt lat="48.89473" lon="1.85834">
        <ele>111</ele>
        <time>2024-12-16T11:37:54.104Z</time>
      </trkpt>
      <trkpt lat="48.89467" lon="1.85834">
        <ele>111</ele>
        <time>2024-12-16T11:37:58.578Z</time>
      </trkpt>
      <trkpt lat="48.89461" lon="1.85833">
        <ele>111</ele>
        <time>2024-12-16T11:38:02.986Z</time>
      </trkpt>
      <trkpt lat="48.89456" lon="1.85834">
        <ele>111</ele>
        <time>2024-12-16T11:38:07.593Z</time>
      </trkpt>
      <trkpt lat="48.8945" lon="1.85834">
        <ele>111</ele>
        <time>2024-12-16T11:38:11.978Z</time>
      </trkpt>
      <trkpt lat="48.89444" lon="1.85835">
        <ele>111</ele>
        <time>2024-12-16T11:38:16.419Z</time>
      </trkpt>
      <trkpt lat="48.89438" lon="1.85836">
        <ele>111</ele>
        <time>2024-12-16T11:38:20.455Z</time>
      </trkpt>
      <trkpt lat="48.89432" lon="1.85836">
        <ele>111</ele>
        <time>2024-12-16T11:38:24.999Z</time>
      </trkpt>
      <trkpt lat="48.89426" lon="1.85836">
        <ele>112</ele>
        <time>2024-12-16T11:38:29.553Z</time>
      </trkpt>
      <trkpt lat="48.8942" lon="1.85836">
        <ele>112</ele>
        <time>2024-12-16T11:38:33.920Z</time>
      </trkpt>
      <trkpt lat="48.89415" lon="1.85837">
        <ele>112</ele>
        <time>2024-12-16T11:38:38.517Z</time>
      </trkpt>
      <trkpt lat="48.89409" lon="1.85836">
        <ele>112</ele>
        <time>2024-12-16T11:38:42.977Z</time>
      </trkpt>
      <trkpt lat="48.89403" lon="1.85837">
        <ele>112</ele>
        <time>2024-12-16T11:38:47.514Z</time>
      </trkpt>
      <trkpt lat="48.89398" lon="1.85836">
        <ele>112</ele>
        <time>2024-12-16T11:38:51.539Z</time>
      </trkpt>
      <trkpt lat="48.89392" lon="1.85838">
        <ele>112</ele>
        <time>2024-12-16T11:38:55.939Z</time>
      </trkpt>
      <trkpt lat="48.89387" lon="1.85838">
        <ele>112</ele>
        <time>2024-12-16T11:38:59.986Z</time>
      </trkpt>
      <trkpt lat="48.89382" lon="1.85839">
        <ele>112</ele>
        <time>2024-12-16T11:39:04.033Z</time>
      </trkpt>
      <trkpt lat="48.89376" lon="1.85839">
        <ele>112</ele>
        <time>2024-12-16T11:39:08.537Z</time>
      </trkpt>
      <trkpt lat="48.8937" lon="1.85839">
        <ele>112</ele>
        <time>2024-12-16T11:39:12.554Z</time>
      </trkpt>
      <trkpt lat="48.89365" lon="1.8584">
        <ele>112</ele>
        <time>2024-12-16T11:39:16.999Z</time>
      </trkpt>
      <trkpt lat="48.89359" lon="1.85842">
        <ele>112</ele>
        <time>2024-12-16T11:39:21.457Z</time>
      </trkpt>
      <trkpt lat="48.89353" lon="1.85844">
        <ele>112</ele>
        <time>2024-12-16T11:39:25.918Z</time>
      </trkpt>
      <trkpt lat="48.89347" lon="1.85845">
        <ele>110</ele>
        <time>2024-12-16T11:39:30.378Z</time>
      </trkpt>
      <trkpt lat="48.89341" lon="1.85846">
        <ele>110</ele>
        <time>2024-12-16T11:39:34.883Z</time>
      </trkpt>
      <trkpt lat="48.89335" lon="1.85847">
        <ele>110</ele>
        <time>2024-12-16T11:39:39.375Z</time>
      </trkpt>
      <trkpt lat="48.89329" lon="1.85848">
        <ele>109</ele>
        <time>2024-12-16T11:39:43.987Z</time>
      </trkpt>
      <trkpt lat="48.89323" lon="1.85849">
        <ele>109</ele>
        <time>2024-12-16T11:39:48.253Z</time>
      </trkpt>
      <trkpt lat="48.89317" lon="1.8585">
        <ele>110</ele>
        <time>2024-12-16T11:39:52.680Z</time>
      </trkpt>
      <trkpt lat="48.89311" lon="1.8585">
        <ele>110</ele>
        <time>2024-12-16T11:39:56.986Z</time>
      </trkpt>
      <trkpt lat="48.89305" lon="1.85851">
        <ele>110</ele>
        <time>2024-12-16T11:40:01.482Z</time>
      </trkpt>
      <trkpt lat="48.89299" lon="1.85852">
        <ele>110</ele>
        <time>2024-12-16T11:40:05.855Z</time>
      </trkpt>
      <trkpt lat="48.89293" lon="1.85852">
        <ele>110</ele>
        <time>2024-12-16T11:40:10.239Z</time>
      </trkpt>
      <trkpt lat="48.89287" lon="1.85853">
        <ele>109</ele>
        <time>2024-12-16T11:40:14.538Z</time>
      </trkpt>
      <trkpt lat="48.89281" lon="1.85854">
        <ele>109</ele>
        <time>2024-12-16T11:40:18.986Z</time>
      </trkpt>
      <trkpt lat="48.89275" lon="1.85853">
        <ele>109</ele>
        <time>2024-12-16T11:40:23.339Z</time>
      </trkpt>
      <trkpt lat="48.89268" lon="1.85853">
        <ele>109</ele>
        <time>2024-12-16T11:40:27.773Z</time>
      </trkpt>
      <trkpt lat="48.89263" lon="1.85854">
        <ele>109</ele>
        <time>2024-12-16T11:40:32.259Z</time>
      </trkpt>
      <trkpt lat="48.89257" lon="1.85854">
        <ele>109</ele>
        <time>2024-12-16T11:40:36.719Z</time>
      </trkpt>
      <trkpt lat="48.89251" lon="1.85854">
        <ele>109</ele>
        <time>2024-12-16T11:40:41.155Z</time>
      </trkpt>
      <trkpt lat="48.89245" lon="1.85854">
        <ele>109</ele>
        <time>2024-12-16T11:40:45.555Z</time>
      </trkpt>
      <trkpt lat="48.89239" lon="1.85854">
        <ele>109</ele>
        <time>2024-12-16T11:40:49.991Z</time>
      </trkpt>
      <trkpt lat="48.89233" lon="1.85854">
        <ele>108</ele>
        <time>2024-12-16T11:40:54.408Z</time>
      </trkpt>
      <trkpt lat="48.89226" lon="1.85853">
        <ele>108</ele>
        <time>2024-12-16T11:40:58.928Z</time>
      </trkpt>
      <trkpt lat="48.8922" lon="1.85855">
        <ele>108</ele>
        <time>2024-12-16T11:41:03.875Z</time>
      </trkpt>
      <trkpt lat="48.89214" lon="1.85855">
        <ele>108</ele>
        <time>2024-12-16T11:41:07.933Z</time>
      </trkpt>
      <trkpt lat="48.89209" lon="1.85856">
        <ele>108</ele>
        <time>2024-12-16T11:41:12.368Z</time>
      </trkpt>
      <trkpt lat="48.89203" lon="1.85856">
        <ele>108</ele>
        <time>2024-12-16T11:41:16.470Z</time>
      </trkpt>
      <trkpt lat="48.89197" lon="1.85856">
        <ele>108</ele>
        <time>2024-12-16T11:41:20.828Z</time>
      </trkpt>
      <trkpt lat="48.89191" lon="1.85855">
        <ele>108</ele>
        <time>2024-12-16T11:41:25.253Z</time>
      </trkpt>
      <trkpt lat="48.89185" lon="1.85856">
        <ele>108</ele>
        <time>2024-12-16T11:41:29.749Z</time>
      </trkpt>
      <trkpt lat="48.89178" lon="1.85855">
        <ele>107</ele>
        <time>2024-12-16T11:41:34.627Z</time>
      </trkpt>
      <trkpt lat="48.89173" lon="1.85855">
        <ele>107</ele>
        <time>2024-12-16T11:41:38.652Z</time>
      </trkpt>
      <trkpt lat="48.89167" lon="1.85856">
        <ele>107</ele>
        <time>2024-12-16T11:41:42.986Z</time>
      </trkpt>
      <trkpt lat="48.89161" lon="1.85854">
        <ele>107</ele>
        <time>2024-12-16T11:41:47.275Z</time>
      </trkpt>
      <trkpt lat="48.89155" lon="1.85855">
        <ele>107</ele>
        <time>2024-12-16T11:41:51.692Z</time>
      </trkpt>
      <trkpt lat="48.89149" lon="1.85856">
        <ele>106</ele>
        <time>2024-12-16T11:41:56.092Z</time>
      </trkpt>
      <trkpt lat="48.89143" lon="1.85855">
        <ele>106</ele>
        <time>2024-12-16T11:42:00.434Z</time>
      </trkpt>
      <trkpt lat="48.89137" lon="1.85856">
        <ele>106</ele>
        <time>2024-12-16T11:42:04.774Z</time>
      </trkpt>
      <trkpt lat="48.8913" lon="1.85855">
        <ele>106</ele>
        <time>2024-12-16T11:42:09.293Z</time>
      </trkpt>
      <trkpt lat="48.89124" lon="1.85856">
        <ele>106</ele>
        <time>2024-12-16T11:42:13.755Z</time>
      </trkpt>
      <trkpt lat="48.89118" lon="1.85855">
        <ele>106</ele>
        <time>2024-12-16T11:42:18.160Z</time>
      </trkpt>
      <trkpt lat="48.89113" lon="1.85854">
        <ele>106</ele>
        <time>2024-12-16T11:42:22.572Z</time>
      </trkpt>
      <trkpt lat="48.89107" lon="1.85855">
        <ele>106</ele>
        <time>2024-12-16T11:42:26.987Z</time>
      </trkpt>
      <trkpt lat="48.891" lon="1.85854">
        <ele>106</ele>
        <time>2024-12-16T11:42:31.569Z</time>
      </trkpt>
      <trkpt lat="48.89094" lon="1.85854">
        <ele>107</ele>
        <time>2024-12-16T11:42:35.935Z</time>
      </trkpt>
      <trkpt lat="48.89088" lon="1.85854">
        <ele>107</ele>
        <time>2024-12-16T11:42:40.592Z</time>
      </trkpt>
      <trkpt lat="48.89082" lon="1.85853">
        <ele>107</ele>
        <time>2024-12-16T11:42:44.987Z</time>
      </trkpt>
      <trkpt lat="48.89077" lon="1.85852">
        <ele>107</ele>
        <time>2024-12-16T11:42:48.988Z</time>
      </trkpt>
      <trkpt lat="48.89072" lon="1.85854">
        <ele>107</ele>
        <time>2024-12-16T11:42:53.275Z</time>
      </trkpt>
      <trkpt lat="48.89066" lon="1.85855">
        <ele>108</ele>
        <time>2024-12-16T11:42:57.717Z</time>
      </trkpt>
      <trkpt lat="48.89061" lon="1.85855">
        <ele>108</ele>
        <time>2024-12-16T11:43:01.988Z</time>
      </trkpt>
      <trkpt lat="48.89055" lon="1.85854">
        <ele>108</ele>
        <time>2024-12-16T11:43:06.415Z</time>
      </trkpt>
      <trkpt lat="48.89049" lon="1.85854">
        <ele>108</ele>
        <time>2024-12-16T11:43:10.816Z</time>
      </trkpt>
      <trkpt lat="48.89043" lon="1.85855">
        <ele>108</ele>
        <time>2024-12-16T11:43:14.969Z</time>
      </trkpt>
      <trkpt lat="48.89036" lon="1.85854">
        <ele>109</ele>
        <time>2024-12-16T11:43:19.371Z</time>
      </trkpt>
      <trkpt lat="48.89031" lon="1.85854">
        <ele>109</ele>
        <time>2024-12-16T11:43:23.755Z</time>
      </trkpt>
      <trkpt lat="48.89024" lon="1.85854">
        <ele>109</ele>
        <time>2024-12-16T11:43:28.011Z</time>
      </trkpt>
      <trkpt lat="48.89018" lon="1.85854">
        <ele>109</ele>
        <time>2024-12-16T11:43:32.838Z</time>
      </trkpt>
      <trkpt lat="48.89012" lon="1.85855">
        <ele>109</ele>
        <time>2024-12-16T11:43:37.195Z</time>
      </trkpt>
      <trkpt lat="48.89005" lon="1.85855">
        <ele>109</ele>
        <time>2024-12-16T11:43:41.697Z</time>
      </trkpt>
      <trkpt lat="48.88999" lon="1.85856">
        <ele>109</ele>
        <time>2024-12-16T11:43:45.970Z</time>
      </trkpt>
      <trkpt lat="48.88993" lon="1.85856">
        <ele>109</ele>
        <time>2024-12-16T11:43:50.711Z</time>
      </trkpt>
      <trkpt lat="48.88987" lon="1.85858">
        <ele>109</ele>
        <time>2024-12-16T11:43:54.988Z</time>
      </trkpt>
      <trkpt lat="48.88981" lon="1.85858">
        <ele>109</ele>
        <time>2024-12-16T11:43:59.214Z</time>
      </trkpt>
      <trkpt lat="48.88975" lon="1.85858">
        <ele>109</ele>
        <time>2024-12-16T11:44:03.514Z</time>
      </trkpt>
      <trkpt lat="48.88969" lon="1.85859">
        <ele>109</ele>
        <time>2024-12-16T11:44:07.614Z</time>
      </trkpt>
      <trkpt lat="48.88963" lon="1.8586">
        <ele>109</ele>
        <time>2024-12-16T11:44:11.929Z</time>
      </trkpt>
      <trkpt lat="48.88957" lon="1.8586">
        <ele>110</ele>
        <time>2024-12-16T11:44:16.449Z</time>
      </trkpt>
      <trkpt lat="48.88951" lon="1.85861">
        <ele>110</ele>
        <time>2024-12-16T11:44:20.714Z</time>
      </trkpt>
      <trkpt lat="48.88946" lon="1.8586">
        <ele>110</ele>
        <time>2024-12-16T11:44:24.773Z</time>
      </trkpt>
      <trkpt lat="48.88935" lon="1.8586">
        <ele>110</ele>
        <time>2024-12-16T11:45:04.635Z</time>
      </trkpt>
      <trkpt lat="48.88926" lon="1.85863">
        <ele>111</ele>
        <time>2024-12-16T11:45:09.231Z</time>
      </trkpt>
      <trkpt lat="48.8892" lon="1.85864">
        <ele>111</ele>
        <time>2024-12-16T11:45:13.537Z</time>
      </trkpt>
      <trkpt lat="48.88913" lon="1.85863">
        <ele>111</ele>
        <time>2024-12-16T11:45:17.870Z</time>
      </trkpt>
      <trkpt lat="48.88907" lon="1.85864">
        <ele>111</ele>
        <time>2024-12-16T11:45:22.356Z</time>
      </trkpt>
      <trkpt lat="48.88902" lon="1.85867">
        <ele>111</ele>
        <time>2024-12-16T11:45:26.358Z</time>
      </trkpt>
      <trkpt lat="48.88897" lon="1.85869">
        <ele>111</ele>
        <time>2024-12-16T11:45:30.594Z</time>
      </trkpt>
      <trkpt lat="48.8889" lon="1.85871">
        <ele>111</ele>
        <time>2024-12-16T11:45:34.987Z</time>
      </trkpt>
      <trkpt lat="48.88884" lon="1.85874">
        <ele>111</ele>
        <time>2024-12-16T11:45:39.497Z</time>
      </trkpt>
      <trkpt lat="48.88878" lon="1.85876">
        <ele>110</ele>
        <time>2024-12-16T11:45:43.796Z</time>
      </trkpt>
      <trkpt lat="48.88871" lon="1.85878">
        <ele>108</ele>
        <time>2024-12-16T11:45:48.494Z</time>
      </trkpt>
      <trkpt lat="48.88866" lon="1.85881">
        <ele>108</ele>
        <time>2024-12-16T11:45:52.674Z</time>
      </trkpt>
      <trkpt lat="48.8886" lon="1.85882">
        <ele>108</ele>
        <time>2024-12-16T11:45:56.972Z</time>
      </trkpt>
      <trkpt lat="48.88855" lon="1.85885">
        <ele>108</ele>
        <time>2024-12-16T11:46:01.270Z</time>
      </trkpt>
      <trkpt lat="48.88848" lon="1.85887">
        <ele>108</ele>
        <time>2024-12-16T11:46:05.534Z</time>
      </trkpt>
      <trkpt lat="48.88842" lon="1.85889">
        <ele>108</ele>
        <time>2024-12-16T11:46:09.815Z</time>
      </trkpt>
      <trkpt lat="48.88836" lon="1.85891">
        <ele>108</ele>
        <time>2024-12-16T11:46:14.156Z</time>
      </trkpt>
      <trkpt lat="48.8883" lon="1.85893">
        <ele>108</ele>
        <time>2024-12-16T11:46:18.453Z</time>
      </trkpt>
      <trkpt lat="48.88824" lon="1.85895">
        <ele>108</ele>
        <time>2024-12-16T11:46:22.769Z</time>
      </trkpt>
      <trkpt lat="48.88818" lon="1.85896">
        <ele>107</ele>
        <time>2024-12-16T11:46:27.111Z</time>
      </trkpt>
      <trkpt lat="48.88812" lon="1.85898">
        <ele>107</ele>
        <time>2024-12-16T11:46:31.416Z</time>
      </trkpt>
      <trkpt lat="48.88806" lon="1.85901">
        <ele>107</ele>
        <time>2024-12-16T11:46:35.988Z</time>
      </trkpt>
      <trkpt lat="48.888" lon="1.85903">
        <ele>107</ele>
        <time>2024-12-16T11:46:40.790Z</time>
      </trkpt>
      <trkpt lat="48.88794" lon="1.85906">
        <ele>107</ele>
        <time>2024-12-16T11:46:45.071Z</time>
      </trkpt>
      <trkpt lat="48.88789" lon="1.85909">
        <ele>106</ele>
        <time>2024-12-16T11:46:49.530Z</time>
      </trkpt>
      <trkpt lat="48.88783" lon="1.85911">
        <ele>106</ele>
        <time>2024-12-16T11:46:53.957Z</time>
      </trkpt>
      <trkpt lat="48.88777" lon="1.85913">
        <ele>106</ele>
        <time>2024-12-16T11:46:58.257Z</time>
      </trkpt>
      <trkpt lat="48.88771" lon="1.85915">
        <ele>106</ele>
        <time>2024-12-16T11:47:02.749Z</time>
      </trkpt>
      <trkpt lat="48.88765" lon="1.85916">
        <ele>106</ele>
        <time>2024-12-16T11:47:07.235Z</time>
      </trkpt>
      <trkpt lat="48.88759" lon="1.85918">
        <ele>105</ele>
        <time>2024-12-16T11:47:11.669Z</time>
      </trkpt>
      <trkpt lat="48.88753" lon="1.8592">
        <ele>105</ele>
        <time>2024-12-16T11:47:15.988Z</time>
      </trkpt>
      <trkpt lat="48.88748" lon="1.85921">
        <ele>105</ele>
        <time>2024-12-16T11:47:20.334Z</time>
      </trkpt>
      <trkpt lat="48.88742" lon="1.85923">
        <ele>105</ele>
        <time>2024-12-16T11:47:24.811Z</time>
      </trkpt>
      <trkpt lat="48.88736" lon="1.85925">
        <ele>104</ele>
        <time>2024-12-16T11:47:29.152Z</time>
      </trkpt>
      <trkpt lat="48.8873" lon="1.85927">
        <ele>104</ele>
        <time>2024-12-16T11:47:33.450Z</time>
      </trkpt>
      <trkpt lat="48.88724" lon="1.8593">
        <ele>104</ele>
        <time>2024-12-16T11:47:37.877Z</time>
      </trkpt>
      <trkpt lat="48.88719" lon="1.85933">
        <ele>103</ele>
        <time>2024-12-16T11:47:42.174Z</time>
      </trkpt>
      <trkpt lat="48.88713" lon="1.85935">
        <ele>103</ele>
        <time>2024-12-16T11:47:46.678Z</time>
      </trkpt>
      <trkpt lat="48.88708" lon="1.85938">
        <ele>101</ele>
        <time>2024-12-16T11:47:50.987Z</time>
      </trkpt>
      <trkpt lat="48.88702" lon="1.85939">
        <ele>101</ele>
        <time>2024-12-16T11:47:55.411Z</time>
      </trkpt>
      <trkpt lat="48.88696" lon="1.8594">
        <ele>101</ele>
        <time>2024-12-16T11:47:59.871Z</time>
      </trkpt>
      <trkpt lat="48.8869" lon="1.85941">
        <ele>101</ele>
        <time>2024-12-16T11:48:04.356Z</time>
      </trkpt>
      <trkpt lat="48.88684" lon="1.85938">
        <ele>101</ele>
        <time>2024-12-16T11:48:08.699Z</time>
      </trkpt>
      <trkpt lat="48.88678" lon="1.85938">
        <ele>98</ele>
        <time>2024-12-16T11:48:13.243Z</time>
      </trkpt>
      <trkpt lat="48.88673" lon="1.85935">
        <ele>98</ele>
        <time>2024-12-16T11:48:17.473Z</time>
      </trkpt>
      <trkpt lat="48.88667" lon="1.85934">
        <ele>98</ele>
        <time>2024-12-16T11:48:21.831Z</time>
      </trkpt>
      <trkpt lat="48.88662" lon="1.85932">
        <ele>98</ele>
        <time>2024-12-16T11:48:26.112Z</time>
      </trkpt>
      <trkpt lat="48.88656" lon="1.85931">
        <ele>98</ele>
        <time>2024-12-16T11:48:30.469Z</time>
      </trkpt>
      <trkpt lat="48.88651" lon="1.85929">
        <ele>95</ele>
        <time>2024-12-16T11:48:34.988Z</time>
      </trkpt>
      <trkpt lat="48.88645" lon="1.85928">
        <ele>95</ele>
        <time>2024-12-16T11:48:39.418Z</time>
      </trkpt>
      <trkpt lat="48.8864" lon="1.85926">
        <ele>95</ele>
        <time>2024-12-16T11:48:43.892Z</time>
      </trkpt>
      <trkpt lat="48.88634" lon="1.85928">
        <ele>95</ele>
        <time>2024-12-16T11:48:48.335Z</time>
      </trkpt>
      <trkpt lat="48.88629" lon="1.85929">
        <ele>95</ele>
        <time>2024-12-16T11:48:52.635Z</time>
      </trkpt>
      <trkpt lat="48.88623" lon="1.85929">
        <ele>91</ele>
        <time>2024-12-16T11:48:56.873Z</time>
      </trkpt>
      <trkpt lat="48.88618" lon="1.85929">
        <ele>91</ele>
        <time>2024-12-16T11:49:01.256Z</time>
      </trkpt>
      <trkpt lat="48.88612" lon="1.85931">
        <ele>88</ele>
        <time>2024-12-16T11:49:05.690Z</time>
      </trkpt>
      <trkpt lat="48.88607" lon="1.85933">
        <ele>88</ele>
        <time>2024-12-16T11:49:09.912Z</time>
      </trkpt>
      <trkpt lat="48.88601" lon="1.85935">
        <ele>88</ele>
        <time>2024-12-16T11:49:14.116Z</time>
      </trkpt>
      <trkpt lat="48.88595" lon="1.85938">
        <ele>84</ele>
        <time>2024-12-16T11:49:18.328Z</time>
      </trkpt>
      <trkpt lat="48.88589" lon="1.8594">
        <ele>84</ele>
        <time>2024-12-16T11:49:22.575Z</time>
      </trkpt>
      <trkpt lat="48.88584" lon="1.85943">
        <ele>84</ele>
        <time>2024-12-16T11:49:26.874Z</time>
      </trkpt>
      <trkpt lat="48.88579" lon="1.85947">
        <ele>84</ele>
        <time>2024-12-16T11:49:31.113Z</time>
      </trkpt>
      <trkpt lat="48.88574" lon="1.85949">
        <ele>84</ele>
        <time>2024-12-16T11:49:35.411Z</time>
      </trkpt>
      <trkpt lat="48.88569" lon="1.85952">
        <ele>82</ele>
        <time>2024-12-16T11:49:39.692Z</time>
      </trkpt>
      <trkpt lat="48.88564" lon="1.85956">
        <ele>82</ele>
        <time>2024-12-16T11:49:43.987Z</time>
      </trkpt>
      <trkpt lat="48.88567" lon="1.85953">
        <ele>82</ele>
        <time>2024-12-16T11:51:47.987Z</time>
      </trkpt>
      <trkpt lat="48.88567" lon="1.85954">
        <ele>82</ele>
        <time>2024-12-16T11:51:52.988Z</time>
      </trkpt>
      <trkpt lat="48.88567" lon="1.85954">
        <ele>82</ele>
        <time>2024-12-16T11:51:59.987Z</time>
      </trkpt>
      <trkpt lat="48.88567" lon="1.85954">
        <ele>82</ele>
        <time>2024-12-16T11:52:03.988Z</time>
      </trkpt>
      <trkpt lat="48.88568" lon="1.8596">
        <ele>81</ele>
        <time>2024-12-16T11:52:08.392Z</time>
      </trkpt>
      <trkpt lat="48.88571" lon="1.8597">
        <ele>83</ele>
        <time>2024-12-16T11:52:12.715Z</time>
      </trkpt>
      <trkpt lat="48.88574" lon="1.8598">
        <ele>83</ele>
        <time>2024-12-16T11:52:17.116Z</time>
      </trkpt>
      <trkpt lat="48.88577" lon="1.85989">
        <ele>80</ele>
        <time>2024-12-16T11:52:21.415Z</time>
      </trkpt>
      <trkpt lat="48.88579" lon="1.85998">
        <ele>80</ele>
        <time>2024-12-16T11:52:25.695Z</time>
      </trkpt>
      <trkpt lat="48.88581" lon="1.86006">
        <ele>80</ele>
        <time>2024-12-16T11:52:29.832Z</time>
      </trkpt>
      <trkpt lat="48.88583" lon="1.86015">
        <ele>78</ele>
        <time>2024-12-16T11:52:34.190Z</time>
      </trkpt>
      <trkpt lat="48.88585" lon="1.86023">
        <ele>78</ele>
        <time>2024-12-16T11:52:38.292Z</time>
      </trkpt>
      <trkpt lat="48.88588" lon="1.86033">
        <ele>78</ele>
        <time>2024-12-16T11:52:42.991Z</time>
      </trkpt>
      <trkpt lat="48.88589" lon="1.86041">
        <ele>78</ele>
        <time>2024-12-16T11:52:46.988Z</time>
      </trkpt>
      <trkpt lat="48.88592" lon="1.86051">
        <ele>77</ele>
        <time>2024-12-16T11:52:51.417Z</time>
      </trkpt>
      <trkpt lat="48.88594" lon="1.8606">
        <ele>77</ele>
        <time>2024-12-16T11:52:55.630Z</time>
      </trkpt>
      <trkpt lat="48.88596" lon="1.8607">
        <ele>76</ele>
        <time>2024-12-16T11:52:59.835Z</time>
      </trkpt>
      <trkpt lat="48.88598" lon="1.86079">
        <ele>77</ele>
        <time>2024-12-16T11:53:04.175Z</time>
      </trkpt>
      <trkpt lat="48.88601" lon="1.86086">
        <ele>77</ele>
        <time>2024-12-16T11:53:08.535Z</time>
      </trkpt>
      <trkpt lat="48.88604" lon="1.86094">
        <ele>77</ele>
        <time>2024-12-16T11:53:12.875Z</time>
      </trkpt>
      <trkpt lat="48.88605" lon="1.86101">
        <ele>74</ele>
        <time>2024-12-16T11:53:17.276Z</time>
      </trkpt>
      <trkpt lat="48.88609" lon="1.86108">
        <ele>74</ele>
        <time>2024-12-16T11:53:21.796Z</time>
      </trkpt>
      <trkpt lat="48.88611" lon="1.86117">
        <ele>74</ele>
        <time>2024-12-16T11:53:25.988Z</time>
      </trkpt>
      <trkpt lat="48.88614" lon="1.86126">
        <ele>72</ele>
        <time>2024-12-16T11:53:30.316Z</time>
      </trkpt>
      <trkpt lat="48.88617" lon="1.86133">
        <ele>72</ele>
        <time>2024-12-16T11:53:34.988Z</time>
      </trkpt>
      <trkpt lat="48.8862" lon="1.8614">
        <ele>72</ele>
        <time>2024-12-16T11:53:39.056Z</time>
      </trkpt>
      <trkpt lat="48.88624" lon="1.86148">
        <ele>72</ele>
        <time>2024-12-16T11:53:43.912Z</time>
      </trkpt>
      <trkpt lat="48.88627" lon="1.86154">
        <ele>72</ele>
        <time>2024-12-16T11:53:48.183Z</time>
      </trkpt>
      <trkpt lat="48.88631" lon="1.86162">
        <ele>72</ele>
        <time>2024-12-16T11:53:52.712Z</time>
      </trkpt>
      <trkpt lat="48.88635" lon="1.86167">
        <ele>72</ele>
        <time>2024-12-16T11:53:56.988Z</time>
      </trkpt>
      <trkpt lat="48.88638" lon="1.86174">
        <ele>72</ele>
        <time>2024-12-16T11:54:01.752Z</time>
      </trkpt>
      <trkpt lat="48.88641" lon="1.86179">
        <ele>72</ele>
        <time>2024-12-16T11:54:05.777Z</time>
      </trkpt>
      <trkpt lat="48.88644" lon="1.86184">
        <ele>70</ele>
        <time>2024-12-16T11:54:09.956Z</time>
      </trkpt>
      <trkpt lat="48.88646" lon="1.86192">
        <ele>70</ele>
        <time>2024-12-16T11:54:14.271Z</time>
      </trkpt>
      <trkpt lat="48.88649" lon="1.86198">
        <ele>70</ele>
        <time>2024-12-16T11:54:18.553Z</time>
      </trkpt>
      <trkpt lat="48.88653" lon="1.86205">
        <ele>73</ele>
        <time>2024-12-16T11:54:22.893Z</time>
      </trkpt>
      <trkpt lat="48.88656" lon="1.86211">
        <ele>69</ele>
        <time>2024-12-16T11:54:27.251Z</time>
      </trkpt>
      <trkpt lat="48.8866" lon="1.86217">
        <ele>69</ele>
        <time>2024-12-16T11:54:31.609Z</time>
      </trkpt>
      <trkpt lat="48.88663" lon="1.86225">
        <ele>69</ele>
        <time>2024-12-16T11:54:35.976Z</time>
      </trkpt>
      <trkpt lat="48.88667" lon="1.86231">
        <ele>69</ele>
        <time>2024-12-16T11:54:40.352Z</time>
      </trkpt>
      <trkpt lat="48.8867" lon="1.86235">
        <ele>69</ele>
        <time>2024-12-16T11:54:44.517Z</time>
      </trkpt>
      <trkpt lat="48.88672" lon="1.86235">
        <ele>69</ele>
        <time>2024-12-16T11:54:49.838Z</time>
      </trkpt>
      <trkpt lat="48.88676" lon="1.86234">
        <ele>69</ele>
        <time>2024-12-16T11:54:53.934Z</time>
      </trkpt>
      <trkpt lat="48.8868" lon="1.86235">
        <ele>69</ele>
        <time>2024-12-16T11:54:57.987Z</time>
      </trkpt>
      <trkpt lat="48.88683" lon="1.86233">
        <ele>72</ele>
        <time>2024-12-16T11:55:02.636Z</time>
      </trkpt>
      <trkpt lat="48.88678" lon="1.86228">
        <ele>69</ele>
        <time>2024-12-16T12:24:42.837Z</time>
      </trkpt>
      <trkpt lat="48.88678" lon="1.86229">
        <ele>69</ele>
        <time>2024-12-16T12:24:46.988Z</time>
      </trkpt>
      <trkpt lat="48.88677" lon="1.8623">
        <ele>69</ele>
        <time>2024-12-16T12:24:50.987Z</time>
      </trkpt>
      <trkpt lat="48.88676" lon="1.86231">
        <ele>69</ele>
        <time>2024-12-16T12:24:55.557Z</time>
      </trkpt>
      <trkpt lat="48.88676" lon="1.86232">
        <ele>69</ele>
        <time>2024-12-16T12:24:59.987Z</time>
      </trkpt>
      <trkpt lat="48.88673" lon="1.86234">
        <ele>69</ele>
        <time>2024-12-16T12:25:28.987Z</time>
      </trkpt>
      <trkpt lat="48.88673" lon="1.86234">
        <ele>69</ele>
        <time>2024-12-16T12:25:37.988Z</time>
      </trkpt>
      <trkpt lat="48.8867" lon="1.8623">
        <ele>69</ele>
        <time>2024-12-16T12:25:42.988Z</time>
      </trkpt>
      <trkpt lat="48.88667" lon="1.86226">
        <ele>69</ele>
        <time>2024-12-16T12:25:47.672Z</time>
      </trkpt>
      <trkpt lat="48.88663" lon="1.86223">
        <ele>69</ele>
        <time>2024-12-16T12:25:51.716Z</time>
      </trkpt>
      <trkpt lat="48.88659" lon="1.86217">
        <ele>69</ele>
        <time>2024-12-16T12:25:55.895Z</time>
      </trkpt>
      <trkpt lat="48.88657" lon="1.86211">
        <ele>69</ele>
        <time>2024-12-16T12:25:59.973Z</time>
      </trkpt>
      <trkpt lat="48.88654" lon="1.86204">
        <ele>73</ele>
        <time>2024-12-16T12:26:04.169Z</time>
      </trkpt>
      <trkpt lat="48.88651" lon="1.86198">
        <ele>70</ele>
        <time>2024-12-16T12:26:08.656Z</time>
      </trkpt>
      <trkpt lat="48.88648" lon="1.86192">
        <ele>70</ele>
        <time>2024-12-16T12:26:12.987Z</time>
      </trkpt>
      <trkpt lat="48.88644" lon="1.86185">
        <ele>70</ele>
        <time>2024-12-16T12:26:17.470Z</time>
      </trkpt>
      <trkpt lat="48.88641" lon="1.8618">
        <ele>72</ele>
        <time>2024-12-16T12:26:21.513Z</time>
      </trkpt>
      <trkpt lat="48.88637" lon="1.86176">
        <ele>72</ele>
        <time>2024-12-16T12:26:25.988Z</time>
      </trkpt>
      <trkpt lat="48.88634" lon="1.8618">
        <ele>72</ele>
        <time>2024-12-16T12:26:30.112Z</time>
      </trkpt>
      <trkpt lat="48.8863" lon="1.86187">
        <ele>70</ele>
        <time>2024-12-16T12:26:34.471Z</time>
      </trkpt>
      <trkpt lat="48.88626" lon="1.86192">
        <ele>70</ele>
        <time>2024-12-16T12:26:38.796Z</time>
      </trkpt>
      <trkpt lat="48.8862" lon="1.86196">
        <ele>70</ele>
        <time>2024-12-16T12:26:43.036Z</time>
      </trkpt>
      <trkpt lat="48.88616" lon="1.86199">
        <ele>70</ele>
        <time>2024-12-16T12:26:47.053Z</time>
      </trkpt>
      <trkpt lat="48.88611" lon="1.86205">
        <ele>70</ele>
        <time>2024-12-16T12:26:51.550Z</time>
      </trkpt>
      <trkpt lat="48.88606" lon="1.86209">
        <ele>69</ele>
        <time>2024-12-16T12:26:55.610Z</time>
      </trkpt>
      <trkpt lat="48.88602" lon="1.86212">
        <ele>69</ele>
        <time>2024-12-16T12:26:59.927Z</time>
      </trkpt>
      <trkpt lat="48.88598" lon="1.86217">
        <ele>69</ele>
        <time>2024-12-16T12:27:04.550Z</time>
      </trkpt>
      <trkpt lat="48.88594" lon="1.86219">
        <ele>75</ele>
        <time>2024-12-16T12:27:08.988Z</time>
      </trkpt>
      <trkpt lat="48.88594" lon="1.8622">
        <ele>75</ele>
        <time>2024-12-16T12:27:13.771Z</time>
      </trkpt>
      <trkpt lat="48.88592" lon="1.86222">
        <ele>75</ele>
        <time>2024-12-16T12:27:17.988Z</time>
      </trkpt>
      <trkpt lat="48.88589" lon="1.86224">
        <ele>75</ele>
        <time>2024-12-16T12:27:22.464Z</time>
      </trkpt>
      <trkpt lat="48.88586" lon="1.86227">
        <ele>75</ele>
        <time>2024-12-16T12:27:26.987Z</time>
      </trkpt>
      <trkpt lat="48.88583" lon="1.86231">
        <ele>75</ele>
        <time>2024-12-16T12:27:31.745Z</time>
      </trkpt>
      <trkpt lat="48.8858" lon="1.86234">
        <ele>75</ele>
        <time>2024-12-16T12:27:35.987Z</time>
      </trkpt>
      <trkpt lat="48.88575" lon="1.86237">
        <ele>75</ele>
        <time>2024-12-16T12:27:40.566Z</time>
      </trkpt>
      <trkpt lat="48.88572" lon="1.86239">
        <ele>75</ele>
        <time>2024-12-16T12:27:44.585Z</time>
      </trkpt>
      <trkpt lat="48.88568" lon="1.86239">
        <ele>81</ele>
        <time>2024-12-16T12:27:48.987Z</time>
      </trkpt>
      <trkpt lat="48.88564" lon="1.86237">
        <ele>81</ele>
        <time>2024-12-16T12:27:53.669Z</time>
      </trkpt>
      <trkpt lat="48.88561" lon="1.86233">
        <ele>81</ele>
        <time>2024-12-16T12:27:57.926Z</time>
      </trkpt>
      <trkpt lat="48.88558" lon="1.8623">
        <ele>81</ele>
        <time>2024-12-16T12:28:02.566Z</time>
      </trkpt>
      <trkpt lat="48.88554" lon="1.86228">
        <ele>81</ele>
        <time>2024-12-16T12:28:06.988Z</time>
      </trkpt>
      <trkpt lat="48.88551" lon="1.86227">
        <ele>81</ele>
        <time>2024-12-16T12:28:11.711Z</time>
      </trkpt>
      <trkpt lat="48.88547" lon="1.86227">
        <ele>81</ele>
        <time>2024-12-16T12:28:15.848Z</time>
      </trkpt>
      <trkpt lat="48.88544" lon="1.86227">
        <ele>81</ele>
        <time>2024-12-16T12:28:19.866Z</time>
      </trkpt>
      <trkpt lat="48.8854" lon="1.86226">
        <ele>85</ele>
        <time>2024-12-16T12:28:24.430Z</time>
      </trkpt>
      <trkpt lat="48.88537" lon="1.86225">
        <ele>85</ele>
        <time>2024-12-16T12:28:28.644Z</time>
      </trkpt>
      <trkpt lat="48.88534" lon="1.86222">
        <ele>85</ele>
        <time>2024-12-16T12:28:32.747Z</time>
      </trkpt>
      <trkpt lat="48.8853" lon="1.86219">
        <ele>85</ele>
        <time>2024-12-16T12:28:36.986Z</time>
      </trkpt>
      <trkpt lat="48.88526" lon="1.86215">
        <ele>85</ele>
        <time>2024-12-16T12:28:41.551Z</time>
      </trkpt>
      <trkpt lat="48.88523" lon="1.86212">
        <ele>85</ele>
        <time>2024-12-16T12:28:45.706Z</time>
      </trkpt>
      <trkpt lat="48.8852" lon="1.86208">
        <ele>85</ele>
        <time>2024-12-16T12:28:50.269Z</time>
      </trkpt>
      <trkpt lat="48.88518" lon="1.86203">
        <ele>85</ele>
        <time>2024-12-16T12:28:54.671Z</time>
      </trkpt>
      <trkpt lat="48.88516" lon="1.86197">
        <ele>85</ele>
        <time>2024-12-16T12:28:58.868Z</time>
      </trkpt>
      <trkpt lat="48.88515" lon="1.86192">
        <ele>85</ele>
        <time>2024-12-16T12:29:02.987Z</time>
      </trkpt>
      <trkpt lat="48.88515" lon="1.8619">
        <ele>85</ele>
        <time>2024-12-16T12:29:07.330Z</time>
      </trkpt>
      <trkpt lat="48.88512" lon="1.86184">
        <ele>89</ele>
        <time>2024-12-16T12:29:11.927Z</time>
      </trkpt>
      <trkpt lat="48.88508" lon="1.8618">
        <ele>89</ele>
        <time>2024-12-16T12:29:16.372Z</time>
      </trkpt>
      <trkpt lat="48.88504" lon="1.86176">
        <ele>89</ele>
        <time>2024-12-16T12:29:20.886Z</time>
      </trkpt>
      <trkpt lat="48.885" lon="1.86174">
        <ele>89</ele>
        <time>2024-12-16T12:29:25.312Z</time>
      </trkpt>
      <trkpt lat="48.88496" lon="1.86174">
        <ele>89</ele>
        <time>2024-12-16T12:29:29.688Z</time>
      </trkpt>
      <trkpt lat="48.88492" lon="1.86175">
        <ele>89</ele>
        <time>2024-12-16T12:29:33.749Z</time>
      </trkpt>
      <trkpt lat="48.88487" lon="1.86176">
        <ele>89</ele>
        <time>2024-12-16T12:29:38.586Z</time>
      </trkpt>
      <trkpt lat="48.88482" lon="1.86177">
        <ele>91</ele>
        <time>2024-12-16T12:29:42.850Z</time>
      </trkpt>
      <trkpt lat="48.88477" lon="1.86178">
        <ele>91</ele>
        <time>2024-12-16T12:29:47.252Z</time>
      </trkpt>
      <trkpt lat="48.88472" lon="1.86179">
        <ele>91</ele>
        <time>2024-12-16T12:29:51.791Z</time>
      </trkpt>
      <trkpt lat="48.8847" lon="1.86182">
        <ele>93</ele>
        <time>2024-12-16T12:29:55.987Z</time>
      </trkpt>
      <trkpt lat="48.88465" lon="1.86183">
        <ele>93</ele>
        <time>2024-12-16T12:30:00.849Z</time>
      </trkpt>
      <trkpt lat="48.8846" lon="1.86183">
        <ele>93</ele>
        <time>2024-12-16T12:30:05.670Z</time>
      </trkpt>
      <trkpt lat="48.88456" lon="1.86184">
        <ele>96</ele>
        <time>2024-12-16T12:30:09.987Z</time>
      </trkpt>
      <trkpt lat="48.88452" lon="1.86185">
        <ele>96</ele>
        <time>2024-12-16T12:30:14.669Z</time>
      </trkpt>
      <trkpt lat="48.88448" lon="1.86186">
        <ele>96</ele>
        <time>2024-12-16T12:30:18.866Z</time>
      </trkpt>
      <trkpt lat="48.88444" lon="1.86187">
        <ele>96</ele>
        <time>2024-12-16T12:30:22.986Z</time>
      </trkpt>
      <trkpt lat="48.8844" lon="1.86187">
        <ele>96</ele>
        <time>2024-12-16T12:30:27.208Z</time>
      </trkpt>
      <trkpt lat="48.88436" lon="1.86186">
        <ele>96</ele>
        <time>2024-12-16T12:30:31.790Z</time>
      </trkpt>
      <trkpt lat="48.88435" lon="1.8619">
        <ele>96</ele>
        <time>2024-12-16T12:30:35.987Z</time>
      </trkpt>
      <trkpt lat="48.88436" lon="1.86194">
        <ele>96</ele>
        <time>2024-12-16T12:30:44.986Z</time>
      </trkpt>
      <trkpt lat="48.88437" lon="1.86195">
        <ele>96</ele>
        <time>2024-12-16T12:30:49.986Z</time>
      </trkpt>
      <trkpt lat="48.88437" lon="1.86194">
        <ele>96</ele>
        <time>2024-12-16T12:30:55.432Z</time>
      </trkpt>
      <trkpt lat="48.88433" lon="1.86189">
        <ele>96</ele>
        <time>2024-12-16T12:30:59.706Z</time>
      </trkpt>
      <trkpt lat="48.88425" lon="1.86189">
        <ele>99</ele>
        <time>2024-12-16T12:31:03.987Z</time>
      </trkpt>
      <trkpt lat="48.88419" lon="1.86192">
        <ele>99</ele>
        <time>2024-12-16T12:31:08.244Z</time>
      </trkpt>
      <trkpt lat="48.88413" lon="1.86193">
        <ele>99</ele>
        <time>2024-12-16T12:31:12.485Z</time>
      </trkpt>
      <trkpt lat="48.88408" lon="1.86194">
        <ele>99</ele>
        <time>2024-12-16T12:31:16.929Z</time>
      </trkpt>
      <trkpt lat="48.88403" lon="1.86192">
        <ele>99</ele>
        <time>2024-12-16T12:31:20.986Z</time>
      </trkpt>
      <trkpt lat="48.884" lon="1.86187">
        <ele>102</ele>
        <time>2024-12-16T12:31:25.452Z</time>
      </trkpt>
      <trkpt lat="48.88399" lon="1.8618">
        <ele>102</ele>
        <time>2024-12-16T12:31:29.512Z</time>
      </trkpt>
      <trkpt lat="48.884" lon="1.86174">
        <ele>102</ele>
        <time>2024-12-16T12:31:33.666Z</time>
      </trkpt>
      <trkpt lat="48.88398" lon="1.86168">
        <ele>102</ele>
        <time>2024-12-16T12:31:37.770Z</time>
      </trkpt>
      <trkpt lat="48.88392" lon="1.86164">
        <ele>102</ele>
        <time>2024-12-16T12:31:41.787Z</time>
      </trkpt>
      <trkpt lat="48.88387" lon="1.86165">
        <ele>102</ele>
        <time>2024-12-16T12:31:45.864Z</time>
      </trkpt>
      <trkpt lat="48.88382" lon="1.86166">
        <ele>102</ele>
        <time>2024-12-16T12:31:49.892Z</time>
      </trkpt>
      <trkpt lat="48.88377" lon="1.86167">
        <ele>102</ele>
        <time>2024-12-16T12:31:53.986Z</time>
      </trkpt>
      <trkpt lat="48.88372" lon="1.86166">
        <ele>108</ele>
        <time>2024-12-16T12:31:57.987Z</time>
      </trkpt>
      <trkpt lat="48.88367" lon="1.86165">
        <ele>108</ele>
        <time>2024-12-16T12:32:02.161Z</time>
      </trkpt>
      <trkpt lat="48.88361" lon="1.86165">
        <ele>108</ele>
        <time>2024-12-16T12:32:06.791Z</time>
      </trkpt>
      <trkpt lat="48.88357" lon="1.86164">
        <ele>108</ele>
        <time>2024-12-16T12:32:10.885Z</time>
      </trkpt>
      <trkpt lat="48.88358" lon="1.8617">
        <ele>108</ele>
        <time>2024-12-16T12:32:15.986Z</time>
      </trkpt>
      <trkpt lat="48.88351" lon="1.86167">
        <ele>108</ele>
        <time>2024-12-16T12:32:20.209Z</time>
      </trkpt>
      <trkpt lat="48.88347" lon="1.86167">
        <ele>110</ele>
        <time>2024-12-16T12:32:24.747Z</time>
      </trkpt>
      <trkpt lat="48.8834" lon="1.86164">
        <ele>110</ele>
        <time>2024-12-16T12:32:28.987Z</time>
      </trkpt>
      <trkpt lat="48.88334" lon="1.86155">
        <ele>110</ele>
        <time>2024-12-16T12:32:32.987Z</time>
      </trkpt>
      <trkpt lat="48.88331" lon="1.86145">
        <ele>111</ele>
        <time>2024-12-16T12:32:37.611Z</time>
      </trkpt>
      <trkpt lat="48.88328" lon="1.86139">
        <ele>111</ele>
        <time>2024-12-16T12:32:41.986Z</time>
      </trkpt>
      <trkpt lat="48.88325" lon="1.86133">
        <ele>111</ele>
        <time>2024-12-16T12:32:46.714Z</time>
      </trkpt>
      <trkpt lat="48.88325" lon="1.86131">
        <ele>111</ele>
        <time>2024-12-16T12:32:50.987Z</time>
      </trkpt>
      <trkpt lat="48.88325" lon="1.86132">
        <ele>111</ele>
        <time>2024-12-16T12:32:56.986Z</time>
      </trkpt>
      <trkpt lat="48.88321" lon="1.86134">
        <ele>111</ele>
        <time>2024-12-16T12:33:01.568Z</time>
      </trkpt>
      <trkpt lat="48.88315" lon="1.86137">
        <ele>113</ele>
        <time>2024-12-16T12:33:05.986Z</time>
      </trkpt>
      <trkpt lat="48.8831" lon="1.86139">
        <ele>113</ele>
        <time>2024-12-16T12:33:10.986Z</time>
      </trkpt>
      <trkpt lat="48.88309" lon="1.86139">
        <ele>113</ele>
        <time>2024-12-16T12:33:15.926Z</time>
      </trkpt>
      <trkpt lat="48.88305" lon="1.86144">
        <ele>113</ele>
        <time>2024-12-16T12:33:20.404Z</time>
      </trkpt>
      <trkpt lat="48.88302" lon="1.86148">
        <ele>113</ele>
        <time>2024-12-16T12:33:24.951Z</time>
      </trkpt>
      <trkpt lat="48.8829" lon="1.86148">
        <ele>114</ele>
        <time>2024-12-16T12:33:42.987Z</time>
      </trkpt>
      <trkpt lat="48.88286" lon="1.86151">
        <ele>114</ele>
        <time>2024-12-16T12:33:47.745Z</time>
      </trkpt>
      <trkpt lat="48.8828" lon="1.86155">
        <ele>114</ele>
        <time>2024-12-16T12:33:51.986Z</time>
      </trkpt>
      <trkpt lat="48.88274" lon="1.86158">
        <ele>114</ele>
        <time>2024-12-16T12:33:56.208Z</time>
      </trkpt>
      <trkpt lat="48.88269" lon="1.8616">
        <ele>114</ele>
        <time>2024-12-16T12:34:00.387Z</time>
      </trkpt>
      <trkpt lat="48.88263" lon="1.86163">
        <ele>113</ele>
        <time>2024-12-16T12:34:04.595Z</time>
      </trkpt>
      <trkpt lat="48.88258" lon="1.86165">
        <ele>113</ele>
        <time>2024-12-16T12:34:08.910Z</time>
      </trkpt>
      <trkpt lat="48.88253" lon="1.86166">
        <ele>113</ele>
        <time>2024-12-16T12:34:13.149Z</time>
      </trkpt>
      <trkpt lat="48.88248" lon="1.8616">
        <ele>113</ele>
        <time>2024-12-16T12:34:17.816Z</time>
      </trkpt>
      <trkpt lat="48.88247" lon="1.86156">
        <ele>113</ele>
        <time>2024-12-16T12:34:21.987Z</time>
      </trkpt>
      <trkpt lat="48.88243" lon="1.86154">
        <ele>113</ele>
        <time>2024-12-16T12:34:26.333Z</time>
      </trkpt>
      <trkpt lat="48.88237" lon="1.86154">
        <ele>113</ele>
        <time>2024-12-16T12:34:30.725Z</time>
      </trkpt>
      <trkpt lat="48.88235" lon="1.86156">
        <ele>114</ele>
        <time>2024-12-16T12:34:34.987Z</time>
      </trkpt>
      <trkpt lat="48.88235" lon="1.86159">
        <ele>114</ele>
        <time>2024-12-16T12:34:44.986Z</time>
      </trkpt>
      <trkpt lat="48.88235" lon="1.86159">
        <ele>114</ele>
        <time>2024-12-16T12:34:49.986Z</time>
      </trkpt>
      <trkpt lat="48.88232" lon="1.86163">
        <ele>114</ele>
        <time>2024-12-16T12:34:54.987Z</time>
      </trkpt>
      <trkpt lat="48.88229" lon="1.86163">
        <ele>114</ele>
        <time>2024-12-16T12:34:59.090Z</time>
      </trkpt>
      <trkpt lat="48.88224" lon="1.86161">
        <ele>114</ele>
        <time>2024-12-16T12:35:03.987Z</time>
      </trkpt>
      <trkpt lat="48.88221" lon="1.86155">
        <ele>114</ele>
        <time>2024-12-16T12:35:08.986Z</time>
      </trkpt>
      <trkpt lat="48.88219" lon="1.86146">
        <ele>115</ele>
        <time>2024-12-16T12:35:13.626Z</time>
      </trkpt>
      <trkpt lat="48.88218" lon="1.86138">
        <ele>115</ele>
        <time>2024-12-16T12:35:17.986Z</time>
      </trkpt>
      <trkpt lat="48.88213" lon="1.86138">
        <ele>115</ele>
        <time>2024-12-16T12:35:23.009Z</time>
      </trkpt>
      <trkpt lat="48.8821" lon="1.86143">
        <ele>115</ele>
        <time>2024-12-16T12:35:27.386Z</time>
      </trkpt>
      <trkpt lat="48.88207" lon="1.86148">
        <ele>117</ele>
        <time>2024-12-16T12:35:31.812Z</time>
      </trkpt>
      <trkpt lat="48.88202" lon="1.86152">
        <ele>117</ele>
        <time>2024-12-16T12:35:36.231Z</time>
      </trkpt>
      <trkpt lat="48.88198" lon="1.86154">
        <ele>117</ele>
        <time>2024-12-16T12:35:40.292Z</time>
      </trkpt>
      <trkpt lat="48.88192" lon="1.86157">
        <ele>117</ele>
        <time>2024-12-16T12:35:44.770Z</time>
      </trkpt>
      <trkpt lat="48.88187" lon="1.86156">
        <ele>117</ele>
        <time>2024-12-16T12:35:48.831Z</time>
      </trkpt>
      <trkpt lat="48.88186" lon="1.86161">
        <ele>117</ele>
        <time>2024-12-16T12:35:52.967Z</time>
      </trkpt>
      <trkpt lat="48.88187" lon="1.86167">
        <ele>117</ele>
        <time>2024-12-16T12:35:56.987Z</time>
      </trkpt>
      <trkpt lat="48.88189" lon="1.86173">
        <ele>117</ele>
        <time>2024-12-16T12:36:01.344Z</time>
      </trkpt>
      <trkpt lat="48.88191" lon="1.8618">
        <ele>117</ele>
        <time>2024-12-16T12:36:05.893Z</time>
      </trkpt>
      <trkpt lat="48.88193" lon="1.86187">
        <ele>116</ele>
        <time>2024-12-16T12:36:10.430Z</time>
      </trkpt>
      <trkpt lat="48.88193" lon="1.86193">
        <ele>116</ele>
        <time>2024-12-16T12:36:14.712Z</time>
      </trkpt>
      <trkpt lat="48.8819" lon="1.86197">
        <ele>116</ele>
        <time>2024-12-16T12:36:18.791Z</time>
      </trkpt>
      <trkpt lat="48.88185" lon="1.86201">
        <ele>116</ele>
        <time>2024-12-16T12:36:23.267Z</time>
      </trkpt>
      <trkpt lat="48.88181" lon="1.86206">
        <ele>116</ele>
        <time>2024-12-16T12:36:27.668Z</time>
      </trkpt>
      <trkpt lat="48.88177" lon="1.86209">
        <ele>117</ele>
        <time>2024-12-16T12:36:31.986Z</time>
      </trkpt>
      <trkpt lat="48.88172" lon="1.86214">
        <ele>117</ele>
        <time>2024-12-16T12:36:36.472Z</time>
      </trkpt>
      <trkpt lat="48.88167" lon="1.86219">
        <ele>117</ele>
        <time>2024-12-16T12:36:40.804Z</time>
      </trkpt>
      <trkpt lat="48.88163" lon="1.86223">
        <ele>117</ele>
        <time>2024-12-16T12:36:45.249Z</time>
      </trkpt>
      <trkpt lat="48.88159" lon="1.86227">
        <ele>117</ele>
        <time>2024-12-16T12:36:49.684Z</time>
      </trkpt>
      <trkpt lat="48.88155" lon="1.86231">
        <ele>117</ele>
        <time>2024-12-16T12:36:53.986Z</time>
      </trkpt>
      <trkpt lat="48.8815" lon="1.86235">
        <ele>116</ele>
        <time>2024-12-16T12:36:58.564Z</time>
      </trkpt>
      <trkpt lat="48.88146" lon="1.86229">
        <ele>116</ele>
        <time>2024-12-16T12:37:02.668Z</time>
      </trkpt>
      <trkpt lat="48.88144" lon="1.86223">
        <ele>116</ele>
        <time>2024-12-16T12:37:06.986Z</time>
      </trkpt>
      <trkpt lat="48.88141" lon="1.86216">
        <ele>116</ele>
        <time>2024-12-16T12:37:11.564Z</time>
      </trkpt>
      <trkpt lat="48.88139" lon="1.8621">
        <ele>116</ele>
        <time>2024-12-16T12:37:16.068Z</time>
      </trkpt>
      <trkpt lat="48.88134" lon="1.86212">
        <ele>116</ele>
        <time>2024-12-16T12:37:20.606Z</time>
      </trkpt>
      <trkpt lat="48.88131" lon="1.86216">
        <ele>116</ele>
        <time>2024-12-16T12:37:24.949Z</time>
      </trkpt>
      <trkpt lat="48.88126" lon="1.8622">
        <ele>116</ele>
        <time>2024-12-16T12:37:29.392Z</time>
      </trkpt>
      <trkpt lat="48.88121" lon="1.86225">
        <ele>116</ele>
        <time>2024-12-16T12:37:33.786Z</time>
      </trkpt>
      <trkpt lat="48.88116" lon="1.86228">
        <ele>116</ele>
        <time>2024-12-16T12:37:38.187Z</time>
      </trkpt>
      <trkpt lat="48.88111" lon="1.86232">
        <ele>116</ele>
        <time>2024-12-16T12:37:42.647Z</time>
      </trkpt>
      <trkpt lat="48.88106" lon="1.86236">
        <ele>116</ele>
        <time>2024-12-16T12:37:47.093Z</time>
      </trkpt>
      <trkpt lat="48.88101" lon="1.86241">
        <ele>115</ele>
        <time>2024-12-16T12:37:51.512Z</time>
      </trkpt>
      <trkpt lat="48.88096" lon="1.86246">
        <ele>116</ele>
        <time>2024-12-16T12:37:55.972Z</time>
      </trkpt>
      <trkpt lat="48.88092" lon="1.86249">
        <ele>116</ele>
        <time>2024-12-16T12:37:59.987Z</time>
      </trkpt>
      <trkpt lat="48.88087" lon="1.86251">
        <ele>116</ele>
        <time>2024-12-16T12:38:04.570Z</time>
      </trkpt>
      <trkpt lat="48.88082" lon="1.86255">
        <ele>116</ele>
        <time>2024-12-16T12:38:08.986Z</time>
      </trkpt>
      <trkpt lat="48.88078" lon="1.86259">
        <ele>116</ele>
        <time>2024-12-16T12:38:13.092Z</time>
      </trkpt>
      <trkpt lat="48.88072" lon="1.86263">
        <ele>116</ele>
        <time>2024-12-16T12:38:17.647Z</time>
      </trkpt>
      <trkpt lat="48.88067" lon="1.86268">
        <ele>117</ele>
        <time>2024-12-16T12:38:22.271Z</time>
      </trkpt>
      <trkpt lat="48.88062" lon="1.86273">
        <ele>117</ele>
        <time>2024-12-16T12:38:26.629Z</time>
      </trkpt>
      <trkpt lat="48.88057" lon="1.86278">
        <ele>117</ele>
        <time>2024-12-16T12:38:31.090Z</time>
      </trkpt>
      <trkpt lat="48.88053" lon="1.86284">
        <ele>117</ele>
        <time>2024-12-16T12:38:35.585Z</time>
      </trkpt>
      <trkpt lat="48.88048" lon="1.86289">
        <ele>117</ele>
        <time>2024-12-16T12:38:39.629Z</time>
      </trkpt>
      <trkpt lat="48.88042" lon="1.86295">
        <ele>116</ele>
        <time>2024-12-16T12:38:43.986Z</time>
      </trkpt>
      <trkpt lat="48.88038" lon="1.86301">
        <ele>118</ele>
        <time>2024-12-16T12:38:48.551Z</time>
      </trkpt>
      <trkpt lat="48.88032" lon="1.86303">
        <ele>118</ele>
        <time>2024-12-16T12:38:53.166Z</time>
      </trkpt>
      <trkpt lat="48.88027" lon="1.86307">
        <ele>118</ele>
        <time>2024-12-16T12:38:57.772Z</time>
      </trkpt>
      <trkpt lat="48.88021" lon="1.8631">
        <ele>118</ele>
        <time>2024-12-16T12:39:02.267Z</time>
      </trkpt>
      <trkpt lat="48.88015" lon="1.86315">
        <ele>118</ele>
        <time>2024-12-16T12:39:06.771Z</time>
      </trkpt>
      <trkpt lat="48.88011" lon="1.86318">
        <ele>119</ele>
        <time>2024-12-16T12:39:11.352Z</time>
      </trkpt>
      <trkpt lat="48.88005" lon="1.86321">
        <ele>119</ele>
        <time>2024-12-16T12:39:15.907Z</time>
      </trkpt>
      <trkpt lat="48.88" lon="1.86325">
        <ele>119</ele>
        <time>2024-12-16T12:39:20.531Z</time>
      </trkpt>
      <trkpt lat="48.87995" lon="1.86327">
        <ele>119</ele>
        <time>2024-12-16T12:39:24.710Z</time>
      </trkpt>
      <trkpt lat="48.8799" lon="1.8633">
        <ele>119</ele>
        <time>2024-12-16T12:39:28.874Z</time>
      </trkpt>
      <trkpt lat="48.87985" lon="1.86334">
        <ele>117</ele>
        <time>2024-12-16T12:39:33.393Z</time>
      </trkpt>
      <trkpt lat="48.8798" lon="1.86337">
        <ele>117</ele>
        <time>2024-12-16T12:39:37.752Z</time>
      </trkpt>
      <trkpt lat="48.87975" lon="1.86338">
        <ele>117</ele>
        <time>2024-12-16T12:39:41.986Z</time>
      </trkpt>
      <trkpt lat="48.8797" lon="1.86338">
        <ele>117</ele>
        <time>2024-12-16T12:39:46.052Z</time>
      </trkpt>
      <trkpt lat="48.87964" lon="1.86338">
        <ele>117</ele>
        <time>2024-12-16T12:39:50.486Z</time>
      </trkpt>
      <trkpt lat="48.87958" lon="1.86338">
        <ele>116</ele>
        <time>2024-12-16T12:39:54.986Z</time>
      </trkpt>
      <trkpt lat="48.87953" lon="1.86338">
        <ele>116</ele>
        <time>2024-12-16T12:39:59.213Z</time>
      </trkpt>
      <trkpt lat="48.87949" lon="1.86338">
        <ele>116</ele>
        <time>2024-12-16T12:40:03.631Z</time>
      </trkpt>
      <trkpt lat="48.87947" lon="1.86338">
        <ele>116</ele>
        <time>2024-12-16T12:40:07.709Z</time>
      </trkpt>
      <trkpt lat="48.87943" lon="1.86337">
        <ele>116</ele>
        <time>2024-12-16T12:40:12.110Z</time>
      </trkpt>
      <trkpt lat="48.87939" lon="1.86341">
        <ele>116</ele>
        <time>2024-12-16T12:40:16.409Z</time>
      </trkpt>
      <trkpt lat="48.87935" lon="1.86345">
        <ele>116</ele>
        <time>2024-12-16T12:40:20.987Z</time>
      </trkpt>
      <trkpt lat="48.8793" lon="1.8635">
        <ele>114</ele>
        <time>2024-12-16T12:40:25.510Z</time>
      </trkpt>
      <trkpt lat="48.87925" lon="1.86353">
        <ele>114</ele>
        <time>2024-12-16T12:40:29.886Z</time>
      </trkpt>
      <trkpt lat="48.87919" lon="1.86357">
        <ele>114</ele>
        <time>2024-12-16T12:40:34.288Z</time>
      </trkpt>
      <trkpt lat="48.87914" lon="1.86361">
        <ele>114</ele>
        <time>2024-12-16T12:40:38.629Z</time>
      </trkpt>
      <trkpt lat="48.87909" lon="1.86363">
        <ele>114</ele>
        <time>2024-12-16T12:40:42.928Z</time>
      </trkpt>
      <trkpt lat="48.87904" lon="1.86366">
        <ele>114</ele>
        <time>2024-12-16T12:40:46.973Z</time>
      </trkpt>
      <trkpt lat="48.87898" lon="1.86369">
        <ele>114</ele>
        <time>2024-12-16T12:40:51.304Z</time>
      </trkpt>
      <trkpt lat="48.87893" lon="1.86372">
        <ele>114</ele>
        <time>2024-12-16T12:40:55.409Z</time>
      </trkpt>
      <trkpt lat="48.87887" lon="1.86376">
        <ele>113</ele>
        <time>2024-12-16T12:40:59.672Z</time>
      </trkpt>
      <trkpt lat="48.87882" lon="1.86379">
        <ele>113</ele>
        <time>2024-12-16T12:41:03.827Z</time>
      </trkpt>
      <trkpt lat="48.87876" lon="1.86382">
        <ele>113</ele>
        <time>2024-12-16T12:41:08.048Z</time>
      </trkpt>
      <trkpt lat="48.87871" lon="1.86387">
        <ele>112</ele>
        <time>2024-12-16T12:41:12.288Z</time>
      </trkpt>
      <trkpt lat="48.87866" lon="1.8639">
        <ele>112</ele>
        <time>2024-12-16T12:41:16.587Z</time>
      </trkpt>
      <trkpt lat="48.8786" lon="1.86394">
        <ele>112</ele>
        <time>2024-12-16T12:41:20.809Z</time>
      </trkpt>
      <trkpt lat="48.87855" lon="1.86398">
        <ele>112</ele>
        <time>2024-12-16T12:41:24.971Z</time>
      </trkpt>
      <trkpt lat="48.8785" lon="1.86401">
        <ele>112</ele>
        <time>2024-12-16T12:41:29.185Z</time>
      </trkpt>
      <trkpt lat="48.87845" lon="1.86406">
        <ele>110</ele>
        <time>2024-12-16T12:41:33.348Z</time>
      </trkpt>
      <trkpt lat="48.87839" lon="1.86409">
        <ele>110</ele>
        <time>2024-12-16T12:41:37.630Z</time>
      </trkpt>
      <trkpt lat="48.87833" lon="1.86411">
        <ele>110</ele>
        <time>2024-12-16T12:41:41.751Z</time>
      </trkpt>
      <trkpt lat="48.87828" lon="1.86415">
        <ele>110</ele>
        <time>2024-12-16T12:41:46.091Z</time>
      </trkpt>
      <trkpt lat="48.87822" lon="1.86419">
        <ele>110</ele>
        <time>2024-12-16T12:41:50.390Z</time>
      </trkpt>
      <trkpt lat="48.87817" lon="1.86423">
        <ele>109</ele>
        <time>2024-12-16T12:41:54.707Z</time>
      </trkpt>
      <trkpt lat="48.87811" lon="1.86426">
        <ele>109</ele>
        <time>2024-12-16T12:41:59.023Z</time>
      </trkpt>
      <trkpt lat="48.87805" lon="1.86428">
        <ele>109</ele>
        <time>2024-12-16T12:42:03.543Z</time>
      </trkpt>
      <trkpt lat="48.87798" lon="1.86432">
        <ele>106</ele>
        <time>2024-12-16T12:42:07.825Z</time>
      </trkpt>
      <trkpt lat="48.87792" lon="1.86434">
        <ele>106</ele>
        <time>2024-12-16T12:42:12.226Z</time>
      </trkpt>
      <trkpt lat="48.87786" lon="1.86436">
        <ele>103</ele>
        <time>2024-12-16T12:42:16.663Z</time>
      </trkpt>
      <trkpt lat="48.87781" lon="1.8644">
        <ele>103</ele>
        <time>2024-12-16T12:42:21.164Z</time>
      </trkpt>
      <trkpt lat="48.87775" lon="1.86444">
        <ele>103</ele>
        <time>2024-12-16T12:42:25.609Z</time>
      </trkpt>
      <trkpt lat="48.8777" lon="1.86446">
        <ele>103</ele>
        <time>2024-12-16T12:42:29.747Z</time>
      </trkpt>
      <trkpt lat="48.87765" lon="1.86449">
        <ele>103</ele>
        <time>2024-12-16T12:42:34.163Z</time>
      </trkpt>
      <trkpt lat="48.8776" lon="1.86452">
        <ele>100</ele>
        <time>2024-12-16T12:42:38.549Z</time>
      </trkpt>
      <trkpt lat="48.87755" lon="1.86455">
        <ele>100</ele>
        <time>2024-12-16T12:42:42.566Z</time>
      </trkpt>
      <trkpt lat="48.8775" lon="1.86458">
        <ele>98</ele>
        <time>2024-12-16T12:42:47.064Z</time>
      </trkpt>
      <trkpt lat="48.87746" lon="1.8646">
        <ele>98</ele>
        <time>2024-12-16T12:42:51.182Z</time>
      </trkpt>
      <trkpt lat="48.87741" lon="1.86458">
        <ele>100</ele>
        <time>2024-12-16T12:42:55.545Z</time>
      </trkpt>
      <trkpt lat="48.87737" lon="1.86463">
        <ele>98</ele>
        <time>2024-12-16T12:42:59.623Z</time>
      </trkpt>
      <trkpt lat="48.87731" lon="1.86466">
        <ele>95</ele>
        <time>2024-12-16T12:43:03.987Z</time>
      </trkpt>
      <trkpt lat="48.87726" lon="1.86469">
        <ele>95</ele>
        <time>2024-12-16T12:43:08.445Z</time>
      </trkpt>
      <trkpt lat="48.8772" lon="1.86474">
        <ele>95</ele>
        <time>2024-12-16T12:43:12.827Z</time>
      </trkpt>
      <trkpt lat="48.87715" lon="1.86477">
        <ele>95</ele>
        <time>2024-12-16T12:43:16.933Z</time>
      </trkpt>
      <trkpt lat="48.8771" lon="1.86479">
        <ele>95</ele>
        <time>2024-12-16T12:43:20.987Z</time>
      </trkpt>
      <trkpt lat="48.87705" lon="1.86483">
        <ele>91</ele>
        <time>2024-12-16T12:43:26.018Z</time>
      </trkpt>
      <trkpt lat="48.877" lon="1.86487">
        <ele>90</ele>
        <time>2024-12-16T12:43:30.569Z</time>
      </trkpt>
      <trkpt lat="48.87695" lon="1.8649">
        <ele>90</ele>
        <time>2024-12-16T12:43:34.987Z</time>
      </trkpt>
      <trkpt lat="48.87689" lon="1.86494">
        <ele>90</ele>
        <time>2024-12-16T12:43:39.525Z</time>
      </trkpt>
      <trkpt lat="48.87683" lon="1.86498">
        <ele>90</ele>
        <time>2024-12-16T12:43:43.944Z</time>
      </trkpt>
      <trkpt lat="48.87678" lon="1.86502">
        <ele>88</ele>
        <time>2024-12-16T12:43:48.425Z</time>
      </trkpt>
      <trkpt lat="48.87673" lon="1.86505">
        <ele>88</ele>
        <time>2024-12-16T12:43:52.687Z</time>
      </trkpt>
      <trkpt lat="48.87667" lon="1.86509">
        <ele>88</ele>
        <time>2024-12-16T12:43:56.986Z</time>
      </trkpt>
      <trkpt lat="48.87661" lon="1.86514">
        <ele>87</ele>
        <time>2024-12-16T12:44:01.626Z</time>
      </trkpt>
      <trkpt lat="48.87656" lon="1.86517">
        <ele>87</ele>
        <time>2024-12-16T12:44:05.968Z</time>
      </trkpt>
      <trkpt lat="48.87651" lon="1.86519">
        <ele>84</ele>
        <time>2024-12-16T12:44:10.250Z</time>
      </trkpt>
      <trkpt lat="48.87645" lon="1.86516">
        <ele>84</ele>
        <time>2024-12-16T12:44:14.609Z</time>
      </trkpt>
      <trkpt lat="48.87641" lon="1.86509">
        <ele>86</ele>
        <time>2024-12-16T12:44:18.789Z</time>
      </trkpt>
      <trkpt lat="48.87638" lon="1.86503">
        <ele>86</ele>
        <time>2024-12-16T12:44:22.823Z</time>
      </trkpt>
      <trkpt lat="48.87635" lon="1.86495">
        <ele>86</ele>
        <time>2024-12-16T12:44:26.968Z</time>
      </trkpt>
      <trkpt lat="48.87633" lon="1.86487">
        <ele>86</ele>
        <time>2024-12-16T12:44:31.155Z</time>
      </trkpt>
      <trkpt lat="48.8763" lon="1.8648">
        <ele>90</ele>
        <time>2024-12-16T12:44:35.329Z</time>
      </trkpt>
      <trkpt lat="48.87628" lon="1.86472">
        <ele>90</ele>
        <time>2024-12-16T12:44:39.703Z</time>
      </trkpt>
      <trkpt lat="48.87625" lon="1.86465">
        <ele>90</ele>
        <time>2024-12-16T12:44:43.987Z</time>
      </trkpt>
      <trkpt lat="48.87624" lon="1.86458">
        <ele>91</ele>
        <time>2024-12-16T12:44:48.387Z</time>
      </trkpt>
      <trkpt lat="48.87622" lon="1.8645">
        <ele>91</ele>
        <time>2024-12-16T12:44:52.549Z</time>
      </trkpt>
      <trkpt lat="48.87621" lon="1.86445">
        <ele>91</ele>
        <time>2024-12-16T12:44:56.865Z</time>
      </trkpt>
      <trkpt lat="48.87619" lon="1.86439">
        <ele>91</ele>
        <time>2024-12-16T12:45:00.986Z</time>
      </trkpt>
      <trkpt lat="48.87617" lon="1.86432">
        <ele>91</ele>
        <time>2024-12-16T12:45:05.625Z</time>
      </trkpt>
      <trkpt lat="48.87615" lon="1.86427">
        <ele>93</ele>
        <time>2024-12-16T12:45:09.986Z</time>
      </trkpt>
      <trkpt lat="48.87613" lon="1.86421">
        <ele>93</ele>
        <time>2024-12-16T12:45:14.727Z</time>
      </trkpt>
      <trkpt lat="48.87611" lon="1.86414">
        <ele>93</ele>
        <time>2024-12-16T12:45:18.965Z</time>
      </trkpt>
      <trkpt lat="48.87609" lon="1.86408">
        <ele>93</ele>
        <time>2024-12-16T12:45:23.248Z</time>
      </trkpt>
      <trkpt lat="48.87607" lon="1.86401">
        <ele>95</ele>
        <time>2024-12-16T12:45:27.649Z</time>
      </trkpt>
      <trkpt lat="48.87605" lon="1.86395">
        <ele>95</ele>
        <time>2024-12-16T12:45:31.987Z</time>
      </trkpt>
      <trkpt lat="48.87604" lon="1.86388">
        <ele>95</ele>
        <time>2024-12-16T12:45:36.588Z</time>
      </trkpt>
      <trkpt lat="48.87603" lon="1.86382">
        <ele>95</ele>
        <time>2024-12-16T12:45:40.986Z</time>
      </trkpt>
      <trkpt lat="48.87601" lon="1.86376">
        <ele>95</ele>
        <time>2024-12-16T12:45:45.365Z</time>
      </trkpt>
      <trkpt lat="48.876" lon="1.86369">
        <ele>98</ele>
        <time>2024-12-16T12:45:49.724Z</time>
      </trkpt>
      <trkpt lat="48.87598" lon="1.86363">
        <ele>98</ele>
        <time>2024-12-16T12:45:53.810Z</time>
      </trkpt>
      <trkpt lat="48.87596" lon="1.86356">
        <ele>97</ele>
        <time>2024-12-16T12:45:58.228Z</time>
      </trkpt>
      <trkpt lat="48.87595" lon="1.86349">
        <ele>97</ele>
        <time>2024-12-16T12:46:02.527Z</time>
      </trkpt>
      <trkpt lat="48.87594" lon="1.86342">
        <ele>100</ele>
        <time>2024-12-16T12:46:06.826Z</time>
      </trkpt>
      <trkpt lat="48.87592" lon="1.86335">
        <ele>100</ele>
        <time>2024-12-16T12:46:11.270Z</time>
      </trkpt>
      <trkpt lat="48.87592" lon="1.86328">
        <ele>100</ele>
        <time>2024-12-16T12:46:15.363Z</time>
      </trkpt>
      <trkpt lat="48.87591" lon="1.8632">
        <ele>100</ele>
        <time>2024-12-16T12:46:19.587Z</time>
      </trkpt>
      <trkpt lat="48.8759" lon="1.86312">
        <ele>101</ele>
        <time>2024-12-16T12:46:23.825Z</time>
      </trkpt>
      <trkpt lat="48.8759" lon="1.86304">
        <ele>101</ele>
        <time>2024-12-16T12:46:28.465Z</time>
      </trkpt>
      <trkpt lat="48.87592" lon="1.86296">
        <ele>101</ele>
        <time>2024-12-16T12:46:32.766Z</time>
      </trkpt>
      <trkpt lat="48.87595" lon="1.8629">
        <ele>101</ele>
        <time>2024-12-16T12:46:36.944Z</time>
      </trkpt>
      <trkpt lat="48.87598" lon="1.86285">
        <ele>102</ele>
        <time>2024-12-16T12:46:40.987Z</time>
      </trkpt>
      <trkpt lat="48.876" lon="1.86278">
        <ele>102</ele>
        <time>2024-12-16T12:46:45.670Z</time>
      </trkpt>
      <trkpt lat="48.87601" lon="1.86278">
        <ele>102</ele>
        <time>2024-12-16T12:46:49.986Z</time>
      </trkpt>
      <trkpt lat="48.87599" lon="1.86278">
        <ele>102</ele>
        <time>2024-12-16T12:46:54.507Z</time>
      </trkpt>
      <trkpt lat="48.87596" lon="1.86274">
        <ele>101</ele>
        <time>2024-12-16T12:46:58.551Z</time>
      </trkpt>
      <trkpt lat="48.87593" lon="1.86269">
        <ele>101</ele>
        <time>2024-12-16T12:47:02.925Z</time>
      </trkpt>
      <trkpt lat="48.87591" lon="1.86267">
        <ele>101</ele>
        <time>2024-12-16T12:47:06.987Z</time>
      </trkpt>
      <trkpt lat="48.87587" lon="1.8627">
        <ele>101</ele>
        <time>2024-12-16T12:47:11.550Z</time>
      </trkpt>
      <trkpt lat="48.87584" lon="1.86273">
        <ele>101</ele>
        <time>2024-12-16T12:47:15.924Z</time>
      </trkpt>
      <trkpt lat="48.8758" lon="1.86275">
        <ele>101</ele>
        <time>2024-12-16T12:47:19.987Z</time>
      </trkpt>
      <trkpt lat="48.87575" lon="1.86273">
        <ele>101</ele>
        <time>2024-12-16T12:47:24.430Z</time>
      </trkpt>
      <trkpt lat="48.87571" lon="1.86276">
        <ele>101</ele>
        <time>2024-12-16T12:47:28.950Z</time>
      </trkpt>
      <trkpt lat="48.87568" lon="1.86281">
        <ele>99</ele>
        <time>2024-12-16T12:47:33.547Z</time>
      </trkpt>
      <trkpt lat="48.87567" lon="1.86287">
        <ele>99</ele>
        <time>2024-12-16T12:47:37.565Z</time>
      </trkpt>
      <trkpt lat="48.87565" lon="1.86293">
        <ele>99</ele>
        <time>2024-12-16T12:47:41.583Z</time>
      </trkpt>
      <trkpt lat="48.87561" lon="1.86297">
        <ele>99</ele>
        <time>2024-12-16T12:47:45.668Z</time>
      </trkpt>
      <trkpt lat="48.8756" lon="1.86302">
        <ele>99</ele>
        <time>2024-12-16T12:47:49.728Z</time>
      </trkpt>
      <trkpt lat="48.87555" lon="1.86303">
        <ele>99</ele>
        <time>2024-12-16T12:47:53.987Z</time>
      </trkpt>
      <trkpt lat="48.87551" lon="1.86308">
        <ele>99</ele>
        <time>2024-12-16T12:47:58.548Z</time>
      </trkpt>
      <trkpt lat="48.87546" lon="1.86311">
        <ele>99</ele>
        <time>2024-12-16T12:48:02.987Z</time>
      </trkpt>
      <trkpt lat="48.87542" lon="1.86315">
        <ele>99</ele>
        <time>2024-12-16T12:48:07.265Z</time>
      </trkpt>
      <trkpt lat="48.87537" lon="1.86318">
        <ele>95</ele>
        <time>2024-12-16T12:48:11.487Z</time>
      </trkpt>
      <trkpt lat="48.87533" lon="1.86323">
        <ele>95</ele>
        <time>2024-12-16T12:48:15.864Z</time>
      </trkpt>
      <trkpt lat="48.8753" lon="1.86329">
        <ele>95</ele>
        <time>2024-12-16T12:48:20.340Z</time>
      </trkpt>
      <trkpt lat="48.87526" lon="1.86333">
        <ele>95</ele>
        <time>2024-12-16T12:48:24.784Z</time>
      </trkpt>
      <trkpt lat="48.87521" lon="1.86336">
        <ele>95</ele>
        <time>2024-12-16T12:48:29.222Z</time>
      </trkpt>
      <trkpt lat="48.87515" lon="1.86339">
        <ele>95</ele>
        <time>2024-12-16T12:48:33.726Z</time>
      </trkpt>
      <trkpt lat="48.87512" lon="1.86344">
        <ele>91</ele>
        <time>2024-12-16T12:48:38.162Z</time>
      </trkpt>
      <trkpt lat="48.87507" lon="1.86348">
        <ele>89</ele>
        <time>2024-12-16T12:48:42.586Z</time>
      </trkpt>
      <trkpt lat="48.87503" lon="1.86352">
        <ele>89</ele>
        <time>2024-12-16T12:48:46.987Z</time>
      </trkpt>
      <trkpt lat="48.87498" lon="1.86355">
        <ele>89</ele>
        <time>2024-12-16T12:48:51.465Z</time>
      </trkpt>
      <trkpt lat="48.87493" lon="1.86354">
        <ele>89</ele>
        <time>2024-12-16T12:48:55.926Z</time>
      </trkpt>
      <trkpt lat="48.87489" lon="1.86354">
        <ele>89</ele>
        <time>2024-12-16T12:48:59.987Z</time>
      </trkpt>
      <trkpt lat="48.87485" lon="1.86354">
        <ele>83</ele>
        <time>2024-12-16T12:49:04.610Z</time>
      </trkpt>
      <trkpt lat="48.87481" lon="1.86353">
        <ele>83</ele>
        <time>2024-12-16T12:49:08.703Z</time>
      </trkpt>
      <trkpt lat="48.87476" lon="1.86351">
        <ele>83</ele>
        <time>2024-12-16T12:49:13.243Z</time>
      </trkpt>
      <trkpt lat="48.87471" lon="1.86349">
        <ele>83</ele>
        <time>2024-12-16T12:49:17.506Z</time>
      </trkpt>
      <trkpt lat="48.87468" lon="1.86353">
        <ele>83</ele>
        <time>2024-12-16T12:49:21.986Z</time>
      </trkpt>
      <trkpt lat="48.87465" lon="1.8636">
        <ele>83</ele>
        <time>2024-12-16T12:49:26.762Z</time>
      </trkpt>
      <trkpt lat="48.87463" lon="1.86367">
        <ele>83</ele>
        <time>2024-12-16T12:49:31.239Z</time>
      </trkpt>
      <trkpt lat="48.87459" lon="1.8637">
        <ele>83</ele>
        <time>2024-12-16T12:49:35.343Z</time>
      </trkpt>
      <trkpt lat="48.87456" lon="1.86371">
        <ele>74</ele>
        <time>2024-12-16T12:49:39.718Z</time>
      </trkpt>
      <trkpt lat="48.87454" lon="1.86375">
        <ele>74</ele>
        <time>2024-12-16T12:49:43.845Z</time>
      </trkpt>
      <trkpt lat="48.87449" lon="1.86376">
        <ele>73</ele>
        <time>2024-12-16T12:49:48.204Z</time>
      </trkpt>
      <trkpt lat="48.87443" lon="1.86376">
        <ele>73</ele>
        <time>2024-12-16T12:49:52.641Z</time>
      </trkpt>
      <trkpt lat="48.87437" lon="1.86376">
        <ele>73</ele>
        <time>2024-12-16T12:49:56.982Z</time>
      </trkpt>
      <trkpt lat="48.87432" lon="1.86376">
        <ele>73</ele>
        <time>2024-12-16T12:50:01.263Z</time>
      </trkpt>
      <trkpt lat="48.87426" lon="1.86376">
        <ele>69</ele>
        <time>2024-12-16T12:50:05.639Z</time>
      </trkpt>
      <trkpt lat="48.8742" lon="1.86378">
        <ele>69</ele>
        <time>2024-12-16T12:50:09.986Z</time>
      </trkpt>
      <trkpt lat="48.87415" lon="1.86377">
        <ele>69</ele>
        <time>2024-12-16T12:50:14.786Z</time>
      </trkpt>
      <trkpt lat="48.8741" lon="1.86377">
        <ele>69</ele>
        <time>2024-12-16T12:50:19.841Z</time>
      </trkpt>
      <trkpt lat="48.87405" lon="1.86378">
        <ele>69</ele>
        <time>2024-12-16T12:50:23.986Z</time>
      </trkpt>
      <trkpt lat="48.87399" lon="1.86381">
        <ele>69</ele>
        <time>2024-12-16T12:50:28.344Z</time>
      </trkpt>
      <trkpt lat="48.87394" lon="1.86383">
        <ele>69</ele>
        <time>2024-12-16T12:50:32.885Z</time>
      </trkpt>
      <trkpt lat="48.87389" lon="1.86385">
        <ele>69</ele>
        <time>2024-12-16T12:50:37.284Z</time>
      </trkpt>
      <trkpt lat="48.87384" lon="1.86387">
        <ele>69</ele>
        <time>2024-12-16T12:50:41.863Z</time>
      </trkpt>
      <trkpt lat="48.87379" lon="1.8639">
        <ele>69</ele>
        <time>2024-12-16T12:50:45.984Z</time>
      </trkpt>
      <trkpt lat="48.87374" lon="1.86393">
        <ele>72</ele>
        <time>2024-12-16T12:50:50.444Z</time>
      </trkpt>
      <trkpt lat="48.87366" lon="1.86392">
        <ele>72</ele>
        <time>2024-12-16T12:51:07.986Z</time>
      </trkpt>
      <trkpt lat="48.87367" lon="1.86389">
        <ele>72</ele>
        <time>2024-12-16T12:51:12.987Z</time>
      </trkpt>
      <trkpt lat="48.87366" lon="1.8638">
        <ele>72</ele>
        <time>2024-12-16T12:51:17.824Z</time>
      </trkpt>
      <trkpt lat="48.87365" lon="1.86373">
        <ele>71</ele>
        <time>2024-12-16T12:51:21.986Z</time>
      </trkpt>
      <trkpt lat="48.87363" lon="1.86367">
        <ele>71</ele>
        <time>2024-12-16T12:51:26.424Z</time>
      </trkpt>
      <trkpt lat="48.87361" lon="1.8636">
        <ele>71</ele>
        <time>2024-12-16T12:51:30.644Z</time>
      </trkpt>
      <trkpt lat="48.87359" lon="1.86354">
        <ele>71</ele>
        <time>2024-12-16T12:51:34.926Z</time>
      </trkpt>
      <trkpt lat="48.87357" lon="1.86348">
        <ele>71</ele>
        <time>2024-12-16T12:51:39.344Z</time>
      </trkpt>
      <trkpt lat="48.87353" lon="1.86343">
        <ele>70</ele>
        <time>2024-12-16T12:51:43.899Z</time>
      </trkpt>
      <trkpt lat="48.87347" lon="1.86344">
        <ele>70</ele>
        <time>2024-12-16T12:51:47.986Z</time>
      </trkpt>
      <trkpt lat="48.87342" lon="1.86346">
        <ele>72</ele>
        <time>2024-12-16T12:51:52.241Z</time>
      </trkpt>
      <trkpt lat="48.87339" lon="1.86349">
        <ele>74</ele>
        <time>2024-12-16T12:51:56.420Z</time>
      </trkpt>
      <trkpt lat="48.87335" lon="1.86351">
        <ele>74</ele>
        <time>2024-12-16T12:52:00.455Z</time>
      </trkpt>
      <trkpt lat="48.8733" lon="1.86354">
        <ele>74</ele>
        <time>2024-12-16T12:52:04.899Z</time>
      </trkpt>
      <trkpt lat="48.87326" lon="1.86356">
        <ele>74</ele>
        <time>2024-12-16T12:52:09.387Z</time>
      </trkpt>
      <trkpt lat="48.87322" lon="1.8636">
        <ele>74</ele>
        <time>2024-12-16T12:52:13.804Z</time>
      </trkpt>
      <trkpt lat="48.87318" lon="1.86363">
        <ele>77</ele>
        <time>2024-12-16T12:52:18.005Z</time>
      </trkpt>
      <trkpt lat="48.87314" lon="1.86366">
        <ele>77</ele>
        <time>2024-12-16T12:52:22.504Z</time>
      </trkpt>
      <trkpt lat="48.87311" lon="1.86369">
        <ele>77</ele>
        <time>2024-12-16T12:52:26.939Z</time>
      </trkpt>
      <trkpt lat="48.87307" lon="1.86372">
        <ele>77</ele>
        <time>2024-12-16T12:52:31.485Z</time>
      </trkpt>
      <trkpt lat="48.87302" lon="1.86375">
        <ele>79</ele>
        <time>2024-12-16T12:52:35.947Z</time>
      </trkpt>
      <trkpt lat="48.87299" lon="1.86377">
        <ele>79</ele>
        <time>2024-12-16T12:52:40.620Z</time>
      </trkpt>
      <trkpt lat="48.87294" lon="1.8638">
        <ele>79</ele>
        <time>2024-12-16T12:52:44.986Z</time>
      </trkpt>
      <trkpt lat="48.8729" lon="1.86383">
        <ele>81</ele>
        <time>2024-12-16T12:52:49.987Z</time>
      </trkpt>
      <trkpt lat="48.87286" lon="1.86386">
        <ele>81</ele>
        <time>2024-12-16T12:52:54.164Z</time>
      </trkpt>
      <trkpt lat="48.87282" lon="1.86389">
        <ele>81</ele>
        <time>2024-12-16T12:52:58.523Z</time>
      </trkpt>
      <trkpt lat="48.87279" lon="1.86392">
        <ele>81</ele>
        <time>2024-12-16T12:53:03.007Z</time>
      </trkpt>
      <trkpt lat="48.87275" lon="1.86395">
        <ele>81</ele>
        <time>2024-12-16T12:53:07.599Z</time>
      </trkpt>
      <trkpt lat="48.8727" lon="1.86397">
        <ele>81</ele>
        <time>2024-12-16T12:53:11.965Z</time>
      </trkpt>
      <trkpt lat="48.87266" lon="1.864">
        <ele>81</ele>
        <time>2024-12-16T12:53:16.640Z</time>
      </trkpt>
      <trkpt lat="48.87262" lon="1.86403">
        <ele>87</ele>
        <time>2024-12-16T12:53:21.187Z</time>
      </trkpt>
      <trkpt lat="48.87258" lon="1.86406">
        <ele>87</ele>
        <time>2024-12-16T12:53:25.783Z</time>
      </trkpt>
      <trkpt lat="48.87254" lon="1.86409">
        <ele>87</ele>
        <time>2024-12-16T12:53:29.962Z</time>
      </trkpt>
      <trkpt lat="48.8725" lon="1.86411">
        <ele>87</ele>
        <time>2024-12-16T12:53:33.986Z</time>
      </trkpt>
      <trkpt lat="48.87246" lon="1.86414">
        <ele>87</ele>
        <time>2024-12-16T12:53:38.083Z</time>
      </trkpt>
      <trkpt lat="48.87242" lon="1.86417">
        <ele>87</ele>
        <time>2024-12-16T12:53:42.519Z</time>
      </trkpt>
      <trkpt lat="48.87238" lon="1.8642">
        <ele>87</ele>
        <time>2024-12-16T12:53:46.843Z</time>
      </trkpt>
      <trkpt lat="48.87234" lon="1.86423">
        <ele>89</ele>
        <time>2024-12-16T12:53:50.986Z</time>
      </trkpt>
      <trkpt lat="48.8723" lon="1.86427">
        <ele>89</ele>
        <time>2024-12-16T12:53:55.440Z</time>
      </trkpt>
      <trkpt lat="48.87226" lon="1.8643">
        <ele>89</ele>
        <time>2024-12-16T12:53:59.986Z</time>
      </trkpt>
      <trkpt lat="48.87222" lon="1.86433">
        <ele>91</ele>
        <time>2024-12-16T12:54:04.500Z</time>
      </trkpt>
      <trkpt lat="48.87218" lon="1.86437">
        <ele>91</ele>
        <time>2024-12-16T12:54:08.943Z</time>
      </trkpt>
      <trkpt lat="48.87214" lon="1.86441">
        <ele>91</ele>
        <time>2024-12-16T12:54:13.524Z</time>
      </trkpt>
      <trkpt lat="48.87209" lon="1.86443">
        <ele>91</ele>
        <time>2024-12-16T12:54:17.721Z</time>
      </trkpt>
      <trkpt lat="48.87205" lon="1.86446">
        <ele>93</ele>
        <time>2024-12-16T12:54:21.839Z</time>
      </trkpt>
      <trkpt lat="48.87201" lon="1.86449">
        <ele>93</ele>
        <time>2024-12-16T12:54:25.986Z</time>
      </trkpt>
      <trkpt lat="48.87197" lon="1.86452">
        <ele>93</ele>
        <time>2024-12-16T12:54:30.329Z</time>
      </trkpt>
      <trkpt lat="48.87192" lon="1.86455">
        <ele>93</ele>
        <time>2024-12-16T12:54:34.423Z</time>
      </trkpt>
      <trkpt lat="48.87188" lon="1.86459">
        <ele>94</ele>
        <time>2024-12-16T12:54:38.540Z</time>
      </trkpt>
      <trkpt lat="48.87184" lon="1.86462">
        <ele>94</ele>
        <time>2024-12-16T12:54:42.565Z</time>
      </trkpt>
      <trkpt lat="48.87179" lon="1.86465">
        <ele>96</ele>
        <time>2024-12-16T12:54:46.745Z</time>
      </trkpt>
      <trkpt lat="48.87175" lon="1.86468">
        <ele>96</ele>
        <time>2024-12-16T12:54:50.823Z</time>
      </trkpt>
      <trkpt lat="48.87171" lon="1.86471">
        <ele>96</ele>
        <time>2024-12-16T12:54:54.960Z</time>
      </trkpt>
      <trkpt lat="48.87167" lon="1.86474">
        <ele>96</ele>
        <time>2024-12-16T12:54:59.183Z</time>
      </trkpt>
      <trkpt lat="48.87162" lon="1.86477">
        <ele>96</ele>
        <time>2024-12-16T12:55:03.524Z</time>
      </trkpt>
      <trkpt lat="48.87158" lon="1.86481">
        <ele>96</ele>
        <time>2024-12-16T12:55:07.763Z</time>
      </trkpt>
      <trkpt lat="48.87153" lon="1.86484">
        <ele>96</ele>
        <time>2024-12-16T12:55:11.942Z</time>
      </trkpt>
      <trkpt lat="48.87149" lon="1.86487">
        <ele>100</ele>
        <time>2024-12-16T12:55:16.053Z</time>
      </trkpt>
      <trkpt lat="48.87145" lon="1.8649">
        <ele>100</ele>
        <time>2024-12-16T12:55:20.300Z</time>
      </trkpt>
      <trkpt lat="48.8714" lon="1.86493">
        <ele>100</ele>
        <time>2024-12-16T12:55:24.564Z</time>
      </trkpt>
      <trkpt lat="48.87136" lon="1.86496">
        <ele>100</ele>
        <time>2024-12-16T12:55:28.685Z</time>
      </trkpt>
      <trkpt lat="48.87131" lon="1.86498">
        <ele>100</ele>
        <time>2024-12-16T12:55:32.987Z</time>
      </trkpt>
      <trkpt lat="48.87127" lon="1.86502">
        <ele>100</ele>
        <time>2024-12-16T12:55:37.223Z</time>
      </trkpt>
      <trkpt lat="48.87122" lon="1.86506">
        <ele>100</ele>
        <time>2024-12-16T12:55:41.623Z</time>
      </trkpt>
      <trkpt lat="48.87118" lon="1.86508">
        <ele>100</ele>
        <time>2024-12-16T12:55:45.845Z</time>
      </trkpt>
      <trkpt lat="48.87113" lon="1.86511">
        <ele>100</ele>
        <time>2024-12-16T12:55:49.987Z</time>
      </trkpt>
      <trkpt lat="48.87109" lon="1.86515">
        <ele>101</ele>
        <time>2024-12-16T12:55:54.463Z</time>
      </trkpt>
      <trkpt lat="48.87105" lon="1.86519">
        <ele>101</ele>
        <time>2024-12-16T12:55:58.987Z</time>
      </trkpt>
      <trkpt lat="48.87101" lon="1.86522">
        <ele>101</ele>
        <time>2024-12-16T12:56:03.826Z</time>
      </trkpt>
      <trkpt lat="48.87095" lon="1.86525">
        <ele>102</ele>
        <time>2024-12-16T12:56:16.987Z</time>
      </trkpt>
      <trkpt lat="48.87095" lon="1.86525">
        <ele>102</ele>
        <time>2024-12-16T12:56:21.251Z</time>
      </trkpt>
      <trkpt lat="48.87096" lon="1.8653">
        <ele>102</ele>
        <time>2024-12-16T12:56:25.463Z</time>
      </trkpt>
      <trkpt lat="48.871" lon="1.86533">
        <ele>101</ele>
        <time>2024-12-16T12:56:29.484Z</time>
      </trkpt>
      <trkpt lat="48.87103" lon="1.86539">
        <ele>101</ele>
        <time>2024-12-16T12:56:33.925Z</time>
      </trkpt>
      <trkpt lat="48.87105" lon="1.86544">
        <ele>101</ele>
        <time>2024-12-16T12:56:37.987Z</time>
      </trkpt>
      <trkpt lat="48.87108" lon="1.86551">
        <ele>101</ele>
        <time>2024-12-16T12:56:42.523Z</time>
      </trkpt>
      <trkpt lat="48.87111" lon="1.86559">
        <ele>101</ele>
        <time>2024-12-16T12:56:46.584Z</time>
      </trkpt>
      <trkpt lat="48.87114" lon="1.86565">
        <ele>101</ele>
        <time>2024-12-16T12:56:50.779Z</time>
      </trkpt>
      <trkpt lat="48.87117" lon="1.86569">
        <ele>101</ele>
        <time>2024-12-16T12:56:54.883Z</time>
      </trkpt>
      <trkpt lat="48.87119" lon="1.86577">
        <ele>100</ele>
        <time>2024-12-16T12:56:59.369Z</time>
      </trkpt>
      <trkpt lat="48.87122" lon="1.86584">
        <ele>100</ele>
        <time>2024-12-16T12:57:03.429Z</time>
      </trkpt>
      <trkpt lat="48.87124" lon="1.86591">
        <ele>100</ele>
        <time>2024-12-16T12:57:07.463Z</time>
      </trkpt>
      <trkpt lat="48.87126" lon="1.86598">
        <ele>100</ele>
        <time>2024-12-16T12:57:11.584Z</time>
      </trkpt>
      <trkpt lat="48.87129" lon="1.86605">
        <ele>100</ele>
        <time>2024-12-16T12:57:16.224Z</time>
      </trkpt>
      <trkpt lat="48.87131" lon="1.86612">
        <ele>100</ele>
        <time>2024-12-16T12:57:20.768Z</time>
      </trkpt>
      <trkpt lat="48.87134" lon="1.8662">
        <ele>100</ele>
        <time>2024-12-16T12:57:25.248Z</time>
      </trkpt>
      <trkpt lat="48.87137" lon="1.86628">
        <ele>100</ele>
        <time>2024-12-16T12:57:29.760Z</time>
      </trkpt>
      <trkpt lat="48.87139" lon="1.86637">
        <ele>100</ele>
        <time>2024-12-16T12:57:34.231Z</time>
      </trkpt>
      <trkpt lat="48.87142" lon="1.86645">
        <ele>100</ele>
        <time>2024-12-16T12:57:38.573Z</time>
      </trkpt>
      <trkpt lat="48.87145" lon="1.86653">
        <ele>100</ele>
        <time>2024-12-16T12:57:42.991Z</time>
      </trkpt>
      <trkpt lat="48.87147" lon="1.86661">
        <ele>100</ele>
        <time>2024-12-16T12:57:47.333Z</time>
      </trkpt>
      <trkpt lat="48.8715" lon="1.86669">
        <ele>100</ele>
        <time>2024-12-16T12:57:51.795Z</time>
      </trkpt>
      <trkpt lat="48.87153" lon="1.86677">
        <ele>99</ele>
        <time>2024-12-16T12:57:56.271Z</time>
      </trkpt>
      <trkpt lat="48.87156" lon="1.86685">
        <ele>99</ele>
        <time>2024-12-16T12:58:00.791Z</time>
      </trkpt>
      <trkpt lat="48.87159" lon="1.86693">
        <ele>99</ele>
        <time>2024-12-16T12:58:05.271Z</time>
      </trkpt>
      <trkpt lat="48.87162" lon="1.86701">
        <ele>99</ele>
        <time>2024-12-16T12:58:09.791Z</time>
      </trkpt>
      <trkpt lat="48.87166" lon="1.86708">
        <ele>99</ele>
        <time>2024-12-16T12:58:14.328Z</time>
      </trkpt>
      <trkpt lat="48.87168" lon="1.86716">
        <ele>99</ele>
        <time>2024-12-16T12:58:18.447Z</time>
      </trkpt>
      <trkpt lat="48.87169" lon="1.86723">
        <ele>99</ele>
        <time>2024-12-16T12:58:22.687Z</time>
      </trkpt>
      <trkpt lat="48.8717" lon="1.86732">
        <ele>99</ele>
        <time>2024-12-16T12:58:26.772Z</time>
      </trkpt>
      <trkpt lat="48.87171" lon="1.8674">
        <ele>98</ele>
        <time>2024-12-16T12:58:30.871Z</time>
      </trkpt>
      <trkpt lat="48.87174" lon="1.86745">
        <ele>98</ele>
        <time>2024-12-16T12:58:34.988Z</time>
      </trkpt>
      <trkpt lat="48.87174" lon="1.86753">
        <ele>98</ele>
        <time>2024-12-16T12:58:39.203Z</time>
      </trkpt>
      <trkpt lat="48.87175" lon="1.8676">
        <ele>98</ele>
        <time>2024-12-16T12:58:43.587Z</time>
      </trkpt>
      <trkpt lat="48.87178" lon="1.86762">
        <ele>98</ele>
        <time>2024-12-16T12:58:47.691Z</time>
      </trkpt>
      <trkpt lat="48.8718" lon="1.86773">
        <ele>97</ele>
        <time>2024-12-16T12:58:52.304Z</time>
      </trkpt>
      <trkpt lat="48.87182" lon="1.8678">
        <ele>97</ele>
        <time>2024-12-16T12:58:56.723Z</time>
      </trkpt>
      <trkpt lat="48.87185" lon="1.86777">
        <ele>97</ele>
        <time>2024-12-16T12:59:00.784Z</time>
      </trkpt>
      <trkpt lat="48.87184" lon="1.86771">
        <ele>97</ele>
        <time>2024-12-16T12:59:04.987Z</time>
      </trkpt>
      <trkpt lat="48.87185" lon="1.86759">
        <ele>98</ele>
        <time>2024-12-16T12:59:08.988Z</time>
      </trkpt>
      <trkpt lat="48.87196" lon="1.86754">
        <ele>98</ele>
        <time>2024-12-16T13:00:11.987Z</time>
      </trkpt>
      <trkpt lat="48.87197" lon="1.86763">
        <ele>98</ele>
        <time>2024-12-16T13:00:16.693Z</time>
      </trkpt>
      <trkpt lat="48.872" lon="1.86772">
        <ele>97</ele>
        <time>2024-12-16T13:00:21.052Z</time>
      </trkpt>
      <trkpt lat="48.87202" lon="1.86781">
        <ele>97</ele>
        <time>2024-12-16T13:00:25.689Z</time>
      </trkpt>
      <trkpt lat="48.87202" lon="1.86791">
        <ele>97</ele>
        <time>2024-12-16T13:00:29.988Z</time>
      </trkpt>
      <trkpt lat="48.87203" lon="1.868">
        <ele>97</ele>
        <time>2024-12-16T13:00:34.396Z</time>
      </trkpt>
      <trkpt lat="48.87205" lon="1.86807">
        <ele>97</ele>
        <time>2024-12-16T13:00:38.569Z</time>
      </trkpt>
      <trkpt lat="48.87206" lon="1.86815">
        <ele>97</ele>
        <time>2024-12-16T13:00:43.193Z</time>
      </trkpt>
      <trkpt lat="48.87208" lon="1.86823">
        <ele>95</ele>
        <time>2024-12-16T13:00:47.670Z</time>
      </trkpt>
      <trkpt lat="48.87209" lon="1.86831">
        <ele>96</ele>
        <time>2024-12-16T13:00:51.850Z</time>
      </trkpt>
      <trkpt lat="48.87209" lon="1.86841">
        <ele>96</ele>
        <time>2024-12-16T13:00:56.831Z</time>
      </trkpt>
      <trkpt lat="48.87209" lon="1.86849">
        <ele>95</ele>
        <time>2024-12-16T13:01:01.167Z</time>
      </trkpt>
      <trkpt lat="48.87209" lon="1.86858">
        <ele>95</ele>
        <time>2024-12-16T13:01:05.667Z</time>
      </trkpt>
      <trkpt lat="48.87209" lon="1.86866">
        <ele>95</ele>
        <time>2024-12-16T13:01:09.988Z</time>
      </trkpt>
      <trkpt lat="48.8721" lon="1.86874">
        <ele>95</ele>
        <time>2024-12-16T13:01:14.231Z</time>
      </trkpt>
      <trkpt lat="48.87211" lon="1.86882">
        <ele>94</ele>
        <time>2024-12-16T13:01:18.887Z</time>
      </trkpt>
      <trkpt lat="48.87212" lon="1.86891">
        <ele>94</ele>
        <time>2024-12-16T13:01:23.228Z</time>
      </trkpt>
      <trkpt lat="48.87214" lon="1.86898">
        <ele>94</ele>
        <time>2024-12-16T13:01:27.748Z</time>
      </trkpt>
      <trkpt lat="48.87216" lon="1.86905">
        <ele>92</ele>
        <time>2024-12-16T13:01:31.851Z</time>
      </trkpt>
      <trkpt lat="48.87216" lon="1.86911">
        <ele>92</ele>
        <time>2024-12-16T13:01:36.329Z</time>
      </trkpt>
      <trkpt lat="48.87212" lon="1.86915">
        <ele>92</ele>
        <time>2024-12-16T13:01:40.987Z</time>
      </trkpt>
      <trkpt lat="48.87211" lon="1.86912">
        <ele>92</ele>
        <time>2024-12-16T13:02:10.988Z</time>
      </trkpt>
      <trkpt lat="48.8721" lon="1.86911">
        <ele>92</ele>
        <time>2024-12-16T13:02:15.525Z</time>
      </trkpt>
      <trkpt lat="48.87204" lon="1.86908">
        <ele>88</ele>
        <time>2024-12-16T13:02:19.789Z</time>
      </trkpt>
      <trkpt lat="48.872" lon="1.86905">
        <ele>88</ele>
        <time>2024-12-16T13:02:23.944Z</time>
      </trkpt>
      <trkpt lat="48.87196" lon="1.86902">
        <ele>91</ele>
        <time>2024-12-16T13:02:27.988Z</time>
      </trkpt>
      <trkpt lat="48.87192" lon="1.86898">
        <ele>91</ele>
        <time>2024-12-16T13:02:32.565Z</time>
      </trkpt>
      <trkpt lat="48.87189" lon="1.86893">
        <ele>91</ele>
        <time>2024-12-16T13:02:36.686Z</time>
      </trkpt>
      <trkpt lat="48.87186" lon="1.86888">
        <ele>91</ele>
        <time>2024-12-16T13:02:40.703Z</time>
      </trkpt>
      <trkpt lat="48.87184" lon="1.86883">
        <ele>91</ele>
        <time>2024-12-16T13:02:44.866Z</time>
      </trkpt>
      <trkpt lat="48.8718" lon="1.86877">
        <ele>87</ele>
        <time>2024-12-16T13:02:49.310Z</time>
      </trkpt>
      <trkpt lat="48.87177" lon="1.8687">
        <ele>90</ele>
        <time>2024-12-16T13:02:53.847Z</time>
      </trkpt>
      <trkpt lat="48.87175" lon="1.86864">
        <ele>90</ele>
        <time>2024-12-16T13:02:58.367Z</time>
      </trkpt>
      <trkpt lat="48.87172" lon="1.86857">
        <ele>90</ele>
        <time>2024-12-16T13:03:02.444Z</time>
      </trkpt>
      <trkpt lat="48.87169" lon="1.86851">
        <ele>90</ele>
        <time>2024-12-16T13:03:06.649Z</time>
      </trkpt>
      <trkpt lat="48.87166" lon="1.86845">
        <ele>93</ele>
        <time>2024-12-16T13:03:10.983Z</time>
      </trkpt>
      <trkpt lat="48.87162" lon="1.8684">
        <ele>93</ele>
        <time>2024-12-16T13:03:15.246Z</time>
      </trkpt>
      <trkpt lat="48.87158" lon="1.86836">
        <ele>93</ele>
        <time>2024-12-16T13:03:19.744Z</time>
      </trkpt>
      <trkpt lat="48.87147" lon="1.86821">
        <ele>91</ele>
        <time>2024-12-16T13:03:42.669Z</time>
      </trkpt>
      <trkpt lat="48.87144" lon="1.86818">
        <ele>94</ele>
        <time>2024-12-16T13:03:46.988Z</time>
      </trkpt>
      <trkpt lat="48.87139" lon="1.86813">
        <ele>94</ele>
        <time>2024-12-16T13:03:51.710Z</time>
      </trkpt>
      <trkpt lat="48.87136" lon="1.86808">
        <ele>94</ele>
        <time>2024-12-16T13:03:55.948Z</time>
      </trkpt>
      <trkpt lat="48.87131" lon="1.86803">
        <ele>94</ele>
        <time>2024-12-16T13:04:00.486Z</time>
      </trkpt>
      <trkpt lat="48.87127" lon="1.86799">
        <ele>94</ele>
        <time>2024-12-16T13:04:04.784Z</time>
      </trkpt>
      <trkpt lat="48.87123" lon="1.86802">
        <ele>93</ele>
        <time>2024-12-16T13:04:08.987Z</time>
      </trkpt>
      <trkpt lat="48.87119" lon="1.86797">
        <ele>93</ele>
        <time>2024-12-16T13:04:13.229Z</time>
      </trkpt>
      <trkpt lat="48.87115" lon="1.86792">
        <ele>93</ele>
        <time>2024-12-16T13:04:17.725Z</time>
      </trkpt>
      <trkpt lat="48.87111" lon="1.86787">
        <ele>96</ele>
        <time>2024-12-16T13:04:22.210Z</time>
      </trkpt>
      <trkpt lat="48.87106" lon="1.86781">
        <ele>96</ele>
        <time>2024-12-16T13:04:26.585Z</time>
      </trkpt>
      <trkpt lat="48.87103" lon="1.86776">
        <ele>96</ele>
        <time>2024-12-16T13:04:30.628Z</time>
      </trkpt>
      <trkpt lat="48.87099" lon="1.86771">
        <ele>96</ele>
        <time>2024-12-16T13:04:34.987Z</time>
      </trkpt>
      <trkpt lat="48.87096" lon="1.86765">
        <ele>95</ele>
        <time>2024-12-16T13:04:39.185Z</time>
      </trkpt>
      <trkpt lat="48.87093" lon="1.86758">
        <ele>97</ele>
        <time>2024-12-16T13:04:43.245Z</time>
      </trkpt>
      <trkpt lat="48.8709" lon="1.86752">
        <ele>97</ele>
        <time>2024-12-16T13:04:47.408Z</time>
      </trkpt>
      <trkpt lat="48.87088" lon="1.86745">
        <ele>97</ele>
        <time>2024-12-16T13:04:51.988Z</time>
      </trkpt>
      <trkpt lat="48.87085" lon="1.86739">
        <ele>97</ele>
        <time>2024-12-16T13:04:56.244Z</time>
      </trkpt>
      <trkpt lat="48.87081" lon="1.86732">
        <ele>98</ele>
        <time>2024-12-16T13:05:00.907Z</time>
      </trkpt>
      <trkpt lat="48.87078" lon="1.86727">
        <ele>98</ele>
        <time>2024-12-16T13:05:05.496Z</time>
      </trkpt>
      <trkpt lat="48.87074" lon="1.86722">
        <ele>98</ele>
        <time>2024-12-16T13:05:09.988Z</time>
      </trkpt>
      <trkpt lat="48.8707" lon="1.86718">
        <ele>98</ele>
        <time>2024-12-16T13:05:14.151Z</time>
      </trkpt>
      <trkpt lat="48.87065" lon="1.86715">
        <ele>98</ele>
        <time>2024-12-16T13:05:18.469Z</time>
      </trkpt>
      <trkpt lat="48.8706" lon="1.86712">
        <ele>98</ele>
        <time>2024-12-16T13:05:22.486Z</time>
      </trkpt>
      <trkpt lat="48.87055" lon="1.86708">
        <ele>99</ele>
        <time>2024-12-16T13:05:26.745Z</time>
      </trkpt>
      <trkpt lat="48.8705" lon="1.86704">
        <ele>99</ele>
        <time>2024-12-16T13:05:30.963Z</time>
      </trkpt>
      <trkpt lat="48.87045" lon="1.867">
        <ele>99</ele>
        <time>2024-12-16T13:05:35.144Z</time>
      </trkpt>
      <trkpt lat="48.87041" lon="1.86696">
        <ele>99</ele>
        <time>2024-12-16T13:05:39.305Z</time>
      </trkpt>
      <trkpt lat="48.87036" lon="1.86693">
        <ele>99</ele>
        <time>2024-12-16T13:05:43.323Z</time>
      </trkpt>
      <trkpt lat="48.87031" lon="1.8669">
        <ele>99</ele>
        <time>2024-12-16T13:05:47.408Z</time>
      </trkpt>
      <trkpt lat="48.87025" lon="1.86687">
        <ele>99</ele>
        <time>2024-12-16T13:05:51.988Z</time>
      </trkpt>
      <trkpt lat="48.87019" lon="1.86686">
        <ele>99</ele>
        <time>2024-12-16T13:05:56.569Z</time>
      </trkpt>
      <trkpt lat="48.87013" lon="1.86683">
        <ele>98</ele>
        <time>2024-12-16T13:06:01.047Z</time>
      </trkpt>
      <trkpt lat="48.87008" lon="1.86682">
        <ele>98</ele>
        <time>2024-12-16T13:06:05.585Z</time>
      </trkpt>
      <trkpt lat="48.87002" lon="1.8668">
        <ele>99</ele>
        <time>2024-12-16T13:06:09.988Z</time>
      </trkpt>
      <trkpt lat="48.86997" lon="1.86679">
        <ele>99</ele>
        <time>2024-12-16T13:06:14.088Z</time>
      </trkpt>
      <trkpt lat="48.86992" lon="1.86678">
        <ele>99</ele>
        <time>2024-12-16T13:06:18.225Z</time>
      </trkpt>
      <trkpt lat="48.86987" lon="1.86677">
        <ele>99</ele>
        <time>2024-12-16T13:06:22.287Z</time>
      </trkpt>
      <trkpt lat="48.86982" lon="1.86676">
        <ele>98</ele>
        <time>2024-12-16T13:06:26.303Z</time>
      </trkpt>
      <trkpt lat="48.86976" lon="1.86674">
        <ele>98</ele>
        <time>2024-12-16T13:06:30.729Z</time>
      </trkpt>
      <trkpt lat="48.86971" lon="1.86673">
        <ele>98</ele>
        <time>2024-12-16T13:06:34.884Z</time>
      </trkpt>
      <trkpt lat="48.86965" lon="1.8667">
        <ele>98</ele>
        <time>2024-12-16T13:06:39.429Z</time>
      </trkpt>
      <trkpt lat="48.8696" lon="1.86668">
        <ele>98</ele>
        <time>2024-12-16T13:06:43.505Z</time>
      </trkpt>
      <trkpt lat="48.86955" lon="1.86664">
        <ele>96</ele>
        <time>2024-12-16T13:06:47.549Z</time>
      </trkpt>
      <trkpt lat="48.8695" lon="1.8666">
        <ele>96</ele>
        <time>2024-12-16T13:06:51.988Z</time>
      </trkpt>
      <trkpt lat="48.86944" lon="1.86658">
        <ele>96</ele>
        <time>2024-12-16T13:06:56.590Z</time>
      </trkpt>
      <trkpt lat="48.86939" lon="1.86658">
        <ele>96</ele>
        <time>2024-12-16T13:07:01.067Z</time>
      </trkpt>
      <trkpt lat="48.86934" lon="1.86655">
        <ele>96</ele>
        <time>2024-12-16T13:07:05.425Z</time>
      </trkpt>
      <trkpt lat="48.86928" lon="1.86652">
        <ele>95</ele>
        <time>2024-12-16T13:07:09.843Z</time>
      </trkpt>
      <trkpt lat="48.86923" lon="1.8665">
        <ele>95</ele>
        <time>2024-12-16T13:07:13.988Z</time>
      </trkpt>
      <trkpt lat="48.86918" lon="1.86648">
        <ele>95</ele>
        <time>2024-12-16T13:07:18.511Z</time>
      </trkpt>
      <trkpt lat="48.86911" lon="1.86648">
        <ele>95</ele>
        <time>2024-12-16T13:07:22.987Z</time>
      </trkpt>
      <trkpt lat="48.86906" lon="1.86646">
        <ele>95</ele>
        <time>2024-12-16T13:07:26.987Z</time>
      </trkpt>
      <trkpt lat="48.86899" lon="1.86641">
        <ele>96</ele>
        <time>2024-12-16T13:07:31.988Z</time>
      </trkpt>
      <trkpt lat="48.86894" lon="1.86639">
        <ele>96</ele>
        <time>2024-12-16T13:07:36.183Z</time>
      </trkpt>
      <trkpt lat="48.86889" lon="1.86638">
        <ele>96</ele>
        <time>2024-12-16T13:07:39.615Z</time>
      </trkpt>
      <trkpt lat="48.86884" lon="1.8664">
        <ele>96</ele>
        <time>2024-12-16T13:07:45.988Z</time>
      </trkpt>
      <trkpt lat="48.8688" lon="1.86638">
        <ele>96</ele>
        <time>2024-12-16T13:07:50.987Z</time>
      </trkpt>
      <trkpt lat="48.86879" lon="1.86637">
        <ele>96</ele>
        <time>2024-12-16T13:07:55.352Z</time>
      </trkpt>
      <trkpt lat="48.86872" lon="1.8663">
        <ele>95</ele>
        <time>2024-12-16T13:07:59.484Z</time>
      </trkpt>
      <trkpt lat="48.86865" lon="1.86628">
        <ele>95</ele>
        <time>2024-12-16T13:08:03.988Z</time>
      </trkpt>
      <trkpt lat="48.86859" lon="1.86626">
        <ele>95</ele>
        <time>2024-12-16T13:08:08.603Z</time>
      </trkpt>
      <trkpt lat="48.86853" lon="1.86624">
        <ele>98</ele>
        <time>2024-12-16T13:08:12.810Z</time>
      </trkpt>
      <trkpt lat="48.86847" lon="1.86623">
        <ele>98</ele>
        <time>2024-12-16T13:08:17.166Z</time>
      </trkpt>
      <trkpt lat="48.86841" lon="1.86621">
        <ele>97</ele>
        <time>2024-12-16T13:08:21.988Z</time>
      </trkpt>
      <trkpt lat="48.86836" lon="1.86619">
        <ele>97</ele>
        <time>2024-12-16T13:08:26.063Z</time>
      </trkpt>
      <trkpt lat="48.8683" lon="1.86618">
        <ele>97</ele>
        <time>2024-12-16T13:08:30.457Z</time>
      </trkpt>
      <trkpt lat="48.86824" lon="1.86616">
        <ele>97</ele>
        <time>2024-12-16T13:08:35.089Z</time>
      </trkpt>
      <trkpt lat="48.86818" lon="1.86616">
        <ele>94</ele>
        <time>2024-12-16T13:08:39.669Z</time>
      </trkpt>
      <trkpt lat="48.86812" lon="1.86614">
        <ele>94</ele>
        <time>2024-12-16T13:08:44.147Z</time>
      </trkpt>
      <trkpt lat="48.86807" lon="1.86612">
        <ele>94</ele>
        <time>2024-12-16T13:08:48.668Z</time>
      </trkpt>
      <trkpt lat="48.86801" lon="1.86613">
        <ele>94</ele>
        <time>2024-12-16T13:08:53.582Z</time>
      </trkpt>
      <trkpt lat="48.86797" lon="1.86608">
        <ele>94</ele>
        <time>2024-12-16T13:08:57.987Z</time>
      </trkpt>
      <trkpt lat="48.86791" lon="1.86606">
        <ele>93</ele>
        <time>2024-12-16T13:09:01.987Z</time>
      </trkpt>
      <trkpt lat="48.86785" lon="1.86605">
        <ele>93</ele>
        <time>2024-12-16T13:09:06.546Z</time>
      </trkpt>
      <trkpt lat="48.8678" lon="1.86604">
        <ele>93</ele>
        <time>2024-12-16T13:09:10.947Z</time>
      </trkpt>
      <trkpt lat="48.86775" lon="1.86603">
        <ele>93</ele>
        <time>2024-12-16T13:09:14.988Z</time>
      </trkpt>
      <trkpt lat="48.86769" lon="1.86602">
        <ele>93</ele>
        <time>2024-12-16T13:09:19.987Z</time>
      </trkpt>
      <trkpt lat="48.86763" lon="1.86602">
        <ele>92</ele>
        <time>2024-12-16T13:09:24.384Z</time>
      </trkpt>
      <trkpt lat="48.86758" lon="1.866">
        <ele>92</ele>
        <time>2024-12-16T13:09:28.987Z</time>
      </trkpt>
      <trkpt lat="48.86752" lon="1.86598">
        <ele>92</ele>
        <time>2024-12-16T13:09:33.330Z</time>
      </trkpt>
      <trkpt lat="48.86747" lon="1.86598">
        <ele>92</ele>
        <time>2024-12-16T13:09:37.376Z</time>
      </trkpt>
      <trkpt lat="48.86741" lon="1.86598">
        <ele>92</ele>
        <time>2024-12-16T13:09:41.847Z</time>
      </trkpt>
      <trkpt lat="48.86735" lon="1.86598">
        <ele>90</ele>
        <time>2024-12-16T13:09:46.410Z</time>
      </trkpt>
      <trkpt lat="48.86731" lon="1.86598">
        <ele>90</ele>
        <time>2024-12-16T13:09:50.744Z</time>
      </trkpt>
      <trkpt lat="48.86725" lon="1.86596">
        <ele>93</ele>
        <time>2024-12-16T13:09:55.383Z</time>
      </trkpt>
      <trkpt lat="48.86719" lon="1.86597">
        <ele>93</ele>
        <time>2024-12-16T13:09:59.987Z</time>
      </trkpt>
      <trkpt lat="48.86714" lon="1.86597">
        <ele>93</ele>
        <time>2024-12-16T13:10:04.385Z</time>
      </trkpt>
      <trkpt lat="48.86709" lon="1.86597">
        <ele>93</ele>
        <time>2024-12-16T13:10:08.870Z</time>
      </trkpt>
      <trkpt lat="48.86703" lon="1.86596">
        <ele>92</ele>
        <time>2024-12-16T13:10:13.304Z</time>
      </trkpt>
      <trkpt lat="48.86697" lon="1.86595">
        <ele>92</ele>
        <time>2024-12-16T13:10:17.645Z</time>
      </trkpt>
      <trkpt lat="48.86692" lon="1.86594">
        <ele>92</ele>
        <time>2024-12-16T13:10:22.155Z</time>
      </trkpt>
      <trkpt lat="48.86686" lon="1.86595">
        <ele>92</ele>
        <time>2024-12-16T13:10:26.484Z</time>
      </trkpt>
      <trkpt lat="48.86681" lon="1.86595">
        <ele>92</ele>
        <time>2024-12-16T13:10:30.824Z</time>
      </trkpt>
      <trkpt lat="48.86675" lon="1.86594">
        <ele>88</ele>
        <time>2024-12-16T13:10:35.210Z</time>
      </trkpt>
      <trkpt lat="48.86674" lon="1.86594">
        <ele>88</ele>
        <time>2024-12-16T13:10:35.689Z</time>
      </trkpt>
      <trkpt lat="48.86662" lon="1.86593">
        <ele>88</ele>
        <time>2024-12-16T13:10:44.948Z</time>
      </trkpt>
      <trkpt lat="48.86656" lon="1.86593">
        <ele>88</ele>
        <time>2024-12-16T13:10:49.285Z</time>
      </trkpt>
      <trkpt lat="48.8665" lon="1.86594">
        <ele>85</ele>
        <time>2024-12-16T13:10:53.320Z</time>
      </trkpt>
      <trkpt lat="48.86643" lon="1.86592">
        <ele>85</ele>
        <time>2024-12-16T13:10:57.727Z</time>
      </trkpt>
      <trkpt lat="48.86638" lon="1.86591">
        <ele>85</ele>
        <time>2024-12-16T13:11:01.988Z</time>
      </trkpt>
      <trkpt lat="48.86633" lon="1.8659">
        <ele>85</ele>
        <time>2024-12-16T13:11:06.351Z</time>
      </trkpt>
      <trkpt lat="48.86626" lon="1.86588">
        <ele>85</ele>
        <time>2024-12-16T13:11:10.773Z</time>
      </trkpt>
      <trkpt lat="48.86621" lon="1.86588">
        <ele>84</ele>
        <time>2024-12-16T13:11:14.987Z</time>
      </trkpt>
      <trkpt lat="48.86615" lon="1.86586">
        <ele>84</ele>
        <time>2024-12-16T13:11:19.489Z</time>
      </trkpt>
      <trkpt lat="48.8661" lon="1.86585">
        <ele>84</ele>
        <time>2024-12-16T13:11:23.924Z</time>
      </trkpt>
      <trkpt lat="48.86604" lon="1.86583">
        <ele>84</ele>
        <time>2024-12-16T13:11:28.266Z</time>
      </trkpt>
      <trkpt lat="48.86598" lon="1.86582">
        <ele>84</ele>
        <time>2024-12-16T13:11:32.667Z</time>
      </trkpt>
      <trkpt lat="48.86593" lon="1.86581">
        <ele>82</ele>
        <time>2024-12-16T13:11:36.988Z</time>
      </trkpt>
      <trkpt lat="48.86587" lon="1.86579">
        <ele>82</ele>
        <time>2024-12-16T13:11:41.428Z</time>
      </trkpt>
      <trkpt lat="48.86581" lon="1.8658">
        <ele>82</ele>
        <time>2024-12-16T13:11:45.727Z</time>
      </trkpt>
      <trkpt lat="48.86576" lon="1.86579">
        <ele>82</ele>
        <time>2024-12-16T13:11:49.987Z</time>
      </trkpt>
      <trkpt lat="48.8657" lon="1.8658">
        <ele>82</ele>
        <time>2024-12-16T13:11:54.488Z</time>
      </trkpt>
      <trkpt lat="48.86564" lon="1.8658">
        <ele>82</ele>
        <time>2024-12-16T13:11:58.736Z</time>
      </trkpt>
      <trkpt lat="48.8656" lon="1.86581">
        <ele>82</ele>
        <time>2024-12-16T13:12:02.882Z</time>
      </trkpt>
      <trkpt lat="48.86556" lon="1.86582">
        <ele>82</ele>
        <time>2024-12-16T13:12:06.987Z</time>
      </trkpt>
      <trkpt lat="48.8655" lon="1.86583">
        <ele>82</ele>
        <time>2024-12-16T13:12:11.987Z</time>
      </trkpt>
      <trkpt lat="48.86545" lon="1.86587">
        <ele>82</ele>
        <time>2024-12-16T13:12:16.759Z</time>
      </trkpt>
      <trkpt lat="48.86539" lon="1.86587">
        <ele>84</ele>
        <time>2024-12-16T13:12:20.896Z</time>
      </trkpt>
      <trkpt lat="48.86534" lon="1.86588">
        <ele>84</ele>
        <time>2024-12-16T13:12:24.988Z</time>
      </trkpt>
      <trkpt lat="48.86528" lon="1.86589">
        <ele>84</ele>
        <time>2024-12-16T13:12:29.699Z</time>
      </trkpt>
      <trkpt lat="48.86524" lon="1.86591">
        <ele>84</ele>
        <time>2024-12-16T13:12:33.794Z</time>
      </trkpt>
      <trkpt lat="48.86518" lon="1.86593">
        <ele>84</ele>
        <time>2024-12-16T13:12:37.939Z</time>
      </trkpt>
      <trkpt lat="48.86513" lon="1.86594">
        <ele>85</ele>
        <time>2024-12-16T13:12:42.460Z</time>
      </trkpt>
      <trkpt lat="48.86508" lon="1.86596">
        <ele>85</ele>
        <time>2024-12-16T13:12:46.987Z</time>
      </trkpt>
      <trkpt lat="48.86502" lon="1.86597">
        <ele>82</ele>
        <time>2024-12-16T13:12:51.654Z</time>
      </trkpt>
      <trkpt lat="48.86497" lon="1.86599">
        <ele>82</ele>
        <time>2024-12-16T13:12:55.987Z</time>
      </trkpt>
      <trkpt lat="48.86492" lon="1.86601">
        <ele>82</ele>
        <time>2024-12-16T13:13:00.236Z</time>
      </trkpt>
      <trkpt lat="48.86487" lon="1.86602">
        <ele>82</ele>
        <time>2024-12-16T13:13:04.458Z</time>
      </trkpt>
      <trkpt lat="48.86481" lon="1.86604">
        <ele>82</ele>
        <time>2024-12-16T13:13:08.595Z</time>
      </trkpt>
      <trkpt lat="48.86477" lon="1.86606">
        <ele>82</ele>
        <time>2024-12-16T13:13:12.639Z</time>
      </trkpt>
      <trkpt lat="48.86471" lon="1.86606">
        <ele>82</ele>
        <time>2024-12-16T13:13:16.757Z</time>
      </trkpt>
      <trkpt lat="48.86467" lon="1.86607">
        <ele>82</ele>
        <time>2024-12-16T13:13:20.817Z</time>
      </trkpt>
      <trkpt lat="48.86462" lon="1.86608">
        <ele>82</ele>
        <time>2024-12-16T13:13:24.894Z</time>
      </trkpt>
      <trkpt lat="48.86456" lon="1.86609">
        <ele>82</ele>
        <time>2024-12-16T13:13:28.997Z</time>
      </trkpt>
      <trkpt lat="48.86451" lon="1.86611">
        <ele>82</ele>
        <time>2024-12-16T13:13:33.620Z</time>
      </trkpt>
      <trkpt lat="48.86447" lon="1.86613">
        <ele>82</ele>
        <time>2024-12-16T13:13:37.740Z</time>
      </trkpt>
      <trkpt lat="48.86442" lon="1.86615">
        <ele>82</ele>
        <time>2024-12-16T13:13:41.886Z</time>
      </trkpt>
      <trkpt lat="48.86437" lon="1.86617">
        <ele>82</ele>
        <time>2024-12-16T13:13:45.987Z</time>
      </trkpt>
      <trkpt lat="48.86432" lon="1.86619">
        <ele>82</ele>
        <time>2024-12-16T13:13:50.159Z</time>
      </trkpt>
      <trkpt lat="48.86428" lon="1.86622">
        <ele>86</ele>
        <time>2024-12-16T13:13:54.265Z</time>
      </trkpt>
      <trkpt lat="48.86423" lon="1.86625">
        <ele>86</ele>
        <time>2024-12-16T13:13:58.324Z</time>
      </trkpt>
      <trkpt lat="48.86419" lon="1.86627">
        <ele>82</ele>
        <time>2024-12-16T13:14:02.415Z</time>
      </trkpt>
      <trkpt lat="48.86414" lon="1.86629">
        <ele>82</ele>
        <time>2024-12-16T13:14:06.563Z</time>
      </trkpt>
      <trkpt lat="48.86409" lon="1.8663">
        <ele>82</ele>
        <time>2024-12-16T13:14:10.654Z</time>
      </trkpt>
      <trkpt lat="48.86404" lon="1.86632">
        <ele>82</ele>
        <time>2024-12-16T13:14:14.698Z</time>
      </trkpt>
      <trkpt lat="48.86399" lon="1.86635">
        <ele>86</ele>
        <time>2024-12-16T13:14:18.835Z</time>
      </trkpt>
      <trkpt lat="48.86395" lon="1.86637">
        <ele>86</ele>
        <time>2024-12-16T13:14:22.863Z</time>
      </trkpt>
      <trkpt lat="48.8639" lon="1.86638">
        <ele>86</ele>
        <time>2024-12-16T13:14:26.990Z</time>
      </trkpt>
      <trkpt lat="48.86384" lon="1.86641">
        <ele>86</ele>
        <time>2024-12-16T13:14:31.638Z</time>
      </trkpt>
      <trkpt lat="48.8638" lon="1.86643">
        <ele>86</ele>
        <time>2024-12-16T13:14:35.988Z</time>
      </trkpt>
      <trkpt lat="48.86374" lon="1.86646">
        <ele>88</ele>
        <time>2024-12-16T13:14:40.262Z</time>
      </trkpt>
      <trkpt lat="48.8637" lon="1.86649">
        <ele>88</ele>
        <time>2024-12-16T13:14:44.382Z</time>
      </trkpt>
      <trkpt lat="48.86365" lon="1.86652">
        <ele>88</ele>
        <time>2024-12-16T13:14:48.534Z</time>
      </trkpt>
      <trkpt lat="48.8636" lon="1.86655">
        <ele>86</ele>
        <time>2024-12-16T13:14:52.655Z</time>
      </trkpt>
      <trkpt lat="48.86355" lon="1.86657">
        <ele>86</ele>
        <time>2024-12-16T13:14:57.277Z</time>
      </trkpt>
      <trkpt lat="48.86352" lon="1.86659">
        <ele>86</ele>
        <time>2024-12-16T13:14:59.988Z</time>
      </trkpt>
      <trkpt lat="48.8634" lon="1.8666">
        <ele>86</ele>
        <time>2024-12-16T13:15:09.987Z</time>
      </trkpt>
      <trkpt lat="48.86338" lon="1.86665">
        <ele>86</ele>
        <time>2024-12-16T13:15:14.060Z</time>
      </trkpt>
      <trkpt lat="48.86333" lon="1.86667">
        <ele>86</ele>
        <time>2024-12-16T13:15:18.160Z</time>
      </trkpt>
      <trkpt lat="48.86328" lon="1.86667">
        <ele>86</ele>
        <time>2024-12-16T13:15:22.988Z</time>
      </trkpt>
      <trkpt lat="48.86327" lon="1.86668">
        <ele>86</ele>
        <time>2024-12-16T13:15:25.987Z</time>
      </trkpt>
      <trkpt lat="48.86324" lon="1.86671">
        <ele>86</ele>
        <time>2024-12-16T13:15:32.876Z</time>
      </trkpt>
      <trkpt lat="48.86319" lon="1.86671">
        <ele>84</ele>
        <time>2024-12-16T13:15:37.223Z</time>
      </trkpt>
      <trkpt lat="48.86312" lon="1.86673">
        <ele>84</ele>
        <time>2024-12-16T13:15:41.620Z</time>
      </trkpt>
      <trkpt lat="48.86307" lon="1.86675">
        <ele>84</ele>
        <time>2024-12-16T13:15:45.987Z</time>
      </trkpt>
      <trkpt lat="48.86301" lon="1.86677">
        <ele>84</ele>
        <time>2024-12-16T13:15:50.988Z</time>
      </trkpt>
      <trkpt lat="48.86295" lon="1.86679">
        <ele>84</ele>
        <time>2024-12-16T13:15:55.144Z</time>
      </trkpt>
      <trkpt lat="48.8629" lon="1.8668">
        <ele>82</ele>
        <time>2024-12-16T13:15:59.696Z</time>
      </trkpt>
      <trkpt lat="48.86283" lon="1.86684">
        <ele>80</ele>
        <time>2024-12-16T13:16:41.987Z</time>
      </trkpt>
      <trkpt lat="48.86283" lon="1.86684">
        <ele>80</ele>
        <time>2024-12-16T13:16:46.987Z</time>
      </trkpt>
      <trkpt lat="48.86281" lon="1.86691">
        <ele>80</ele>
        <time>2024-12-16T13:16:51.601Z</time>
      </trkpt>
      <trkpt lat="48.86279" lon="1.86698">
        <ele>80</ele>
        <time>2024-12-16T13:16:56.063Z</time>
      </trkpt>
      <trkpt lat="48.86278" lon="1.86706">
        <ele>80</ele>
        <time>2024-12-16T13:17:00.420Z</time>
      </trkpt>
      <trkpt lat="48.86278" lon="1.86715">
        <ele>79</ele>
        <time>2024-12-16T13:17:04.659Z</time>
      </trkpt>
      <trkpt lat="48.86277" lon="1.86723">
        <ele>79</ele>
        <time>2024-12-16T13:17:08.797Z</time>
      </trkpt>
      <trkpt lat="48.86276" lon="1.86729">
        <ele>79</ele>
        <time>2024-12-16T13:17:12.988Z</time>
      </trkpt>
      <trkpt lat="48.86274" lon="1.8674">
        <ele>77</ele>
        <time>2024-12-16T13:17:17.539Z</time>
      </trkpt>
      <trkpt lat="48.86273" lon="1.86747">
        <ele>77</ele>
        <time>2024-12-16T13:17:21.838Z</time>
      </trkpt>
      <trkpt lat="48.86273" lon="1.86756">
        <ele>77</ele>
        <time>2024-12-16T13:17:26.179Z</time>
      </trkpt>
      <trkpt lat="48.86274" lon="1.86764">
        <ele>77</ele>
        <time>2024-12-16T13:17:30.418Z</time>
      </trkpt>
      <trkpt lat="48.86274" lon="1.86772">
        <ele>75</ele>
        <time>2024-12-16T13:17:34.795Z</time>
      </trkpt>
      <trkpt lat="48.86275" lon="1.86782">
        <ele>75</ele>
        <time>2024-12-16T13:17:39.158Z</time>
      </trkpt>
      <trkpt lat="48.86275" lon="1.8679">
        <ele>75</ele>
        <time>2024-12-16T13:17:43.460Z</time>
      </trkpt>
      <trkpt lat="48.86277" lon="1.86799">
        <ele>73</ele>
        <time>2024-12-16T13:17:47.614Z</time>
      </trkpt>
      <trkpt lat="48.86277" lon="1.86809">
        <ele>73</ele>
        <time>2024-12-16T13:17:51.926Z</time>
      </trkpt>
      <trkpt lat="48.86279" lon="1.86818">
        <ele>73</ele>
        <time>2024-12-16T13:17:56.238Z</time>
      </trkpt>
      <trkpt lat="48.86279" lon="1.86827">
        <ele>71</ele>
        <time>2024-12-16T13:18:00.521Z</time>
      </trkpt>
      <trkpt lat="48.86281" lon="1.86836">
        <ele>71</ele>
        <time>2024-12-16T13:18:04.863Z</time>
      </trkpt>
      <trkpt lat="48.86283" lon="1.86844">
        <ele>71</ele>
        <time>2024-12-16T13:18:09.172Z</time>
      </trkpt>
      <trkpt lat="48.86284" lon="1.86853">
        <ele>70</ele>
        <time>2024-12-16T13:18:13.356Z</time>
      </trkpt>
      <trkpt lat="48.86285" lon="1.86862">
        <ele>70</ele>
        <time>2024-12-16T13:18:17.823Z</time>
      </trkpt>
      <trkpt lat="48.86287" lon="1.86872">
        <ele>70</ele>
        <time>2024-12-16T13:18:22.145Z</time>
      </trkpt>
      <trkpt lat="48.86287" lon="1.86881">
        <ele>68</ele>
        <time>2024-12-16T13:18:26.594Z</time>
      </trkpt>
      <trkpt lat="48.86288" lon="1.8689">
        <ele>68</ele>
        <time>2024-12-16T13:18:31.098Z</time>
      </trkpt>
      <trkpt lat="48.86289" lon="1.86898">
        <ele>68</ele>
        <time>2024-12-16T13:18:35.559Z</time>
      </trkpt>
      <trkpt lat="48.86291" lon="1.86908">
        <ele>66</ele>
        <time>2024-12-16T13:18:39.917Z</time>
      </trkpt>
      <trkpt lat="48.86291" lon="1.86916">
        <ele>66</ele>
        <time>2024-12-16T13:18:44.303Z</time>
      </trkpt>
      <trkpt lat="48.86293" lon="1.86925">
        <ele>64</ele>
        <time>2024-12-16T13:18:48.575Z</time>
      </trkpt>
      <trkpt lat="48.86295" lon="1.86934">
        <ele>62</ele>
        <time>2024-12-16T13:18:52.916Z</time>
      </trkpt>
      <trkpt lat="48.86296" lon="1.86943">
        <ele>62</ele>
        <time>2024-12-16T13:18:57.275Z</time>
      </trkpt>
      <trkpt lat="48.86298" lon="1.86951">
        <ele>62</ele>
        <time>2024-12-16T13:19:01.556Z</time>
      </trkpt>
      <trkpt lat="48.8629" lon="1.8695">
        <ele>64</ele>
        <time>2024-12-16T13:19:06.119Z</time>
      </trkpt>
      <trkpt lat="48.86285" lon="1.86952">
        <ele>64</ele>
        <time>2024-12-16T13:19:10.495Z</time>
      </trkpt>
      <trkpt lat="48.8628" lon="1.86953">
        <ele>64</ele>
        <time>2024-12-16T13:19:14.777Z</time>
      </trkpt>
      <trkpt lat="48.86275" lon="1.86953">
        <ele>64</ele>
        <time>2024-12-16T13:19:19.297Z</time>
      </trkpt>
      <trkpt lat="48.86269" lon="1.86954">
        <ele>64</ele>
        <time>2024-12-16T13:19:23.859Z</time>
      </trkpt>
      <trkpt lat="48.86264" lon="1.86955">
        <ele>64</ele>
        <time>2024-12-16T13:19:28.211Z</time>
      </trkpt>
      <trkpt lat="48.86259" lon="1.86956">
        <ele>69</ele>
        <time>2024-12-16T13:19:32.845Z</time>
      </trkpt>
      <trkpt lat="48.86254" lon="1.86957">
        <ele>69</ele>
        <time>2024-12-16T13:19:37.423Z</time>
      </trkpt>
      <trkpt lat="48.86249" lon="1.86959">
        <ele>66</ele>
        <time>2024-12-16T13:19:41.441Z</time>
      </trkpt>
      <trkpt lat="48.86244" lon="1.86958">
        <ele>69</ele>
        <time>2024-12-16T13:19:45.604Z</time>
      </trkpt>
      <trkpt lat="48.86239" lon="1.86959">
        <ele>66</ele>
        <time>2024-12-16T13:19:49.679Z</time>
      </trkpt>
      <trkpt lat="48.86234" lon="1.8696">
        <ele>71</ele>
        <time>2024-12-16T13:19:53.843Z</time>
      </trkpt>
      <trkpt lat="48.86229" lon="1.86961">
        <ele>71</ele>
        <time>2024-12-16T13:19:57.994Z</time>
      </trkpt>
      <trkpt lat="48.86224" lon="1.86961">
        <ele>71</ele>
        <time>2024-12-16T13:20:02.780Z</time>
      </trkpt>
      <trkpt lat="48.8622" lon="1.86962">
        <ele>71</ele>
        <time>2024-12-16T13:20:06.987Z</time>
      </trkpt>
      <trkpt lat="48.86215" lon="1.86963">
        <ele>71</ele>
        <time>2024-12-16T13:20:11.062Z</time>
      </trkpt>
      <trkpt lat="48.8621" lon="1.86964">
        <ele>71</ele>
        <time>2024-12-16T13:20:15.702Z</time>
      </trkpt>
      <trkpt lat="48.86205" lon="1.86966">
        <ele>74</ele>
        <time>2024-12-16T13:20:19.854Z</time>
      </trkpt>
      <trkpt lat="48.86201" lon="1.86966">
        <ele>74</ele>
        <time>2024-12-16T13:20:23.987Z</time>
      </trkpt>
      <trkpt lat="48.86196" lon="1.86967">
        <ele>74</ele>
        <time>2024-12-16T13:20:28.291Z</time>
      </trkpt>
      <trkpt lat="48.86191" lon="1.86968">
        <ele>74</ele>
        <time>2024-12-16T13:20:32.777Z</time>
      </trkpt>
      <trkpt lat="48.86186" lon="1.86969">
        <ele>74</ele>
        <time>2024-12-16T13:20:36.987Z</time>
      </trkpt>
      <trkpt lat="48.86182" lon="1.86971">
        <ele>74</ele>
        <time>2024-12-16T13:20:41.196Z</time>
      </trkpt>
      <trkpt lat="48.86177" lon="1.86972">
        <ele>76</ele>
        <time>2024-12-16T13:20:45.358Z</time>
      </trkpt>
      <trkpt lat="48.86172" lon="1.86973">
        <ele>76</ele>
        <time>2024-12-16T13:20:49.597Z</time>
      </trkpt>
      <trkpt lat="48.86167" lon="1.86974">
        <ele>76</ele>
        <time>2024-12-16T13:20:53.804Z</time>
      </trkpt>
      <trkpt lat="48.86162" lon="1.86976">
        <ele>76</ele>
        <time>2024-12-16T13:20:57.864Z</time>
      </trkpt>
      <trkpt lat="48.86157" lon="1.86978">
        <ele>76</ele>
        <time>2024-12-16T13:21:01.939Z</time>
      </trkpt>
      <trkpt lat="48.86153" lon="1.86979">
        <ele>78</ele>
        <time>2024-12-16T13:21:06.340Z</time>
      </trkpt>
      <trkpt lat="48.86148" lon="1.86979">
        <ele>78</ele>
        <time>2024-12-16T13:21:10.459Z</time>
      </trkpt>
      <trkpt lat="48.86142" lon="1.8698">
        <ele>78</ele>
        <time>2024-12-16T13:21:14.988Z</time>
      </trkpt>
      <trkpt lat="48.86136" lon="1.86981">
        <ele>78</ele>
        <time>2024-12-16T13:21:19.680Z</time>
      </trkpt>
      <trkpt lat="48.86131" lon="1.86983">
        <ele>78</ele>
        <time>2024-12-16T13:21:23.987Z</time>
      </trkpt>
      <trkpt lat="48.86125" lon="1.86984">
        <ele>79</ele>
        <time>2024-12-16T13:21:28.567Z</time>
      </trkpt>
      <trkpt lat="48.86119" lon="1.86986">
        <ele>79</ele>
        <time>2024-12-16T13:21:32.987Z</time>
      </trkpt>
      <trkpt lat="48.86114" lon="1.86987">
        <ele>76</ele>
        <time>2024-12-16T13:21:37.268Z</time>
      </trkpt>
      <trkpt lat="48.86109" lon="1.86988">
        <ele>76</ele>
        <time>2024-12-16T13:21:41.303Z</time>
      </trkpt>
      <trkpt lat="48.86104" lon="1.86989">
        <ele>76</ele>
        <time>2024-12-16T13:21:45.363Z</time>
      </trkpt>
      <trkpt lat="48.86099" lon="1.8699">
        <ele>76</ele>
        <time>2024-12-16T13:21:49.720Z</time>
      </trkpt>
      <trkpt lat="48.86094" lon="1.8699">
        <ele>77</ele>
        <time>2024-12-16T13:21:53.839Z</time>
      </trkpt>
      <trkpt lat="48.86088" lon="1.86991">
        <ele>77</ele>
        <time>2024-12-16T13:21:58.003Z</time>
      </trkpt>
      <trkpt lat="48.86083" lon="1.86992">
        <ele>77</ele>
        <time>2024-12-16T13:22:02.704Z</time>
      </trkpt>
      <trkpt lat="48.86078" lon="1.86994">
        <ele>77</ele>
        <time>2024-12-16T13:22:07.308Z</time>
      </trkpt>
      <trkpt lat="48.86073" lon="1.86995">
        <ele>77</ele>
        <time>2024-12-16T13:22:11.427Z</time>
      </trkpt>
      <trkpt lat="48.86068" lon="1.86997">
        <ele>78</ele>
        <time>2024-12-16T13:22:15.523Z</time>
      </trkpt>
      <trkpt lat="48.86062" lon="1.86999">
        <ele>78</ele>
        <time>2024-12-16T13:22:19.987Z</time>
      </trkpt>
      <trkpt lat="48.86056" lon="1.87001">
        <ele>78</ele>
        <time>2024-12-16T13:22:24.707Z</time>
      </trkpt>
      <trkpt lat="48.86051" lon="1.87002">
        <ele>78</ele>
        <time>2024-12-16T13:22:28.988Z</time>
      </trkpt>
      <trkpt lat="48.86044" lon="1.87004">
        <ele>78</ele>
        <time>2024-12-16T13:22:33.740Z</time>
      </trkpt>
      <trkpt lat="48.86039" lon="1.87006">
        <ele>80</ele>
        <time>2024-12-16T13:22:38.082Z</time>
      </trkpt>
      <trkpt lat="48.86034" lon="1.87008">
        <ele>80</ele>
        <time>2024-12-16T13:22:42.285Z</time>
      </trkpt>
      <trkpt lat="48.86028" lon="1.8701">
        <ele>80</ele>
        <time>2024-12-16T13:22:46.747Z</time>
      </trkpt>
      <trkpt lat="48.86022" lon="1.87012">
        <ele>80</ele>
        <time>2024-12-16T13:22:51.327Z</time>
      </trkpt>
      <trkpt lat="48.86017" lon="1.87015">
        <ele>79</ele>
        <time>2024-12-16T13:22:55.847Z</time>
      </trkpt>
      <trkpt lat="48.86011" lon="1.87017">
        <ele>80</ele>
        <time>2024-12-16T13:23:00.367Z</time>
      </trkpt>
      <trkpt lat="48.86006" lon="1.8702">
        <ele>80</ele>
        <time>2024-12-16T13:23:04.803Z</time>
      </trkpt>
      <trkpt lat="48.86" lon="1.87023">
        <ele>80</ele>
        <time>2024-12-16T13:23:09.323Z</time>
      </trkpt>
      <trkpt lat="48.85995" lon="1.87027">
        <ele>80</ele>
        <time>2024-12-16T13:23:13.803Z</time>
      </trkpt>
      <trkpt lat="48.85989" lon="1.87029">
        <ele>80</ele>
        <time>2024-12-16T13:23:18.228Z</time>
      </trkpt>
      <trkpt lat="48.85985" lon="1.87032">
        <ele>78</ele>
        <time>2024-12-16T13:23:22.288Z</time>
      </trkpt>
      <trkpt lat="48.85979" lon="1.87035">
        <ele>78</ele>
        <time>2024-12-16T13:23:26.843Z</time>
      </trkpt>
      <trkpt lat="48.85974" lon="1.87038">
        <ele>78</ele>
        <time>2024-12-16T13:23:31.422Z</time>
      </trkpt>
      <trkpt lat="48.85968" lon="1.87041">
        <ele>78</ele>
        <time>2024-12-16T13:23:35.987Z</time>
      </trkpt>
      <trkpt lat="48.85963" lon="1.87044">
        <ele>76</ele>
        <time>2024-12-16T13:23:40.704Z</time>
      </trkpt>
      <trkpt lat="48.8596" lon="1.87046">
        <ele>76</ele>
        <time>2024-12-16T13:23:44.988Z</time>
      </trkpt>
      <trkpt lat="48.85959" lon="1.87047">
        <ele>76</ele>
        <time>2024-12-16T13:23:49.988Z</time>
      </trkpt>
      <trkpt lat="48.85953" lon="1.87048">
        <ele>76</ele>
        <time>2024-12-16T13:23:54.707Z</time>
      </trkpt>
      <trkpt lat="48.8595" lon="1.87049">
        <ele>76</ele>
        <time>2024-12-16T13:23:58.826Z</time>
      </trkpt>
      <trkpt lat="48.8595" lon="1.87049">
        <ele>76</ele>
        <time>2024-12-16T13:24:18.988Z</time>
      </trkpt>
      <trkpt lat="48.85951" lon="1.87048">
        <ele>76</ele>
        <time>2024-12-16T13:24:23.988Z</time>
      </trkpt>
      <trkpt lat="48.85949" lon="1.87045">
        <ele>76</ele>
        <time>2024-12-16T13:24:28.203Z</time>
      </trkpt>
      <trkpt lat="48.85946" lon="1.87039">
        <ele>77</ele>
        <time>2024-12-16T13:24:32.783Z</time>
      </trkpt>
      <trkpt lat="48.85943" lon="1.87034">
        <ele>77</ele>
        <time>2024-12-16T13:24:36.830Z</time>
      </trkpt>
      <trkpt lat="48.8594" lon="1.87028">
        <ele>77</ele>
        <time>2024-12-16T13:24:40.884Z</time>
      </trkpt>
      <trkpt lat="48.85938" lon="1.87022">
        <ele>77</ele>
        <time>2024-12-16T13:24:45.225Z</time>
      </trkpt>
      <trkpt lat="48.85935" lon="1.87015">
        <ele>77</ele>
        <time>2024-12-16T13:24:49.723Z</time>
      </trkpt>
      <trkpt lat="48.85932" lon="1.87008">
        <ele>79</ele>
        <time>2024-12-16T13:24:54.385Z</time>
      </trkpt>
      <trkpt lat="48.85929" lon="1.87002">
        <ele>78</ele>
        <time>2024-12-16T13:24:58.940Z</time>
      </trkpt>
      <trkpt lat="48.85926" lon="1.86995">
        <ele>78</ele>
        <time>2024-12-16T13:25:03.085Z</time>
      </trkpt>
      <trkpt lat="48.85923" lon="1.8699">
        <ele>78</ele>
        <time>2024-12-16T13:25:07.145Z</time>
      </trkpt>
      <trkpt lat="48.85921" lon="1.86983">
        <ele>80</ele>
        <time>2024-12-16T13:25:11.404Z</time>
      </trkpt>
      <trkpt lat="48.85918" lon="1.86978">
        <ele>80</ele>
        <time>2024-12-16T13:25:15.964Z</time>
      </trkpt>
      <trkpt lat="48.85915" lon="1.86972">
        <ele>80</ele>
        <time>2024-12-16T13:25:20.340Z</time>
      </trkpt>
      <trkpt lat="48.85911" lon="1.86968">
        <ele>80</ele>
        <time>2024-12-16T13:25:24.486Z</time>
      </trkpt>
      <trkpt lat="48.85907" lon="1.86964">
        <ele>80</ele>
        <time>2024-12-16T13:25:28.563Z</time>
      </trkpt>
      <trkpt lat="48.85903" lon="1.86964">
        <ele>80</ele>
        <time>2024-12-16T13:25:32.988Z</time>
      </trkpt>
      <trkpt lat="48.859" lon="1.86966">
        <ele>81</ele>
        <time>2024-12-16T13:25:37.903Z</time>
      </trkpt>
      <trkpt lat="48.85898" lon="1.8697">
        <ele>81</ele>
        <time>2024-12-16T13:25:41.987Z</time>
      </trkpt>
      <trkpt lat="48.85897" lon="1.86973">
        <ele>81</ele>
        <time>2024-12-16T13:25:45.987Z</time>
      </trkpt>
      <trkpt lat="48.85894" lon="1.86976">
        <ele>81</ele>
        <time>2024-12-16T13:25:50.663Z</time>
      </trkpt>
      <trkpt lat="48.8589" lon="1.86979">
        <ele>81</ele>
        <time>2024-12-16T13:25:54.987Z</time>
      </trkpt>
      <trkpt lat="48.85885" lon="1.86982">
        <ele>81</ele>
        <time>2024-12-16T13:25:59.885Z</time>
      </trkpt>
      <trkpt lat="48.8588" lon="1.86985">
        <ele>81</ele>
        <time>2024-12-16T13:26:04.283Z</time>
      </trkpt>
      <trkpt lat="48.85875" lon="1.86989">
        <ele>79</ele>
        <time>2024-12-16T13:26:08.623Z</time>
      </trkpt>
      <trkpt lat="48.85871" lon="1.86994">
        <ele>78</ele>
        <time>2024-12-16T13:26:12.972Z</time>
      </trkpt>
      <trkpt lat="48.85866" lon="1.87006">
        <ele>78</ele>
        <time>2024-12-16T13:26:17.292Z</time>
      </trkpt>
      <trkpt lat="48.85864" lon="1.87018">
        <ele>76</ele>
        <time>2024-12-16T13:26:21.551Z</time>
      </trkpt>
      <trkpt lat="48.8586" lon="1.87023">
        <ele>76</ele>
        <time>2024-12-16T13:26:25.829Z</time>
      </trkpt>
      <trkpt lat="48.85856" lon="1.8703">
        <ele>76</ele>
        <time>2024-12-16T13:26:29.987Z</time>
      </trkpt>
      <trkpt lat="48.85852" lon="1.87035">
        <ele>76</ele>
        <time>2024-12-16T13:26:34.223Z</time>
      </trkpt>
      <trkpt lat="48.85848" lon="1.87042">
        <ele>74</ele>
        <time>2024-12-16T13:26:38.490Z</time>
      </trkpt>
      <trkpt lat="48.85844" lon="1.87048">
        <ele>72</ele>
        <time>2024-12-16T13:26:42.724Z</time>
      </trkpt>
      <trkpt lat="48.85839" lon="1.87054">
        <ele>72</ele>
        <time>2024-12-16T13:26:46.979Z</time>
      </trkpt>
      <trkpt lat="48.85835" lon="1.87061">
        <ele>72</ele>
        <time>2024-12-16T13:26:51.249Z</time>
      </trkpt>
      <trkpt lat="48.85831" lon="1.87066">
        <ele>72</ele>
        <time>2024-12-16T13:26:55.502Z</time>
      </trkpt>
      <trkpt lat="48.85827" lon="1.87074">
        <ele>70</ele>
        <time>2024-12-16T13:26:59.780Z</time>
      </trkpt>
      <trkpt lat="48.85823" lon="1.8708">
        <ele>70</ele>
        <time>2024-12-16T13:27:04.049Z</time>
      </trkpt>
      <trkpt lat="48.8582" lon="1.87087">
        <ele>70</ele>
        <time>2024-12-16T13:27:08.315Z</time>
      </trkpt>
      <trkpt lat="48.85816" lon="1.87094">
        <ele>68</ele>
        <time>2024-12-16T13:27:12.973Z</time>
      </trkpt>
      <trkpt lat="48.85812" lon="1.87101">
        <ele>66</ele>
        <time>2024-12-16T13:27:17.812Z</time>
      </trkpt>
      <trkpt lat="48.85807" lon="1.87107">
        <ele>66</ele>
        <time>2024-12-16T13:27:22.218Z</time>
      </trkpt>
      <trkpt lat="48.85803" lon="1.87112">
        <ele>66</ele>
        <time>2024-12-16T13:27:26.538Z</time>
      </trkpt>
      <trkpt lat="48.85799" lon="1.87117">
        <ele>66</ele>
        <time>2024-12-16T13:27:30.856Z</time>
      </trkpt>
      <trkpt lat="48.85794" lon="1.87123">
        <ele>66</ele>
        <time>2024-12-16T13:27:35.215Z</time>
      </trkpt>
      <trkpt lat="48.85791" lon="1.87128">
        <ele>61</ele>
        <time>2024-12-16T13:27:39.534Z</time>
      </trkpt>
      <trkpt lat="48.85787" lon="1.87134">
        <ele>61</ele>
        <time>2024-12-16T13:27:43.987Z</time>
      </trkpt>
      <trkpt lat="48.85782" lon="1.8714">
        <ele>61</ele>
        <time>2024-12-16T13:27:48.291Z</time>
      </trkpt>
      <trkpt lat="48.85776" lon="1.87144">
        <ele>61</ele>
        <time>2024-12-16T13:27:52.638Z</time>
      </trkpt>
      <trkpt lat="48.85774" lon="1.87151">
        <ele>61</ele>
        <time>2024-12-16T13:27:56.987Z</time>
      </trkpt>
      <trkpt lat="48.8577" lon="1.87156">
        <ele>60</ele>
        <time>2024-12-16T13:28:01.719Z</time>
      </trkpt>
      <trkpt lat="48.85766" lon="1.87152">
        <ele>61</ele>
        <time>2024-12-16T13:28:05.838Z</time>
      </trkpt>
      <trkpt lat="48.85761" lon="1.87151">
        <ele>60</ele>
        <time>2024-12-16T13:28:09.916Z</time>
      </trkpt>
      <trkpt lat="48.8576" lon="1.87153">
        <ele>59</ele>
        <time>2024-12-16T13:28:13.988Z</time>
      </trkpt>
      <trkpt lat="48.8576" lon="1.87153">
        <ele>59</ele>
        <time>2024-12-16T13:28:18.988Z</time>
      </trkpt>
      <trkpt lat="48.85759" lon="1.87153">
        <ele>59</ele>
        <time>2024-12-16T13:28:23.156Z</time>
      </trkpt>
      <trkpt lat="48.85754" lon="1.87149">
        <ele>60</ele>
        <time>2024-12-16T13:28:27.233Z</time>
      </trkpt>
      <trkpt lat="48.8575" lon="1.87145">
        <ele>60</ele>
        <time>2024-12-16T13:28:31.532Z</time>
      </trkpt>
      <trkpt lat="48.85745" lon="1.87139">
        <ele>60</ele>
        <time>2024-12-16T13:28:35.890Z</time>
      </trkpt>
      <trkpt lat="48.85741" lon="1.87134">
        <ele>60</ele>
        <time>2024-12-16T13:28:40.233Z</time>
      </trkpt>
      <trkpt lat="48.85736" lon="1.87129">
        <ele>60</ele>
        <time>2024-12-16T13:28:44.490Z</time>
      </trkpt>
      <trkpt lat="48.85731" lon="1.87124">
        <ele>59</ele>
        <time>2024-12-16T13:28:48.730Z</time>
      </trkpt>
      <trkpt lat="48.85726" lon="1.87121">
        <ele>59</ele>
        <time>2024-12-16T13:28:52.996Z</time>
      </trkpt>
      <trkpt lat="48.85721" lon="1.87117">
        <ele>59</ele>
        <time>2024-12-16T13:28:57.195Z</time>
      </trkpt>
      <trkpt lat="48.85716" lon="1.87113">
        <ele>59</ele>
        <time>2024-12-16T13:29:01.517Z</time>
      </trkpt>
      <trkpt lat="48.85712" lon="1.8711">
        <ele>59</ele>
        <time>2024-12-16T13:29:05.594Z</time>
      </trkpt>
      <trkpt lat="48.85711" lon="1.87122">
        <ele>59</ele>
        <time>2024-12-16T13:29:09.987Z</time>
      </trkpt>
      <trkpt lat="48.85707" lon="1.87126">
        <ele>57</ele>
        <time>2024-12-16T13:29:14.517Z</time>
      </trkpt>
      <trkpt lat="48.85704" lon="1.87131">
        <ele>57</ele>
        <time>2024-12-16T13:29:18.791Z</time>
      </trkpt>
      <trkpt lat="48.85701" lon="1.87137">
        <ele>57</ele>
        <time>2024-12-16T13:29:23.115Z</time>
      </trkpt>
      <trkpt lat="48.85697" lon="1.87144">
        <ele>57</ele>
        <time>2024-12-16T13:29:27.457Z</time>
      </trkpt>
      <trkpt lat="48.85694" lon="1.87149">
        <ele>57</ele>
        <time>2024-12-16T13:29:31.713Z</time>
      </trkpt>
      <trkpt lat="48.8569" lon="1.87154">
        <ele>56</ele>
        <time>2024-12-16T13:29:36.055Z</time>
      </trkpt>
      <trkpt lat="48.85686" lon="1.87159">
        <ele>56</ele>
        <time>2024-12-16T13:29:40.354Z</time>
      </trkpt>
      <trkpt lat="48.85682" lon="1.87165">
        <ele>56</ele>
        <time>2024-12-16T13:29:44.517Z</time>
      </trkpt>
      <trkpt lat="48.85677" lon="1.8717">
        <ele>56</ele>
        <time>2024-12-16T13:29:48.756Z</time>
      </trkpt>
      <trkpt lat="48.8567" lon="1.87168">
        <ele>56</ele>
        <time>2024-12-16T13:29:52.987Z</time>
      </trkpt>
      <trkpt lat="48.85663" lon="1.87166">
        <ele>56</ele>
        <time>2024-12-16T13:29:57.610Z</time>
      </trkpt>
      <trkpt lat="48.85657" lon="1.87164">
        <ele>56</ele>
        <time>2024-12-16T13:30:46.987Z</time>
      </trkpt>
      <trkpt lat="48.85658" lon="1.8716">
        <ele>56</ele>
        <time>2024-12-16T13:30:50.987Z</time>
      </trkpt>
      <trkpt lat="48.85656" lon="1.87157">
        <ele>56</ele>
        <time>2024-12-16T13:30:55.988Z</time>
      </trkpt>
      <trkpt lat="48.85656" lon="1.87155">
        <ele>56</ele>
        <time>2024-12-16T13:31:00.696Z</time>
      </trkpt>
      <trkpt lat="48.85648" lon="1.87153">
        <ele>56</ele>
        <time>2024-12-16T13:31:05.216Z</time>
      </trkpt>
      <trkpt lat="48.85644" lon="1.87155">
        <ele>56</ele>
        <time>2024-12-16T13:31:09.576Z</time>
      </trkpt>
      <trkpt lat="48.8564" lon="1.87159">
        <ele>56</ele>
        <time>2024-12-16T13:31:13.758Z</time>
      </trkpt>
      <trkpt lat="48.85635" lon="1.87161">
        <ele>56</ele>
        <time>2024-12-16T13:31:17.935Z</time>
      </trkpt>
      <trkpt lat="48.85631" lon="1.87161">
        <ele>56</ele>
        <time>2024-12-16T13:31:22.431Z</time>
      </trkpt>
      <trkpt lat="48.85625" lon="1.87162">
        <ele>56</ele>
        <time>2024-12-16T13:31:26.533Z</time>
      </trkpt>
      <trkpt lat="48.85621" lon="1.87163">
        <ele>56</ele>
        <time>2024-12-16T13:31:30.636Z</time>
      </trkpt>
      <trkpt lat="48.85616" lon="1.87164">
        <ele>56</ele>
        <time>2024-12-16T13:31:35.097Z</time>
      </trkpt>
      <trkpt lat="48.85609" lon="1.87164">
        <ele>56</ele>
        <time>2024-12-16T13:31:39.574Z</time>
      </trkpt>
      <trkpt lat="48.85603" lon="1.87164">
        <ele>56</ele>
        <time>2024-12-16T13:31:43.797Z</time>
      </trkpt>
      <trkpt lat="48.85597" lon="1.87165">
        <ele>56</ele>
        <time>2024-12-16T13:31:48.215Z</time>
      </trkpt>
      <trkpt lat="48.85592" lon="1.87166">
        <ele>55</ele>
        <time>2024-12-16T13:31:52.617Z</time>
      </trkpt>
      <trkpt lat="48.85586" lon="1.87169">
        <ele>55</ele>
        <time>2024-12-16T13:31:56.975Z</time>
      </trkpt>
      <trkpt lat="48.85581" lon="1.87172">
        <ele>55</ele>
        <time>2024-12-16T13:32:00.988Z</time>
      </trkpt>
      <trkpt lat="48.85578" lon="1.87166">
        <ele>55</ele>
        <time>2024-12-16T13:32:05.453Z</time>
      </trkpt>
      <trkpt lat="48.85574" lon="1.87164">
        <ele>55</ele>
        <time>2024-12-16T13:32:09.472Z</time>
      </trkpt>
      <trkpt lat="48.8557" lon="1.87162">
        <ele>55</ele>
        <time>2024-12-16T13:32:13.898Z</time>
      </trkpt>
      <trkpt lat="48.85567" lon="1.87152">
        <ele>57</ele>
        <time>2024-12-16T13:32:22.197Z</time>
      </trkpt>
      <trkpt lat="48.85565" lon="1.87152">
        <ele>57</ele>
        <time>2024-12-16T13:32:26.257Z</time>
      </trkpt>
      <trkpt lat="48.85562" lon="1.87154">
        <ele>56</ele>
        <time>2024-12-16T13:32:30.933Z</time>
      </trkpt>
      <trkpt lat="48.8556" lon="1.8716">
        <ele>56</ele>
        <time>2024-12-16T13:32:35.598Z</time>
      </trkpt>
      <trkpt lat="48.85556" lon="1.87162">
        <ele>56</ele>
        <time>2024-12-16T13:32:39.718Z</time>
      </trkpt>
      <trkpt lat="48.85552" lon="1.87162">
        <ele>56</ele>
        <time>2024-12-16T13:32:43.777Z</time>
      </trkpt>
      <trkpt lat="48.85549" lon="1.87161">
        <ele>56</ele>
        <time>2024-12-16T13:32:47.988Z</time>
      </trkpt>
      <trkpt lat="48.85545" lon="1.87162">
        <ele>56</ele>
        <time>2024-12-16T13:32:52.723Z</time>
      </trkpt>
      <trkpt lat="48.8554" lon="1.87164">
        <ele>60</ele>
        <time>2024-12-16T13:32:57.272Z</time>
      </trkpt>
      <trkpt lat="48.85536" lon="1.87164">
        <ele>60</ele>
        <time>2024-12-16T13:33:01.987Z</time>
      </trkpt>
      <trkpt lat="48.85531" lon="1.87165">
        <ele>60</ele>
        <time>2024-12-16T13:33:06.995Z</time>
      </trkpt>
      <trkpt lat="48.85527" lon="1.87166">
        <ele>60</ele>
        <time>2024-12-16T13:33:11.635Z</time>
      </trkpt>
      <trkpt lat="48.85523" lon="1.87167">
        <ele>60</ele>
        <time>2024-12-16T13:33:15.856Z</time>
      </trkpt>
      <trkpt lat="48.8552" lon="1.87168">
        <ele>60</ele>
        <time>2024-12-16T13:33:19.988Z</time>
      </trkpt>
      <trkpt lat="48.85516" lon="1.87168">
        <ele>60</ele>
        <time>2024-12-16T13:33:24.736Z</time>
      </trkpt>
      <trkpt lat="48.85512" lon="1.87169">
        <ele>65</ele>
        <time>2024-12-16T13:33:28.987Z</time>
      </trkpt>
      <trkpt lat="48.85508" lon="1.87169">
        <ele>65</ele>
        <time>2024-12-16T13:33:33.680Z</time>
      </trkpt>
      <trkpt lat="48.85504" lon="1.87169">
        <ele>65</ele>
        <time>2024-12-16T13:33:37.988Z</time>
      </trkpt>
      <trkpt lat="48.85501" lon="1.87169">
        <ele>65</ele>
        <time>2024-12-16T13:33:42.255Z</time>
      </trkpt>
      <trkpt lat="48.85497" lon="1.87171">
        <ele>65</ele>
        <time>2024-12-16T13:33:46.494Z</time>
      </trkpt>
      <trkpt lat="48.85494" lon="1.87171">
        <ele>65</ele>
        <time>2024-12-16T13:33:50.987Z</time>
      </trkpt>
      <trkpt lat="48.85489" lon="1.87172">
        <ele>65</ele>
        <time>2024-12-16T13:33:55.535Z</time>
      </trkpt>
      <trkpt lat="48.85486" lon="1.87172">
        <ele>65</ele>
        <time>2024-12-16T13:33:59.572Z</time>
      </trkpt>
      <trkpt lat="48.85484" lon="1.87176">
        <ele>71</ele>
        <time>2024-12-16T13:34:03.987Z</time>
      </trkpt>
      <trkpt lat="48.85481" lon="1.87182">
        <ele>69</ele>
        <time>2024-12-16T13:34:08.391Z</time>
      </trkpt>
      <trkpt lat="48.85478" lon="1.87188">
        <ele>69</ele>
        <time>2024-12-16T13:34:12.911Z</time>
      </trkpt>
      <trkpt lat="48.85475" lon="1.87195">
        <ele>69</ele>
        <time>2024-12-16T13:34:17.355Z</time>
      </trkpt>
      <trkpt lat="48.85471" lon="1.872">
        <ele>69</ele>
        <time>2024-12-16T13:34:21.431Z</time>
      </trkpt>
      <trkpt lat="48.85468" lon="1.87206">
        <ele>69</ele>
        <time>2024-12-16T13:34:25.518Z</time>
      </trkpt>
      <trkpt lat="48.85463" lon="1.87209">
        <ele>67</ele>
        <time>2024-12-16T13:34:29.987Z</time>
      </trkpt>
      <trkpt lat="48.85458" lon="1.87212">
        <ele>69</ele>
        <time>2024-12-16T13:34:34.635Z</time>
      </trkpt>
      <trkpt lat="48.85453" lon="1.87217">
        <ele>69</ele>
        <time>2024-12-16T13:34:38.987Z</time>
      </trkpt>
      <trkpt lat="48.85449" lon="1.87224">
        <ele>69</ele>
        <time>2024-12-16T13:34:43.915Z</time>
      </trkpt>
      <trkpt lat="48.85444" lon="1.8723">
        <ele>69</ele>
        <time>2024-12-16T13:34:48.274Z</time>
      </trkpt>
      <trkpt lat="48.85438" lon="1.87235">
        <ele>69</ele>
        <time>2024-12-16T13:34:52.988Z</time>
      </trkpt>
      <trkpt lat="48.85434" lon="1.87239">
        <ele>66</ele>
        <time>2024-12-16T13:34:57.238Z</time>
      </trkpt>
      <trkpt lat="48.85429" lon="1.87243">
        <ele>72</ele>
        <time>2024-12-16T13:35:01.599Z</time>
      </trkpt>
      <trkpt lat="48.85424" lon="1.87246">
        <ele>72</ele>
        <time>2024-12-16T13:35:05.836Z</time>
      </trkpt>
      <trkpt lat="48.85419" lon="1.87251">
        <ele>72</ele>
        <time>2024-12-16T13:35:10.237Z</time>
      </trkpt>
      <trkpt lat="48.85414" lon="1.87255">
        <ele>72</ele>
        <time>2024-12-16T13:35:14.732Z</time>
      </trkpt>
      <trkpt lat="48.85409" lon="1.87259">
        <ele>72</ele>
        <time>2024-12-16T13:35:18.954Z</time>
      </trkpt>
      <trkpt lat="48.85404" lon="1.87262">
        <ele>72</ele>
        <time>2024-12-16T13:35:22.971Z</time>
      </trkpt>
      <trkpt lat="48.85399" lon="1.87267">
        <ele>75</ele>
        <time>2024-12-16T13:35:27.578Z</time>
      </trkpt>
      <trkpt lat="48.85394" lon="1.87272">
        <ele>75</ele>
        <time>2024-12-16T13:35:31.911Z</time>
      </trkpt>
      <trkpt lat="48.85389" lon="1.87276">
        <ele>75</ele>
        <time>2024-12-16T13:35:35.987Z</time>
      </trkpt>
      <trkpt lat="48.85383" lon="1.87279">
        <ele>75</ele>
        <time>2024-12-16T13:35:40.457Z</time>
      </trkpt>
      <trkpt lat="48.85378" lon="1.87284">
        <ele>75</ele>
        <time>2024-12-16T13:35:44.918Z</time>
      </trkpt>
      <trkpt lat="48.85372" lon="1.87288">
        <ele>77</ele>
        <time>2024-12-16T13:35:49.455Z</time>
      </trkpt>
      <trkpt lat="48.85367" lon="1.87292">
        <ele>73</ele>
        <time>2024-12-16T13:35:53.800Z</time>
      </trkpt>
      <trkpt lat="48.85362" lon="1.87298">
        <ele>73</ele>
        <time>2024-12-16T13:35:58.233Z</time>
      </trkpt>
      <trkpt lat="48.85357" lon="1.87303">
        <ele>73</ele>
        <time>2024-12-16T13:36:02.753Z</time>
      </trkpt>
      <trkpt lat="48.85353" lon="1.87309">
        <ele>73</ele>
        <time>2024-12-16T13:36:06.831Z</time>
      </trkpt>
      <trkpt lat="48.85349" lon="1.87315">
        <ele>73</ele>
        <time>2024-12-16T13:36:10.987Z</time>
      </trkpt>
      <trkpt lat="48.85346" lon="1.87321">
        <ele>74</ele>
        <time>2024-12-16T13:36:15.172Z</time>
      </trkpt>
      <trkpt lat="48.85341" lon="1.87327">
        <ele>74</ele>
        <time>2024-12-16T13:36:19.352Z</time>
      </trkpt>
      <trkpt lat="48.85337" lon="1.87334">
        <ele>74</ele>
        <time>2024-12-16T13:36:23.382Z</time>
      </trkpt>
      <trkpt lat="48.85333" lon="1.87339">
        <ele>74</ele>
        <time>2024-12-16T13:36:27.812Z</time>
      </trkpt>
      <trkpt lat="48.85328" lon="1.87341">
        <ele>74</ele>
        <time>2024-12-16T13:36:31.988Z</time>
      </trkpt>
      <trkpt lat="48.85323" lon="1.87343">
        <ele>74</ele>
        <time>2024-12-16T13:36:36.111Z</time>
      </trkpt>
      <trkpt lat="48.85319" lon="1.87345">
        <ele>79</ele>
        <time>2024-12-16T13:36:40.148Z</time>
      </trkpt>
      <trkpt lat="48.85315" lon="1.87345">
        <ele>79</ele>
        <time>2024-12-16T13:36:44.599Z</time>
      </trkpt>
      <trkpt lat="48.85314" lon="1.87351">
        <ele>76</ele>
        <time>2024-12-16T13:37:33.451Z</time>
      </trkpt>
      <trkpt lat="48.8531" lon="1.87362">
        <ele>76</ele>
        <time>2024-12-16T13:37:37.945Z</time>
      </trkpt>
      <trkpt lat="48.853" lon="1.87363">
        <ele>76</ele>
        <time>2024-12-16T13:37:41.987Z</time>
      </trkpt>
      <trkpt lat="48.85296" lon="1.87365">
        <ele>76</ele>
        <time>2024-12-16T13:37:46.770Z</time>
      </trkpt>
      <trkpt lat="48.85295" lon="1.87365">
        <ele>76</ele>
        <time>2024-12-16T13:37:50.987Z</time>
      </trkpt>
      <trkpt lat="48.85294" lon="1.87365">
        <ele>76</ele>
        <time>2024-12-16T13:38:25.987Z</time>
      </trkpt>
      <trkpt lat="48.8529" lon="1.87369">
        <ele>80</ele>
        <time>2024-12-16T13:38:29.988Z</time>
      </trkpt>
      <trkpt lat="48.85286" lon="1.87373">
        <ele>80</ele>
        <time>2024-12-16T13:38:34.325Z</time>
      </trkpt>
      <trkpt lat="48.85283" lon="1.87376">
        <ele>76</ele>
        <time>2024-12-16T13:38:38.368Z</time>
      </trkpt>
      <trkpt lat="48.8528" lon="1.8738">
        <ele>76</ele>
        <time>2024-12-16T13:38:42.430Z</time>
      </trkpt>
      <trkpt lat="48.85275" lon="1.87383">
        <ele>76</ele>
        <time>2024-12-16T13:38:46.507Z</time>
      </trkpt>
      <trkpt lat="48.85271" lon="1.87386">
        <ele>76</ele>
        <time>2024-12-16T13:38:50.789Z</time>
      </trkpt>
      <trkpt lat="48.85267" lon="1.87389">
        <ele>76</ele>
        <time>2024-12-16T13:38:54.832Z</time>
      </trkpt>
      <trkpt lat="48.85263" lon="1.87391">
        <ele>78</ele>
        <time>2024-12-16T13:38:58.987Z</time>
      </trkpt>
      <trkpt lat="48.85259" lon="1.87394">
        <ele>78</ele>
        <time>2024-12-16T13:39:02.987Z</time>
      </trkpt>
      <trkpt lat="48.85254" lon="1.87396">
        <ele>78</ele>
        <time>2024-12-16T13:39:07.524Z</time>
      </trkpt>
      <trkpt lat="48.85249" lon="1.87399">
        <ele>78</ele>
        <time>2024-12-16T13:39:11.988Z</time>
      </trkpt>
      <trkpt lat="48.85244" lon="1.87398">
        <ele>78</ele>
        <time>2024-12-16T13:39:16.413Z</time>
      </trkpt>
      <trkpt lat="48.8524" lon="1.87396">
        <ele>78</ele>
        <time>2024-12-16T13:39:20.987Z</time>
      </trkpt>
      <trkpt lat="48.85236" lon="1.87397">
        <ele>78</ele>
        <time>2024-12-16T13:39:25.233Z</time>
      </trkpt>
      <trkpt lat="48.85232" lon="1.87396">
        <ele>77</ele>
        <time>2024-12-16T13:39:29.412Z</time>
      </trkpt>
      <trkpt lat="48.85227" lon="1.87397">
        <ele>77</ele>
        <time>2024-12-16T13:39:33.550Z</time>
      </trkpt>
      <trkpt lat="48.85223" lon="1.87396">
        <ele>77</ele>
        <time>2024-12-16T13:39:37.987Z</time>
      </trkpt>
      <trkpt lat="48.85218" lon="1.87392">
        <ele>77</ele>
        <time>2024-12-16T13:39:42.625Z</time>
      </trkpt>
      <trkpt lat="48.85214" lon="1.87389">
        <ele>77</ele>
        <time>2024-12-16T13:39:46.932Z</time>
      </trkpt>
      <trkpt lat="48.85213" lon="1.87382">
        <ele>77</ele>
        <time>2024-12-16T13:39:51.189Z</time>
      </trkpt>
      <trkpt lat="48.85212" lon="1.87375">
        <ele>79</ele>
        <time>2024-12-16T13:39:55.710Z</time>
      </trkpt>
      <trkpt lat="48.85211" lon="1.87368">
        <ele>79</ele>
        <time>2024-12-16T13:40:00.231Z</time>
      </trkpt>
      <trkpt lat="48.85211" lon="1.8736">
        <ele>79</ele>
        <time>2024-12-16T13:40:04.751Z</time>
      </trkpt>
      <trkpt lat="48.85211" lon="1.87352">
        <ele>79</ele>
        <time>2024-12-16T13:40:09.288Z</time>
      </trkpt>
      <trkpt lat="48.8521" lon="1.87344">
        <ele>81</ele>
        <time>2024-12-16T13:40:13.767Z</time>
      </trkpt>
      <trkpt lat="48.85209" lon="1.87335">
        <ele>81</ele>
        <time>2024-12-16T13:40:18.390Z</time>
      </trkpt>
      <trkpt lat="48.85209" lon="1.87328">
        <ele>81</ele>
        <time>2024-12-16T13:40:22.467Z</time>
      </trkpt>
      <trkpt lat="48.85209" lon="1.87322">
        <ele>81</ele>
        <time>2024-12-16T13:40:26.527Z</time>
      </trkpt>
      <trkpt lat="48.85211" lon="1.87314">
        <ele>85</ele>
        <time>2024-12-16T13:40:30.987Z</time>
      </trkpt>
      <trkpt lat="48.85211" lon="1.87307">
        <ele>85</ele>
        <time>2024-12-16T13:40:35.347Z</time>
      </trkpt>
      <trkpt lat="48.85212" lon="1.873">
        <ele>85</ele>
        <time>2024-12-16T13:40:39.450Z</time>
      </trkpt>
      <trkpt lat="48.85214" lon="1.87292">
        <ele>85</ele>
        <time>2024-12-16T13:40:43.988Z</time>
      </trkpt>
      <trkpt lat="48.85213" lon="1.87285">
        <ele>88</ele>
        <time>2024-12-16T13:40:48.067Z</time>
      </trkpt>
      <trkpt lat="48.85213" lon="1.87277">
        <ele>88</ele>
        <time>2024-12-16T13:40:52.210Z</time>
      </trkpt>
      <trkpt lat="48.85209" lon="1.87271">
        <ele>88</ele>
        <time>2024-12-16T13:40:56.493Z</time>
      </trkpt>
      <trkpt lat="48.85207" lon="1.87264">
        <ele>83</ele>
        <time>2024-12-16T13:41:00.645Z</time>
      </trkpt>
      <trkpt lat="48.85207" lon="1.87258">
        <ele>87</ele>
        <time>2024-12-16T13:41:04.672Z</time>
      </trkpt>
      <trkpt lat="48.85207" lon="1.87251">
        <ele>87</ele>
        <time>2024-12-16T13:41:08.987Z</time>
      </trkpt>
      <trkpt lat="48.85206" lon="1.87244">
        <ele>87</ele>
        <time>2024-12-16T13:41:13.107Z</time>
      </trkpt>
      <trkpt lat="48.85204" lon="1.87236">
        <ele>87</ele>
        <time>2024-12-16T13:41:17.611Z</time>
      </trkpt>
      <trkpt lat="48.85201" lon="1.87231">
        <ele>89</ele>
        <time>2024-12-16T13:41:21.748Z</time>
      </trkpt>
      <trkpt lat="48.85199" lon="1.87223">
        <ele>89</ele>
        <time>2024-12-16T13:41:26.329Z</time>
      </trkpt>
      <trkpt lat="48.85198" lon="1.87217">
        <ele>89</ele>
        <time>2024-12-16T13:41:30.371Z</time>
      </trkpt>
      <trkpt lat="48.85196" lon="1.8721">
        <ele>89</ele>
        <time>2024-12-16T13:41:34.508Z</time>
      </trkpt>
      <trkpt lat="48.85193" lon="1.87203">
        <ele>92</ele>
        <time>2024-12-16T13:41:38.645Z</time>
      </trkpt>
      <trkpt lat="48.85191" lon="1.87197">
        <ele>92</ele>
        <time>2024-12-16T13:41:42.969Z</time>
      </trkpt>
      <trkpt lat="48.8519" lon="1.87191">
        <ele>92</ele>
        <time>2024-12-16T13:41:47.089Z</time>
      </trkpt>
      <trkpt lat="48.85187" lon="1.87185">
        <ele>92</ele>
        <time>2024-12-16T13:41:51.431Z</time>
      </trkpt>
      <trkpt lat="48.85185" lon="1.87179">
        <ele>96</ele>
        <time>2024-12-16T13:41:55.465Z</time>
      </trkpt>
      <trkpt lat="48.85182" lon="1.87172">
        <ele>96</ele>
        <time>2024-12-16T13:41:59.790Z</time>
      </trkpt>
      <trkpt lat="48.85179" lon="1.87166">
        <ele>92</ele>
        <time>2024-12-16T13:42:03.969Z</time>
      </trkpt>
      <trkpt lat="48.85176" lon="1.87162">
        <ele>92</ele>
        <time>2024-12-16T13:42:07.988Z</time>
      </trkpt>
      <trkpt lat="48.85175" lon="1.87155">
        <ele>92</ele>
        <time>2024-12-16T13:42:12.166Z</time>
      </trkpt>
      <trkpt lat="48.85173" lon="1.87149">
        <ele>98</ele>
        <time>2024-12-16T13:42:16.388Z</time>
      </trkpt>
      <trkpt lat="48.85171" lon="1.87142">
        <ele>98</ele>
        <time>2024-12-16T13:42:20.484Z</time>
      </trkpt>
      <trkpt lat="48.85167" lon="1.87137">
        <ele>98</ele>
        <time>2024-12-16T13:42:24.568Z</time>
      </trkpt>
      <trkpt lat="48.85164" lon="1.87131">
        <ele>98</ele>
        <time>2024-12-16T13:42:28.748Z</time>
      </trkpt>
      <trkpt lat="48.85163" lon="1.87124">
        <ele>104</ele>
        <time>2024-12-16T13:42:32.988Z</time>
      </trkpt>
      <trkpt lat="48.85162" lon="1.87117">
        <ele>104</ele>
        <time>2024-12-16T13:42:37.135Z</time>
      </trkpt>
      <trkpt lat="48.85161" lon="1.8711">
        <ele>104</ele>
        <time>2024-12-16T13:42:41.346Z</time>
      </trkpt>
      <trkpt lat="48.85159" lon="1.87103">
        <ele>104</ele>
        <time>2024-12-16T13:42:45.627Z</time>
      </trkpt>
      <trkpt lat="48.85158" lon="1.87095">
        <ele>108</ele>
        <time>2024-12-16T13:42:49.869Z</time>
      </trkpt>
      <trkpt lat="48.85157" lon="1.87088">
        <ele>108</ele>
        <time>2024-12-16T13:42:53.988Z</time>
      </trkpt>
      <trkpt lat="48.85155" lon="1.87081">
        <ele>108</ele>
        <time>2024-12-16T13:42:58.388Z</time>
      </trkpt>
      <trkpt lat="48.85153" lon="1.87074">
        <ele>108</ele>
        <time>2024-12-16T13:43:02.567Z</time>
      </trkpt>
      <trkpt lat="48.85152" lon="1.87067">
        <ele>110</ele>
        <time>2024-12-16T13:43:06.866Z</time>
      </trkpt>
      <trkpt lat="48.8515" lon="1.87059">
        <ele>110</ele>
        <time>2024-12-16T13:43:11.148Z</time>
      </trkpt>
      <trkpt lat="48.85148" lon="1.87052">
        <ele>110</ele>
        <time>2024-12-16T13:43:15.549Z</time>
      </trkpt>
      <trkpt lat="48.85147" lon="1.87045">
        <ele>110</ele>
        <time>2024-12-16T13:43:19.789Z</time>
      </trkpt>
      <trkpt lat="48.85146" lon="1.87039">
        <ele>112</ele>
        <time>2024-12-16T13:43:23.823Z</time>
      </trkpt>
      <trkpt lat="48.85144" lon="1.87032">
        <ele>112</ele>
        <time>2024-12-16T13:43:27.988Z</time>
      </trkpt>
      <trkpt lat="48.85145" lon="1.87028">
        <ele>112</ele>
        <time>2024-12-16T13:43:32.988Z</time>
      </trkpt>
      <trkpt lat="48.85143" lon="1.87027">
        <ele>112</ele>
        <time>2024-12-16T13:43:37.444Z</time>
      </trkpt>
      <trkpt lat="48.85139" lon="1.8702">
        <ele>112</ele>
        <time>2024-12-16T13:43:41.743Z</time>
      </trkpt>
      <trkpt lat="48.85137" lon="1.87013">
        <ele>113</ele>
        <time>2024-12-16T13:43:45.829Z</time>
      </trkpt>
      <trkpt lat="48.85134" lon="1.87006">
        <ele>113</ele>
        <time>2024-12-16T13:43:49.888Z</time>
      </trkpt>
      <trkpt lat="48.85131" lon="1.87">
        <ele>113</ele>
        <time>2024-12-16T13:43:53.988Z</time>
      </trkpt>
      <trkpt lat="48.85129" lon="1.86993">
        <ele>113</ele>
        <time>2024-12-16T13:43:58.563Z</time>
      </trkpt>
      <trkpt lat="48.85126" lon="1.86986">
        <ele>114</ele>
        <time>2024-12-16T13:44:03.154Z</time>
      </trkpt>
      <trkpt lat="48.85125" lon="1.8698">
        <ele>115</ele>
        <time>2024-12-16T13:44:07.187Z</time>
      </trkpt>
      <trkpt lat="48.8513" lon="1.86987">
        <ele>113</ele>
        <time>2024-12-16T13:44:11.409Z</time>
      </trkpt>
      <trkpt lat="48.85131" lon="1.86994">
        <ele>113</ele>
        <time>2024-12-16T13:44:15.767Z</time>
      </trkpt>
      <trkpt lat="48.85132" lon="1.87">
        <ele>113</ele>
        <time>2024-12-16T13:44:20.007Z</time>
      </trkpt>
      <trkpt lat="48.85134" lon="1.87002">
        <ele>113</ele>
        <time>2024-12-16T13:44:24.988Z</time>
      </trkpt>
      <trkpt lat="48.85141" lon="1.87">
        <ele>113</ele>
        <time>2024-12-16T13:44:58.527Z</time>
      </trkpt>
      <trkpt lat="48.85141" lon="1.86993">
        <ele>113</ele>
        <time>2024-12-16T13:45:02.987Z</time>
      </trkpt>
      <trkpt lat="48.85143" lon="1.86984">
        <ele>114</ele>
        <time>2024-12-16T13:45:07.209Z</time>
      </trkpt>
      <trkpt lat="48.85146" lon="1.8698">
        <ele>114</ele>
        <time>2024-12-16T13:45:11.629Z</time>
      </trkpt>
      <trkpt lat="48.8515" lon="1.86977">
        <ele>114</ele>
        <time>2024-12-16T13:45:15.806Z</time>
      </trkpt>
      <trkpt lat="48.85154" lon="1.86972">
        <ele>111</ele>
        <time>2024-12-16T13:45:19.806Z</time>
      </trkpt>
      <trkpt lat="48.85157" lon="1.86965">
        <ele>111</ele>
        <time>2024-12-16T13:45:23.943Z</time>
      </trkpt>
      <trkpt lat="48.8516" lon="1.86957">
        <ele>112</ele>
        <time>2024-12-16T13:45:28.183Z</time>
      </trkpt>
      <trkpt lat="48.8516" lon="1.8695">
        <ele>112</ele>
        <time>2024-12-16T13:45:32.524Z</time>
      </trkpt>
      <trkpt lat="48.85158" lon="1.86945">
        <ele>112</ele>
        <time>2024-12-16T13:45:36.988Z</time>
      </trkpt>
      <trkpt lat="48.85157" lon="1.86946">
        <ele>112</ele>
        <time>2024-12-16T13:45:40.987Z</time>
      </trkpt>
      <trkpt lat="48.85156" lon="1.86946">
        <ele>112</ele>
        <time>2024-12-16T13:45:45.923Z</time>
      </trkpt>
      <trkpt lat="48.85155" lon="1.86939">
        <ele>112</ele>
        <time>2024-12-16T13:45:49.988Z</time>
      </trkpt>
      <trkpt lat="48.85154" lon="1.86931">
        <ele>112</ele>
        <time>2024-12-16T13:45:54.652Z</time>
      </trkpt>
      <trkpt lat="48.85154" lon="1.86923">
        <ele>114</ele>
        <time>2024-12-16T13:45:58.667Z</time>
      </trkpt>
      <trkpt lat="48.85152" lon="1.86916">
        <ele>116</ele>
        <time>2024-12-16T13:46:02.805Z</time>
      </trkpt>
      <trkpt lat="48.8515" lon="1.86908">
        <ele>116</ele>
        <time>2024-12-16T13:46:07.246Z</time>
      </trkpt>
      <trkpt lat="48.85148" lon="1.869">
        <ele>117</ele>
        <time>2024-12-16T13:46:11.725Z</time>
      </trkpt>
      <trkpt lat="48.85146" lon="1.86891">
        <ele>117</ele>
        <time>2024-12-16T13:46:15.988Z</time>
      </trkpt>
      <trkpt lat="48.85144" lon="1.86882">
        <ele>117</ele>
        <time>2024-12-16T13:46:20.689Z</time>
      </trkpt>
      <trkpt lat="48.85143" lon="1.86874">
        <ele>118</ele>
        <time>2024-12-16T13:46:25.287Z</time>
      </trkpt>
      <trkpt lat="48.85143" lon="1.86866">
        <ele>118</ele>
        <time>2024-12-16T13:46:29.800Z</time>
      </trkpt>
      <trkpt lat="48.85144" lon="1.86858">
        <ele>118</ele>
        <time>2024-12-16T13:46:33.988Z</time>
      </trkpt>
      <trkpt lat="48.85144" lon="1.8685">
        <ele>118</ele>
        <time>2024-12-16T13:46:38.013Z</time>
      </trkpt>
      <trkpt lat="48.85143" lon="1.86842">
        <ele>118</ele>
        <time>2024-12-16T13:46:42.671Z</time>
      </trkpt>
      <trkpt lat="48.85141" lon="1.86833">
        <ele>118</ele>
        <time>2024-12-16T13:46:47.089Z</time>
      </trkpt>
      <trkpt lat="48.85139" lon="1.86824">
        <ele>118</ele>
        <time>2024-12-16T13:46:51.728Z</time>
      </trkpt>
      <trkpt lat="48.85138" lon="1.86816">
        <ele>117</ele>
        <time>2024-12-16T13:46:56.223Z</time>
      </trkpt>
      <trkpt lat="48.85136" lon="1.86808">
        <ele>117</ele>
        <time>2024-12-16T13:47:00.249Z</time>
      </trkpt>
      <trkpt lat="48.85134" lon="1.86801">
        <ele>117</ele>
        <time>2024-12-16T13:47:04.325Z</time>
      </trkpt>
      <trkpt lat="48.85132" lon="1.86793">
        <ele>117</ele>
        <time>2024-12-16T13:47:08.949Z</time>
      </trkpt>
      <trkpt lat="48.85129" lon="1.86785">
        <ele>116</ele>
        <time>2024-12-16T13:47:13.410Z</time>
      </trkpt>
      <trkpt lat="48.85127" lon="1.86778">
        <ele>116</ele>
        <time>2024-12-16T13:47:17.444Z</time>
      </trkpt>
      <trkpt lat="48.85123" lon="1.86771">
        <ele>117</ele>
        <time>2024-12-16T13:47:21.828Z</time>
      </trkpt>
      <trkpt lat="48.85121" lon="1.86763">
        <ele>116</ele>
        <time>2024-12-16T13:47:26.289Z</time>
      </trkpt>
      <trkpt lat="48.85118" lon="1.86755">
        <ele>116</ele>
        <time>2024-12-16T13:47:30.605Z</time>
      </trkpt>
      <trkpt lat="48.85117" lon="1.86746">
        <ele>116</ele>
        <time>2024-12-16T13:47:34.963Z</time>
      </trkpt>
      <trkpt lat="48.85115" lon="1.86736">
        <ele>116</ele>
        <time>2024-12-16T13:47:39.245Z</time>
      </trkpt>
      <trkpt lat="48.85111" lon="1.86728">
        <ele>115</ele>
        <time>2024-12-16T13:47:43.988Z</time>
      </trkpt>
      <trkpt lat="48.85109" lon="1.86719">
        <ele>115</ele>
        <time>2024-12-16T13:47:48.389Z</time>
      </trkpt>
      <trkpt lat="48.85107" lon="1.86711">
        <ele>115</ele>
        <time>2024-12-16T13:47:52.687Z</time>
      </trkpt>
      <trkpt lat="48.85106" lon="1.86701">
        <ele>114</ele>
        <time>2024-12-16T13:47:56.988Z</time>
      </trkpt>
      <trkpt lat="48.85104" lon="1.86691">
        <ele>114</ele>
        <time>2024-12-16T13:48:01.728Z</time>
      </trkpt>
      <trkpt lat="48.85102" lon="1.86681">
        <ele>114</ele>
        <time>2024-12-16T13:48:06.552Z</time>
      </trkpt>
      <trkpt lat="48.85099" lon="1.86673">
        <ele>113</ele>
        <time>2024-12-16T13:48:10.763Z</time>
      </trkpt>
      <trkpt lat="48.85096" lon="1.86664">
        <ele>112</ele>
        <time>2024-12-16T13:48:14.988Z</time>
      </trkpt>
      <trkpt lat="48.85095" lon="1.86654">
        <ele>112</ele>
        <time>2024-12-16T13:48:19.309Z</time>
      </trkpt>
      <trkpt lat="48.85093" lon="1.86646">
        <ele>111</ele>
        <time>2024-12-16T13:48:23.548Z</time>
      </trkpt>
      <trkpt lat="48.8509" lon="1.86637">
        <ele>111</ele>
        <time>2024-12-16T13:48:27.924Z</time>
      </trkpt>
      <trkpt lat="48.85086" lon="1.86631">
        <ele>111</ele>
        <time>2024-12-16T13:48:31.988Z</time>
      </trkpt>
      <trkpt lat="48.85084" lon="1.86623">
        <ele>110</ele>
        <time>2024-12-16T13:48:36.343Z</time>
      </trkpt>
      <trkpt lat="48.85081" lon="1.86615">
        <ele>110</ele>
        <time>2024-12-16T13:48:40.743Z</time>
      </trkpt>
      <trkpt lat="48.85079" lon="1.86606">
        <ele>110</ele>
        <time>2024-12-16T13:48:45.103Z</time>
      </trkpt>
      <trkpt lat="48.85076" lon="1.86599">
        <ele>110</ele>
        <time>2024-12-16T13:48:49.444Z</time>
      </trkpt>
      <trkpt lat="48.85073" lon="1.86592">
        <ele>109</ele>
        <time>2024-12-16T13:48:53.724Z</time>
      </trkpt>
      <trkpt lat="48.85068" lon="1.86585">
        <ele>109</ele>
        <time>2024-12-16T13:48:57.988Z</time>
      </trkpt>
      <trkpt lat="48.85063" lon="1.86579">
        <ele>109</ele>
        <time>2024-12-16T13:49:02.384Z</time>
      </trkpt>
      <trkpt lat="48.85059" lon="1.86574">
        <ele>109</ele>
        <time>2024-12-16T13:49:06.603Z</time>
      </trkpt>
      <trkpt lat="48.85053" lon="1.86569">
        <ele>109</ele>
        <time>2024-12-16T13:49:10.963Z</time>
      </trkpt>
      <trkpt lat="48.85046" lon="1.86564">
        <ele>109</ele>
        <time>2024-12-16T13:49:14.987Z</time>
      </trkpt>
      <trkpt lat="48.85041" lon="1.86559">
        <ele>109</ele>
        <time>2024-12-16T13:49:19.108Z</time>
      </trkpt>
      <trkpt lat="48.85035" lon="1.86554">
        <ele>109</ele>
        <time>2024-12-16T13:49:23.450Z</time>
      </trkpt>
      <trkpt lat="48.85031" lon="1.86548">
        <ele>109</ele>
        <time>2024-12-16T13:49:27.807Z</time>
      </trkpt>
      <trkpt lat="48.85026" lon="1.86543">
        <ele>109</ele>
        <time>2024-12-16T13:49:31.844Z</time>
      </trkpt>
      <trkpt lat="48.85023" lon="1.86538">
        <ele>109</ele>
        <time>2024-12-16T13:49:36.184Z</time>
      </trkpt>
      <trkpt lat="48.85018" lon="1.86532">
        <ele>109</ele>
        <time>2024-12-16T13:49:40.664Z</time>
      </trkpt>
      <trkpt lat="48.85015" lon="1.86526">
        <ele>109</ele>
        <time>2024-12-16T13:49:44.988Z</time>
      </trkpt>
      <trkpt lat="48.85012" lon="1.86518">
        <ele>108</ele>
        <time>2024-12-16T13:49:49.583Z</time>
      </trkpt>
      <trkpt lat="48.85009" lon="1.8651">
        <ele>108</ele>
        <time>2024-12-16T13:49:53.967Z</time>
      </trkpt>
      <trkpt lat="48.85005" lon="1.86503">
        <ele>108</ele>
        <time>2024-12-16T13:49:58.387Z</time>
      </trkpt>
      <trkpt lat="48.85001" lon="1.86496">
        <ele>108</ele>
        <time>2024-12-16T13:50:02.846Z</time>
      </trkpt>
      <trkpt lat="48.84998" lon="1.8649">
        <ele>108</ele>
        <time>2024-12-16T13:50:07.350Z</time>
      </trkpt>
      <trkpt lat="48.84996" lon="1.86483">
        <ele>110</ele>
        <time>2024-12-16T13:50:11.471Z</time>
      </trkpt>
      <trkpt lat="48.84995" lon="1.86479">
        <ele>110</ele>
        <time>2024-12-16T13:50:15.987Z</time>
      </trkpt>
      <trkpt lat="48.84999" lon="1.86478">
        <ele>110</ele>
        <time>2024-12-16T13:50:40.987Z</time>
      </trkpt>
      <trkpt lat="48.84999" lon="1.86478">
        <ele>110</ele>
        <time>2024-12-16T13:50:45.988Z</time>
      </trkpt>
      <trkpt lat="48.84995" lon="1.86476">
        <ele>110</ele>
        <time>2024-12-16T13:50:50.987Z</time>
      </trkpt>
      <trkpt lat="48.84991" lon="1.86476">
        <ele>110</ele>
        <time>2024-12-16T13:50:55.404Z</time>
      </trkpt>
      <trkpt lat="48.84984" lon="1.86474">
        <ele>113</ele>
        <time>2024-12-16T13:50:59.491Z</time>
      </trkpt>
      <trkpt lat="48.84979" lon="1.86475">
        <ele>113</ele>
        <time>2024-12-16T13:51:03.551Z</time>
      </trkpt>
      <trkpt lat="48.84974" lon="1.86476">
        <ele>113</ele>
        <time>2024-12-16T13:51:07.627Z</time>
      </trkpt>
      <trkpt lat="48.84969" lon="1.86475">
        <ele>113</ele>
        <time>2024-12-16T13:51:11.686Z</time>
      </trkpt>
      <trkpt lat="48.84964" lon="1.86472">
        <ele>113</ele>
        <time>2024-12-16T13:51:15.764Z</time>
      </trkpt>
      <trkpt lat="48.84959" lon="1.86469">
        <ele>113</ele>
        <time>2024-12-16T13:51:19.987Z</time>
      </trkpt>
      <trkpt lat="48.84954" lon="1.86466">
        <ele>114</ele>
        <time>2024-12-16T13:51:24.088Z</time>
      </trkpt>
      <trkpt lat="48.84949" lon="1.86464">
        <ele>114</ele>
        <time>2024-12-16T13:51:28.243Z</time>
      </trkpt>
      <trkpt lat="48.84944" lon="1.86462">
        <ele>114</ele>
        <time>2024-12-16T13:51:32.763Z</time>
      </trkpt>
      <trkpt lat="48.84938" lon="1.86462">
        <ele>114</ele>
        <time>2024-12-16T13:51:36.868Z</time>
      </trkpt>
      <trkpt lat="48.84932" lon="1.86461">
        <ele>114</ele>
        <time>2024-12-16T13:51:41.325Z</time>
      </trkpt>
      <trkpt lat="48.84927" lon="1.8646">
        <ele>115</ele>
        <time>2024-12-16T13:51:45.403Z</time>
      </trkpt>
      <trkpt lat="48.84921" lon="1.86458">
        <ele>115</ele>
        <time>2024-12-16T13:51:49.950Z</time>
      </trkpt>
      <trkpt lat="48.84915" lon="1.86455">
        <ele>115</ele>
        <time>2024-12-16T13:51:54.444Z</time>
      </trkpt>
      <trkpt lat="48.84908" lon="1.86452">
        <ele>115</ele>
        <time>2024-12-16T13:51:58.988Z</time>
      </trkpt>
      <trkpt lat="48.84903" lon="1.86451">
        <ele>114</ele>
        <time>2024-12-16T13:52:03.163Z</time>
      </trkpt>
      <trkpt lat="48.84897" lon="1.86451">
        <ele>114</ele>
        <time>2024-12-16T13:52:07.683Z</time>
      </trkpt>
      <trkpt lat="48.8489" lon="1.86452">
        <ele>114</ele>
        <time>2024-12-16T13:52:11.768Z</time>
      </trkpt>
      <trkpt lat="48.84884" lon="1.86453">
        <ele>114</ele>
        <time>2024-12-16T13:52:16.203Z</time>
      </trkpt>
      <trkpt lat="48.84877" lon="1.86454">
        <ele>114</ele>
        <time>2024-12-16T13:52:20.829Z</time>
      </trkpt>
      <trkpt lat="48.84871" lon="1.86455">
        <ele>114</ele>
        <time>2024-12-16T13:52:25.287Z</time>
      </trkpt>
      <trkpt lat="48.84864" lon="1.86455">
        <ele>114</ele>
        <time>2024-12-16T13:52:29.844Z</time>
      </trkpt>
      <trkpt lat="48.84858" lon="1.86457">
        <ele>114</ele>
        <time>2024-12-16T13:52:34.286Z</time>
      </trkpt>
      <trkpt lat="48.84852" lon="1.86459">
        <ele>114</ele>
        <time>2024-12-16T13:52:38.329Z</time>
      </trkpt>
      <trkpt lat="48.84846" lon="1.8646">
        <ele>114</ele>
        <time>2024-12-16T13:52:42.483Z</time>
      </trkpt>
      <trkpt lat="48.84841" lon="1.86461">
        <ele>114</ele>
        <time>2024-12-16T13:52:46.568Z</time>
      </trkpt>
      <trkpt lat="48.84835" lon="1.86463">
        <ele>114</ele>
        <time>2024-12-16T13:52:50.988Z</time>
      </trkpt>
      <trkpt lat="48.84829" lon="1.86464">
        <ele>114</ele>
        <time>2024-12-16T13:52:55.184Z</time>
      </trkpt>
      <trkpt lat="48.84823" lon="1.86464">
        <ele>114</ele>
        <time>2024-12-16T13:52:59.268Z</time>
      </trkpt>
      <trkpt lat="48.84814" lon="1.86467">
        <ele>113</ele>
        <time>2024-12-16T13:53:11.987Z</time>
      </trkpt>
      <trkpt lat="48.84813" lon="1.86467">
        <ele>113</ele>
        <time>2024-12-16T13:53:16.987Z</time>
      </trkpt>
      <trkpt lat="48.84811" lon="1.86468">
        <ele>113</ele>
        <time>2024-12-16T13:53:21.988Z</time>
      </trkpt>
      <trkpt lat="48.8481" lon="1.86471">
        <ele>113</ele>
        <time>2024-12-16T13:53:26.988Z</time>
      </trkpt>
      <trkpt lat="48.8481" lon="1.86478">
        <ele>113</ele>
        <time>2024-12-16T13:53:31.988Z</time>
      </trkpt>
      <trkpt lat="48.8481" lon="1.86478">
        <ele>113</ele>
        <time>2024-12-16T13:53:59.987Z</time>
      </trkpt>
      <trkpt lat="48.84811" lon="1.86478">
        <ele>113</ele>
        <time>2024-12-16T13:54:05.988Z</time>
      </trkpt>
      <trkpt lat="48.84807" lon="1.86475">
        <ele>113</ele>
        <time>2024-12-16T13:54:10.987Z</time>
      </trkpt>
      <trkpt lat="48.84805" lon="1.86473">
        <ele>113</ele>
        <time>2024-12-16T13:54:15.485Z</time>
      </trkpt>
      <trkpt lat="48.84799" lon="1.86467">
        <ele>113</ele>
        <time>2024-12-16T13:54:19.947Z</time>
      </trkpt>
      <trkpt lat="48.84793" lon="1.8646">
        <ele>113</ele>
        <time>2024-12-16T13:54:24.930Z</time>
      </trkpt>
      <trkpt lat="48.84788" lon="1.86457">
        <ele>112</ele>
        <time>2024-12-16T13:54:29.230Z</time>
      </trkpt>
      <trkpt lat="48.84783" lon="1.86454">
        <ele>112</ele>
        <time>2024-12-16T13:54:33.603Z</time>
      </trkpt>
      <trkpt lat="48.84778" lon="1.8645">
        <ele>112</ele>
        <time>2024-12-16T13:54:37.969Z</time>
      </trkpt>
      <trkpt lat="48.84773" lon="1.86446">
        <ele>112</ele>
        <time>2024-12-16T13:54:42.387Z</time>
      </trkpt>
      <trkpt lat="48.84768" lon="1.86441">
        <ele>112</ele>
        <time>2024-12-16T13:54:46.731Z</time>
      </trkpt>
      <trkpt lat="48.84763" lon="1.86437">
        <ele>113</ele>
        <time>2024-12-16T13:54:51.266Z</time>
      </trkpt>
      <trkpt lat="48.84757" lon="1.86433">
        <ele>113</ele>
        <time>2024-12-16T13:54:55.788Z</time>
      </trkpt>
      <trkpt lat="48.84752" lon="1.86429">
        <ele>113</ele>
        <time>2024-12-16T13:55:00.224Z</time>
      </trkpt>
      <trkpt lat="48.84747" lon="1.86425">
        <ele>113</ele>
        <time>2024-12-16T13:55:04.829Z</time>
      </trkpt>
      <trkpt lat="48.84742" lon="1.86421">
        <ele>113</ele>
        <time>2024-12-16T13:55:08.905Z</time>
      </trkpt>
      <trkpt lat="48.84738" lon="1.86417">
        <ele>113</ele>
        <time>2024-12-16T13:55:13.484Z</time>
      </trkpt>
      <trkpt lat="48.84733" lon="1.86413">
        <ele>116</ele>
        <time>2024-12-16T13:55:17.545Z</time>
      </trkpt>
      <trkpt lat="48.84728" lon="1.86409">
        <ele>116</ele>
        <time>2024-12-16T13:55:21.989Z</time>
      </trkpt>
      <trkpt lat="48.84723" lon="1.86406">
        <ele>116</ele>
        <time>2024-12-16T13:55:25.988Z</time>
      </trkpt>
      <trkpt lat="48.84718" lon="1.86402">
        <ele>116</ele>
        <time>2024-12-16T13:55:30.109Z</time>
      </trkpt>
      <trkpt lat="48.84713" lon="1.86399">
        <ele>116</ele>
        <time>2024-12-16T13:55:34.228Z</time>
      </trkpt>
      <trkpt lat="48.84707" lon="1.86395">
        <ele>118</ele>
        <time>2024-12-16T13:55:38.928Z</time>
      </trkpt>
      <trkpt lat="48.84702" lon="1.86392">
        <ele>118</ele>
        <time>2024-12-16T13:55:43.465Z</time>
      </trkpt>
      <trkpt lat="48.84698" lon="1.86388">
        <ele>118</ele>
        <time>2024-12-16T13:55:47.585Z</time>
      </trkpt>
      <trkpt lat="48.84693" lon="1.86384">
        <ele>118</ele>
        <time>2024-12-16T13:55:51.644Z</time>
      </trkpt>
      <trkpt lat="48.84688" lon="1.86381">
        <ele>118</ele>
        <time>2024-12-16T13:55:55.824Z</time>
      </trkpt>
      <trkpt lat="48.84684" lon="1.86378">
        <ele>118</ele>
        <time>2024-12-16T13:55:59.988Z</time>
      </trkpt>
      <trkpt lat="48.84681" lon="1.86373">
        <ele>117</ele>
        <time>2024-12-16T13:56:04.227Z</time>
      </trkpt>
      <trkpt lat="48.84676" lon="1.86369">
        <ele>119</ele>
        <time>2024-12-16T13:56:08.703Z</time>
      </trkpt>
      <trkpt lat="48.8467" lon="1.86367">
        <ele>119</ele>
        <time>2024-12-16T13:56:13.267Z</time>
      </trkpt>
      <trkpt lat="48.84667" lon="1.86364">
        <ele>119</ele>
        <time>2024-12-16T13:56:17.344Z</time>
      </trkpt>
      <trkpt lat="48.84662" lon="1.8636">
        <ele>119</ele>
        <time>2024-12-16T13:56:21.489Z</time>
      </trkpt>
      <trkpt lat="48.84658" lon="1.86356">
        <ele>119</ele>
        <time>2024-12-16T13:56:25.522Z</time>
      </trkpt>
      <trkpt lat="48.84654" lon="1.86351">
        <ele>119</ele>
        <time>2024-12-16T13:56:29.583Z</time>
      </trkpt>
      <trkpt lat="48.84649" lon="1.86348">
        <ele>121</ele>
        <time>2024-12-16T13:56:33.686Z</time>
      </trkpt>
      <trkpt lat="48.84644" lon="1.86345">
        <ele>121</ele>
        <time>2024-12-16T13:56:38.190Z</time>
      </trkpt>
      <trkpt lat="48.8464" lon="1.8634">
        <ele>121</ele>
        <time>2024-12-16T13:56:42.624Z</time>
      </trkpt>
      <trkpt lat="48.84634" lon="1.8634">
        <ele>121</ele>
        <time>2024-12-16T13:56:46.710Z</time>
      </trkpt>
      <trkpt lat="48.84628" lon="1.86338">
        <ele>121</ele>
        <time>2024-12-16T13:56:50.745Z</time>
      </trkpt>
      <trkpt lat="48.84623" lon="1.86333">
        <ele>121</ele>
        <time>2024-12-16T13:56:55.384Z</time>
      </trkpt>
      <trkpt lat="48.84618" lon="1.86329">
        <ele>121</ele>
        <time>2024-12-16T13:56:59.987Z</time>
      </trkpt>
      <trkpt lat="48.84614" lon="1.86323">
        <ele>121</ele>
        <time>2024-12-16T13:57:04.256Z</time>
      </trkpt>
      <trkpt lat="48.84608" lon="1.86321">
        <ele>121</ele>
        <time>2024-12-16T13:57:08.289Z</time>
      </trkpt>
      <trkpt lat="48.84604" lon="1.86315">
        <ele>122</ele>
        <time>2024-12-16T13:57:12.393Z</time>
      </trkpt>
      <trkpt lat="48.846" lon="1.86311">
        <ele>122</ele>
        <time>2024-12-16T13:57:16.452Z</time>
      </trkpt>
      <trkpt lat="48.84597" lon="1.86306">
        <ele>122</ele>
        <time>2024-12-16T13:57:20.615Z</time>
      </trkpt>
      <trkpt lat="48.84592" lon="1.86302">
        <ele>122</ele>
        <time>2024-12-16T13:57:24.987Z</time>
      </trkpt>
      <trkpt lat="48.84586" lon="1.86299">
        <ele>122</ele>
        <time>2024-12-16T13:57:29.895Z</time>
      </trkpt>
      <trkpt lat="48.84582" lon="1.86295">
        <ele>122</ele>
        <time>2024-12-16T13:57:33.987Z</time>
      </trkpt>
      <trkpt lat="48.84578" lon="1.86292">
        <ele>122</ele>
        <time>2024-12-16T13:57:38.177Z</time>
      </trkpt>
      <trkpt lat="48.84574" lon="1.8629">
        <ele>124</ele>
        <time>2024-12-16T13:57:42.271Z</time>
      </trkpt>
      <trkpt lat="48.8457" lon="1.86286">
        <ele>124</ele>
        <time>2024-12-16T13:57:46.435Z</time>
      </trkpt>
      <trkpt lat="48.84566" lon="1.86282">
        <ele>124</ele>
        <time>2024-12-16T13:57:50.673Z</time>
      </trkpt>
      <trkpt lat="48.84562" lon="1.86278">
        <ele>124</ele>
        <time>2024-12-16T13:57:54.895Z</time>
      </trkpt>
      <trkpt lat="48.84559" lon="1.86274">
        <ele>124</ele>
        <time>2024-12-16T13:57:58.987Z</time>
      </trkpt>
      <trkpt lat="48.84556" lon="1.8627">
        <ele>124</ele>
        <time>2024-12-16T13:58:03.629Z</time>
      </trkpt>
      <trkpt lat="48.84554" lon="1.86267">
        <ele>124</ele>
        <time>2024-12-16T13:58:12.988Z</time>
      </trkpt>
      <trkpt lat="48.84553" lon="1.86267">
        <ele>124</ele>
        <time>2024-12-16T13:58:19.987Z</time>
      </trkpt>
      <trkpt lat="48.84553" lon="1.86266">
        <ele>124</ele>
        <time>2024-12-16T13:58:24.988Z</time>
      </trkpt>
      <trkpt lat="48.84551" lon="1.8627">
        <ele>124</ele>
        <time>2024-12-16T13:58:29.296Z</time>
      </trkpt>
      <trkpt lat="48.84545" lon="1.86275">
        <ele>124</ele>
        <time>2024-12-16T13:58:33.823Z</time>
      </trkpt>
      <trkpt lat="48.84539" lon="1.86284">
        <ele>122</ele>
        <time>2024-12-16T13:58:38.258Z</time>
      </trkpt>
      <trkpt lat="48.84534" lon="1.86292">
        <ele>121</ele>
        <time>2024-12-16T13:58:42.335Z</time>
      </trkpt>
      <trkpt lat="48.84529" lon="1.86298">
        <ele>121</ele>
        <time>2024-12-16T13:58:46.736Z</time>
      </trkpt>
      <trkpt lat="48.84524" lon="1.86303">
        <ele>121</ele>
        <time>2024-12-16T13:58:51.274Z</time>
      </trkpt>
      <trkpt lat="48.84519" lon="1.86309">
        <ele>121</ele>
        <time>2024-12-16T13:58:55.735Z</time>
      </trkpt>
      <trkpt lat="48.84513" lon="1.86313">
        <ele>120</ele>
        <time>2024-12-16T13:59:00.258Z</time>
      </trkpt>
      <trkpt lat="48.84508" lon="1.86312">
        <ele>120</ele>
        <time>2024-12-16T13:59:04.793Z</time>
      </trkpt>
      <trkpt lat="48.84503" lon="1.86317">
        <ele>120</ele>
        <time>2024-12-16T13:59:09.271Z</time>
      </trkpt>
      <trkpt lat="48.845" lon="1.86324">
        <ele>121</ele>
        <time>2024-12-16T13:59:13.536Z</time>
      </trkpt>
      <trkpt lat="48.84496" lon="1.86327">
        <ele>121</ele>
        <time>2024-12-16T13:59:17.989Z</time>
      </trkpt>
      <trkpt lat="48.84493" lon="1.8633">
        <ele>121</ele>
        <time>2024-12-16T13:59:22.989Z</time>
      </trkpt>
      <trkpt lat="48.8449" lon="1.86333">
        <ele>121</ele>
        <time>2024-12-16T13:59:27.310Z</time>
      </trkpt>
      <trkpt lat="48.84487" lon="1.86336">
        <ele>121</ele>
        <time>2024-12-16T13:59:31.832Z</time>
      </trkpt>
      <trkpt lat="48.84483" lon="1.86339">
        <ele>122</ele>
        <time>2024-12-16T13:59:36.514Z</time>
      </trkpt>
      <trkpt lat="48.8448" lon="1.86341">
        <ele>122</ele>
        <time>2024-12-16T13:59:40.838Z</time>
      </trkpt>
      <trkpt lat="48.84476" lon="1.86345">
        <ele>122</ele>
        <time>2024-12-16T13:59:44.988Z</time>
      </trkpt>
      <trkpt lat="48.84473" lon="1.86348">
        <ele>124</ele>
        <time>2024-12-16T13:59:49.453Z</time>
      </trkpt>
      <trkpt lat="48.84469" lon="1.86351">
        <ele>124</ele>
        <time>2024-12-16T13:59:53.810Z</time>
      </trkpt>
      <trkpt lat="48.84465" lon="1.86357">
        <ele>124</ele>
        <time>2024-12-16T13:59:58.717Z</time>
      </trkpt>
      <trkpt lat="48.84462" lon="1.86364">
        <ele>124</ele>
        <time>2024-12-16T14:00:03.296Z</time>
      </trkpt>
      <trkpt lat="48.84458" lon="1.86369">
        <ele>126</ele>
        <time>2024-12-16T14:00:07.850Z</time>
      </trkpt>
      <trkpt lat="48.84454" lon="1.86375">
        <ele>125</ele>
        <time>2024-12-16T14:00:12.456Z</time>
      </trkpt>
      <trkpt lat="48.8445" lon="1.8638">
        <ele>125</ele>
        <time>2024-12-16T14:00:16.993Z</time>
      </trkpt>
      <trkpt lat="48.84446" lon="1.86384">
        <ele>125</ele>
        <time>2024-12-16T14:00:21.497Z</time>
      </trkpt>
      <trkpt lat="48.84442" lon="1.86388">
        <ele>125</ele>
        <time>2024-12-16T14:00:25.694Z</time>
      </trkpt>
      <trkpt lat="48.84438" lon="1.86392">
        <ele>125</ele>
        <time>2024-12-16T14:00:29.988Z</time>
      </trkpt>
      <trkpt lat="48.84434" lon="1.86395">
        <ele>125</ele>
        <time>2024-12-16T14:00:34.393Z</time>
      </trkpt>
      <trkpt lat="48.84429" lon="1.86399">
        <ele>127</ele>
        <time>2024-12-16T14:00:38.795Z</time>
      </trkpt>
      <trkpt lat="48.84424" lon="1.86403">
        <ele>126</ele>
        <time>2024-12-16T14:00:42.898Z</time>
      </trkpt>
      <trkpt lat="48.8442" lon="1.8641">
        <ele>126</ele>
        <time>2024-12-16T14:00:47.632Z</time>
      </trkpt>
      <trkpt lat="48.84416" lon="1.86415">
        <ele>126</ele>
        <time>2024-12-16T14:00:51.989Z</time>
      </trkpt>
      <trkpt lat="48.84413" lon="1.86419">
        <ele>126</ele>
        <time>2024-12-16T14:00:56.297Z</time>
      </trkpt>
      <trkpt lat="48.84409" lon="1.86422">
        <ele>126</ele>
        <time>2024-12-16T14:01:00.817Z</time>
      </trkpt>
      <trkpt lat="48.84406" lon="1.86426">
        <ele>126</ele>
        <time>2024-12-16T14:01:05.398Z</time>
      </trkpt>
      <trkpt lat="48.84402" lon="1.86431">
        <ele>128</ele>
        <time>2024-12-16T14:01:09.891Z</time>
      </trkpt>
      <trkpt lat="48.84399" lon="1.86437">
        <ele>128</ele>
        <time>2024-12-16T14:01:13.988Z</time>
      </trkpt>
      <trkpt lat="48.84396" lon="1.86441">
        <ele>128</ele>
        <time>2024-12-16T14:01:18.251Z</time>
      </trkpt>
      <trkpt lat="48.84392" lon="1.86447">
        <ele>128</ele>
        <time>2024-12-16T14:01:22.874Z</time>
      </trkpt>
      <trkpt lat="48.84388" lon="1.8645">
        <ele>128</ele>
        <time>2024-12-16T14:01:26.951Z</time>
      </trkpt>
      <trkpt lat="48.84386" lon="1.86456">
        <ele>128</ele>
        <time>2024-12-16T14:01:30.988Z</time>
      </trkpt>
      <trkpt lat="48.8438" lon="1.86459">
        <ele>128</ele>
        <time>2024-12-16T14:01:35.677Z</time>
      </trkpt>
      <trkpt lat="48.84376" lon="1.86462">
        <ele>128</ele>
        <time>2024-12-16T14:01:40.103Z</time>
      </trkpt>
      <trkpt lat="48.84371" lon="1.86467">
        <ele>129</ele>
        <time>2024-12-16T14:01:44.718Z</time>
      </trkpt>
      <trkpt lat="48.84368" lon="1.86473">
        <ele>129</ele>
        <time>2024-12-16T14:01:48.973Z</time>
      </trkpt>
      <trkpt lat="48.84367" lon="1.86482">
        <ele>129</ele>
        <time>2024-12-16T14:02:13.989Z</time>
      </trkpt>
      <trkpt lat="48.84367" lon="1.86482">
        <ele>129</ele>
        <time>2024-12-16T14:02:21.989Z</time>
      </trkpt>
      <trkpt lat="48.84364" lon="1.86485">
        <ele>129</ele>
        <time>2024-12-16T14:02:26.989Z</time>
      </trkpt>
      <trkpt lat="48.84359" lon="1.86486">
        <ele>129</ele>
        <time>2024-12-16T14:02:30.989Z</time>
      </trkpt>
      <trkpt lat="48.84351" lon="1.8649">
        <ele>129</ele>
        <time>2024-12-16T14:02:35.433Z</time>
      </trkpt>
      <trkpt lat="48.84348" lon="1.86497">
        <ele>129</ele>
        <time>2024-12-16T14:02:39.910Z</time>
      </trkpt>
      <trkpt lat="48.84344" lon="1.86503">
        <ele>130</ele>
        <time>2024-12-16T14:02:44.815Z</time>
      </trkpt>
      <trkpt lat="48.84341" lon="1.86509">
        <ele>130</ele>
        <time>2024-12-16T14:02:48.988Z</time>
      </trkpt>
      <trkpt lat="48.84337" lon="1.86515">
        <ele>130</ele>
        <time>2024-12-16T14:02:53.454Z</time>
      </trkpt>
      <trkpt lat="48.84334" lon="1.8652">
        <ele>130</ele>
        <time>2024-12-16T14:02:57.497Z</time>
      </trkpt>
      <trkpt lat="48.8433" lon="1.86526">
        <ele>130</ele>
        <time>2024-12-16T14:03:01.591Z</time>
      </trkpt>
      <trkpt lat="48.84326" lon="1.86529">
        <ele>130</ele>
        <time>2024-12-16T14:03:05.711Z</time>
      </trkpt>
      <trkpt lat="48.84321" lon="1.86531">
        <ele>130</ele>
        <time>2024-12-16T14:03:10.161Z</time>
      </trkpt>
      <trkpt lat="48.84316" lon="1.86534">
        <ele>130</ele>
        <time>2024-12-16T14:03:14.502Z</time>
      </trkpt>
      <trkpt lat="48.84311" lon="1.86538">
        <ele>130</ele>
        <time>2024-12-16T14:03:18.956Z</time>
      </trkpt>
      <trkpt lat="48.84307" lon="1.86545">
        <ele>130</ele>
        <time>2024-12-16T14:03:23.315Z</time>
      </trkpt>
      <trkpt lat="48.84303" lon="1.86548">
        <ele>130</ele>
        <time>2024-12-16T14:03:27.478Z</time>
      </trkpt>
      <trkpt lat="48.84298" lon="1.86553">
        <ele>130</ele>
        <time>2024-12-16T14:03:31.835Z</time>
      </trkpt>
      <trkpt lat="48.84292" lon="1.86557">
        <ele>130</ele>
        <time>2024-12-16T14:03:36.475Z</time>
      </trkpt>
      <trkpt lat="48.84287" lon="1.86562">
        <ele>130</ele>
        <time>2024-12-16T14:03:40.911Z</time>
      </trkpt>
      <trkpt lat="48.84283" lon="1.86567">
        <ele>130</ele>
        <time>2024-12-16T14:03:44.953Z</time>
      </trkpt>
      <trkpt lat="48.84278" lon="1.86571">
        <ele>131</ele>
        <time>2024-12-16T14:03:49.457Z</time>
      </trkpt>
      <trkpt lat="48.84274" lon="1.86577">
        <ele>131</ele>
        <time>2024-12-16T14:03:53.989Z</time>
      </trkpt>
      <trkpt lat="48.84269" lon="1.86583">
        <ele>131</ele>
        <time>2024-12-16T14:03:58.579Z</time>
      </trkpt>
      <trkpt lat="48.84264" lon="1.86588">
        <ele>131</ele>
        <time>2024-12-16T14:04:02.989Z</time>
      </trkpt>
      <trkpt lat="48.8426" lon="1.86593">
        <ele>131</ele>
        <time>2024-12-16T14:04:07.172Z</time>
      </trkpt>
      <trkpt lat="48.84256" lon="1.86598">
        <ele>132</ele>
        <time>2024-12-16T14:04:11.318Z</time>
      </trkpt>
      <trkpt lat="48.84252" lon="1.86603">
        <ele>132</ele>
        <time>2024-12-16T14:04:15.856Z</time>
      </trkpt>
      <trkpt lat="48.84247" lon="1.86609">
        <ele>132</ele>
        <time>2024-12-16T14:04:20.435Z</time>
      </trkpt>
      <trkpt lat="48.84242" lon="1.86615">
        <ele>132</ele>
        <time>2024-12-16T14:04:24.988Z</time>
      </trkpt>
      <trkpt lat="48.84238" lon="1.86621">
        <ele>132</ele>
        <time>2024-12-16T14:04:29.553Z</time>
      </trkpt>
      <trkpt lat="48.84233" lon="1.86627">
        <ele>131</ele>
        <time>2024-12-16T14:04:33.988Z</time>
      </trkpt>
      <trkpt lat="48.84229" lon="1.86633">
        <ele>131</ele>
        <time>2024-12-16T14:04:38.696Z</time>
      </trkpt>
      <trkpt lat="48.84224" lon="1.86639">
        <ele>131</ele>
        <time>2024-12-16T14:04:43.173Z</time>
      </trkpt>
      <trkpt lat="48.84219" lon="1.86644">
        <ele>131</ele>
        <time>2024-12-16T14:04:47.251Z</time>
      </trkpt>
      <trkpt lat="48.84214" lon="1.86648">
        <ele>131</ele>
        <time>2024-12-16T14:04:51.396Z</time>
      </trkpt>
      <trkpt lat="48.84209" lon="1.86652">
        <ele>131</ele>
        <time>2024-12-16T14:04:55.891Z</time>
      </trkpt>
      <trkpt lat="48.84203" lon="1.86656">
        <ele>130</ele>
        <time>2024-12-16T14:05:00.533Z</time>
      </trkpt>
      <trkpt lat="48.84199" lon="1.86662">
        <ele>130</ele>
        <time>2024-12-16T14:05:04.988Z</time>
      </trkpt>
      <trkpt lat="48.84195" lon="1.86669">
        <ele>130</ele>
        <time>2024-12-16T14:05:09.408Z</time>
      </trkpt>
      <trkpt lat="48.8419" lon="1.86674">
        <ele>130</ele>
        <time>2024-12-16T14:05:13.453Z</time>
      </trkpt>
      <trkpt lat="48.84186" lon="1.86679">
        <ele>130</ele>
        <time>2024-12-16T14:05:17.870Z</time>
      </trkpt>
      <trkpt lat="48.84182" lon="1.86685">
        <ele>129</ele>
        <time>2024-12-16T14:05:21.930Z</time>
      </trkpt>
      <trkpt lat="48.84177" lon="1.86691">
        <ele>130</ele>
        <time>2024-12-16T14:05:26.496Z</time>
      </trkpt>
      <trkpt lat="48.84173" lon="1.86697">
        <ele>130</ele>
        <time>2024-12-16T14:05:30.988Z</time>
      </trkpt>
      <trkpt lat="48.84168" lon="1.86704">
        <ele>130</ele>
        <time>2024-12-16T14:05:35.936Z</time>
      </trkpt>
      <trkpt lat="48.84164" lon="1.8671">
        <ele>128</ele>
        <time>2024-12-16T14:05:39.988Z</time>
      </trkpt>
      <trkpt lat="48.84159" lon="1.86715">
        <ele>128</ele>
        <time>2024-12-16T14:05:44.055Z</time>
      </trkpt>
      <trkpt lat="48.84154" lon="1.8672">
        <ele>128</ele>
        <time>2024-12-16T14:05:48.491Z</time>
      </trkpt>
      <trkpt lat="48.84149" lon="1.86725">
        <ele>127</ele>
        <time>2024-12-16T14:05:52.516Z</time>
      </trkpt>
      <trkpt lat="48.84144" lon="1.86731">
        <ele>127</ele>
        <time>2024-12-16T14:05:56.989Z</time>
      </trkpt>
      <trkpt lat="48.84139" lon="1.86737">
        <ele>126</ele>
        <time>2024-12-16T14:06:01.592Z</time>
      </trkpt>
      <trkpt lat="48.84135" lon="1.86742">
        <ele>126</ele>
        <time>2024-12-16T14:06:05.738Z</time>
      </trkpt>
      <trkpt lat="48.84131" lon="1.86749">
        <ele>126</ele>
        <time>2024-12-16T14:06:10.257Z</time>
      </trkpt>
      <trkpt lat="48.84127" lon="1.86754">
        <ele>126</ele>
        <time>2024-12-16T14:06:14.453Z</time>
      </trkpt>
      <trkpt lat="48.84126" lon="1.8676">
        <ele>126</ele>
        <time>2024-12-16T14:06:18.735Z</time>
      </trkpt>
      <trkpt lat="48.84126" lon="1.86762">
        <ele>126</ele>
        <time>2024-12-16T14:06:22.989Z</time>
      </trkpt>
      <trkpt lat="48.84126" lon="1.86768">
        <ele>125</ele>
        <time>2024-12-16T14:06:26.989Z</time>
      </trkpt>
      <trkpt lat="48.84125" lon="1.86774">
        <ele>125</ele>
        <time>2024-12-16T14:06:31.988Z</time>
      </trkpt>
      <trkpt lat="48.84125" lon="1.86779">
        <ele>122</ele>
        <time>2024-12-16T14:06:36.595Z</time>
      </trkpt>
      <trkpt lat="48.84126" lon="1.86782">
        <ele>125</ele>
        <time>2024-12-16T14:06:40.988Z</time>
      </trkpt>
      <trkpt lat="48.8413" lon="1.8679">
        <ele>125</ele>
        <time>2024-12-16T14:07:50.989Z</time>
      </trkpt>
      <trkpt lat="48.8413" lon="1.86793">
        <ele>123</ele>
        <time>2024-12-16T14:07:54.989Z</time>
      </trkpt>
      <trkpt lat="48.84131" lon="1.868">
        <ele>123</ele>
        <time>2024-12-16T14:07:59.329Z</time>
      </trkpt>
      <trkpt lat="48.84132" lon="1.86806">
        <ele>123</ele>
        <time>2024-12-16T14:08:03.996Z</time>
      </trkpt>
      <trkpt lat="48.84132" lon="1.86813">
        <ele>123</ele>
        <time>2024-12-16T14:08:08.456Z</time>
      </trkpt>
      <trkpt lat="48.84133" lon="1.8682">
        <ele>122</ele>
        <time>2024-12-16T14:08:13.015Z</time>
      </trkpt>
      <trkpt lat="48.84133" lon="1.86828">
        <ele>122</ele>
        <time>2024-12-16T14:08:17.250Z</time>
      </trkpt>
      <trkpt lat="48.84133" lon="1.86835">
        <ele>122</ele>
        <time>2024-12-16T14:08:21.395Z</time>
      </trkpt>
      <trkpt lat="48.84135" lon="1.86843">
        <ele>122</ele>
        <time>2024-12-16T14:08:25.456Z</time>
      </trkpt>
      <trkpt lat="48.84135" lon="1.8685">
        <ele>120</ele>
        <time>2024-12-16T14:08:29.618Z</time>
      </trkpt>
      <trkpt lat="48.84135" lon="1.86858">
        <ele>120</ele>
        <time>2024-12-16T14:08:33.771Z</time>
      </trkpt>
      <trkpt lat="48.84134" lon="1.86865">
        <ele>120</ele>
        <time>2024-12-16T14:08:37.993Z</time>
      </trkpt>
      <trkpt lat="48.84133" lon="1.8687">
        <ele>120</ele>
        <time>2024-12-16T14:08:43.989Z</time>
      </trkpt>
      <trkpt lat="48.84134" lon="1.86876">
        <ele>121</ele>
        <time>2024-12-16T14:08:48.433Z</time>
      </trkpt>
      <trkpt lat="48.8413" lon="1.86879">
        <ele>121</ele>
        <time>2024-12-16T14:08:52.976Z</time>
      </trkpt>
      <trkpt lat="48.84127" lon="1.86869">
        <ele>120</ele>
        <time>2024-12-16T14:08:57.312Z</time>
      </trkpt>
      <trkpt lat="48.84126" lon="1.86862">
        <ele>120</ele>
        <time>2024-12-16T14:09:01.877Z</time>
      </trkpt>
      <trkpt lat="48.84124" lon="1.86855">
        <ele>119</ele>
        <time>2024-12-16T14:09:06.190Z</time>
      </trkpt>
      <trkpt lat="48.84121" lon="1.86849">
        <ele>119</ele>
        <time>2024-12-16T14:09:10.558Z</time>
      </trkpt>
      <trkpt lat="48.84117" lon="1.86843">
        <ele>119</ele>
        <time>2024-12-16T14:09:14.988Z</time>
      </trkpt>
      <trkpt lat="48.84112" lon="1.86839">
        <ele>119</ele>
        <time>2024-12-16T14:09:19.556Z</time>
      </trkpt>
      <trkpt lat="48.8411" lon="1.86839">
        <ele>119</ele>
        <time>2024-12-16T14:09:29.988Z</time>
      </trkpt>
      <trkpt lat="48.8411" lon="1.86839">
        <ele>119</ele>
        <time>2024-12-16T14:09:35.795Z</time>
      </trkpt>
      <trkpt lat="48.84112" lon="1.86843">
        <ele>119</ele>
        <time>2024-12-16T14:09:39.988Z</time>
      </trkpt>
      <trkpt lat="48.84112" lon="1.86844">
        <ele>119</ele>
        <time>2024-12-16T14:09:44.989Z</time>
      </trkpt>
      <trkpt lat="48.84115" lon="1.86851">
        <ele>119</ele>
        <time>2024-12-16T14:09:49.357Z</time>
      </trkpt>
      <trkpt lat="48.84103" lon="1.86853">
        <ele>119</ele>
        <time>2024-12-16T14:10:06.637Z</time>
      </trkpt>
      <trkpt lat="48.841" lon="1.86852">
        <ele>119</ele>
        <time>2024-12-16T14:10:10.989Z</time>
      </trkpt>
      <trkpt lat="48.84098" lon="1.86852">
        <ele>119</ele>
        <time>2024-12-16T14:10:15.988Z</time>
      </trkpt>
      <trkpt lat="48.84097" lon="1.86853">
        <ele>118</ele>
        <time>2024-12-16T14:10:20.988Z</time>
      </trkpt>
      <trkpt lat="48.84097" lon="1.86853">
        <ele>118</ele>
        <time>2024-12-16T14:10:25.989Z</time>
      </trkpt>
      <trkpt lat="48.84097" lon="1.86838">
        <ele>119</ele>
        <time>2024-12-16T14:11:05.989Z</time>
      </trkpt>
      <trkpt lat="48.84098" lon="1.86837">
        <ele>119</ele>
        <time>2024-12-16T14:11:09.992Z</time>
      </trkpt>
      <trkpt lat="48.84098" lon="1.86836">
        <ele>119</ele>
        <time>2024-12-16T14:11:14.989Z</time>
      </trkpt>
      <trkpt lat="48.84099" lon="1.86834">
        <ele>119</ele>
        <time>2024-12-16T14:11:19.989Z</time>
      </trkpt>
      <trkpt lat="48.84099" lon="1.86833">
        <ele>119</ele>
        <time>2024-12-16T14:11:23.988Z</time>
      </trkpt>
      <trkpt lat="48.841" lon="1.86829">
        <ele>119</ele>
        <time>2024-12-16T14:12:10.455Z</time>
      </trkpt>
      <trkpt lat="48.84097" lon="1.86823">
        <ele>118</ele>
        <time>2024-12-16T14:12:14.737Z</time>
      </trkpt>
      <trkpt lat="48.84093" lon="1.86817">
        <ele>119</ele>
        <time>2024-12-16T14:12:18.814Z</time>
      </trkpt>
      <trkpt lat="48.84088" lon="1.86814">
        <ele>119</ele>
        <time>2024-12-16T14:12:23.438Z</time>
      </trkpt>
      <trkpt lat="48.84084" lon="1.86809">
        <ele>119</ele>
        <time>2024-12-16T14:12:27.872Z</time>
      </trkpt>
      <trkpt lat="48.84079" lon="1.86804">
        <ele>119</ele>
        <time>2024-12-16T14:12:32.316Z</time>
      </trkpt>
      <trkpt lat="48.84075" lon="1.86798">
        <ele>119</ele>
        <time>2024-12-16T14:12:36.734Z</time>
      </trkpt>
      <trkpt lat="48.8407" lon="1.86794">
        <ele>119</ele>
        <time>2024-12-16T14:12:40.819Z</time>
      </trkpt>
      <trkpt lat="48.84065" lon="1.86791">
        <ele>119</ele>
        <time>2024-12-16T14:12:45Z</time>
      </trkpt>
      <trkpt lat="48.8406" lon="1.8679">
        <ele>119</ele>
        <time>2024-12-16T14:12:49.033Z</time>
      </trkpt>
      <trkpt lat="48.84055" lon="1.86785">
        <ele>119</ele>
        <time>2024-12-16T14:12:53.460Z</time>
      </trkpt>
      <trkpt lat="48.8405" lon="1.86782">
        <ele>119</ele>
        <time>2024-12-16T14:12:57.989Z</time>
      </trkpt>
      <trkpt lat="48.84044" lon="1.86779">
        <ele>119</ele>
        <time>2024-12-16T14:13:02.637Z</time>
      </trkpt>
      <trkpt lat="48.84039" lon="1.86776">
        <ele>121</ele>
        <time>2024-12-16T14:13:07.174Z</time>
      </trkpt>
      <trkpt lat="48.84033" lon="1.86775">
        <ele>121</ele>
        <time>2024-12-16T14:13:11.738Z</time>
      </trkpt>
      <trkpt lat="48.84028" lon="1.86771">
        <ele>121</ele>
        <time>2024-12-16T14:13:16.174Z</time>
      </trkpt>
      <trkpt lat="48.84023" lon="1.86766">
        <ele>121</ele>
        <time>2024-12-16T14:13:20.659Z</time>
      </trkpt>
      <trkpt lat="48.84023" lon="1.86767">
        <ele>121</ele>
        <time>2024-12-16T14:13:24.988Z</time>
      </trkpt>
      <trkpt lat="48.84023" lon="1.86764">
        <ele>121</ele>
        <time>2024-12-16T14:13:29.836Z</time>
      </trkpt>
      <trkpt lat="48.84016" lon="1.86761">
        <ele>120</ele>
        <time>2024-12-16T14:13:33.988Z</time>
      </trkpt>
      <trkpt lat="48.8401" lon="1.86757">
        <ele>122</ele>
        <time>2024-12-16T14:13:38.877Z</time>
      </trkpt>
      <trkpt lat="48.84005" lon="1.86754">
        <ele>122</ele>
        <time>2024-12-16T14:13:43.056Z</time>
      </trkpt>
      <trkpt lat="48.83999" lon="1.86752">
        <ele>122</ele>
        <time>2024-12-16T14:13:47.398Z</time>
      </trkpt>
      <trkpt lat="48.83993" lon="1.8675">
        <ele>122</ele>
        <time>2024-12-16T14:13:51.594Z</time>
      </trkpt>
      <trkpt lat="48.83987" lon="1.86748">
        <ele>122</ele>
        <time>2024-12-16T14:13:55.989Z</time>
      </trkpt>
      <trkpt lat="48.83981" lon="1.86745">
        <ele>123</ele>
        <time>2024-12-16T14:14:00.397Z</time>
      </trkpt>
      <trkpt lat="48.83975" lon="1.86742">
        <ele>123</ele>
        <time>2024-12-16T14:14:04.988Z</time>
      </trkpt>
      <trkpt lat="48.8397" lon="1.86738">
        <ele>123</ele>
        <time>2024-12-16T14:14:09.293Z</time>
      </trkpt>
      <trkpt lat="48.83967" lon="1.86735">
        <ele>121</ele>
        <time>2024-12-16T14:14:13.386Z</time>
      </trkpt>
      <trkpt lat="48.83965" lon="1.86729">
        <ele>121</ele>
        <time>2024-12-16T14:14:17.933Z</time>
      </trkpt>
      <trkpt lat="48.83959" lon="1.86726">
        <ele>121</ele>
        <time>2024-12-16T14:14:22.358Z</time>
      </trkpt>
      <trkpt lat="48.83953" lon="1.86723">
        <ele>122</ele>
        <time>2024-12-16T14:14:26.717Z</time>
      </trkpt>
      <trkpt lat="48.83947" lon="1.86721">
        <ele>122</ele>
        <time>2024-12-16T14:14:31.195Z</time>
      </trkpt>
      <trkpt lat="48.83941" lon="1.8672">
        <ele>122</ele>
        <time>2024-12-16T14:14:35.476Z</time>
      </trkpt>
      <trkpt lat="48.83935" lon="1.86719">
        <ele>122</ele>
        <time>2024-12-16T14:14:39.954Z</time>
      </trkpt>
      <trkpt lat="48.83928" lon="1.86718">
        <ele>125</ele>
        <time>2024-12-16T14:14:44.415Z</time>
      </trkpt>
      <trkpt lat="48.83923" lon="1.86716">
        <ele>125</ele>
        <time>2024-12-16T14:14:48.457Z</time>
      </trkpt>
      <trkpt lat="48.83918" lon="1.86714">
        <ele>125</ele>
        <time>2024-12-16T14:14:52.918Z</time>
      </trkpt>
      <trkpt lat="48.83914" lon="1.86709">
        <ele>125</ele>
        <time>2024-12-16T14:14:56.988Z</time>
      </trkpt>
      <trkpt lat="48.83908" lon="1.86707">
        <ele>124</ele>
        <time>2024-12-16T14:15:01.387Z</time>
      </trkpt>
      <trkpt lat="48.83903" lon="1.86705">
        <ele>124</ele>
        <time>2024-12-16T14:15:05.532Z</time>
      </trkpt>
      <trkpt lat="48.83897" lon="1.86705">
        <ele>126</ele>
        <time>2024-12-16T14:15:09.857Z</time>
      </trkpt>
      <trkpt lat="48.83891" lon="1.86703">
        <ele>126</ele>
        <time>2024-12-16T14:15:14.096Z</time>
      </trkpt>
      <trkpt lat="48.83886" lon="1.867">
        <ele>126</ele>
        <time>2024-12-16T14:15:18.419Z</time>
      </trkpt>
      <trkpt lat="48.8388" lon="1.86699">
        <ele>126</ele>
        <time>2024-12-16T14:15:22.777Z</time>
      </trkpt>
      <trkpt lat="48.83874" lon="1.86697">
        <ele>126</ele>
        <time>2024-12-16T14:15:27.238Z</time>
      </trkpt>
      <trkpt lat="48.83868" lon="1.86694">
        <ele>126</ele>
        <time>2024-12-16T14:15:31.617Z</time>
      </trkpt>
      <trkpt lat="48.83863" lon="1.86692">
        <ele>126</ele>
        <time>2024-12-16T14:15:36.017Z</time>
      </trkpt>
      <trkpt lat="48.83857" lon="1.8669">
        <ele>126</ele>
        <time>2024-12-16T14:15:40.363Z</time>
      </trkpt>
      <trkpt lat="48.83852" lon="1.86688">
        <ele>126</ele>
        <time>2024-12-16T14:15:44.688Z</time>
      </trkpt>
      <trkpt lat="48.83846" lon="1.86685">
        <ele>126</ele>
        <time>2024-12-16T14:15:49.089Z</time>
      </trkpt>
      <trkpt lat="48.83841" lon="1.86684">
        <ele>126</ele>
        <time>2024-12-16T14:15:53.371Z</time>
      </trkpt>
      <trkpt lat="48.83835" lon="1.86683">
        <ele>126</ele>
        <time>2024-12-16T14:15:57.763Z</time>
      </trkpt>
      <trkpt lat="48.8383" lon="1.86682">
        <ele>126</ele>
        <time>2024-12-16T14:16:01.884Z</time>
      </trkpt>
      <trkpt lat="48.83824" lon="1.86678">
        <ele>123</ele>
        <time>2024-12-16T14:16:05.988Z</time>
      </trkpt>
      <trkpt lat="48.83819" lon="1.86677">
        <ele>124</ele>
        <time>2024-12-16T14:16:10.249Z</time>
      </trkpt>
      <trkpt lat="48.83813" lon="1.86675">
        <ele>124</ele>
        <time>2024-12-16T14:16:14.368Z</time>
      </trkpt>
      <trkpt lat="48.83807" lon="1.86674">
        <ele>124</ele>
        <time>2024-12-16T14:16:18.726Z</time>
      </trkpt>
      <trkpt lat="48.83801" lon="1.86672">
        <ele>124</ele>
        <time>2024-12-16T14:16:22.949Z</time>
      </trkpt>
      <trkpt lat="48.83795" lon="1.8667">
        <ele>124</ele>
        <time>2024-12-16T14:16:27.812Z</time>
      </trkpt>
      <trkpt lat="48.83789" lon="1.86668">
        <ele>124</ele>
        <time>2024-12-16T14:16:31.988Z</time>
      </trkpt>
      <trkpt lat="48.83783" lon="1.86669">
        <ele>124</ele>
        <time>2024-12-16T14:16:36.305Z</time>
      </trkpt>
      <trkpt lat="48.83777" lon="1.86666">
        <ele>124</ele>
        <time>2024-12-16T14:16:40.587Z</time>
      </trkpt>
      <trkpt lat="48.83772" lon="1.86664">
        <ele>124</ele>
        <time>2024-12-16T14:16:44.723Z</time>
      </trkpt>
      <trkpt lat="48.83767" lon="1.86662">
        <ele>124</ele>
        <time>2024-12-16T14:16:48.910Z</time>
      </trkpt>
      <trkpt lat="48.83761" lon="1.86661">
        <ele>125</ele>
        <time>2024-12-16T14:16:53.244Z</time>
      </trkpt>
      <trkpt lat="48.83755" lon="1.86658">
        <ele>125</ele>
        <time>2024-12-16T14:16:57.491Z</time>
      </trkpt>
      <trkpt lat="48.83749" lon="1.86656">
        <ele>125</ele>
        <time>2024-12-16T14:17:01.687Z</time>
      </trkpt>
      <trkpt lat="48.83743" lon="1.86653">
        <ele>125</ele>
        <time>2024-12-16T14:17:05.909Z</time>
      </trkpt>
      <trkpt lat="48.83737" lon="1.86651">
        <ele>123</ele>
        <time>2024-12-16T14:17:10.104Z</time>
      </trkpt>
      <trkpt lat="48.83732" lon="1.86651">
        <ele>124</ele>
        <time>2024-12-16T14:17:14.508Z</time>
      </trkpt>
      <trkpt lat="48.83726" lon="1.86648">
        <ele>124</ele>
        <time>2024-12-16T14:17:18.791Z</time>
      </trkpt>
      <trkpt lat="48.8372" lon="1.86646">
        <ele>124</ele>
        <time>2024-12-16T14:17:23.115Z</time>
      </trkpt>
      <trkpt lat="48.83715" lon="1.86643">
        <ele>124</ele>
        <time>2024-12-16T14:17:27.448Z</time>
      </trkpt>
      <trkpt lat="48.83709" lon="1.86641">
        <ele>124</ele>
        <time>2024-12-16T14:17:31.755Z</time>
      </trkpt>
      <trkpt lat="48.83704" lon="1.86638">
        <ele>125</ele>
        <time>2024-12-16T14:17:35.950Z</time>
      </trkpt>
      <trkpt lat="48.83698" lon="1.86635">
        <ele>125</ele>
        <time>2024-12-16T14:17:40.179Z</time>
      </trkpt>
      <trkpt lat="48.83693" lon="1.86632">
        <ele>125</ele>
        <time>2024-12-16T14:17:44.394Z</time>
      </trkpt>
      <trkpt lat="48.83687" lon="1.86629">
        <ele>125</ele>
        <time>2024-12-16T14:17:48.607Z</time>
      </trkpt>
      <trkpt lat="48.83681" lon="1.86624">
        <ele>125</ele>
        <time>2024-12-16T14:17:52.974Z</time>
      </trkpt>
      <trkpt lat="48.83677" lon="1.8662">
        <ele>124</ele>
        <time>2024-12-16T14:17:57.258Z</time>
      </trkpt>
      <trkpt lat="48.83672" lon="1.86614">
        <ele>124</ele>
        <time>2024-12-16T14:18:01.495Z</time>
      </trkpt>
      <trkpt lat="48.83668" lon="1.86607">
        <ele>124</ele>
        <time>2024-12-16T14:18:05.732Z</time>
      </trkpt>
      <trkpt lat="48.83665" lon="1.86601">
        <ele>124</ele>
        <time>2024-12-16T14:18:09.928Z</time>
      </trkpt>
      <trkpt lat="48.83662" lon="1.86593">
        <ele>123</ele>
        <time>2024-12-16T14:18:13.989Z</time>
      </trkpt>
      <trkpt lat="48.83659" lon="1.86584">
        <ele>123</ele>
        <time>2024-12-16T14:18:18.807Z</time>
      </trkpt>
      <trkpt lat="48.83656" lon="1.86575">
        <ele>123</ele>
        <time>2024-12-16T14:18:22.988Z</time>
      </trkpt>
      <trkpt lat="48.83654" lon="1.86567">
        <ele>122</ele>
        <time>2024-12-16T14:18:27.250Z</time>
      </trkpt>
      <trkpt lat="48.83652" lon="1.86558">
        <ele>122</ele>
        <time>2024-12-16T14:18:31.430Z</time>
      </trkpt>
      <trkpt lat="48.83652" lon="1.86548">
        <ele>122</ele>
        <time>2024-12-16T14:18:35.667Z</time>
      </trkpt>
      <trkpt lat="48.83653" lon="1.8654">
        <ele>122</ele>
        <time>2024-12-16T14:18:39.949Z</time>
      </trkpt>
      <trkpt lat="48.83653" lon="1.86531">
        <ele>122</ele>
        <time>2024-12-16T14:18:44.308Z</time>
      </trkpt>
      <trkpt lat="48.83654" lon="1.86522">
        <ele>122</ele>
        <time>2024-12-16T14:18:48.614Z</time>
      </trkpt>
      <trkpt lat="48.83657" lon="1.86514">
        <ele>122</ele>
        <time>2024-12-16T14:18:52.929Z</time>
      </trkpt>
      <trkpt lat="48.83658" lon="1.86505">
        <ele>122</ele>
        <time>2024-12-16T14:18:57.347Z</time>
      </trkpt>
      <trkpt lat="48.83659" lon="1.86498">
        <ele>122</ele>
        <time>2024-12-16T14:19:01.713Z</time>
      </trkpt>
      <trkpt lat="48.83661" lon="1.8649">
        <ele>122</ele>
        <time>2024-12-16T14:19:06.234Z</time>
      </trkpt>
      <trkpt lat="48.83662" lon="1.86491">
        <ele>122</ele>
        <time>2024-12-16T14:19:10.712Z</time>
      </trkpt>
      <trkpt lat="48.83662" lon="1.86481">
        <ele>123</ele>
        <time>2024-12-16T14:19:14.989Z</time>
      </trkpt>
      <trkpt lat="48.83663" lon="1.86473">
        <ele>123</ele>
        <time>2024-12-16T14:19:19.487Z</time>
      </trkpt>
      <trkpt lat="48.83664" lon="1.86466">
        <ele>123</ele>
        <time>2024-12-16T14:19:23.709Z</time>
      </trkpt>
      <trkpt lat="48.83668" lon="1.86463">
        <ele>123</ele>
        <time>2024-12-16T14:19:37.372Z</time>
      </trkpt>
      <trkpt lat="48.83666" lon="1.86471">
        <ele>123</ele>
        <time>2024-12-16T14:19:41.656Z</time>
      </trkpt>
      <trkpt lat="48.83664" lon="1.86478">
        <ele>123</ele>
        <time>2024-12-16T14:19:45.891Z</time>
      </trkpt>
      <trkpt lat="48.83661" lon="1.86484">
        <ele>123</ele>
        <time>2024-12-16T14:19:50.113Z</time>
      </trkpt>
      <trkpt lat="48.83657" lon="1.86486">
        <ele>122</ele>
        <time>2024-12-16T14:19:54.795Z</time>
      </trkpt>
      <trkpt lat="48.83655" lon="1.8649">
        <ele>122</ele>
        <time>2024-12-16T14:19:58.988Z</time>
      </trkpt>
      <trkpt lat="48.83653" lon="1.86496">
        <ele>122</ele>
        <time>2024-12-16T14:20:03.988Z</time>
      </trkpt>
      <trkpt lat="48.8365" lon="1.86497">
        <ele>122</ele>
        <time>2024-12-16T14:20:08.420Z</time>
      </trkpt>
      <trkpt lat="48.83647" lon="1.86504">
        <ele>122</ele>
        <time>2024-12-16T14:20:12.867Z</time>
      </trkpt>
      <trkpt lat="48.83644" lon="1.86509">
        <ele>122</ele>
        <time>2024-12-16T14:20:16.948Z</time>
      </trkpt>
      <trkpt lat="48.83643" lon="1.86516">
        <ele>122</ele>
        <time>2024-12-16T14:20:21.263Z</time>
      </trkpt>
      <trkpt lat="48.83641" lon="1.86522">
        <ele>122</ele>
        <time>2024-12-16T14:20:25.365Z</time>
      </trkpt>
      <trkpt lat="48.8364" lon="1.86528">
        <ele>122</ele>
        <time>2024-12-16T14:20:29.604Z</time>
      </trkpt>
      <trkpt lat="48.83639" lon="1.86531">
        <ele>122</ele>
        <time>2024-12-16T14:20:33.596Z</time>
      </trkpt>
      <trkpt lat="48.83638" lon="1.86532">
        <ele>122</ele>
        <time>2024-12-16T14:20:37.989Z</time>
      </trkpt>
      <trkpt lat="48.83637" lon="1.86536">
        <ele>122</ele>
        <time>2024-12-16T14:20:42.491Z</time>
      </trkpt>
      <trkpt lat="48.83636" lon="1.86545">
        <ele>122</ele>
        <time>2024-12-16T14:20:46.550Z</time>
      </trkpt>
      <trkpt lat="48.83634" lon="1.86551">
        <ele>122</ele>
        <time>2024-12-16T14:20:50.584Z</time>
      </trkpt>
      <trkpt lat="48.83632" lon="1.86557">
        <ele>122</ele>
        <time>2024-12-16T14:20:54.848Z</time>
      </trkpt>
      <trkpt lat="48.83629" lon="1.86565">
        <ele>122</ele>
        <time>2024-12-16T14:20:59.471Z</time>
      </trkpt>
      <trkpt lat="48.83627" lon="1.8657">
        <ele>122</ele>
        <time>2024-12-16T14:21:03.666Z</time>
      </trkpt>
      <trkpt lat="48.83626" lon="1.86576">
        <ele>122</ele>
        <time>2024-12-16T14:21:20.886Z</time>
      </trkpt>
      <trkpt lat="48.83623" lon="1.86585">
        <ele>122</ele>
        <time>2024-12-16T14:21:25.568Z</time>
      </trkpt>
      <trkpt lat="48.83621" lon="1.8659">
        <ele>122</ele>
        <time>2024-12-16T14:21:30.008Z</time>
      </trkpt>
      <trkpt lat="48.8362" lon="1.86596">
        <ele>122</ele>
        <time>2024-12-16T14:21:34.208Z</time>
      </trkpt>
      <trkpt lat="48.83618" lon="1.86602">
        <ele>122</ele>
        <time>2024-12-16T14:21:38.710Z</time>
      </trkpt>
      <trkpt lat="48.83616" lon="1.86605">
        <ele>122</ele>
        <time>2024-12-16T14:21:42.829Z</time>
      </trkpt>
      <trkpt lat="48.83614" lon="1.86609">
        <ele>122</ele>
        <time>2024-12-16T14:21:47.247Z</time>
      </trkpt>
      <trkpt lat="48.83613" lon="1.86617">
        <ele>122</ele>
        <time>2024-12-16T14:21:51.931Z</time>
      </trkpt>
      <trkpt lat="48.83609" lon="1.86623">
        <ele>122</ele>
        <time>2024-12-16T14:21:56.245Z</time>
      </trkpt>
      <trkpt lat="48.83608" lon="1.86631">
        <ele>122</ele>
        <time>2024-12-16T14:22:00.748Z</time>
      </trkpt>
      <trkpt lat="48.83607" lon="1.86638">
        <ele>122</ele>
        <time>2024-12-16T14:22:05.310Z</time>
      </trkpt>
      <trkpt lat="48.83605" lon="1.86645">
        <ele>122</ele>
        <time>2024-12-16T14:22:09.830Z</time>
      </trkpt>
      <trkpt lat="48.83603" lon="1.86652">
        <ele>122</ele>
        <time>2024-12-16T14:22:14.288Z</time>
      </trkpt>
      <trkpt lat="48.83602" lon="1.86659">
        <ele>121</ele>
        <time>2024-12-16T14:22:18.551Z</time>
      </trkpt>
      <trkpt lat="48.836" lon="1.86666">
        <ele>121</ele>
        <time>2024-12-16T14:22:22.688Z</time>
      </trkpt>
      <trkpt lat="48.83598" lon="1.86673">
        <ele>121</ele>
        <time>2024-12-16T14:22:26.952Z</time>
      </trkpt>
      <trkpt lat="48.83599" lon="1.8668">
        <ele>121</ele>
        <time>2024-12-16T14:22:30.988Z</time>
      </trkpt>
      <trkpt lat="48.83598" lon="1.8669">
        <ele>121</ele>
        <time>2024-12-16T14:22:35.054Z</time>
      </trkpt>
      <trkpt lat="48.83596" lon="1.86696">
        <ele>119</ele>
        <time>2024-12-16T14:22:39.169Z</time>
      </trkpt>
      <trkpt lat="48.83594" lon="1.86703">
        <ele>119</ele>
        <time>2024-12-16T14:22:43.989Z</time>
      </trkpt>
      <trkpt lat="48.83592" lon="1.86708">
        <ele>119</ele>
        <time>2024-12-16T14:22:48.230Z</time>
      </trkpt>
      <trkpt lat="48.83589" lon="1.86713">
        <ele>119</ele>
        <time>2024-12-16T14:22:52.273Z</time>
      </trkpt>
      <trkpt lat="48.83584" lon="1.86719">
        <ele>119</ele>
        <time>2024-12-16T14:22:56.793Z</time>
      </trkpt>
      <trkpt lat="48.83582" lon="1.86725">
        <ele>119</ele>
        <time>2024-12-16T14:23:00.869Z</time>
      </trkpt>
      <trkpt lat="48.83579" lon="1.86732">
        <ele>119</ele>
        <time>2024-12-16T14:23:04.928Z</time>
      </trkpt>
      <trkpt lat="48.83577" lon="1.86739">
        <ele>120</ele>
        <time>2024-12-16T14:23:09.448Z</time>
      </trkpt>
      <trkpt lat="48.83575" lon="1.86745">
        <ele>120</ele>
        <time>2024-12-16T14:23:13.988Z</time>
      </trkpt>
      <trkpt lat="48.83571" lon="1.86753">
        <ele>120</ele>
        <time>2024-12-16T14:23:18.472Z</time>
      </trkpt>
      <trkpt lat="48.83568" lon="1.86761">
        <ele>118</ele>
        <time>2024-12-16T14:23:22.830Z</time>
      </trkpt>
      <trkpt lat="48.83566" lon="1.86768">
        <ele>118</ele>
        <time>2024-12-16T14:23:26.915Z</time>
      </trkpt>
      <trkpt lat="48.83565" lon="1.86774">
        <ele>118</ele>
        <time>2024-12-16T14:23:30.988Z</time>
      </trkpt>
      <trkpt lat="48.83562" lon="1.86781">
        <ele>118</ele>
        <time>2024-12-16T14:23:35.248Z</time>
      </trkpt>
      <trkpt lat="48.83559" lon="1.86789">
        <ele>118</ele>
        <time>2024-12-16T14:23:39.613Z</time>
      </trkpt>
      <trkpt lat="48.83555" lon="1.86795">
        <ele>118</ele>
        <time>2024-12-16T14:23:44.152Z</time>
      </trkpt>
      <trkpt lat="48.83551" lon="1.86801">
        <ele>118</ele>
        <time>2024-12-16T14:23:48.194Z</time>
      </trkpt>
      <trkpt lat="48.83548" lon="1.86809">
        <ele>118</ele>
        <time>2024-12-16T14:23:52.612Z</time>
      </trkpt>
      <trkpt lat="48.83545" lon="1.86815">
        <ele>118</ele>
        <time>2024-12-16T14:23:56.628Z</time>
      </trkpt>
      <trkpt lat="48.83541" lon="1.86823">
        <ele>114</ele>
        <time>2024-12-16T14:24:01.191Z</time>
      </trkpt>
      <trkpt lat="48.83538" lon="1.86829">
        <ele>114</ele>
        <time>2024-12-16T14:24:05.233Z</time>
      </trkpt>
      <trkpt lat="48.83534" lon="1.86837">
        <ele>114</ele>
        <time>2024-12-16T14:24:09.813Z</time>
      </trkpt>
      <trkpt lat="48.83531" lon="1.86842">
        <ele>114</ele>
        <time>2024-12-16T14:24:13.847Z</time>
      </trkpt>
      <trkpt lat="48.83527" lon="1.86848">
        <ele>113</ele>
        <time>2024-12-16T14:24:18.431Z</time>
      </trkpt>
      <trkpt lat="48.83524" lon="1.86856">
        <ele>113</ele>
        <time>2024-12-16T14:24:22.849Z</time>
      </trkpt>
      <trkpt lat="48.8352" lon="1.86862">
        <ele>113</ele>
        <time>2024-12-16T14:24:27.104Z</time>
      </trkpt>
      <trkpt lat="48.83517" lon="1.86869">
        <ele>113</ele>
        <time>2024-12-16T14:24:31.428Z</time>
      </trkpt>
      <trkpt lat="48.83514" lon="1.86875">
        <ele>112</ele>
        <time>2024-12-16T14:24:35.445Z</time>
      </trkpt>
      <trkpt lat="48.8351" lon="1.86882">
        <ele>111</ele>
        <time>2024-12-16T14:24:39.653Z</time>
      </trkpt>
      <trkpt lat="48.83507" lon="1.86889">
        <ele>111</ele>
        <time>2024-12-16T14:24:44.143Z</time>
      </trkpt>
      <trkpt lat="48.83504" lon="1.86895">
        <ele>111</ele>
        <time>2024-12-16T14:24:48.187Z</time>
      </trkpt>
      <trkpt lat="48.83501" lon="1.86901">
        <ele>111</ele>
        <time>2024-12-16T14:24:52.204Z</time>
      </trkpt>
      <trkpt lat="48.83498" lon="1.86908">
        <ele>110</ele>
        <time>2024-12-16T14:24:56.809Z</time>
      </trkpt>
      <trkpt lat="48.83495" lon="1.86915">
        <ele>110</ele>
        <time>2024-12-16T14:25:01.210Z</time>
      </trkpt>
      <trkpt lat="48.83491" lon="1.86922">
        <ele>110</ele>
        <time>2024-12-16T14:25:05.583Z</time>
      </trkpt>
      <trkpt lat="48.83488" lon="1.86928">
        <ele>110</ele>
        <time>2024-12-16T14:25:09.789Z</time>
      </trkpt>
      <trkpt lat="48.83483" lon="1.86928">
        <ele>108</ele>
        <time>2024-12-16T14:25:13.972Z</time>
      </trkpt>
      <trkpt lat="48.8348" lon="1.86929">
        <ele>108</ele>
        <time>2024-12-16T14:25:17.988Z</time>
      </trkpt>
      <trkpt lat="48.83476" lon="1.86927">
        <ele>108</ele>
        <time>2024-12-16T14:25:22.372Z</time>
      </trkpt>
      <trkpt lat="48.83471" lon="1.86923">
        <ele>108</ele>
        <time>2024-12-16T14:25:26.533Z</time>
      </trkpt>
      <trkpt lat="48.83468" lon="1.86921">
        <ele>108</ele>
        <time>2024-12-16T14:25:30.593Z</time>
      </trkpt>
      <trkpt lat="48.83463" lon="1.86919">
        <ele>108</ele>
        <time>2024-12-16T14:25:34.990Z</time>
      </trkpt>
      <trkpt lat="48.83458" lon="1.86916">
        <ele>105</ele>
        <time>2024-12-16T14:25:39.591Z</time>
      </trkpt>
      <trkpt lat="48.83453" lon="1.86914">
        <ele>105</ele>
        <time>2024-12-16T14:25:43.812Z</time>
      </trkpt>
      <trkpt lat="48.83449" lon="1.86912">
        <ele>105</ele>
        <time>2024-12-16T14:25:47.948Z</time>
      </trkpt>
      <trkpt lat="48.83446" lon="1.86912">
        <ele>105</ele>
        <time>2024-12-16T14:25:51.990Z</time>
      </trkpt>
      <trkpt lat="48.83441" lon="1.8691">
        <ele>105</ele>
        <time>2024-12-16T14:25:56.392Z</time>
      </trkpt>
      <trkpt lat="48.83437" lon="1.86908">
        <ele>105</ele>
        <time>2024-12-16T14:26:00.913Z</time>
      </trkpt>
      <trkpt lat="48.83432" lon="1.86908">
        <ele>105</ele>
        <time>2024-12-16T14:26:05.449Z</time>
      </trkpt>
      <trkpt lat="48.83427" lon="1.86907">
        <ele>103</ele>
        <time>2024-12-16T14:26:09.989Z</time>
      </trkpt>
      <trkpt lat="48.83423" lon="1.86904">
        <ele>103</ele>
        <time>2024-12-16T14:26:14.489Z</time>
      </trkpt>
      <trkpt lat="48.83419" lon="1.86901">
        <ele>104</ele>
        <time>2024-12-16T14:26:18.531Z</time>
      </trkpt>
      <trkpt lat="48.83415" lon="1.869">
        <ele>104</ele>
        <time>2024-12-16T14:26:22.727Z</time>
      </trkpt>
      <trkpt lat="48.8341" lon="1.86898">
        <ele>104</ele>
        <time>2024-12-16T14:26:27.469Z</time>
      </trkpt>
      <trkpt lat="48.83406" lon="1.86897">
        <ele>104</ele>
        <time>2024-12-16T14:26:31.584Z</time>
      </trkpt>
      <trkpt lat="48.83401" lon="1.86894">
        <ele>103</ele>
        <time>2024-12-16T14:26:35.990Z</time>
      </trkpt>
      <trkpt lat="48.83395" lon="1.86894">
        <ele>103</ele>
        <time>2024-12-16T14:26:40.552Z</time>
      </trkpt>
      <trkpt lat="48.8339" lon="1.86894">
        <ele>103</ele>
        <time>2024-12-16T14:26:44.990Z</time>
      </trkpt>
      <trkpt lat="48.83385" lon="1.86895">
        <ele>103</ele>
        <time>2024-12-16T14:26:49.549Z</time>
      </trkpt>
      <trkpt lat="48.83379" lon="1.86894">
        <ele>103</ele>
        <time>2024-12-16T14:26:53.992Z</time>
      </trkpt>
      <trkpt lat="48.83373" lon="1.86893">
        <ele>100</ele>
        <time>2024-12-16T14:26:58.520Z</time>
      </trkpt>
      <trkpt lat="48.83368" lon="1.86893">
        <ele>100</ele>
        <time>2024-12-16T14:27:02.932Z</time>
      </trkpt>
      <trkpt lat="48.83362" lon="1.86893">
        <ele>100</ele>
        <time>2024-12-16T14:27:07.450Z</time>
      </trkpt>
      <trkpt lat="48.83357" lon="1.86893">
        <ele>100</ele>
        <time>2024-12-16T14:27:11.803Z</time>
      </trkpt>
      <trkpt lat="48.83351" lon="1.86893">
        <ele>100</ele>
        <time>2024-12-16T14:27:16.828Z</time>
      </trkpt>
      <trkpt lat="48.83346" lon="1.86891">
        <ele>99</ele>
        <time>2024-12-16T14:27:21.303Z</time>
      </trkpt>
      <trkpt lat="48.8334" lon="1.8689">
        <ele>99</ele>
        <time>2024-12-16T14:27:25.730Z</time>
      </trkpt>
      <trkpt lat="48.83334" lon="1.86888">
        <ele>99</ele>
        <time>2024-12-16T14:27:30.163Z</time>
      </trkpt>
      <trkpt lat="48.8333" lon="1.86887">
        <ele>99</ele>
        <time>2024-12-16T14:27:34.266Z</time>
      </trkpt>
      <trkpt lat="48.83324" lon="1.86885">
        <ele>99</ele>
        <time>2024-12-16T14:27:38.727Z</time>
      </trkpt>
      <trkpt lat="48.83319" lon="1.86883">
        <ele>98</ele>
        <time>2024-12-16T14:27:42.990Z</time>
      </trkpt>
      <trkpt lat="48.83313" lon="1.86881">
        <ele>98</ele>
        <time>2024-12-16T14:27:47.587Z</time>
      </trkpt>
      <trkpt lat="48.83308" lon="1.86878">
        <ele>98</ele>
        <time>2024-12-16T14:27:51.920Z</time>
      </trkpt>
      <trkpt lat="48.83302" lon="1.86875">
        <ele>98</ele>
        <time>2024-12-16T14:27:56.508Z</time>
      </trkpt>
      <trkpt lat="48.83297" lon="1.86872">
        <ele>99</ele>
        <time>2024-12-16T14:28:00.990Z</time>
      </trkpt>
      <trkpt lat="48.83292" lon="1.8687">
        <ele>98</ele>
        <time>2024-12-16T14:28:05.104Z</time>
      </trkpt>
      <trkpt lat="48.83286" lon="1.86867">
        <ele>98</ele>
        <time>2024-12-16T14:28:09.743Z</time>
      </trkpt>
      <trkpt lat="48.83281" lon="1.86865">
        <ele>98</ele>
        <time>2024-12-16T14:28:14.191Z</time>
      </trkpt>
      <trkpt lat="48.83276" lon="1.86863">
        <ele>98</ele>
        <time>2024-12-16T14:28:18.327Z</time>
      </trkpt>
      <trkpt lat="48.8327" lon="1.8686">
        <ele>98</ele>
        <time>2024-12-16T14:28:22.949Z</time>
      </trkpt>
      <trkpt lat="48.83265" lon="1.86858">
        <ele>98</ele>
        <time>2024-12-16T14:28:27.307Z</time>
      </trkpt>
      <trkpt lat="48.8326" lon="1.86855">
        <ele>96</ele>
        <time>2024-12-16T14:28:31.828Z</time>
      </trkpt>
      <trkpt lat="48.83255" lon="1.86852">
        <ele>96</ele>
        <time>2024-12-16T14:28:35.989Z</time>
      </trkpt>
      <trkpt lat="48.8325" lon="1.86849">
        <ele>96</ele>
        <time>2024-12-16T14:28:39.990Z</time>
      </trkpt>
      <trkpt lat="48.83245" lon="1.86847">
        <ele>97</ele>
        <time>2024-12-16T14:28:44.450Z</time>
      </trkpt>
      <trkpt lat="48.83239" lon="1.86844">
        <ele>97</ele>
        <time>2024-12-16T14:28:48.990Z</time>
      </trkpt>
      <trkpt lat="48.83234" lon="1.86841">
        <ele>96</ele>
        <time>2024-12-16T14:28:53.412Z</time>
      </trkpt>
      <trkpt lat="48.83229" lon="1.86838">
        <ele>96</ele>
        <time>2024-12-16T14:28:57.990Z</time>
      </trkpt>
      <trkpt lat="48.83223" lon="1.86834">
        <ele>96</ele>
        <time>2024-12-16T14:29:02.393Z</time>
      </trkpt>
      <trkpt lat="48.83218" lon="1.86832">
        <ele>96</ele>
        <time>2024-12-16T14:29:06.613Z</time>
      </trkpt>
      <trkpt lat="48.83213" lon="1.86829">
        <ele>96</ele>
        <time>2024-12-16T14:29:10.989Z</time>
      </trkpt>
      <trkpt lat="48.83207" lon="1.86827">
        <ele>96</ele>
        <time>2024-12-16T14:29:15.665Z</time>
      </trkpt>
      <trkpt lat="48.83201" lon="1.86826">
        <ele>96</ele>
        <time>2024-12-16T14:29:20.109Z</time>
      </trkpt>
      <trkpt lat="48.83195" lon="1.86826">
        <ele>96</ele>
        <time>2024-12-16T14:29:24.187Z</time>
      </trkpt>
      <trkpt lat="48.8319" lon="1.86826">
        <ele>96</ele>
        <time>2024-12-16T14:29:28.287Z</time>
      </trkpt>
      <trkpt lat="48.83184" lon="1.86826">
        <ele>96</ele>
        <time>2024-12-16T14:29:32.688Z</time>
      </trkpt>
      <trkpt lat="48.83178" lon="1.86827">
        <ele>95</ele>
        <time>2024-12-16T14:29:37.208Z</time>
      </trkpt>
      <trkpt lat="48.83173" lon="1.86828">
        <ele>95</ele>
        <time>2024-12-16T14:29:41.225Z</time>
      </trkpt>
      <trkpt lat="48.83168" lon="1.86826">
        <ele>95</ele>
        <time>2024-12-16T14:29:45.626Z</time>
      </trkpt>
      <trkpt lat="48.83164" lon="1.86827">
        <ele>95</ele>
        <time>2024-12-16T14:29:49.990Z</time>
      </trkpt>
      <trkpt lat="48.8316" lon="1.86822">
        <ele>95</ele>
        <time>2024-12-16T14:29:54.349Z</time>
      </trkpt>
      <trkpt lat="48.83156" lon="1.86817">
        <ele>96</ele>
        <time>2024-12-16T14:29:58.708Z</time>
      </trkpt>
      <trkpt lat="48.8315" lon="1.86816">
        <ele>95</ele>
        <time>2024-12-16T14:30:03.228Z</time>
      </trkpt>
      <trkpt lat="48.83145" lon="1.86812">
        <ele>95</ele>
        <time>2024-12-16T14:30:07.407Z</time>
      </trkpt>
      <trkpt lat="48.83141" lon="1.86809">
        <ele>95</ele>
        <time>2024-12-16T14:30:11.568Z</time>
      </trkpt>
      <trkpt lat="48.83136" lon="1.86805">
        <ele>95</ele>
        <time>2024-12-16T14:30:15.603Z</time>
      </trkpt>
      <trkpt lat="48.83131" lon="1.86801">
        <ele>95</ele>
        <time>2024-12-16T14:30:19.990Z</time>
      </trkpt>
      <trkpt lat="48.83125" lon="1.86797">
        <ele>95</ele>
        <time>2024-12-16T14:30:24.907Z</time>
      </trkpt>
      <trkpt lat="48.83121" lon="1.86792">
        <ele>94</ele>
        <time>2024-12-16T14:30:28.989Z</time>
      </trkpt>
      <trkpt lat="48.83117" lon="1.86788">
        <ele>95</ele>
        <time>2024-12-16T14:30:33.235Z</time>
      </trkpt>
      <trkpt lat="48.83112" lon="1.86783">
        <ele>95</ele>
        <time>2024-12-16T14:30:37.749Z</time>
      </trkpt>
      <trkpt lat="48.83106" lon="1.8678">
        <ele>95</ele>
        <time>2024-12-16T14:30:42.302Z</time>
      </trkpt>
      <trkpt lat="48.83101" lon="1.86775">
        <ele>95</ele>
        <time>2024-12-16T14:30:46.387Z</time>
      </trkpt>
      <trkpt lat="48.83096" lon="1.86772">
        <ele>94</ele>
        <time>2024-12-16T14:30:50.989Z</time>
      </trkpt>
      <trkpt lat="48.83091" lon="1.86768">
        <ele>94</ele>
        <time>2024-12-16T14:30:55.369Z</time>
      </trkpt>
      <trkpt lat="48.83087" lon="1.86765">
        <ele>94</ele>
        <time>2024-12-16T14:30:59.433Z</time>
      </trkpt>
      <trkpt lat="48.83082" lon="1.86762">
        <ele>95</ele>
        <time>2024-12-16T14:31:03.990Z</time>
      </trkpt>
      <trkpt lat="48.83077" lon="1.86757">
        <ele>95</ele>
        <time>2024-12-16T14:31:08.467Z</time>
      </trkpt>
      <trkpt lat="48.83072" lon="1.86754">
        <ele>95</ele>
        <time>2024-12-16T14:31:12.927Z</time>
      </trkpt>
      <trkpt lat="48.83058" lon="1.8676">
        <ele>94</ele>
        <time>2024-12-16T14:31:34.669Z</time>
      </trkpt>
      <trkpt lat="48.83054" lon="1.86765">
        <ele>93</ele>
        <time>2024-12-16T14:31:38.788Z</time>
      </trkpt>
      <trkpt lat="48.8305" lon="1.86771">
        <ele>93</ele>
        <time>2024-12-16T14:31:43.233Z</time>
      </trkpt>
      <trkpt lat="48.83047" lon="1.86777">
        <ele>93</ele>
        <time>2024-12-16T14:31:47.691Z</time>
      </trkpt>
      <trkpt lat="48.83043" lon="1.86783">
        <ele>93</ele>
        <time>2024-12-16T14:31:51.989Z</time>
      </trkpt>
      <trkpt lat="48.8304" lon="1.8679">
        <ele>91</ele>
        <time>2024-12-16T14:31:56.449Z</time>
      </trkpt>
      <trkpt lat="48.83037" lon="1.86798">
        <ele>91</ele>
        <time>2024-12-16T14:32:00.866Z</time>
      </trkpt>
      <trkpt lat="48.83034" lon="1.86806">
        <ele>91</ele>
        <time>2024-12-16T14:32:05.267Z</time>
      </trkpt>
      <trkpt lat="48.83031" lon="1.86813">
        <ele>91</ele>
        <time>2024-12-16T14:32:09.565Z</time>
      </trkpt>
      <trkpt lat="48.83027" lon="1.8682">
        <ele>91</ele>
        <time>2024-12-16T14:32:13.963Z</time>
      </trkpt>
      <trkpt lat="48.83024" lon="1.86828">
        <ele>91</ele>
        <time>2024-12-16T14:32:18.331Z</time>
      </trkpt>
      <trkpt lat="48.83021" lon="1.86836">
        <ele>91</ele>
        <time>2024-12-16T14:32:22.824Z</time>
      </trkpt>
      <trkpt lat="48.83018" lon="1.86844">
        <ele>91</ele>
        <time>2024-12-16T14:32:27.204Z</time>
      </trkpt>
      <trkpt lat="48.83015" lon="1.86851">
        <ele>89</ele>
        <time>2024-12-16T14:32:31.624Z</time>
      </trkpt>
      <trkpt lat="48.83012" lon="1.86859">
        <ele>88</ele>
        <time>2024-12-16T14:32:36.049Z</time>
      </trkpt>
      <trkpt lat="48.83009" lon="1.86867">
        <ele>88</ele>
        <time>2024-12-16T14:32:40.526Z</time>
      </trkpt>
      <trkpt lat="48.83005" lon="1.86874">
        <ele>88</ele>
        <time>2024-12-16T14:32:44.842Z</time>
      </trkpt>
      <trkpt lat="48.83002" lon="1.86881">
        <ele>85</ele>
        <time>2024-12-16T14:32:49.224Z</time>
      </trkpt>
      <trkpt lat="48.82998" lon="1.86888">
        <ele>85</ele>
        <time>2024-12-16T14:32:53.549Z</time>
      </trkpt>
      <trkpt lat="48.82995" lon="1.86896">
        <ele>85</ele>
        <time>2024-12-16T14:32:57.906Z</time>
      </trkpt>
      <trkpt lat="48.82992" lon="1.86903">
        <ele>85</ele>
        <time>2024-12-16T14:33:02.306Z</time>
      </trkpt>
      <trkpt lat="48.82989" lon="1.8691">
        <ele>83</ele>
        <time>2024-12-16T14:33:06.707Z</time>
      </trkpt>
      <trkpt lat="48.82985" lon="1.86917">
        <ele>82</ele>
        <time>2024-12-16T14:33:10.904Z</time>
      </trkpt>
      <trkpt lat="48.82983" lon="1.86924">
        <ele>82</ele>
        <time>2024-12-16T14:33:15.107Z</time>
      </trkpt>
      <trkpt lat="48.82981" lon="1.86933">
        <ele>81</ele>
        <time>2024-12-16T14:33:19.526Z</time>
      </trkpt>
      <trkpt lat="48.82977" lon="1.8694">
        <ele>81</ele>
        <time>2024-12-16T14:33:23.847Z</time>
      </trkpt>
      <trkpt lat="48.82973" lon="1.86946">
        <ele>81</ele>
        <time>2024-12-16T14:33:28.163Z</time>
      </trkpt>
      <trkpt lat="48.82968" lon="1.86951">
        <ele>81</ele>
        <time>2024-12-16T14:33:32.546Z</time>
      </trkpt>
      <trkpt lat="48.82963" lon="1.86955">
        <ele>81</ele>
        <time>2024-12-16T14:33:36.804Z</time>
      </trkpt>
      <trkpt lat="48.82958" lon="1.8696">
        <ele>78</ele>
        <time>2024-12-16T14:33:41.108Z</time>
      </trkpt>
      <trkpt lat="48.82953" lon="1.86965">
        <ele>78</ele>
        <time>2024-12-16T14:33:45.389Z</time>
      </trkpt>
      <trkpt lat="48.82948" lon="1.8697">
        <ele>78</ele>
        <time>2024-12-16T14:33:49.628Z</time>
      </trkpt>
      <trkpt lat="48.82943" lon="1.86975">
        <ele>78</ele>
        <time>2024-12-16T14:33:53.823Z</time>
      </trkpt>
      <trkpt lat="48.82939" lon="1.86981">
        <ele>78</ele>
        <time>2024-12-16T14:33:57.990Z</time>
      </trkpt>
      <trkpt lat="48.82933" lon="1.86986">
        <ele>78</ele>
        <time>2024-12-16T14:34:02.343Z</time>
      </trkpt>
      <trkpt lat="48.82929" lon="1.86992">
        <ele>73</ele>
        <time>2024-12-16T14:34:06.650Z</time>
      </trkpt>
      <trkpt lat="48.82925" lon="1.86997">
        <ele>73</ele>
        <time>2024-12-16T14:34:10.924Z</time>
      </trkpt>
      <trkpt lat="48.82921" lon="1.87004">
        <ele>73</ele>
        <time>2024-12-16T14:34:15.147Z</time>
      </trkpt>
      <trkpt lat="48.82917" lon="1.8701">
        <ele>73</ele>
        <time>2024-12-16T14:34:19.445Z</time>
      </trkpt>
      <trkpt lat="48.82912" lon="1.87016">
        <ele>72</ele>
        <time>2024-12-16T14:34:23.752Z</time>
      </trkpt>
      <trkpt lat="48.82908" lon="1.87023">
        <ele>72</ele>
        <time>2024-12-16T14:34:27.990Z</time>
      </trkpt>
      <trkpt lat="48.82904" lon="1.87029">
        <ele>72</ele>
        <time>2024-12-16T14:34:32.553Z</time>
      </trkpt>
      <trkpt lat="48.829" lon="1.87035">
        <ele>70</ele>
        <time>2024-12-16T14:34:36.731Z</time>
      </trkpt>
      <trkpt lat="48.82896" lon="1.8704">
        <ele>70</ele>
        <time>2024-12-16T14:34:40.989Z</time>
      </trkpt>
      <trkpt lat="48.82891" lon="1.87045">
        <ele>69</ele>
        <time>2024-12-16T14:34:45.430Z</time>
      </trkpt>
      <trkpt lat="48.82886" lon="1.87048">
        <ele>69</ele>
        <time>2024-12-16T14:34:49.566Z</time>
      </trkpt>
      <trkpt lat="48.82882" lon="1.87049">
        <ele>69</ele>
        <time>2024-12-16T14:34:53.989Z</time>
      </trkpt>
      <trkpt lat="48.82879" lon="1.87052">
        <ele>69</ele>
        <time>2024-12-16T14:34:58.708Z</time>
      </trkpt>
      <trkpt lat="48.82878" lon="1.87055">
        <ele>69</ele>
        <time>2024-12-16T14:35:02.989Z</time>
      </trkpt>
      <trkpt lat="48.82876" lon="1.87056">
        <ele>69</ele>
        <time>2024-12-16T14:35:21.989Z</time>
      </trkpt>
      <trkpt lat="48.82875" lon="1.87054">
        <ele>69</ele>
        <time>2024-12-16T14:35:26.927Z</time>
      </trkpt>
      <trkpt lat="48.82872" lon="1.87052">
        <ele>67</ele>
        <time>2024-12-16T14:35:30.969Z</time>
      </trkpt>
      <trkpt lat="48.82866" lon="1.87045">
        <ele>67</ele>
        <time>2024-12-16T14:35:35.432Z</time>
      </trkpt>
      <trkpt lat="48.82862" lon="1.87038">
        <ele>69</ele>
        <time>2024-12-16T14:35:39.992Z</time>
      </trkpt>
      <trkpt lat="48.82858" lon="1.87041">
        <ele>69</ele>
        <time>2024-12-16T14:35:44.350Z</time>
      </trkpt>
      <trkpt lat="48.82855" lon="1.87046">
        <ele>67</ele>
        <time>2024-12-16T14:35:48.588Z</time>
      </trkpt>
      <trkpt lat="48.82853" lon="1.87055">
        <ele>67</ele>
        <time>2024-12-16T14:35:52.647Z</time>
      </trkpt>
      <trkpt lat="48.82851" lon="1.87063">
        <ele>67</ele>
        <time>2024-12-16T14:35:56.989Z</time>
      </trkpt>
      <trkpt lat="48.82847" lon="1.87072">
        <ele>64</ele>
        <time>2024-12-16T14:36:01.772Z</time>
      </trkpt>
      <trkpt lat="48.82844" lon="1.87077">
        <ele>64</ele>
        <time>2024-12-16T14:36:06.250Z</time>
      </trkpt>
      <trkpt lat="48.82843" lon="1.87085">
        <ele>64</ele>
        <time>2024-12-16T14:36:10.607Z</time>
      </trkpt>
      <trkpt lat="48.82843" lon="1.87087">
        <ele>64</ele>
        <time>2024-12-16T14:36:15.170Z</time>
      </trkpt>
      <trkpt lat="48.82841" lon="1.8709">
        <ele>64</ele>
        <time>2024-12-16T14:36:19.208Z</time>
      </trkpt>
      <trkpt lat="48.82839" lon="1.87095">
        <ele>64</ele>
        <time>2024-12-16T14:36:23.609Z</time>
      </trkpt>
      <trkpt lat="48.82837" lon="1.87103">
        <ele>62</ele>
        <time>2024-12-16T14:36:27.846Z</time>
      </trkpt>
      <trkpt lat="48.82836" lon="1.87111">
        <ele>62</ele>
        <time>2024-12-16T14:36:32.068Z</time>
      </trkpt>
      <trkpt lat="48.82834" lon="1.8712">
        <ele>62</ele>
        <time>2024-12-16T14:36:36.409Z</time>
      </trkpt>
      <trkpt lat="48.82834" lon="1.8713">
        <ele>61</ele>
        <time>2024-12-16T14:36:40.767Z</time>
      </trkpt>
      <trkpt lat="48.82833" lon="1.87138">
        <ele>61</ele>
        <time>2024-12-16T14:36:44.991Z</time>
      </trkpt>
      <trkpt lat="48.82834" lon="1.87142">
        <ele>61</ele>
        <time>2024-12-16T14:36:49.209Z</time>
      </trkpt>
      <trkpt lat="48.82833" lon="1.87144">
        <ele>61</ele>
        <time>2024-12-16T14:36:59.443Z</time>
      </trkpt>
      <trkpt lat="48.82832" lon="1.87145">
        <ele>61</ele>
        <time>2024-12-16T14:37:03.710Z</time>
      </trkpt>
      <trkpt lat="48.82832" lon="1.87137">
        <ele>61</ele>
        <time>2024-12-16T14:37:07.769Z</time>
      </trkpt>
      <trkpt lat="48.82829" lon="1.87133">
        <ele>61</ele>
        <time>2024-12-16T14:37:12.329Z</time>
      </trkpt>
      <trkpt lat="48.82823" lon="1.87132">
        <ele>61</ele>
        <time>2024-12-16T14:37:16.771Z</time>
      </trkpt>
      <trkpt lat="48.82817" lon="1.87133">
        <ele>60</ele>
        <time>2024-12-16T14:37:21.206Z</time>
      </trkpt>
      <trkpt lat="48.82811" lon="1.87134">
        <ele>60</ele>
        <time>2024-12-16T14:37:25.772Z</time>
      </trkpt>
      <trkpt lat="48.82806" lon="1.87134">
        <ele>60</ele>
        <time>2024-12-16T14:37:30.189Z</time>
      </trkpt>
      <trkpt lat="48.82803" lon="1.87132">
        <ele>60</ele>
        <time>2024-12-16T14:37:34.762Z</time>
      </trkpt>
      <trkpt lat="48.82799" lon="1.8713">
        <ele>60</ele>
        <time>2024-12-16T14:37:38.991Z</time>
      </trkpt>
      <trkpt lat="48.82798" lon="1.87136">
        <ele>60</ele>
        <time>2024-12-16T14:37:43.369Z</time>
      </trkpt>
      <trkpt lat="48.82798" lon="1.87142">
        <ele>60</ele>
        <time>2024-12-16T14:37:47.407Z</time>
      </trkpt>
      <trkpt lat="48.82798" lon="1.8715">
        <ele>60</ele>
        <time>2024-12-16T14:37:51.867Z</time>
      </trkpt>
      <trkpt lat="48.82799" lon="1.87157">
        <ele>60</ele>
        <time>2024-12-16T14:37:55.887Z</time>
      </trkpt>
      <trkpt lat="48.82799" lon="1.87162">
        <ele>60</ele>
        <time>2024-12-16T14:37:59.823Z</time>
      </trkpt>
      <trkpt lat="48.828" lon="1.8717">
        <ele>60</ele>
        <time>2024-12-16T14:38:04.228Z</time>
      </trkpt>
      <trkpt lat="48.82801" lon="1.87176">
        <ele>60</ele>
        <time>2024-12-16T14:38:08.370Z</time>
      </trkpt>
      <trkpt lat="48.82802" lon="1.87181">
        <ele>59</ele>
        <time>2024-12-16T14:38:12.990Z</time>
      </trkpt>
      <trkpt lat="48.82803" lon="1.8718">
        <ele>60</ele>
        <time>2024-12-16T14:38:16.991Z</time>
      </trkpt>
      <trkpt lat="48.82801" lon="1.87187">
        <ele>59</ele>
        <time>2024-12-16T14:38:21.559Z</time>
      </trkpt>
      <trkpt lat="48.82801" lon="1.87198">
        <ele>59</ele>
        <time>2024-12-16T14:38:26.006Z</time>
      </trkpt>
      <trkpt lat="48.82802" lon="1.87207">
        <ele>59</ele>
        <time>2024-12-16T14:38:30.463Z</time>
      </trkpt>
      <trkpt lat="48.82804" lon="1.87217">
        <ele>58</ele>
        <time>2024-12-16T14:38:34.764Z</time>
      </trkpt>
      <trkpt lat="48.82805" lon="1.87225">
        <ele>58</ele>
        <time>2024-12-16T14:38:38.864Z</time>
      </trkpt>
      <trkpt lat="48.82806" lon="1.87234">
        <ele>58</ele>
        <time>2024-12-16T14:38:42.990Z</time>
      </trkpt>
      <trkpt lat="48.82807" lon="1.87245">
        <ele>58</ele>
        <time>2024-12-16T14:38:47.785Z</time>
      </trkpt>
      <trkpt lat="48.82807" lon="1.87255">
        <ele>58</ele>
        <time>2024-12-16T14:38:51.991Z</time>
      </trkpt>
      <trkpt lat="48.82806" lon="1.87265">
        <ele>59</ele>
        <time>2024-12-16T14:38:56.622Z</time>
      </trkpt>
      <trkpt lat="48.82806" lon="1.87275">
        <ele>59</ele>
        <time>2024-12-16T14:39:00.725Z</time>
      </trkpt>
      <trkpt lat="48.82805" lon="1.87284">
        <ele>59</ele>
        <time>2024-12-16T14:39:04.819Z</time>
      </trkpt>
      <trkpt lat="48.82805" lon="1.87293">
        <ele>60</ele>
        <time>2024-12-16T14:39:08.863Z</time>
      </trkpt>
      <trkpt lat="48.82804" lon="1.87301">
        <ele>60</ele>
        <time>2024-12-16T14:39:12.923Z</time>
      </trkpt>
      <trkpt lat="48.82804" lon="1.87308">
        <ele>60</ele>
        <time>2024-12-16T14:39:17.339Z</time>
      </trkpt>
      <trkpt lat="48.82803" lon="1.87314">
        <ele>60</ele>
        <time>2024-12-16T14:39:21.487Z</time>
      </trkpt>
      <trkpt lat="48.82802" lon="1.87321">
        <ele>62</ele>
        <time>2024-12-16T14:39:25.503Z</time>
      </trkpt>
      <trkpt lat="48.828" lon="1.87329">
        <ele>62</ele>
        <time>2024-12-16T14:39:29.990Z</time>
      </trkpt>
      <trkpt lat="48.82801" lon="1.87339">
        <ele>62</ele>
        <time>2024-12-16T14:39:34.431Z</time>
      </trkpt>
      <trkpt lat="48.82802" lon="1.87346">
        <ele>62</ele>
        <time>2024-12-16T14:39:38.783Z</time>
      </trkpt>
      <trkpt lat="48.82802" lon="1.87354">
        <ele>64</ele>
        <time>2024-12-16T14:39:43.379Z</time>
      </trkpt>
      <trkpt lat="48.82801" lon="1.87363">
        <ele>64</ele>
        <time>2024-12-16T14:39:47.900Z</time>
      </trkpt>
      <trkpt lat="48.82799" lon="1.87372">
        <ele>64</ele>
        <time>2024-12-16T14:39:52.505Z</time>
      </trkpt>
      <trkpt lat="48.82798" lon="1.87379">
        <ele>64</ele>
        <time>2024-12-16T14:39:56.565Z</time>
      </trkpt>
      <trkpt lat="48.82796" lon="1.87387">
        <ele>64</ele>
        <time>2024-12-16T14:40:00.686Z</time>
      </trkpt>
      <trkpt lat="48.82795" lon="1.87393">
        <ele>64</ele>
        <time>2024-12-16T14:40:05.223Z</time>
      </trkpt>
      <trkpt lat="48.82794" lon="1.87402">
        <ele>64</ele>
        <time>2024-12-16T14:40:09.803Z</time>
      </trkpt>
      <trkpt lat="48.82793" lon="1.87409">
        <ele>65</ele>
        <time>2024-12-16T14:40:13.991Z</time>
      </trkpt>
      <trkpt lat="48.82792" lon="1.87417">
        <ele>65</ele>
        <time>2024-12-16T14:40:18.186Z</time>
      </trkpt>
      <trkpt lat="48.82791" lon="1.87424">
        <ele>65</ele>
        <time>2024-12-16T14:40:22.400Z</time>
      </trkpt>
      <trkpt lat="48.82789" lon="1.8743">
        <ele>65</ele>
        <time>2024-12-16T14:40:26.425Z</time>
      </trkpt>
      <trkpt lat="48.82786" lon="1.87438">
        <ele>66</ele>
        <time>2024-12-16T14:40:30.486Z</time>
      </trkpt>
      <trkpt lat="48.82784" lon="1.87446">
        <ele>66</ele>
        <time>2024-12-16T14:40:34.564Z</time>
      </trkpt>
      <trkpt lat="48.82782" lon="1.87454">
        <ele>66</ele>
        <time>2024-12-16T14:40:38.990Z</time>
      </trkpt>
      <trkpt lat="48.8278" lon="1.87462">
        <ele>68</ele>
        <time>2024-12-16T14:40:43.503Z</time>
      </trkpt>
      <trkpt lat="48.82778" lon="1.8747">
        <ele>68</ele>
        <time>2024-12-16T14:40:47.529Z</time>
      </trkpt>
      <trkpt lat="48.82776" lon="1.87477">
        <ele>68</ele>
        <time>2024-12-16T14:40:51.542Z</time>
      </trkpt>
      <trkpt lat="48.82774" lon="1.87485">
        <ele>68</ele>
        <time>2024-12-16T14:40:55.663Z</time>
      </trkpt>
      <trkpt lat="48.82772" lon="1.87492">
        <ele>69</ele>
        <time>2024-12-16T14:40:59.884Z</time>
      </trkpt>
      <trkpt lat="48.8277" lon="1.87496">
        <ele>69</ele>
        <time>2024-12-16T14:41:03.990Z</time>
      </trkpt>
      <trkpt lat="48.82767" lon="1.87502">
        <ele>69</ele>
        <time>2024-12-16T14:41:08.464Z</time>
      </trkpt>
      <trkpt lat="48.82765" lon="1.87508">
        <ele>69</ele>
        <time>2024-12-16T14:41:12.884Z</time>
      </trkpt>
      <trkpt lat="48.82763" lon="1.87514">
        <ele>70</ele>
        <time>2024-12-16T14:41:16.994Z</time>
      </trkpt>
      <trkpt lat="48.8276" lon="1.87521">
        <ele>70</ele>
        <time>2024-12-16T14:41:21.540Z</time>
      </trkpt>
      <trkpt lat="48.82758" lon="1.87526">
        <ele>70</ele>
        <time>2024-12-16T14:41:25.863Z</time>
      </trkpt>
      <trkpt lat="48.82758" lon="1.87532">
        <ele>70</ele>
        <time>2024-12-16T14:41:30.461Z</time>
      </trkpt>
      <trkpt lat="48.82759" lon="1.87536">
        <ele>70</ele>
        <time>2024-12-16T14:41:34.802Z</time>
      </trkpt>
      <trkpt lat="48.82761" lon="1.87539">
        <ele>70</ele>
        <time>2024-12-16T14:41:45.163Z</time>
      </trkpt>
      <trkpt lat="48.82758" lon="1.87544">
        <ele>71</ele>
        <time>2024-12-16T14:41:49.448Z</time>
      </trkpt>
      <trkpt lat="48.82759" lon="1.87545">
        <ele>71</ele>
        <time>2024-12-16T14:41:53.990Z</time>
      </trkpt>
      <trkpt lat="48.82757" lon="1.8755">
        <ele>71</ele>
        <time>2024-12-16T14:41:58.528Z</time>
      </trkpt>
      <trkpt lat="48.82754" lon="1.87555">
        <ele>71</ele>
        <time>2024-12-16T14:42:02.769Z</time>
      </trkpt>
      <trkpt lat="48.82752" lon="1.87562">
        <ele>71</ele>
        <time>2024-12-16T14:42:06.923Z</time>
      </trkpt>
      <trkpt lat="48.82752" lon="1.87572">
        <ele>71</ele>
        <time>2024-12-16T14:42:10.966Z</time>
      </trkpt>
      <trkpt lat="48.8275" lon="1.8758">
        <ele>71</ele>
        <time>2024-12-16T14:42:15.204Z</time>
      </trkpt>
      <trkpt lat="48.82748" lon="1.8759">
        <ele>71</ele>
        <time>2024-12-16T14:42:19.304Z</time>
      </trkpt>
      <trkpt lat="48.82746" lon="1.87597">
        <ele>71</ele>
        <time>2024-12-16T14:42:23.445Z</time>
      </trkpt>
      <trkpt lat="48.82744" lon="1.87605">
        <ele>71</ele>
        <time>2024-12-16T14:42:27.705Z</time>
      </trkpt>
      <trkpt lat="48.82741" lon="1.87613">
        <ele>71</ele>
        <time>2024-12-16T14:42:31.991Z</time>
      </trkpt>
      <trkpt lat="48.82739" lon="1.87621">
        <ele>71</ele>
        <time>2024-12-16T14:42:36.447Z</time>
      </trkpt>
      <trkpt lat="48.82739" lon="1.87629">
        <ele>72</ele>
        <time>2024-12-16T14:42:40.703Z</time>
      </trkpt>
      <trkpt lat="48.82735" lon="1.87635">
        <ele>72</ele>
        <time>2024-12-16T14:42:44.883Z</time>
      </trkpt>
      <trkpt lat="48.82734" lon="1.87645">
        <ele>72</ele>
        <time>2024-12-16T14:42:49.369Z</time>
      </trkpt>
      <trkpt lat="48.82733" lon="1.87652">
        <ele>72</ele>
        <time>2024-12-16T14:42:53.643Z</time>
      </trkpt>
      <trkpt lat="48.82732" lon="1.8766">
        <ele>72</ele>
        <time>2024-12-16T14:42:58.150Z</time>
      </trkpt>
      <trkpt lat="48.82731" lon="1.87668">
        <ele>72</ele>
        <time>2024-12-16T14:43:02.707Z</time>
      </trkpt>
      <trkpt lat="48.8273" lon="1.87675">
        <ele>72</ele>
        <time>2024-12-16T14:43:06.991Z</time>
      </trkpt>
      <trkpt lat="48.82728" lon="1.87684">
        <ele>73</ele>
        <time>2024-12-16T14:43:11.483Z</time>
      </trkpt>
      <trkpt lat="48.82726" lon="1.87692">
        <ele>73</ele>
        <time>2024-12-16T14:43:15.927Z</time>
      </trkpt>
      <trkpt lat="48.82724" lon="1.877">
        <ele>73</ele>
        <time>2024-12-16T14:43:20.404Z</time>
      </trkpt>
      <trkpt lat="48.82721" lon="1.87708">
        <ele>74</ele>
        <time>2024-12-16T14:43:24.983Z</time>
      </trkpt>
      <trkpt lat="48.82719" lon="1.87716">
        <ele>74</ele>
        <time>2024-12-16T14:43:29.385Z</time>
      </trkpt>
      <trkpt lat="48.82717" lon="1.87724">
        <ele>74</ele>
        <time>2024-12-16T14:43:33.845Z</time>
      </trkpt>
      <trkpt lat="48.82714" lon="1.8773">
        <ele>74</ele>
        <time>2024-12-16T14:43:37.991Z</time>
      </trkpt>
      <trkpt lat="48.82712" lon="1.87738">
        <ele>76</ele>
        <time>2024-12-16T14:43:42.467Z</time>
      </trkpt>
      <trkpt lat="48.8271" lon="1.87746">
        <ele>76</ele>
        <time>2024-12-16T14:43:46.886Z</time>
      </trkpt>
      <trkpt lat="48.82708" lon="1.87754">
        <ele>77</ele>
        <time>2024-12-16T14:43:51.380Z</time>
      </trkpt>
      <trkpt lat="48.82706" lon="1.87762">
        <ele>77</ele>
        <time>2024-12-16T14:43:55.405Z</time>
      </trkpt>
      <trkpt lat="48.82703" lon="1.8777">
        <ele>78</ele>
        <time>2024-12-16T14:43:59.926Z</time>
      </trkpt>
      <trkpt lat="48.82701" lon="1.87777">
        <ele>78</ele>
        <time>2024-12-16T14:44:04.343Z</time>
      </trkpt>
      <trkpt lat="48.82699" lon="1.87785">
        <ele>78</ele>
        <time>2024-12-16T14:44:08.924Z</time>
      </trkpt>
      <trkpt lat="48.82696" lon="1.87794">
        <ele>79</ele>
        <time>2024-12-16T14:44:13.444Z</time>
      </trkpt>
      <trkpt lat="48.82693" lon="1.87801">
        <ele>79</ele>
        <time>2024-12-16T14:44:17.924Z</time>
      </trkpt>
      <trkpt lat="48.8269" lon="1.87809">
        <ele>79</ele>
        <time>2024-12-16T14:44:22.443Z</time>
      </trkpt>
      <trkpt lat="48.82688" lon="1.87818">
        <ele>79</ele>
        <time>2024-12-16T14:44:26.987Z</time>
      </trkpt>
      <trkpt lat="48.82685" lon="1.87826">
        <ele>79</ele>
        <time>2024-12-16T14:44:31.991Z</time>
      </trkpt>
      <trkpt lat="48.82682" lon="1.87834">
        <ele>79</ele>
        <time>2024-12-16T14:44:36.905Z</time>
      </trkpt>
      <trkpt lat="48.82679" lon="1.87842">
        <ele>81</ele>
        <time>2024-12-16T14:44:41.305Z</time>
      </trkpt>
      <trkpt lat="48.82677" lon="1.8785">
        <ele>81</ele>
        <time>2024-12-16T14:44:45.444Z</time>
      </trkpt>
      <trkpt lat="48.82674" lon="1.87857">
        <ele>81</ele>
        <time>2024-12-16T14:44:49.862Z</time>
      </trkpt>
      <trkpt lat="48.82671" lon="1.87866">
        <ele>81</ele>
        <time>2024-12-16T14:44:54.347Z</time>
      </trkpt>
      <trkpt lat="48.82669" lon="1.87874">
        <ele>81</ele>
        <time>2024-12-16T14:44:58.906Z</time>
      </trkpt>
      <trkpt lat="48.82666" lon="1.87883">
        <ele>82</ele>
        <time>2024-12-16T14:45:03.448Z</time>
      </trkpt>
      <trkpt lat="48.82665" lon="1.8789">
        <ele>82</ele>
        <time>2024-12-16T14:45:07.465Z</time>
      </trkpt>
      <trkpt lat="48.82663" lon="1.87896">
        <ele>82</ele>
        <time>2024-12-16T14:45:11.524Z</time>
      </trkpt>
      <trkpt lat="48.8266" lon="1.87903">
        <ele>82</ele>
        <time>2024-12-16T14:45:15.660Z</time>
      </trkpt>
      <trkpt lat="48.82658" lon="1.8791">
        <ele>82</ele>
        <time>2024-12-16T14:45:19.745Z</time>
      </trkpt>
      <trkpt lat="48.82655" lon="1.87917">
        <ele>82</ele>
        <time>2024-12-16T14:45:23.823Z</time>
      </trkpt>
      <trkpt lat="48.82654" lon="1.87924">
        <ele>82</ele>
        <time>2024-12-16T14:45:27.865Z</time>
      </trkpt>
      <trkpt lat="48.82651" lon="1.8793">
        <ele>83</ele>
        <time>2024-12-16T14:45:31.883Z</time>
      </trkpt>
      <trkpt lat="48.82648" lon="1.87936">
        <ele>83</ele>
        <time>2024-12-16T14:45:35.907Z</time>
      </trkpt>
      <trkpt lat="48.82646" lon="1.87943">
        <ele>83</ele>
        <time>2024-12-16T14:45:39.967Z</time>
      </trkpt>
      <trkpt lat="48.82643" lon="1.8795">
        <ele>83</ele>
        <time>2024-12-16T14:45:43.990Z</time>
      </trkpt>
      <trkpt lat="48.8264" lon="1.87958">
        <ele>83</ele>
        <time>2024-12-16T14:45:48.665Z</time>
      </trkpt>
      <trkpt lat="48.82637" lon="1.87964">
        <ele>84</ele>
        <time>2024-12-16T14:45:52.728Z</time>
      </trkpt>
      <trkpt lat="48.82634" lon="1.8797">
        <ele>84</ele>
        <time>2024-12-16T14:45:56.888Z</time>
      </trkpt>
      <trkpt lat="48.82632" lon="1.87976">
        <ele>84</ele>
        <time>2024-12-16T14:46:00.984Z</time>
      </trkpt>
      <trkpt lat="48.82629" lon="1.87984">
        <ele>84</ele>
        <time>2024-12-16T14:46:05.647Z</time>
      </trkpt>
      <trkpt lat="48.82625" lon="1.87991">
        <ele>85</ele>
        <time>2024-12-16T14:46:10.226Z</time>
      </trkpt>
      <trkpt lat="48.82621" lon="1.87996">
        <ele>86</ele>
        <time>2024-12-16T14:46:14.423Z</time>
      </trkpt>
      <trkpt lat="48.82618" lon="1.88003">
        <ele>86</ele>
        <time>2024-12-16T14:46:18.884Z</time>
      </trkpt>
      <trkpt lat="48.82615" lon="1.88008">
        <ele>86</ele>
        <time>2024-12-16T14:46:23.225Z</time>
      </trkpt>
      <trkpt lat="48.82612" lon="1.88014">
        <ele>86</ele>
        <time>2024-12-16T14:46:27.567Z</time>
      </trkpt>
      <trkpt lat="48.82611" lon="1.88015">
        <ele>86</ele>
        <time>2024-12-16T14:46:31.990Z</time>
      </trkpt>
      <trkpt lat="48.82603" lon="1.88032">
        <ele>86</ele>
        <time>2024-12-16T14:46:36.990Z</time>
      </trkpt>
      <trkpt lat="48.82597" lon="1.8805">
        <ele>86</ele>
        <time>2024-12-16T14:46:41.161Z</time>
      </trkpt>
      <trkpt lat="48.82595" lon="1.88059">
        <ele>86</ele>
        <time>2024-12-16T14:46:58.406Z</time>
      </trkpt>
      <trkpt lat="48.82598" lon="1.8805">
        <ele>86</ele>
        <time>2024-12-16T14:47:02.584Z</time>
      </trkpt>
      <trkpt lat="48.82602" lon="1.8804">
        <ele>86</ele>
        <time>2024-12-16T14:47:06.679Z</time>
      </trkpt>
      <trkpt lat="48.82606" lon="1.88031">
        <ele>86</ele>
        <time>2024-12-16T14:47:10.704Z</time>
      </trkpt>
      <trkpt lat="48.82609" lon="1.8802">
        <ele>86</ele>
        <time>2024-12-16T14:47:14.823Z</time>
      </trkpt>
      <trkpt lat="48.82612" lon="1.88011">
        <ele>86</ele>
        <time>2024-12-16T14:47:19.284Z</time>
      </trkpt>
      <trkpt lat="48.82614" lon="1.88003">
        <ele>86</ele>
        <time>2024-12-16T14:47:23.685Z</time>
      </trkpt>
      <trkpt lat="48.82611" lon="1.87995">
        <ele>86</ele>
        <time>2024-12-16T14:47:27.899Z</time>
      </trkpt>
      <trkpt lat="48.82605" lon="1.87993">
        <ele>86</ele>
        <time>2024-12-16T14:47:32.581Z</time>
      </trkpt>
      <trkpt lat="48.82601" lon="1.87992">
        <ele>86</ele>
        <time>2024-12-16T14:47:36.644Z</time>
      </trkpt>
      <trkpt lat="48.82596" lon="1.87992">
        <ele>85</ele>
        <time>2024-12-16T14:47:40.940Z</time>
      </trkpt>
      <trkpt lat="48.82592" lon="1.87991">
        <ele>85</ele>
        <time>2024-12-16T14:47:44.990Z</time>
      </trkpt>
      <trkpt lat="48.82587" lon="1.87991">
        <ele>85</ele>
        <time>2024-12-16T14:47:49.502Z</time>
      </trkpt>
      <trkpt lat="48.82582" lon="1.8799">
        <ele>85</ele>
        <time>2024-12-16T14:47:53.920Z</time>
      </trkpt>
      <trkpt lat="48.82577" lon="1.8799">
        <ele>85</ele>
        <time>2024-12-16T14:47:57.991Z</time>
      </trkpt>
      <trkpt lat="48.82572" lon="1.8799">
        <ele>85</ele>
        <time>2024-12-16T14:48:02.183Z</time>
      </trkpt>
      <trkpt lat="48.82566" lon="1.87988">
        <ele>85</ele>
        <time>2024-12-16T14:48:06.679Z</time>
      </trkpt>
      <trkpt lat="48.82561" lon="1.87988">
        <ele>85</ele>
        <time>2024-12-16T14:48:10.704Z</time>
      </trkpt>
      <trkpt lat="48.82556" lon="1.87988">
        <ele>85</ele>
        <time>2024-12-16T14:48:14.722Z</time>
      </trkpt>
      <trkpt lat="48.82551" lon="1.87987">
        <ele>85</ele>
        <time>2024-12-16T14:48:18.798Z</time>
      </trkpt>
      <trkpt lat="48.82546" lon="1.87988">
        <ele>85</ele>
        <time>2024-12-16T14:48:22.943Z</time>
      </trkpt>
      <trkpt lat="48.82541" lon="1.87988">
        <ele>87</ele>
        <time>2024-12-16T14:48:26.991Z</time>
      </trkpt>
      <trkpt lat="48.82535" lon="1.87988">
        <ele>87</ele>
        <time>2024-12-16T14:48:31.602Z</time>
      </trkpt>
      <trkpt lat="48.82529" lon="1.87988">
        <ele>87</ele>
        <time>2024-12-16T14:48:35.685Z</time>
      </trkpt>
      <trkpt lat="48.82524" lon="1.87988">
        <ele>87</ele>
        <time>2024-12-16T14:48:39.882Z</time>
      </trkpt>
      <trkpt lat="48.82519" lon="1.87987">
        <ele>87</ele>
        <time>2024-12-16T14:48:43.985Z</time>
      </trkpt>
      <trkpt lat="48.82514" lon="1.87987">
        <ele>87</ele>
        <time>2024-12-16T14:48:47.990Z</time>
      </trkpt>
      <trkpt lat="48.82509" lon="1.87987">
        <ele>87</ele>
        <time>2024-12-16T14:48:52.103Z</time>
      </trkpt>
      <trkpt lat="48.82503" lon="1.87989">
        <ele>87</ele>
        <time>2024-12-16T14:48:56.641Z</time>
      </trkpt>
      <trkpt lat="48.82497" lon="1.87989">
        <ele>87</ele>
        <time>2024-12-16T14:49:00.981Z</time>
      </trkpt>
      <trkpt lat="48.82492" lon="1.8799">
        <ele>87</ele>
        <time>2024-12-16T14:49:05.348Z</time>
      </trkpt>
      <trkpt lat="48.82485" lon="1.8799">
        <ele>87</ele>
        <time>2024-12-16T14:49:10.011Z</time>
      </trkpt>
      <trkpt lat="48.8248" lon="1.8799">
        <ele>87</ele>
        <time>2024-12-16T14:49:14.587Z</time>
      </trkpt>
      <trkpt lat="48.82474" lon="1.8799">
        <ele>87</ele>
        <time>2024-12-16T14:49:18.991Z</time>
      </trkpt>
      <trkpt lat="48.82467" lon="1.8799">
        <ele>87</ele>
        <time>2024-12-16T14:49:23.744Z</time>
      </trkpt>
      <trkpt lat="48.82462" lon="1.87987">
        <ele>87</ele>
        <time>2024-12-16T14:49:27.990Z</time>
      </trkpt>
      <trkpt lat="48.82455" lon="1.87989">
        <ele>87</ele>
        <time>2024-12-16T14:49:32.991Z</time>
      </trkpt>
      <trkpt lat="48.8245" lon="1.8799">
        <ele>87</ele>
        <time>2024-12-16T14:49:37.279Z</time>
      </trkpt>
      <trkpt lat="48.82443" lon="1.8799">
        <ele>87</ele>
        <time>2024-12-16T14:49:41.990Z</time>
      </trkpt>
      <trkpt lat="48.82437" lon="1.8799">
        <ele>87</ele>
        <time>2024-12-16T14:49:46.345Z</time>
      </trkpt>
      <trkpt lat="48.82431" lon="1.87991">
        <ele>87</ele>
        <time>2024-12-16T14:49:50.991Z</time>
      </trkpt>
      <trkpt lat="48.82425" lon="1.87991">
        <ele>86</ele>
        <time>2024-12-16T14:49:55.462Z</time>
      </trkpt>
      <trkpt lat="48.8242" lon="1.87991">
        <ele>86</ele>
        <time>2024-12-16T14:49:59.505Z</time>
      </trkpt>
      <trkpt lat="48.82413" lon="1.87991">
        <ele>86</ele>
        <time>2024-12-16T14:50:03.967Z</time>
      </trkpt>
      <trkpt lat="48.82408" lon="1.87989">
        <ele>86</ele>
        <time>2024-12-16T14:50:07.991Z</time>
      </trkpt>
      <trkpt lat="48.82403" lon="1.87989">
        <ele>85</ele>
        <time>2024-12-16T14:50:12.384Z</time>
      </trkpt>
      <trkpt lat="48.82397" lon="1.87989">
        <ele>85</ele>
        <time>2024-12-16T14:50:16.784Z</time>
      </trkpt>
      <trkpt lat="48.82391" lon="1.8799">
        <ele>85</ele>
        <time>2024-12-16T14:50:21.014Z</time>
      </trkpt>
      <trkpt lat="48.82385" lon="1.87989">
        <ele>85</ele>
        <time>2024-12-16T14:50:25.990Z</time>
      </trkpt>
      <trkpt lat="48.82379" lon="1.8799">
        <ele>85</ele>
        <time>2024-12-16T14:50:30.286Z</time>
      </trkpt>
      <trkpt lat="48.82373" lon="1.87989">
        <ele>84</ele>
        <time>2024-12-16T14:50:34.882Z</time>
      </trkpt>
      <trkpt lat="48.82367" lon="1.87989">
        <ele>84</ele>
        <time>2024-12-16T14:50:39.582Z</time>
      </trkpt>
      <trkpt lat="48.82362" lon="1.87987">
        <ele>84</ele>
        <time>2024-12-16T14:50:43.991Z</time>
      </trkpt>
      <trkpt lat="48.82356" lon="1.87987">
        <ele>84</ele>
        <time>2024-12-16T14:50:48.502Z</time>
      </trkpt>
      <trkpt lat="48.82349" lon="1.87987">
        <ele>84</ele>
        <time>2024-12-16T14:50:52.980Z</time>
      </trkpt>
      <trkpt lat="48.82343" lon="1.87986">
        <ele>82</ele>
        <time>2024-12-16T14:50:57.483Z</time>
      </trkpt>
      <trkpt lat="48.82337" lon="1.87987">
        <ele>82</ele>
        <time>2024-12-16T14:51:01.990Z</time>
      </trkpt>
      <trkpt lat="48.82331" lon="1.87986">
        <ele>82</ele>
        <time>2024-12-16T14:51:06.449Z</time>
      </trkpt>
      <trkpt lat="48.82324" lon="1.87987">
        <ele>82</ele>
        <time>2024-12-16T14:51:10.984Z</time>
      </trkpt>
      <trkpt lat="48.82318" lon="1.87987">
        <ele>80</ele>
        <time>2024-12-16T14:51:15.981Z</time>
      </trkpt>
      <trkpt lat="48.82313" lon="1.87987">
        <ele>80</ele>
        <time>2024-12-16T14:51:19.990Z</time>
      </trkpt>
      <trkpt lat="48.82307" lon="1.87987">
        <ele>80</ele>
        <time>2024-12-16T14:51:24.425Z</time>
      </trkpt>
      <trkpt lat="48.823" lon="1.87986">
        <ele>80</ele>
        <time>2024-12-16T14:51:28.991Z</time>
      </trkpt>
      <trkpt lat="48.82294" lon="1.87987">
        <ele>80</ele>
        <time>2024-12-16T14:51:33.525Z</time>
      </trkpt>
      <trkpt lat="48.82287" lon="1.87987">
        <ele>80</ele>
        <time>2024-12-16T14:51:37.991Z</time>
      </trkpt>
      <trkpt lat="48.82281" lon="1.87987">
        <ele>80</ele>
        <time>2024-12-16T14:51:42.642Z</time>
      </trkpt>
      <trkpt lat="48.82275" lon="1.87985">
        <ele>79</ele>
        <time>2024-12-16T14:51:46.990Z</time>
      </trkpt>
      <trkpt lat="48.82269" lon="1.87985">
        <ele>79</ele>
        <time>2024-12-16T14:51:51.922Z</time>
      </trkpt>
      <trkpt lat="48.82262" lon="1.87987">
        <ele>80</ele>
        <time>2024-12-16T14:51:56.484Z</time>
      </trkpt>
      <trkpt lat="48.82256" lon="1.87988">
        <ele>80</ele>
        <time>2024-12-16T14:52:00.991Z</time>
      </trkpt>
      <trkpt lat="48.82249" lon="1.87987">
        <ele>80</ele>
        <time>2024-12-16T14:52:05.566Z</time>
      </trkpt>
      <trkpt lat="48.82244" lon="1.87986">
        <ele>79</ele>
        <time>2024-12-16T14:52:09.942Z</time>
      </trkpt>
      <trkpt lat="48.82238" lon="1.87986">
        <ele>80</ele>
        <time>2024-12-16T14:52:14.880Z</time>
      </trkpt>
      <trkpt lat="48.82232" lon="1.87986">
        <ele>79</ele>
        <time>2024-12-16T14:52:19.383Z</time>
      </trkpt>
      <trkpt lat="48.82226" lon="1.87986">
        <ele>80</ele>
        <time>2024-12-16T14:52:23.860Z</time>
      </trkpt>
      <trkpt lat="48.82221" lon="1.87987">
        <ele>80</ele>
        <time>2024-12-16T14:52:27.902Z</time>
      </trkpt>
      <trkpt lat="48.82214" lon="1.87987">
        <ele>80</ele>
        <time>2024-12-16T14:52:32.483Z</time>
      </trkpt>
      <trkpt lat="48.82207" lon="1.87988">
        <ele>80</ele>
        <time>2024-12-16T14:52:36.990Z</time>
      </trkpt>
      <trkpt lat="48.822" lon="1.87986">
        <ele>79</ele>
        <time>2024-12-16T14:52:41.990Z</time>
      </trkpt>
      <trkpt lat="48.82195" lon="1.87987">
        <ele>80</ele>
        <time>2024-12-16T14:52:46.623Z</time>
      </trkpt>
      <trkpt lat="48.82189" lon="1.87989">
        <ele>80</ele>
        <time>2024-12-16T14:52:50.683Z</time>
      </trkpt>
      <trkpt lat="48.82183" lon="1.87989">
        <ele>80</ele>
        <time>2024-12-16T14:52:55.212Z</time>
      </trkpt>
      <trkpt lat="48.82176" lon="1.87988">
        <ele>78</ele>
        <time>2024-12-16T14:52:59.723Z</time>
      </trkpt>
      <trkpt lat="48.8217" lon="1.87988">
        <ele>78</ele>
        <time>2024-12-16T14:53:04.286Z</time>
      </trkpt>
      <trkpt lat="48.82164" lon="1.87989">
        <ele>78</ele>
        <time>2024-12-16T14:53:08.781Z</time>
      </trkpt>
      <trkpt lat="48.82157" lon="1.8799">
        <ele>78</ele>
        <time>2024-12-16T14:53:13.804Z</time>
      </trkpt>
      <trkpt lat="48.82151" lon="1.87989">
        <ele>77</ele>
        <time>2024-12-16T14:53:17.990Z</time>
      </trkpt>
      <trkpt lat="48.82144" lon="1.87989">
        <ele>77</ele>
        <time>2024-12-16T14:53:22.519Z</time>
      </trkpt>
      <trkpt lat="48.82139" lon="1.87989">
        <ele>77</ele>
        <time>2024-12-16T14:53:26.991Z</time>
      </trkpt>
      <trkpt lat="48.82133" lon="1.87989">
        <ele>77</ele>
        <time>2024-12-16T14:53:31.542Z</time>
      </trkpt>
      <trkpt lat="48.82127" lon="1.87989">
        <ele>77</ele>
        <time>2024-12-16T14:53:35.991Z</time>
      </trkpt>
      <trkpt lat="48.8212" lon="1.87988">
        <ele>78</ele>
        <time>2024-12-16T14:53:40.990Z</time>
      </trkpt>
      <trkpt lat="48.82116" lon="1.87988">
        <ele>78</ele>
        <time>2024-12-16T14:53:45.990Z</time>
      </trkpt>
      <trkpt lat="48.82117" lon="1.87987">
        <ele>78</ele>
        <time>2024-12-16T14:53:56.990Z</time>
      </trkpt>
      <trkpt lat="48.82116" lon="1.87987">
        <ele>78</ele>
        <time>2024-12-16T14:54:01.991Z</time>
      </trkpt>
      <trkpt lat="48.82116" lon="1.87988">
        <ele>78</ele>
        <time>2024-12-16T14:54:09.990Z</time>
      </trkpt>
      <trkpt lat="48.82113" lon="1.87988">
        <ele>78</ele>
        <time>2024-12-16T14:54:14.382Z</time>
      </trkpt>
      <trkpt lat="48.82107" lon="1.87988">
        <ele>78</ele>
        <time>2024-12-16T14:54:18.561Z</time>
      </trkpt>
      <trkpt lat="48.82101" lon="1.87988">
        <ele>78</ele>
        <time>2024-12-16T14:54:22.799Z</time>
      </trkpt>
      <trkpt lat="48.82095" lon="1.87988">
        <ele>79</ele>
        <time>2024-12-16T14:54:27.422Z</time>
      </trkpt>
      <trkpt lat="48.82089" lon="1.87989">
        <ele>79</ele>
        <time>2024-12-16T14:54:31.941Z</time>
      </trkpt>
      <trkpt lat="48.82083" lon="1.87989">
        <ele>79</ele>
        <time>2024-12-16T14:54:36.403Z</time>
      </trkpt>
      <trkpt lat="48.82077" lon="1.8799">
        <ele>79</ele>
        <time>2024-12-16T14:54:40.991Z</time>
      </trkpt>
      <trkpt lat="48.82071" lon="1.8799">
        <ele>79</ele>
        <time>2024-12-16T14:54:45.466Z</time>
      </trkpt>
      <trkpt lat="48.82066" lon="1.87989">
        <ele>79</ele>
        <time>2024-12-16T14:54:49.519Z</time>
      </trkpt>
      <trkpt lat="48.82061" lon="1.87989">
        <ele>79</ele>
        <time>2024-12-16T14:54:53.707Z</time>
      </trkpt>
      <trkpt lat="48.82056" lon="1.87988">
        <ele>79</ele>
        <time>2024-12-16T14:54:57.800Z</time>
      </trkpt>
      <trkpt lat="48.82051" lon="1.87987">
        <ele>79</ele>
        <time>2024-12-16T14:55:01.992Z</time>
      </trkpt>
      <trkpt lat="48.82045" lon="1.87987">
        <ele>79</ele>
        <time>2024-12-16T14:55:06.721Z</time>
      </trkpt>
      <trkpt lat="48.8204" lon="1.87987">
        <ele>79</ele>
        <time>2024-12-16T14:55:11.327Z</time>
      </trkpt>
      <trkpt lat="48.82034" lon="1.87987">
        <ele>79</ele>
        <time>2024-12-16T14:55:15.881Z</time>
      </trkpt>
      <trkpt lat="48.82028" lon="1.87989">
        <ele>79</ele>
        <time>2024-12-16T14:55:20.384Z</time>
      </trkpt>
      <trkpt lat="48.82022" lon="1.87989">
        <ele>79</ele>
        <time>2024-12-16T14:55:24.966Z</time>
      </trkpt>
      <trkpt lat="48.82017" lon="1.87988">
        <ele>79</ele>
        <time>2024-12-16T14:55:29.459Z</time>
      </trkpt>
      <trkpt lat="48.82006" lon="1.87985">
        <ele>79</ele>
        <time>2024-12-16T14:55:42.992Z</time>
      </trkpt>
      <trkpt lat="48.81999" lon="1.87986">
        <ele>79</ele>
        <time>2024-12-16T14:55:47.207Z</time>
      </trkpt>
      <trkpt lat="48.81992" lon="1.87985">
        <ele>79</ele>
        <time>2024-12-16T14:55:51.684Z</time>
      </trkpt>
      <trkpt lat="48.81986" lon="1.87985">
        <ele>79</ele>
        <time>2024-12-16T14:55:56.283Z</time>
      </trkpt>
      <trkpt lat="48.81981" lon="1.87985">
        <ele>79</ele>
        <time>2024-12-16T14:56:00.306Z</time>
      </trkpt>
      <trkpt lat="48.81976" lon="1.87985">
        <ele>79</ele>
        <time>2024-12-16T14:56:04.520Z</time>
      </trkpt>
      <trkpt lat="48.81971" lon="1.87984">
        <ele>79</ele>
        <time>2024-12-16T14:56:08.605Z</time>
      </trkpt>
      <trkpt lat="48.81966" lon="1.87983">
        <ele>79</ele>
        <time>2024-12-16T14:56:12.741Z</time>
      </trkpt>
      <trkpt lat="48.81962" lon="1.87982">
        <ele>79</ele>
        <time>2024-12-16T14:56:16.785Z</time>
      </trkpt>
      <trkpt lat="48.81957" lon="1.87982">
        <ele>79</ele>
        <time>2024-12-16T14:56:20.980Z</time>
      </trkpt>
      <trkpt lat="48.81952" lon="1.87981">
        <ele>79</ele>
        <time>2024-12-16T14:56:25.081Z</time>
      </trkpt>
      <trkpt lat="48.81947" lon="1.8798">
        <ele>79</ele>
        <time>2024-12-16T14:56:29.201Z</time>
      </trkpt>
      <trkpt lat="48.81942" lon="1.87978">
        <ele>79</ele>
        <time>2024-12-16T14:56:33.405Z</time>
      </trkpt>
      <trkpt lat="48.81937" lon="1.87977">
        <ele>79</ele>
        <time>2024-12-16T14:56:37.601Z</time>
      </trkpt>
      <trkpt lat="48.81931" lon="1.87975">
        <ele>79</ele>
        <time>2024-12-16T14:56:41.992Z</time>
      </trkpt>
      <trkpt lat="48.81926" lon="1.87974">
        <ele>79</ele>
        <time>2024-12-16T14:56:46.065Z</time>
      </trkpt>
      <trkpt lat="48.81921" lon="1.87973">
        <ele>79</ele>
        <time>2024-12-16T14:56:50.586Z</time>
      </trkpt>
      <trkpt lat="48.81915" lon="1.87972">
        <ele>79</ele>
        <time>2024-12-16T14:56:54.645Z</time>
      </trkpt>
      <trkpt lat="48.8191" lon="1.8797">
        <ele>79</ele>
        <time>2024-12-16T14:56:59.302Z</time>
      </trkpt>
      <trkpt lat="48.81904" lon="1.87968">
        <ele>79</ele>
        <time>2024-12-16T14:57:03.899Z</time>
      </trkpt>
      <trkpt lat="48.81898" lon="1.87969">
        <ele>80</ele>
        <time>2024-12-16T14:57:08.522Z</time>
      </trkpt>
      <trkpt lat="48.81892" lon="1.87969">
        <ele>80</ele>
        <time>2024-12-16T14:57:12.991Z</time>
      </trkpt>
      <trkpt lat="48.81886" lon="1.87968">
        <ele>80</ele>
        <time>2024-12-16T14:57:17.545Z</time>
      </trkpt>
      <trkpt lat="48.8188" lon="1.87966">
        <ele>80</ele>
        <time>2024-12-16T14:57:21.992Z</time>
      </trkpt>
      <trkpt lat="48.81874" lon="1.87961">
        <ele>80</ele>
        <time>2024-12-16T14:57:26.081Z</time>
      </trkpt>
      <trkpt lat="48.81869" lon="1.87957">
        <ele>80</ele>
        <time>2024-12-16T14:57:30.602Z</time>
      </trkpt>
      <trkpt lat="48.81864" lon="1.87952">
        <ele>80</ele>
        <time>2024-12-16T14:57:34.644Z</time>
      </trkpt>
      <trkpt lat="48.81859" lon="1.87948">
        <ele>80</ele>
        <time>2024-12-16T14:57:39.198Z</time>
      </trkpt>
      <trkpt lat="48.81853" lon="1.87945">
        <ele>80</ele>
        <time>2024-12-16T14:57:43.881Z</time>
      </trkpt>
      <trkpt lat="48.8185" lon="1.87941">
        <ele>80</ele>
        <time>2024-12-16T14:57:47.992Z</time>
      </trkpt>
      <trkpt lat="48.81846" lon="1.87938">
        <ele>80</ele>
        <time>2024-12-16T14:57:52.477Z</time>
      </trkpt>
      <trkpt lat="48.81842" lon="1.87935">
        <ele>80</ele>
        <time>2024-12-16T14:57:56.744Z</time>
      </trkpt>
      <trkpt lat="48.81839" lon="1.87935">
        <ele>80</ele>
        <time>2024-12-16T14:58:00.912Z</time>
      </trkpt>
      <trkpt lat="48.81837" lon="1.87938">
        <ele>80</ele>
        <time>2024-12-16T14:58:04.992Z</time>
      </trkpt>
      <trkpt lat="48.81838" lon="1.8794">
        <ele>80</ele>
        <time>2024-12-16T14:58:09.440Z</time>
      </trkpt>
      <trkpt lat="48.81838" lon="1.87948">
        <ele>80</ele>
        <time>2024-12-16T14:58:13.858Z</time>
      </trkpt>
      <trkpt lat="48.81838" lon="1.87957">
        <ele>80</ele>
        <time>2024-12-16T14:58:18.225Z</time>
      </trkpt>
      <trkpt lat="48.81838" lon="1.87964">
        <ele>80</ele>
        <time>2024-12-16T14:58:22.745Z</time>
      </trkpt>
      <trkpt lat="48.81836" lon="1.87969">
        <ele>80</ele>
        <time>2024-12-16T14:58:26.762Z</time>
      </trkpt>
      <trkpt lat="48.81835" lon="1.87972">
        <ele>80</ele>
        <time>2024-12-16T14:58:30.992Z</time>
      </trkpt>
      <trkpt lat="48.81833" lon="1.87976">
        <ele>80</ele>
        <time>2024-12-16T14:58:35.444Z</time>
      </trkpt>
      <trkpt lat="48.81832" lon="1.87983">
        <ele>80</ele>
        <time>2024-12-16T14:58:39.991Z</time>
      </trkpt>
      <trkpt lat="48.81828" lon="1.87992">
        <ele>81</ele>
        <time>2024-12-16T14:58:43.991Z</time>
      </trkpt>
      <trkpt lat="48.81825" lon="1.87997">
        <ele>81</ele>
        <time>2024-12-16T14:58:48.497Z</time>
      </trkpt>
      <trkpt lat="48.81819" lon="1.87997">
        <ele>80</ele>
        <time>2024-12-16T14:58:52.838Z</time>
      </trkpt>
      <trkpt lat="48.81814" lon="1.87992">
        <ele>80</ele>
        <time>2024-12-16T14:58:57.272Z</time>
      </trkpt>
      <trkpt lat="48.81808" lon="1.87987">
        <ele>80</ele>
        <time>2024-12-16T14:59:01.639Z</time>
      </trkpt>
      <trkpt lat="48.81804" lon="1.87985">
        <ele>80</ele>
        <time>2024-12-16T14:59:05.992Z</time>
      </trkpt>
      <trkpt lat="48.818" lon="1.87979">
        <ele>80</ele>
        <time>2024-12-16T14:59:10.312Z</time>
      </trkpt>
      <trkpt lat="48.81795" lon="1.87974">
        <ele>80</ele>
        <time>2024-12-16T14:59:14.756Z</time>
      </trkpt>
      <trkpt lat="48.81791" lon="1.8797">
        <ele>80</ele>
        <time>2024-12-16T14:59:18.991Z</time>
      </trkpt>
      <trkpt lat="48.81786" lon="1.87965">
        <ele>80</ele>
        <time>2024-12-16T14:59:23.438Z</time>
      </trkpt>
      <trkpt lat="48.81781" lon="1.8796">
        <ele>80</ele>
        <time>2024-12-16T14:59:27.721Z</time>
      </trkpt>
      <trkpt lat="48.81776" lon="1.87955">
        <ele>80</ele>
        <time>2024-12-16T14:59:31.992Z</time>
      </trkpt>
      <trkpt lat="48.81771" lon="1.87953">
        <ele>80</ele>
        <time>2024-12-16T14:59:36.393Z</time>
      </trkpt>
      <trkpt lat="48.81767" lon="1.87949">
        <ele>80</ele>
        <time>2024-12-16T14:59:40.836Z</time>
      </trkpt>
      <trkpt lat="48.81762" lon="1.87944">
        <ele>79</ele>
        <time>2024-12-16T14:59:45.176Z</time>
      </trkpt>
      <trkpt lat="48.81757" lon="1.8794">
        <ele>79</ele>
        <time>2024-12-16T14:59:49.655Z</time>
      </trkpt>
      <trkpt lat="48.81753" lon="1.87935">
        <ele>79</ele>
        <time>2024-12-16T14:59:53.992Z</time>
      </trkpt>
      <trkpt lat="48.81747" lon="1.87931">
        <ele>79</ele>
        <time>2024-12-16T14:59:58.917Z</time>
      </trkpt>
      <trkpt lat="48.81742" lon="1.87932">
        <ele>79</ele>
        <time>2024-12-16T15:00:02.991Z</time>
      </trkpt>
      <trkpt lat="48.81738" lon="1.87928">
        <ele>79</ele>
        <time>2024-12-16T15:00:06.991Z</time>
      </trkpt>
      <trkpt lat="48.81729" lon="1.87929">
        <ele>78</ele>
        <time>2024-12-16T15:00:11.561Z</time>
      </trkpt>
      <trkpt lat="48.81725" lon="1.87926">
        <ele>78</ele>
        <time>2024-12-16T15:00:15.775Z</time>
      </trkpt>
      <trkpt lat="48.81719" lon="1.87925">
        <ele>78</ele>
        <time>2024-12-16T15:00:19.992Z</time>
      </trkpt>
      <trkpt lat="48.81713" lon="1.87924">
        <ele>78</ele>
        <time>2024-12-16T15:00:24.378Z</time>
      </trkpt>
      <trkpt lat="48.81708" lon="1.87922">
        <ele>79</ele>
        <time>2024-12-16T15:00:28.737Z</time>
      </trkpt>
      <trkpt lat="48.81702" lon="1.8792">
        <ele>79</ele>
        <time>2024-12-16T15:00:32.991Z</time>
      </trkpt>
      <trkpt lat="48.81695" lon="1.87918">
        <ele>79</ele>
        <time>2024-12-16T15:00:37.395Z</time>
      </trkpt>
      <trkpt lat="48.81689" lon="1.87916">
        <ele>79</ele>
        <time>2024-12-16T15:00:41.992Z</time>
      </trkpt>
      <trkpt lat="48.81683" lon="1.87914">
        <ele>79</ele>
        <time>2024-12-16T15:00:46.476Z</time>
      </trkpt>
      <trkpt lat="48.81679" lon="1.87912">
        <ele>79</ele>
        <time>2024-12-16T15:00:50.655Z</time>
      </trkpt>
      <trkpt lat="48.81673" lon="1.8791">
        <ele>79</ele>
        <time>2024-12-16T15:00:54.996Z</time>
      </trkpt>
      <trkpt lat="48.8167" lon="1.87904">
        <ele>79</ele>
        <time>2024-12-16T15:00:59.327Z</time>
      </trkpt>
      <trkpt lat="48.81663" lon="1.87903">
        <ele>79</ele>
        <time>2024-12-16T15:01:03.418Z</time>
      </trkpt>
      <trkpt lat="48.81657" lon="1.87903">
        <ele>79</ele>
        <time>2024-12-16T15:01:07.992Z</time>
      </trkpt>
      <trkpt lat="48.81651" lon="1.87901">
        <ele>78</ele>
        <time>2024-12-16T15:01:12.855Z</time>
      </trkpt>
      <trkpt lat="48.81645" lon="1.87901">
        <ele>78</ele>
        <time>2024-12-16T15:01:16.992Z</time>
      </trkpt>
      <trkpt lat="48.81638" lon="1.879">
        <ele>78</ele>
        <time>2024-12-16T15:01:21.737Z</time>
      </trkpt>
      <trkpt lat="48.81632" lon="1.879">
        <ele>78</ele>
        <time>2024-12-16T15:01:26.816Z</time>
      </trkpt>
      <trkpt lat="48.81627" lon="1.87898">
        <ele>78</ele>
        <time>2024-12-16T15:01:30.992Z</time>
      </trkpt>
      <trkpt lat="48.81624" lon="1.87895">
        <ele>78</ele>
        <time>2024-12-16T15:01:35.140Z</time>
      </trkpt>
      <trkpt lat="48.81617" lon="1.87892">
        <ele>78</ele>
        <time>2024-12-16T15:01:39.498Z</time>
      </trkpt>
      <trkpt lat="48.81612" lon="1.8789">
        <ele>78</ele>
        <time>2024-12-16T15:01:43.515Z</time>
      </trkpt>
      <trkpt lat="48.81607" lon="1.87889">
        <ele>78</ele>
        <time>2024-12-16T15:01:47.755Z</time>
      </trkpt>
      <trkpt lat="48.81602" lon="1.87891">
        <ele>78</ele>
        <time>2024-12-16T15:01:52.300Z</time>
      </trkpt>
      <trkpt lat="48.81596" lon="1.8789">
        <ele>78</ele>
        <time>2024-12-16T15:01:56.717Z</time>
      </trkpt>
      <trkpt lat="48.8159" lon="1.87885">
        <ele>78</ele>
        <time>2024-12-16T15:02:00.795Z</time>
      </trkpt>
      <trkpt lat="48.81585" lon="1.87882">
        <ele>78</ele>
        <time>2024-12-16T15:02:04.992Z</time>
      </trkpt>
      <trkpt lat="48.81579" lon="1.8788">
        <ele>78</ele>
        <time>2024-12-16T15:02:09.314Z</time>
      </trkpt>
      <trkpt lat="48.81575" lon="1.87874">
        <ele>77</ele>
        <time>2024-12-16T15:02:13.551Z</time>
      </trkpt>
      <trkpt lat="48.81569" lon="1.8787">
        <ele>77</ele>
        <time>2024-12-16T15:02:17.835Z</time>
      </trkpt>
      <trkpt lat="48.81564" lon="1.87866">
        <ele>78</ele>
        <time>2024-12-16T15:02:22.157Z</time>
      </trkpt>
      <trkpt lat="48.81559" lon="1.87862">
        <ele>78</ele>
        <time>2024-12-16T15:02:26.535Z</time>
      </trkpt>
      <trkpt lat="48.81554" lon="1.87859">
        <ele>78</ele>
        <time>2024-12-16T15:02:31.019Z</time>
      </trkpt>
      <trkpt lat="48.81548" lon="1.87857">
        <ele>78</ele>
        <time>2024-12-16T15:02:35.318Z</time>
      </trkpt>
      <trkpt lat="48.81543" lon="1.87855">
        <ele>78</ele>
        <time>2024-12-16T15:02:39.657Z</time>
      </trkpt>
      <trkpt lat="48.81537" lon="1.87851">
        <ele>78</ele>
        <time>2024-12-16T15:02:43.999Z</time>
      </trkpt>
      <trkpt lat="48.81533" lon="1.87844">
        <ele>77</ele>
        <time>2024-12-16T15:02:48.991Z</time>
      </trkpt>
      <trkpt lat="48.8153" lon="1.87837">
        <ele>77</ele>
        <time>2024-12-16T15:02:53.499Z</time>
      </trkpt>
      <trkpt lat="48.81524" lon="1.87832">
        <ele>77</ele>
        <time>2024-12-16T15:02:57.937Z</time>
      </trkpt>
      <trkpt lat="48.8152" lon="1.8783">
        <ele>77</ele>
        <time>2024-12-16T15:03:02.207Z</time>
      </trkpt>
      <trkpt lat="48.81514" lon="1.87825">
        <ele>77</ele>
        <time>2024-12-16T15:03:06.795Z</time>
      </trkpt>
      <trkpt lat="48.8151" lon="1.8782">
        <ele>76</ele>
        <time>2024-12-16T15:03:10.992Z</time>
      </trkpt>
      <trkpt lat="48.81505" lon="1.87816">
        <ele>76</ele>
        <time>2024-12-16T15:03:15.521Z</time>
      </trkpt>
      <trkpt lat="48.81501" lon="1.87811">
        <ele>76</ele>
        <time>2024-12-16T15:03:19.991Z</time>
      </trkpt>
      <trkpt lat="48.81501" lon="1.87803">
        <ele>76</ele>
        <time>2024-12-16T15:03:24.535Z</time>
      </trkpt>
      <trkpt lat="48.81501" lon="1.87795">
        <ele>76</ele>
        <time>2024-12-16T15:03:28.595Z</time>
      </trkpt>
      <trkpt lat="48.81501" lon="1.87788">
        <ele>76</ele>
        <time>2024-12-16T15:03:32.680Z</time>
      </trkpt>
      <trkpt lat="48.81505" lon="1.87782">
        <ele>76</ele>
        <time>2024-12-16T15:03:37.156Z</time>
      </trkpt>
      <trkpt lat="48.81508" lon="1.87774">
        <ele>76</ele>
        <time>2024-12-16T15:03:41.637Z</time>
      </trkpt>
      <trkpt lat="48.81512" lon="1.87766">
        <ele>76</ele>
        <time>2024-12-16T15:03:46.035Z</time>
      </trkpt>
      <trkpt lat="48.81516" lon="1.8776">
        <ele>76</ele>
        <time>2024-12-16T15:03:50.512Z</time>
      </trkpt>
      <trkpt lat="48.81525" lon="1.87754">
        <ele>76</ele>
        <time>2024-12-16T15:03:59.991Z</time>
      </trkpt>
      <trkpt lat="48.81526" lon="1.87753">
        <ele>76</ele>
        <time>2024-12-16T15:04:04.992Z</time>
      </trkpt>
      <trkpt lat="48.81525" lon="1.87751">
        <ele>76</ele>
        <time>2024-12-16T15:04:09.991Z</time>
      </trkpt>
      <trkpt lat="48.81526" lon="1.8775">
        <ele>76</ele>
        <time>2024-12-16T15:04:14.818Z</time>
      </trkpt>
      <trkpt lat="48.81524" lon="1.87743">
        <ele>76</ele>
        <time>2024-12-16T15:04:19.198Z</time>
      </trkpt>
      <trkpt lat="48.81517" lon="1.87738">
        <ele>76</ele>
        <time>2024-12-16T15:04:23.995Z</time>
      </trkpt>
      <trkpt lat="48.81511" lon="1.87735">
        <ele>77</ele>
        <time>2024-12-16T15:04:28.532Z</time>
      </trkpt>
      <trkpt lat="48.81509" lon="1.87726">
        <ele>77</ele>
        <time>2024-12-16T15:04:32.992Z</time>
      </trkpt>
      <trkpt lat="48.81513" lon="1.87718">
        <ele>77</ele>
        <time>2024-12-16T15:04:37.991Z</time>
      </trkpt>
      <trkpt lat="48.81513" lon="1.87714">
        <ele>77</ele>
        <time>2024-12-16T15:04:42.195Z</time>
      </trkpt>
      <trkpt lat="48.81506" lon="1.87706">
        <ele>77</ele>
        <time>2024-12-16T15:04:46.919Z</time>
      </trkpt>
      <trkpt lat="48.81503" lon="1.87709">
        <ele>77</ele>
        <time>2024-12-16T15:04:50.991Z</time>
      </trkpt>
      <trkpt lat="48.81503" lon="1.87711">
        <ele>77</ele>
        <time>2024-12-16T15:04:55.380Z</time>
      </trkpt>
    </trkseg>
  </trk>
</gpx>